﻿<?xml version="1.0" encoding="UTF-8" standalone="no" ?>
<gpx xmlns="http://www.topografix.com/GPX/1/1" creator="CompeGPS" version="1.1" xmlns:xsi="http://www.w3.org/2001/XMLSchema-instance" xsi:schemaLocation="http://www.topografix.com/GPX/1/1 http://www.topografix.com/GPX/1/1/gpx.xsd http://www.garmin.com/xmlschemas/GpxExtensions/v3 http://www.garmin.com/xmlschemas/GpxExtensionsv3.xsd http://www.garmin.com/xmlschemas/TrackPointExtension/v1 http://www.garmin.com/xmlschemas/TrackPointExtensionv1.xsd" xmlns:gpxtpx="http://www.garmin.com/xmlschemas/TrackPointExtension/v1">
  <metadata>
    <link href="http://www.compegps.com">
      <text>CompeGPS TEAM, SL</text>
    </link>
    <time>2013-09-08T10:13:52Z</time>
    <bounds maxlat="46.421112" maxlon="7.106921" minlat="46.376545" minlon="7.041417"/>
  </metadata>
  <trk>
    <name>2013-06-16-01_vtt_hongrin</name>
    <trkseg>
      <trkpt lat="46.419557" lon="7.106921">
        <ele>1384.6</ele>
        <time>2013-06-16T09:11:02Z</time>
      </trkpt>
      <trkpt lat="46.419923" lon="7.106786">
        <ele>1388.6</ele>
        <time>2013-06-16T09:11:02Z</time>
      </trkpt>
      <trkpt lat="46.419829" lon="7.106057">
        <ele>1390.0</ele>
        <time>2013-06-16T09:11:02Z</time>
      </trkpt>
      <trkpt lat="46.419689" lon="7.105262">
        <ele>1389.7</ele>
        <time>2013-06-16T09:11:02Z</time>
      </trkpt>
      <trkpt lat="46.419411" lon="7.104202">
        <ele>1384.9</ele>
        <time>2013-06-16T09:11:02Z</time>
      </trkpt>
      <trkpt lat="46.419545" lon="7.103074">
        <ele>1378.5</ele>
        <time>2013-06-16T09:11:02Z</time>
      </trkpt>
      <trkpt lat="46.419816" lon="7.101912">
        <ele>1371.0</ele>
        <time>2013-06-16T09:11:02Z</time>
      </trkpt>
      <trkpt lat="46.420203" lon="7.101014">
        <ele>1367.5</ele>
        <time>2013-06-16T09:11:02Z</time>
      </trkpt>
      <trkpt lat="46.420292" lon="7.100151">
        <ele>1364.6</ele>
        <time>2013-06-16T09:11:02Z</time>
      </trkpt>
      <trkpt lat="46.420221" lon="7.099555">
        <ele>1360.8</ele>
        <time>2013-06-16T09:11:02Z</time>
      </trkpt>
      <trkpt lat="46.420012" lon="7.098462">
        <ele>1351.1</ele>
        <time>2013-06-16T09:11:02Z</time>
      </trkpt>
      <trkpt lat="46.419939" lon="7.097268">
        <ele>1352.6</ele>
        <time>2013-06-16T09:11:02Z</time>
      </trkpt>
      <trkpt lat="46.420004" lon="7.096074">
        <ele>1352.6</ele>
        <time>2013-06-16T09:11:02Z</time>
      </trkpt>
      <trkpt lat="46.419817" lon="7.095048">
        <ele>1340.2</ele>
        <time>2013-06-16T09:11:02Z</time>
        <sat>7</sat>
      </trkpt>
      <trkpt lat="46.419812" lon="7.094970">
        <ele>1340.2</ele>
        <time>2013-06-16T09:11:03Z</time>
        <sat>7</sat>
      </trkpt>
      <trkpt lat="46.419805" lon="7.094893">
        <ele>1340.2</ele>
        <time>2013-06-16T09:11:04Z</time>
        <sat>7</sat>
      </trkpt>
      <trkpt lat="46.419802" lon="7.094815">
        <ele>1340.2</ele>
        <time>2013-06-16T09:11:05Z</time>
        <sat>7</sat>
      </trkpt>
      <trkpt lat="46.419805" lon="7.094737">
        <ele>1340.1</ele>
        <time>2013-06-16T09:11:06Z</time>
        <sat>7</sat>
      </trkpt>
      <trkpt lat="46.419810" lon="7.094657">
        <ele>1340.1</ele>
        <time>2013-06-16T09:11:07Z</time>
        <sat>7</sat>
      </trkpt>
      <trkpt lat="46.419817" lon="7.094577">
        <ele>1340.0</ele>
        <time>2013-06-16T09:11:08Z</time>
        <sat>7</sat>
      </trkpt>
      <trkpt lat="46.419825" lon="7.094497">
        <ele>1340.0</ele>
        <time>2013-06-16T09:11:09Z</time>
        <sat>7</sat>
      </trkpt>
      <trkpt lat="46.419837" lon="7.094420">
        <ele>1340.4</ele>
        <time>2013-06-16T09:11:10Z</time>
        <sat>7</sat>
      </trkpt>
      <trkpt lat="46.419852" lon="7.094345">
        <ele>1340.7</ele>
        <time>2013-06-16T09:11:11Z</time>
        <sat>7</sat>
      </trkpt>
      <trkpt lat="46.419860" lon="7.094269">
        <ele>1340.8</ele>
        <time>2013-06-16T09:11:12Z</time>
        <sat>7</sat>
      </trkpt>
      <trkpt lat="46.419860" lon="7.094190">
        <ele>1341.0</ele>
        <time>2013-06-16T09:11:13Z</time>
        <sat>7</sat>
      </trkpt>
      <trkpt lat="46.419858" lon="7.094113">
        <ele>1341.1</ele>
        <time>2013-06-16T09:11:14Z</time>
        <sat>7</sat>
      </trkpt>
      <trkpt lat="46.419863" lon="7.094037">
        <ele>1341.4</ele>
        <time>2013-06-16T09:11:15Z</time>
        <sat>7</sat>
      </trkpt>
      <trkpt lat="46.419873" lon="7.093962">
        <ele>1341.7</ele>
        <time>2013-06-16T09:11:16Z</time>
        <sat>7</sat>
      </trkpt>
      <trkpt lat="46.419884" lon="7.093890">
        <ele>1342.1</ele>
        <time>2013-06-16T09:11:17Z</time>
        <sat>7</sat>
      </trkpt>
      <trkpt lat="46.419892" lon="7.093817">
        <ele>1342.3</ele>
        <time>2013-06-16T09:11:18Z</time>
        <sat>7</sat>
      </trkpt>
      <trkpt lat="46.419897" lon="7.093745">
        <ele>1341.9</ele>
        <time>2013-06-16T09:11:19Z</time>
        <sat>7</sat>
      </trkpt>
      <trkpt lat="46.419905" lon="7.093673">
        <ele>1341.6</ele>
        <time>2013-06-16T09:11:20Z</time>
        <sat>7</sat>
      </trkpt>
      <trkpt lat="46.419915" lon="7.093602">
        <ele>1341.3</ele>
        <time>2013-06-16T09:11:21Z</time>
        <sat>7</sat>
      </trkpt>
      <trkpt lat="46.419923" lon="7.093528">
        <ele>1340.8</ele>
        <time>2013-06-16T09:11:22Z</time>
        <sat>7</sat>
      </trkpt>
      <trkpt lat="46.419932" lon="7.093457">
        <ele>1340.4</ele>
        <time>2013-06-16T09:11:23Z</time>
        <sat>7</sat>
      </trkpt>
      <trkpt lat="46.419943" lon="7.093383">
        <ele>1341.0</ele>
        <time>2013-06-16T09:11:24Z</time>
        <sat>7</sat>
      </trkpt>
      <trkpt lat="46.419953" lon="7.093310">
        <ele>1341.4</ele>
        <time>2013-06-16T09:11:25Z</time>
        <sat>7</sat>
      </trkpt>
      <trkpt lat="46.419962" lon="7.093235">
        <ele>1341.4</ele>
        <time>2013-06-16T09:11:26Z</time>
        <sat>7</sat>
      </trkpt>
      <trkpt lat="46.419968" lon="7.093160">
        <ele>1341.3</ele>
        <time>2013-06-16T09:11:27Z</time>
        <sat>7</sat>
      </trkpt>
      <trkpt lat="46.419977" lon="7.093083">
        <ele>1341.3</ele>
        <time>2013-06-16T09:11:28Z</time>
        <sat>7</sat>
      </trkpt>
      <trkpt lat="46.419985" lon="7.093007">
        <ele>1341.4</ele>
        <time>2013-06-16T09:11:29Z</time>
        <sat>7</sat>
      </trkpt>
      <trkpt lat="46.419993" lon="7.092930">
        <ele>1341.5</ele>
        <time>2013-06-16T09:11:30Z</time>
        <sat>7</sat>
      </trkpt>
      <trkpt lat="46.420003" lon="7.092852">
        <ele>1341.1</ele>
        <time>2013-06-16T09:11:31Z</time>
        <sat>7</sat>
      </trkpt>
      <trkpt lat="46.420012" lon="7.092773">
        <ele>1340.9</ele>
        <time>2013-06-16T09:11:32Z</time>
        <sat>7</sat>
      </trkpt>
      <trkpt lat="46.420020" lon="7.092695">
        <ele>1340.7</ele>
        <time>2013-06-16T09:11:33Z</time>
        <sat>7</sat>
      </trkpt>
      <trkpt lat="46.420028" lon="7.092617">
        <ele>1340.6</ele>
        <time>2013-06-16T09:11:34Z</time>
        <sat>7</sat>
      </trkpt>
      <trkpt lat="46.420037" lon="7.092540">
        <ele>1340.5</ele>
        <time>2013-06-16T09:11:35Z</time>
        <sat>7</sat>
      </trkpt>
      <trkpt lat="46.420043" lon="7.092463">
        <ele>1340.6</ele>
        <time>2013-06-16T09:11:36Z</time>
        <sat>7</sat>
      </trkpt>
      <trkpt lat="46.420053" lon="7.092390">
        <ele>1340.7</ele>
        <time>2013-06-16T09:11:37Z</time>
        <sat>7</sat>
      </trkpt>
      <trkpt lat="46.420060" lon="7.092317">
        <ele>1341.3</ele>
        <time>2013-06-16T09:11:38Z</time>
        <sat>7</sat>
      </trkpt>
      <trkpt lat="46.420068" lon="7.092245">
        <ele>1341.8</ele>
        <time>2013-06-16T09:11:39Z</time>
        <sat>7</sat>
      </trkpt>
      <trkpt lat="46.420077" lon="7.092175">
        <ele>1342.1</ele>
        <time>2013-06-16T09:11:40Z</time>
        <sat>7</sat>
      </trkpt>
      <trkpt lat="46.420085" lon="7.092107">
        <ele>1342.2</ele>
        <time>2013-06-16T09:11:41Z</time>
        <sat>7</sat>
      </trkpt>
      <trkpt lat="46.420090" lon="7.092040">
        <ele>1342.2</ele>
        <time>2013-06-16T09:11:42Z</time>
        <sat>7</sat>
      </trkpt>
      <trkpt lat="46.420095" lon="7.091912">
        <ele>1343.1</ele>
        <time>2013-06-16T09:11:44Z</time>
        <sat>7</sat>
      </trkpt>
      <trkpt lat="46.420097" lon="7.091792">
        <ele>1343.0</ele>
        <time>2013-06-16T09:11:46Z</time>
        <sat>7</sat>
      </trkpt>
      <trkpt lat="46.420097" lon="7.091682">
        <ele>1343.2</ele>
        <time>2013-06-16T09:11:48Z</time>
        <sat>7</sat>
      </trkpt>
      <trkpt lat="46.420092" lon="7.091578">
        <ele>1343.7</ele>
        <time>2013-06-16T09:11:50Z</time>
        <sat>7</sat>
      </trkpt>
      <trkpt lat="46.420085" lon="7.091477">
        <ele>1344.2</ele>
        <time>2013-06-16T09:11:52Z</time>
        <sat>7</sat>
      </trkpt>
      <trkpt lat="46.420075" lon="7.091377">
        <ele>1344.6</ele>
        <time>2013-06-16T09:11:54Z</time>
        <sat>7</sat>
      </trkpt>
      <trkpt lat="46.420065" lon="7.091275">
        <ele>1345.2</ele>
        <time>2013-06-16T09:11:56Z</time>
        <sat>7</sat>
      </trkpt>
      <trkpt lat="46.420058" lon="7.091227">
        <ele>1345.0</ele>
        <time>2013-06-16T09:11:57Z</time>
        <sat>7</sat>
      </trkpt>
      <trkpt lat="46.420042" lon="7.091087">
        <ele>1345.0</ele>
        <time>2013-06-16T09:12:00Z</time>
        <sat>7</sat>
      </trkpt>
      <trkpt lat="46.420030" lon="7.090995">
        <ele>1345.5</ele>
        <time>2013-06-16T09:12:02Z</time>
        <sat>7</sat>
      </trkpt>
      <trkpt lat="46.420020" lon="7.090895">
        <ele>1346.2</ele>
        <time>2013-06-16T09:12:04Z</time>
        <sat>7</sat>
      </trkpt>
      <trkpt lat="46.420012" lon="7.090792">
        <ele>1346.7</ele>
        <time>2013-06-16T09:12:06Z</time>
        <sat>7</sat>
      </trkpt>
      <trkpt lat="46.420000" lon="7.090688">
        <ele>1347.3</ele>
        <time>2013-06-16T09:12:08Z</time>
        <sat>7</sat>
      </trkpt>
      <trkpt lat="46.419992" lon="7.090585">
        <ele>1347.7</ele>
        <time>2013-06-16T09:12:10Z</time>
        <sat>7</sat>
      </trkpt>
      <trkpt lat="46.419983" lon="7.090482">
        <ele>1348.2</ele>
        <time>2013-06-16T09:12:12Z</time>
        <sat>7</sat>
      </trkpt>
      <trkpt lat="46.419980" lon="7.090380">
        <ele>1349.1</ele>
        <time>2013-06-16T09:12:14Z</time>
        <sat>7</sat>
      </trkpt>
      <trkpt lat="46.419983" lon="7.090277">
        <ele>1349.7</ele>
        <time>2013-06-16T09:12:16Z</time>
        <sat>7</sat>
      </trkpt>
      <trkpt lat="46.419988" lon="7.090175">
        <ele>1350.0</ele>
        <time>2013-06-16T09:12:18Z</time>
        <sat>7</sat>
      </trkpt>
      <trkpt lat="46.419997" lon="7.090075">
        <ele>1350.0</ele>
        <time>2013-06-16T09:12:20Z</time>
        <sat>7</sat>
      </trkpt>
      <trkpt lat="46.420007" lon="7.089978">
        <ele>1350.8</ele>
        <time>2013-06-16T09:12:22Z</time>
        <sat>7</sat>
      </trkpt>
      <trkpt lat="46.420015" lon="7.089882">
        <ele>1350.7</ele>
        <time>2013-06-16T09:12:24Z</time>
        <sat>7</sat>
      </trkpt>
      <trkpt lat="46.420025" lon="7.089785">
        <ele>1351.0</ele>
        <time>2013-06-16T09:12:26Z</time>
        <sat>7</sat>
      </trkpt>
      <trkpt lat="46.420042" lon="7.089690">
        <ele>1351.2</ele>
        <time>2013-06-16T09:12:28Z</time>
        <sat>7</sat>
      </trkpt>
      <trkpt lat="46.420060" lon="7.089598">
        <ele>1351.3</ele>
        <time>2013-06-16T09:12:30Z</time>
        <sat>7</sat>
      </trkpt>
      <trkpt lat="46.420080" lon="7.089507">
        <ele>1352.1</ele>
        <time>2013-06-16T09:12:32Z</time>
        <sat>7</sat>
      </trkpt>
      <trkpt lat="46.420098" lon="7.089412">
        <ele>1352.7</ele>
        <time>2013-06-16T09:12:34Z</time>
        <sat>7</sat>
      </trkpt>
      <trkpt lat="46.420117" lon="7.089317">
        <ele>1353.1</ele>
        <time>2013-06-16T09:12:36Z</time>
        <sat>7</sat>
      </trkpt>
      <trkpt lat="46.420133" lon="7.089222">
        <ele>1353.3</ele>
        <time>2013-06-16T09:12:38Z</time>
        <sat>7</sat>
      </trkpt>
      <trkpt lat="46.420152" lon="7.089130">
        <ele>1353.5</ele>
        <time>2013-06-16T09:12:40Z</time>
        <sat>7</sat>
      </trkpt>
      <trkpt lat="46.420173" lon="7.089048">
        <ele>1353.7</ele>
        <time>2013-06-16T09:12:42Z</time>
        <sat>7</sat>
      </trkpt>
      <trkpt lat="46.420190" lon="7.088963">
        <ele>1353.8</ele>
        <time>2013-06-16T09:12:44Z</time>
        <sat>7</sat>
      </trkpt>
      <trkpt lat="46.420205" lon="7.088877">
        <ele>1353.9</ele>
        <time>2013-06-16T09:12:46Z</time>
        <sat>7</sat>
      </trkpt>
      <trkpt lat="46.420218" lon="7.088785">
        <ele>1354.4</ele>
        <time>2013-06-16T09:12:48Z</time>
        <sat>7</sat>
      </trkpt>
      <trkpt lat="46.420230" lon="7.088695">
        <ele>1355.2</ele>
        <time>2013-06-16T09:12:50Z</time>
        <sat>7</sat>
      </trkpt>
      <trkpt lat="46.420240" lon="7.088603">
        <ele>1355.5</ele>
        <time>2013-06-16T09:12:52Z</time>
        <sat>7</sat>
      </trkpt>
      <trkpt lat="46.420245" lon="7.088513">
        <ele>1355.9</ele>
        <time>2013-06-16T09:12:54Z</time>
        <sat>7</sat>
      </trkpt>
      <trkpt lat="46.420248" lon="7.088387">
        <ele>1356.3</ele>
        <time>2013-06-16T09:12:57Z</time>
        <sat>7</sat>
      </trkpt>
      <trkpt lat="46.420248" lon="7.088343">
        <ele>1356.2</ele>
        <time>2013-06-16T09:12:58Z</time>
        <sat>7</sat>
      </trkpt>
      <trkpt lat="46.420237" lon="7.088140">
        <ele>1356.0</ele>
        <time>2013-06-16T09:13:03Z</time>
        <sat>8</sat>
      </trkpt>
      <trkpt lat="46.420232" lon="7.088027">
        <ele>1357.3</ele>
        <time>2013-06-16T09:13:06Z</time>
        <sat>8</sat>
      </trkpt>
      <trkpt lat="46.420212" lon="7.087910">
        <ele>1358.6</ele>
        <time>2013-06-16T09:13:09Z</time>
        <sat>8</sat>
      </trkpt>
      <trkpt lat="46.420188" lon="7.087797">
        <ele>1359.0</ele>
        <time>2013-06-16T09:13:12Z</time>
        <sat>8</sat>
      </trkpt>
      <trkpt lat="46.420163" lon="7.087682">
        <ele>1358.2</ele>
        <time>2013-06-16T09:13:15Z</time>
        <sat>8</sat>
      </trkpt>
      <trkpt lat="46.420130" lon="7.087573">
        <ele>1358.9</ele>
        <time>2013-06-16T09:13:18Z</time>
        <sat>8</sat>
      </trkpt>
      <trkpt lat="46.420095" lon="7.087472">
        <ele>1359.8</ele>
        <time>2013-06-16T09:13:21Z</time>
        <sat>8</sat>
      </trkpt>
      <trkpt lat="46.420057" lon="7.087373">
        <ele>1360.0</ele>
        <time>2013-06-16T09:13:24Z</time>
        <sat>8</sat>
      </trkpt>
      <trkpt lat="46.420022" lon="7.087273">
        <ele>1358.9</ele>
        <time>2013-06-16T09:13:27Z</time>
        <sat>8</sat>
      </trkpt>
      <trkpt lat="46.419980" lon="7.087173">
        <ele>1359.2</ele>
        <time>2013-06-16T09:13:30Z</time>
        <sat>8</sat>
      </trkpt>
      <trkpt lat="46.419942" lon="7.087072">
        <ele>1360.1</ele>
        <time>2013-06-16T09:13:33Z</time>
        <sat>8</sat>
      </trkpt>
      <trkpt lat="46.419908" lon="7.086965">
        <ele>1361.0</ele>
        <time>2013-06-16T09:13:36Z</time>
        <sat>8</sat>
      </trkpt>
      <trkpt lat="46.419875" lon="7.086860">
        <ele>1360.6</ele>
        <time>2013-06-16T09:13:39Z</time>
        <sat>8</sat>
      </trkpt>
      <trkpt lat="46.419845" lon="7.086750">
        <ele>1361.4</ele>
        <time>2013-06-16T09:13:42Z</time>
        <sat>8</sat>
      </trkpt>
      <trkpt lat="46.419825" lon="7.086637">
        <ele>1362.4</ele>
        <time>2013-06-16T09:13:45Z</time>
        <sat>8</sat>
      </trkpt>
      <trkpt lat="46.419815" lon="7.086523">
        <ele>1361.2</ele>
        <time>2013-06-16T09:13:48Z</time>
        <sat>8</sat>
      </trkpt>
      <trkpt lat="46.419817" lon="7.086405">
        <ele>1362.6</ele>
        <time>2013-06-16T09:13:51Z</time>
        <sat>8</sat>
      </trkpt>
      <trkpt lat="46.419818" lon="7.086285">
        <ele>1363.1</ele>
        <time>2013-06-16T09:13:54Z</time>
        <sat>8</sat>
      </trkpt>
      <trkpt lat="46.419833" lon="7.086163">
        <ele>1363.0</ele>
        <time>2013-06-16T09:13:57Z</time>
        <sat>8</sat>
      </trkpt>
      <trkpt lat="46.419847" lon="7.086078">
        <ele>1363.8</ele>
        <time>2013-06-16T09:13:59Z</time>
        <sat>8</sat>
      </trkpt>
      <trkpt lat="46.419858" lon="7.086037">
        <ele>1364.1</ele>
        <time>2013-06-16T09:14:00Z</time>
        <sat>8</sat>
      </trkpt>
      <trkpt lat="46.419888" lon="7.085908">
        <ele>1364.5</ele>
        <time>2013-06-16T09:14:03Z</time>
        <sat>8</sat>
      </trkpt>
      <trkpt lat="46.419913" lon="7.085822">
        <ele>1364.8</ele>
        <time>2013-06-16T09:14:05Z</time>
        <sat>8</sat>
      </trkpt>
      <trkpt lat="46.419945" lon="7.085740">
        <ele>1364.9</ele>
        <time>2013-06-16T09:14:07Z</time>
        <sat>8</sat>
      </trkpt>
      <trkpt lat="46.419977" lon="7.085658">
        <ele>1364.9</ele>
        <time>2013-06-16T09:14:09Z</time>
        <sat>8</sat>
      </trkpt>
      <trkpt lat="46.420007" lon="7.085575">
        <ele>1365.1</ele>
        <time>2013-06-16T09:14:11Z</time>
        <sat>8</sat>
      </trkpt>
      <trkpt lat="46.420033" lon="7.085490">
        <ele>1365.3</ele>
        <time>2013-06-16T09:14:13Z</time>
        <sat>8</sat>
      </trkpt>
      <trkpt lat="46.420058" lon="7.085403">
        <ele>1365.4</ele>
        <time>2013-06-16T09:14:15Z</time>
        <sat>8</sat>
      </trkpt>
      <trkpt lat="46.420087" lon="7.085315">
        <ele>1365.8</ele>
        <time>2013-06-16T09:14:17Z</time>
        <sat>8</sat>
      </trkpt>
      <trkpt lat="46.420112" lon="7.085223">
        <ele>1366.3</ele>
        <time>2013-06-16T09:14:19Z</time>
        <sat>8</sat>
      </trkpt>
      <trkpt lat="46.420138" lon="7.085128">
        <ele>1366.4</ele>
        <time>2013-06-16T09:14:21Z</time>
        <sat>8</sat>
      </trkpt>
      <trkpt lat="46.420165" lon="7.085033">
        <ele>1367.0</ele>
        <time>2013-06-16T09:14:23Z</time>
        <sat>8</sat>
      </trkpt>
      <trkpt lat="46.420193" lon="7.084938">
        <ele>1366.7</ele>
        <time>2013-06-16T09:14:25Z</time>
        <sat>8</sat>
      </trkpt>
      <trkpt lat="46.420222" lon="7.084843">
        <ele>1366.5</ele>
        <time>2013-06-16T09:14:27Z</time>
        <sat>8</sat>
      </trkpt>
      <trkpt lat="46.420250" lon="7.084750">
        <ele>1366.8</ele>
        <time>2013-06-16T09:14:29Z</time>
        <sat>8</sat>
      </trkpt>
      <trkpt lat="46.420277" lon="7.084658">
        <ele>1367.3</ele>
        <time>2013-06-16T09:14:31Z</time>
        <sat>8</sat>
      </trkpt>
      <trkpt lat="46.420305" lon="7.084562">
        <ele>1367.6</ele>
        <time>2013-06-16T09:14:33Z</time>
        <sat>8</sat>
      </trkpt>
      <trkpt lat="46.420330" lon="7.084465">
        <ele>1367.4</ele>
        <time>2013-06-16T09:14:35Z</time>
        <sat>8</sat>
      </trkpt>
      <trkpt lat="46.420362" lon="7.084368">
        <ele>1367.6</ele>
        <time>2013-06-16T09:14:37Z</time>
        <sat>8</sat>
      </trkpt>
      <trkpt lat="46.420390" lon="7.084270">
        <ele>1367.6</ele>
        <time>2013-06-16T09:14:39Z</time>
        <sat>8</sat>
      </trkpt>
      <trkpt lat="46.420420" lon="7.084173">
        <ele>1367.8</ele>
        <time>2013-06-16T09:14:41Z</time>
        <sat>8</sat>
      </trkpt>
      <trkpt lat="46.420450" lon="7.084075">
        <ele>1368.1</ele>
        <time>2013-06-16T09:14:43Z</time>
        <sat>8</sat>
      </trkpt>
      <trkpt lat="46.420483" lon="7.083978">
        <ele>1368.3</ele>
        <time>2013-06-16T09:14:45Z</time>
        <sat>8</sat>
      </trkpt>
      <trkpt lat="46.420510" lon="7.083877">
        <ele>1368.3</ele>
        <time>2013-06-16T09:14:47Z</time>
        <sat>8</sat>
      </trkpt>
      <trkpt lat="46.420535" lon="7.083773">
        <ele>1368.7</ele>
        <time>2013-06-16T09:14:49Z</time>
        <sat>8</sat>
      </trkpt>
      <trkpt lat="46.420562" lon="7.083673">
        <ele>1368.8</ele>
        <time>2013-06-16T09:14:51Z</time>
        <sat>8</sat>
      </trkpt>
      <trkpt lat="46.420590" lon="7.083577">
        <ele>1368.9</ele>
        <time>2013-06-16T09:14:53Z</time>
        <sat>8</sat>
      </trkpt>
      <trkpt lat="46.420622" lon="7.083478">
        <ele>1369.2</ele>
        <time>2013-06-16T09:14:55Z</time>
        <sat>8</sat>
      </trkpt>
      <trkpt lat="46.420655" lon="7.083378">
        <ele>1369.4</ele>
        <time>2013-06-16T09:14:57Z</time>
        <sat>8</sat>
      </trkpt>
      <trkpt lat="46.420687" lon="7.083277">
        <ele>1369.1</ele>
        <time>2013-06-16T09:14:59Z</time>
        <sat>8</sat>
      </trkpt>
      <trkpt lat="46.420712" lon="7.083172">
        <ele>1369.3</ele>
        <time>2013-06-16T09:15:01Z</time>
        <sat>8</sat>
      </trkpt>
      <trkpt lat="46.420723" lon="7.083120">
        <ele>1369.9</ele>
        <time>2013-06-16T09:15:02Z</time>
        <sat>8</sat>
      </trkpt>
      <trkpt lat="46.420757" lon="7.082962">
        <ele>1370.3</ele>
        <time>2013-06-16T09:15:05Z</time>
        <sat>8</sat>
      </trkpt>
      <trkpt lat="46.420770" lon="7.082850">
        <ele>1370.1</ele>
        <time>2013-06-16T09:15:07Z</time>
        <sat>8</sat>
      </trkpt>
      <trkpt lat="46.420783" lon="7.082738">
        <ele>1370.5</ele>
        <time>2013-06-16T09:15:09Z</time>
        <sat>8</sat>
      </trkpt>
      <trkpt lat="46.420792" lon="7.082623">
        <ele>1371.0</ele>
        <time>2013-06-16T09:15:11Z</time>
        <sat>8</sat>
      </trkpt>
      <trkpt lat="46.420797" lon="7.082510">
        <ele>1370.9</ele>
        <time>2013-06-16T09:15:13Z</time>
        <sat>8</sat>
      </trkpt>
      <trkpt lat="46.420793" lon="7.082395">
        <ele>1371.3</ele>
        <time>2013-06-16T09:15:15Z</time>
        <sat>8</sat>
      </trkpt>
      <trkpt lat="46.420788" lon="7.082282">
        <ele>1371.4</ele>
        <time>2013-06-16T09:15:17Z</time>
        <sat>8</sat>
      </trkpt>
      <trkpt lat="46.420777" lon="7.082167">
        <ele>1371.2</ele>
        <time>2013-06-16T09:15:19Z</time>
        <sat>8</sat>
      </trkpt>
      <trkpt lat="46.420762" lon="7.082053">
        <ele>1371.3</ele>
        <time>2013-06-16T09:15:21Z</time>
        <sat>8</sat>
      </trkpt>
      <trkpt lat="46.420743" lon="7.081940">
        <ele>1371.7</ele>
        <time>2013-06-16T09:15:23Z</time>
        <sat>8</sat>
      </trkpt>
      <trkpt lat="46.420725" lon="7.081827">
        <ele>1372.0</ele>
        <time>2013-06-16T09:15:25Z</time>
        <sat>8</sat>
      </trkpt>
      <trkpt lat="46.420707" lon="7.081717">
        <ele>1372.3</ele>
        <time>2013-06-16T09:15:27Z</time>
        <sat>8</sat>
      </trkpt>
      <trkpt lat="46.420687" lon="7.081610">
        <ele>1372.6</ele>
        <time>2013-06-16T09:15:29Z</time>
        <sat>8</sat>
      </trkpt>
      <trkpt lat="46.420670" lon="7.081505">
        <ele>1372.9</ele>
        <time>2013-06-16T09:15:31Z</time>
        <sat>8</sat>
      </trkpt>
      <trkpt lat="46.420660" lon="7.081400">
        <ele>1373.2</ele>
        <time>2013-06-16T09:15:33Z</time>
        <sat>8</sat>
      </trkpt>
      <trkpt lat="46.420652" lon="7.081293">
        <ele>1373.4</ele>
        <time>2013-06-16T09:15:35Z</time>
        <sat>8</sat>
      </trkpt>
      <trkpt lat="46.420653" lon="7.081185">
        <ele>1373.9</ele>
        <time>2013-06-16T09:15:37Z</time>
        <sat>8</sat>
      </trkpt>
      <trkpt lat="46.420660" lon="7.081077">
        <ele>1373.9</ele>
        <time>2013-06-16T09:15:39Z</time>
        <sat>8</sat>
      </trkpt>
      <trkpt lat="46.420670" lon="7.080970">
        <ele>1373.7</ele>
        <time>2013-06-16T09:15:41Z</time>
        <sat>8</sat>
      </trkpt>
      <trkpt lat="46.420680" lon="7.080867">
        <ele>1373.6</ele>
        <time>2013-06-16T09:15:43Z</time>
        <sat>8</sat>
      </trkpt>
      <trkpt lat="46.420688" lon="7.080763">
        <ele>1373.7</ele>
        <time>2013-06-16T09:15:45Z</time>
        <sat>8</sat>
      </trkpt>
      <trkpt lat="46.420698" lon="7.080657">
        <ele>1374.2</ele>
        <time>2013-06-16T09:15:47Z</time>
        <sat>8</sat>
      </trkpt>
      <trkpt lat="46.420703" lon="7.080550">
        <ele>1374.6</ele>
        <time>2013-06-16T09:15:49Z</time>
        <sat>8</sat>
      </trkpt>
      <trkpt lat="46.420708" lon="7.080447">
        <ele>1374.6</ele>
        <time>2013-06-16T09:15:51Z</time>
        <sat>8</sat>
      </trkpt>
      <trkpt lat="46.420712" lon="7.080347">
        <ele>1374.9</ele>
        <time>2013-06-16T09:15:53Z</time>
        <sat>8</sat>
      </trkpt>
      <trkpt lat="46.420717" lon="7.080245">
        <ele>1374.5</ele>
        <time>2013-06-16T09:15:55Z</time>
        <sat>8</sat>
      </trkpt>
      <trkpt lat="46.420723" lon="7.080145">
        <ele>1374.2</ele>
        <time>2013-06-16T09:15:57Z</time>
        <sat>8</sat>
      </trkpt>
      <trkpt lat="46.420732" lon="7.080043">
        <ele>1374.7</ele>
        <time>2013-06-16T09:15:59Z</time>
        <sat>8</sat>
      </trkpt>
      <trkpt lat="46.420740" lon="7.079937">
        <ele>1375.4</ele>
        <time>2013-06-16T09:16:01Z</time>
        <sat>8</sat>
      </trkpt>
      <trkpt lat="46.420748" lon="7.079830">
        <ele>1375.4</ele>
        <time>2013-06-16T09:16:03Z</time>
        <sat>8</sat>
      </trkpt>
      <trkpt lat="46.420752" lon="7.079777">
        <ele>1375.5</ele>
        <time>2013-06-16T09:16:04Z</time>
        <sat>8</sat>
      </trkpt>
      <trkpt lat="46.420758" lon="7.079613">
        <ele>1376.3</ele>
        <time>2013-06-16T09:16:07Z</time>
        <sat>8</sat>
      </trkpt>
      <trkpt lat="46.420765" lon="7.079505">
        <ele>1376.7</ele>
        <time>2013-06-16T09:16:09Z</time>
        <sat>8</sat>
      </trkpt>
      <trkpt lat="46.420768" lon="7.079395">
        <ele>1377.0</ele>
        <time>2013-06-16T09:16:11Z</time>
        <sat>8</sat>
      </trkpt>
      <trkpt lat="46.420773" lon="7.079283">
        <ele>1377.4</ele>
        <time>2013-06-16T09:16:13Z</time>
        <sat>8</sat>
      </trkpt>
      <trkpt lat="46.420772" lon="7.079175">
        <ele>1377.6</ele>
        <time>2013-06-16T09:16:15Z</time>
        <sat>8</sat>
      </trkpt>
      <trkpt lat="46.420767" lon="7.079083">
        <ele>1378.2</ele>
        <time>2013-06-16T09:16:17Z</time>
        <sat>8</sat>
      </trkpt>
      <trkpt lat="46.420760" lon="7.078985">
        <ele>1377.3</ele>
        <time>2013-06-16T09:16:19Z</time>
        <sat>8</sat>
      </trkpt>
      <trkpt lat="46.420758" lon="7.078878">
        <ele>1377.7</ele>
        <time>2013-06-16T09:16:21Z</time>
        <sat>8</sat>
      </trkpt>
      <trkpt lat="46.420758" lon="7.078763">
        <ele>1378.1</ele>
        <time>2013-06-16T09:16:23Z</time>
        <sat>8</sat>
      </trkpt>
      <trkpt lat="46.420757" lon="7.078650">
        <ele>1378.1</ele>
        <time>2013-06-16T09:16:25Z</time>
        <sat>8</sat>
      </trkpt>
      <trkpt lat="46.420750" lon="7.078535">
        <ele>1378.2</ele>
        <time>2013-06-16T09:16:27Z</time>
        <sat>8</sat>
      </trkpt>
      <trkpt lat="46.420747" lon="7.078418">
        <ele>1378.6</ele>
        <time>2013-06-16T09:16:29Z</time>
        <sat>8</sat>
      </trkpt>
      <trkpt lat="46.420747" lon="7.078303">
        <ele>1378.7</ele>
        <time>2013-06-16T09:16:31Z</time>
        <sat>8</sat>
      </trkpt>
      <trkpt lat="46.420747" lon="7.078188">
        <ele>1379.0</ele>
        <time>2013-06-16T09:16:33Z</time>
        <sat>8</sat>
      </trkpt>
      <trkpt lat="46.420752" lon="7.078072">
        <ele>1379.2</ele>
        <time>2013-06-16T09:16:35Z</time>
        <sat>8</sat>
      </trkpt>
      <trkpt lat="46.420762" lon="7.077955">
        <ele>1379.4</ele>
        <time>2013-06-16T09:16:37Z</time>
        <sat>8</sat>
      </trkpt>
      <trkpt lat="46.420775" lon="7.077843">
        <ele>1379.4</ele>
        <time>2013-06-16T09:16:39Z</time>
        <sat>8</sat>
      </trkpt>
      <trkpt lat="46.420793" lon="7.077737">
        <ele>1378.6</ele>
        <time>2013-06-16T09:16:41Z</time>
        <sat>8</sat>
      </trkpt>
      <trkpt lat="46.420822" lon="7.077635">
        <ele>1379.6</ele>
        <time>2013-06-16T09:16:43Z</time>
        <sat>8</sat>
      </trkpt>
      <trkpt lat="46.420855" lon="7.077532">
        <ele>1379.1</ele>
        <time>2013-06-16T09:16:45Z</time>
        <sat>8</sat>
      </trkpt>
      <trkpt lat="46.420890" lon="7.077427">
        <ele>1379.2</ele>
        <time>2013-06-16T09:16:47Z</time>
        <sat>8</sat>
      </trkpt>
      <trkpt lat="46.420927" lon="7.077327">
        <ele>1379.7</ele>
        <time>2013-06-16T09:16:49Z</time>
        <sat>8</sat>
      </trkpt>
      <trkpt lat="46.420965" lon="7.077233">
        <ele>1380.1</ele>
        <time>2013-06-16T09:16:51Z</time>
        <sat>8</sat>
      </trkpt>
      <trkpt lat="46.420997" lon="7.077145">
        <ele>1380.3</ele>
        <time>2013-06-16T09:16:53Z</time>
        <sat>8</sat>
      </trkpt>
      <trkpt lat="46.421027" lon="7.077052">
        <ele>1381.2</ele>
        <time>2013-06-16T09:16:55Z</time>
        <sat>8</sat>
      </trkpt>
      <trkpt lat="46.421052" lon="7.076954">
        <ele>1381.7</ele>
        <time>2013-06-16T09:16:57Z</time>
        <sat>8</sat>
      </trkpt>
      <trkpt lat="46.421075" lon="7.076850">
        <ele>1381.8</ele>
        <time>2013-06-16T09:16:59Z</time>
        <sat>8</sat>
      </trkpt>
      <trkpt lat="46.421093" lon="7.076742">
        <ele>1382.1</ele>
        <time>2013-06-16T09:17:01Z</time>
        <sat>8</sat>
      </trkpt>
      <trkpt lat="46.421107" lon="7.076633">
        <ele>1382.4</ele>
        <time>2013-06-16T09:17:03Z</time>
        <sat>8</sat>
      </trkpt>
      <trkpt lat="46.421110" lon="7.076525">
        <ele>1382.4</ele>
        <time>2013-06-16T09:17:05Z</time>
        <sat>8</sat>
      </trkpt>
      <trkpt lat="46.421112" lon="7.076470">
        <ele>1382.0</ele>
        <time>2013-06-16T09:17:06Z</time>
        <sat>8</sat>
      </trkpt>
      <trkpt lat="46.421105" lon="7.076308">
        <ele>1382.3</ele>
        <time>2013-06-16T09:17:09Z</time>
        <sat>8</sat>
      </trkpt>
      <trkpt lat="46.421097" lon="7.076200">
        <ele>1382.4</ele>
        <time>2013-06-16T09:17:11Z</time>
        <sat>8</sat>
      </trkpt>
      <trkpt lat="46.421080" lon="7.076090">
        <ele>1382.8</ele>
        <time>2013-06-16T09:17:13Z</time>
        <sat>8</sat>
      </trkpt>
      <trkpt lat="46.421053" lon="7.075983">
        <ele>1383.4</ele>
        <time>2013-06-16T09:17:15Z</time>
        <sat>8</sat>
      </trkpt>
      <trkpt lat="46.421022" lon="7.075882">
        <ele>1383.9</ele>
        <time>2013-06-16T09:17:17Z</time>
        <sat>8</sat>
      </trkpt>
      <trkpt lat="46.420988" lon="7.075783">
        <ele>1384.4</ele>
        <time>2013-06-16T09:17:19Z</time>
        <sat>8</sat>
      </trkpt>
      <trkpt lat="46.420948" lon="7.075692">
        <ele>1384.2</ele>
        <time>2013-06-16T09:17:21Z</time>
        <sat>8</sat>
      </trkpt>
      <trkpt lat="46.420912" lon="7.075595">
        <ele>1383.8</ele>
        <time>2013-06-16T09:17:23Z</time>
        <sat>8</sat>
      </trkpt>
      <trkpt lat="46.420880" lon="7.075495">
        <ele>1383.4</ele>
        <time>2013-06-16T09:17:25Z</time>
        <sat>8</sat>
      </trkpt>
      <trkpt lat="46.420848" lon="7.075395">
        <ele>1383.6</ele>
        <time>2013-06-16T09:17:27Z</time>
        <sat>8</sat>
      </trkpt>
      <trkpt lat="46.420823" lon="7.075293">
        <ele>1384.1</ele>
        <time>2013-06-16T09:17:29Z</time>
        <sat>8</sat>
      </trkpt>
      <trkpt lat="46.420803" lon="7.075187">
        <ele>1384.5</ele>
        <time>2013-06-16T09:17:31Z</time>
        <sat>8</sat>
      </trkpt>
      <trkpt lat="46.420792" lon="7.075082">
        <ele>1384.1</ele>
        <time>2013-06-16T09:17:33Z</time>
        <sat>8</sat>
      </trkpt>
      <trkpt lat="46.420778" lon="7.074977">
        <ele>1384.2</ele>
        <time>2013-06-16T09:17:35Z</time>
        <sat>8</sat>
      </trkpt>
      <trkpt lat="46.420762" lon="7.074873">
        <ele>1384.5</ele>
        <time>2013-06-16T09:17:37Z</time>
        <sat>8</sat>
      </trkpt>
      <trkpt lat="46.420750" lon="7.074768">
        <ele>1384.8</ele>
        <time>2013-06-16T09:17:39Z</time>
        <sat>8</sat>
      </trkpt>
      <trkpt lat="46.420735" lon="7.074678">
        <ele>1385.0</ele>
        <time>2013-06-16T09:17:41Z</time>
        <sat>8</sat>
      </trkpt>
      <trkpt lat="46.420723" lon="7.074593">
        <ele>1385.2</ele>
        <time>2013-06-16T09:17:43Z</time>
        <sat>8</sat>
      </trkpt>
      <trkpt lat="46.420715" lon="7.074503">
        <ele>1385.8</ele>
        <time>2013-06-16T09:17:45Z</time>
        <sat>8</sat>
      </trkpt>
      <trkpt lat="46.420703" lon="7.074410">
        <ele>1386.3</ele>
        <time>2013-06-16T09:17:47Z</time>
        <sat>8</sat>
      </trkpt>
      <trkpt lat="46.420687" lon="7.074310">
        <ele>1385.8</ele>
        <time>2013-06-16T09:17:49Z</time>
        <sat>8</sat>
      </trkpt>
      <trkpt lat="46.420663" lon="7.074205">
        <ele>1386.0</ele>
        <time>2013-06-16T09:17:51Z</time>
        <sat>8</sat>
      </trkpt>
      <trkpt lat="46.420638" lon="7.074098">
        <ele>1386.4</ele>
        <time>2013-06-16T09:17:53Z</time>
        <sat>8</sat>
      </trkpt>
      <trkpt lat="46.420607" lon="7.073997">
        <ele>1386.5</ele>
        <time>2013-06-16T09:17:55Z</time>
        <sat>8</sat>
      </trkpt>
      <trkpt lat="46.420570" lon="7.073900">
        <ele>1386.3</ele>
        <time>2013-06-16T09:17:57Z</time>
        <sat>8</sat>
      </trkpt>
      <trkpt lat="46.420523" lon="7.073810">
        <ele>1386.8</ele>
        <time>2013-06-16T09:17:59Z</time>
        <sat>8</sat>
      </trkpt>
      <trkpt lat="46.420473" lon="7.073723">
        <ele>1387.4</ele>
        <time>2013-06-16T09:18:01Z</time>
        <sat>8</sat>
      </trkpt>
      <trkpt lat="46.420422" lon="7.073640">
        <ele>1387.4</ele>
        <time>2013-06-16T09:18:03Z</time>
        <sat>8</sat>
      </trkpt>
      <trkpt lat="46.420363" lon="7.073563">
        <ele>1387.5</ele>
        <time>2013-06-16T09:18:05Z</time>
        <sat>8</sat>
      </trkpt>
      <trkpt lat="46.420303" lon="7.073495">
        <ele>1388.1</ele>
        <time>2013-06-16T09:18:07Z</time>
        <sat>8</sat>
      </trkpt>
      <trkpt lat="46.420273" lon="7.073463">
        <ele>1388.3</ele>
        <time>2013-06-16T09:18:08Z</time>
        <sat>8</sat>
      </trkpt>
      <trkpt lat="46.420177" lon="7.073377">
        <ele>1388.1</ele>
        <time>2013-06-16T09:18:11Z</time>
        <sat>8</sat>
      </trkpt>
      <trkpt lat="46.420107" lon="7.073330">
        <ele>1388.1</ele>
        <time>2013-06-16T09:18:13Z</time>
        <sat>8</sat>
      </trkpt>
      <trkpt lat="46.420033" lon="7.073292">
        <ele>1388.7</ele>
        <time>2013-06-16T09:18:15Z</time>
        <sat>8</sat>
      </trkpt>
      <trkpt lat="46.419957" lon="7.073265">
        <ele>1389.9</ele>
        <time>2013-06-16T09:18:17Z</time>
        <sat>8</sat>
      </trkpt>
      <trkpt lat="46.419882" lon="7.073235">
        <ele>1390.5</ele>
        <time>2013-06-16T09:18:19Z</time>
        <sat>8</sat>
      </trkpt>
      <trkpt lat="46.419803" lon="7.073202">
        <ele>1390.5</ele>
        <time>2013-06-16T09:18:21Z</time>
        <sat>8</sat>
      </trkpt>
      <trkpt lat="46.419725" lon="7.073172">
        <ele>1390.2</ele>
        <time>2013-06-16T09:18:23Z</time>
        <sat>8</sat>
      </trkpt>
      <trkpt lat="46.419645" lon="7.073138">
        <ele>1389.9</ele>
        <time>2013-06-16T09:18:25Z</time>
        <sat>8</sat>
      </trkpt>
      <trkpt lat="46.419565" lon="7.073113">
        <ele>1390.8</ele>
        <time>2013-06-16T09:18:27Z</time>
        <sat>8</sat>
      </trkpt>
      <trkpt lat="46.419487" lon="7.073080">
        <ele>1390.7</ele>
        <time>2013-06-16T09:18:29Z</time>
        <sat>8</sat>
      </trkpt>
      <trkpt lat="46.419412" lon="7.073047">
        <ele>1390.3</ele>
        <time>2013-06-16T09:18:31Z</time>
        <sat>8</sat>
      </trkpt>
      <trkpt lat="46.419335" lon="7.073013">
        <ele>1390.3</ele>
        <time>2013-06-16T09:18:33Z</time>
        <sat>8</sat>
      </trkpt>
      <trkpt lat="46.419257" lon="7.072982">
        <ele>1390.7</ele>
        <time>2013-06-16T09:18:35Z</time>
        <sat>8</sat>
      </trkpt>
      <trkpt lat="46.419175" lon="7.072948">
        <ele>1390.6</ele>
        <time>2013-06-16T09:18:37Z</time>
        <sat>8</sat>
      </trkpt>
      <trkpt lat="46.419090" lon="7.072915">
        <ele>1391.1</ele>
        <time>2013-06-16T09:18:39Z</time>
        <sat>8</sat>
      </trkpt>
      <trkpt lat="46.419045" lon="7.072898">
        <ele>1391.2</ele>
        <time>2013-06-16T09:18:40Z</time>
        <sat>8</sat>
      </trkpt>
      <trkpt lat="46.419000" lon="7.072878">
        <ele>1391.4</ele>
        <time>2013-06-16T09:18:41Z</time>
        <sat>8</sat>
      </trkpt>
      <trkpt lat="46.418953" lon="7.072858">
        <ele>1391.5</ele>
        <time>2013-06-16T09:18:42Z</time>
        <sat>8</sat>
      </trkpt>
      <trkpt lat="46.418908" lon="7.072835">
        <ele>1391.2</ele>
        <time>2013-06-16T09:18:43Z</time>
        <sat>8</sat>
      </trkpt>
      <trkpt lat="46.418860" lon="7.072813">
        <ele>1391.1</ele>
        <time>2013-06-16T09:18:44Z</time>
        <sat>8</sat>
      </trkpt>
      <trkpt lat="46.418810" lon="7.072795">
        <ele>1391.2</ele>
        <time>2013-06-16T09:18:45Z</time>
        <sat>8</sat>
      </trkpt>
      <trkpt lat="46.418760" lon="7.072778">
        <ele>1391.3</ele>
        <time>2013-06-16T09:18:46Z</time>
        <sat>8</sat>
      </trkpt>
      <trkpt lat="46.418710" lon="7.072755">
        <ele>1391.3</ele>
        <time>2013-06-16T09:18:47Z</time>
        <sat>8</sat>
      </trkpt>
      <trkpt lat="46.418660" lon="7.072732">
        <ele>1390.9</ele>
        <time>2013-06-16T09:18:48Z</time>
        <sat>8</sat>
      </trkpt>
      <trkpt lat="46.418613" lon="7.072700">
        <ele>1390.5</ele>
        <time>2013-06-16T09:18:49Z</time>
        <sat>8</sat>
      </trkpt>
      <trkpt lat="46.418568" lon="7.072663">
        <ele>1390.2</ele>
        <time>2013-06-16T09:18:50Z</time>
        <sat>8</sat>
      </trkpt>
      <trkpt lat="46.418525" lon="7.072620">
        <ele>1390.0</ele>
        <time>2013-06-16T09:18:51Z</time>
        <sat>8</sat>
      </trkpt>
      <trkpt lat="46.418483" lon="7.072573">
        <ele>1389.8</ele>
        <time>2013-06-16T09:18:52Z</time>
        <sat>8</sat>
      </trkpt>
      <trkpt lat="46.418442" lon="7.072522">
        <ele>1390.2</ele>
        <time>2013-06-16T09:18:53Z</time>
        <sat>8</sat>
      </trkpt>
      <trkpt lat="46.418402" lon="7.072468">
        <ele>1390.5</ele>
        <time>2013-06-16T09:18:54Z</time>
        <sat>8</sat>
      </trkpt>
      <trkpt lat="46.418360" lon="7.072418">
        <ele>1389.9</ele>
        <time>2013-06-16T09:18:55Z</time>
        <sat>8</sat>
      </trkpt>
      <trkpt lat="46.418322" lon="7.072363">
        <ele>1389.4</ele>
        <time>2013-06-16T09:18:56Z</time>
        <sat>8</sat>
      </trkpt>
      <trkpt lat="46.418287" lon="7.072308">
        <ele>1389.5</ele>
        <time>2013-06-16T09:18:57Z</time>
        <sat>8</sat>
      </trkpt>
      <trkpt lat="46.418252" lon="7.072253">
        <ele>1389.5</ele>
        <time>2013-06-16T09:18:58Z</time>
        <sat>8</sat>
      </trkpt>
      <trkpt lat="46.418215" lon="7.072203">
        <ele>1389.6</ele>
        <time>2013-06-16T09:18:59Z</time>
        <sat>8</sat>
      </trkpt>
      <trkpt lat="46.418180" lon="7.072150">
        <ele>1389.3</ele>
        <time>2013-06-16T09:19:00Z</time>
        <sat>8</sat>
      </trkpt>
      <trkpt lat="46.418148" lon="7.072095">
        <ele>1389.1</ele>
        <time>2013-06-16T09:19:01Z</time>
        <sat>8</sat>
      </trkpt>
      <trkpt lat="46.418115" lon="7.072042">
        <ele>1389.2</ele>
        <time>2013-06-16T09:19:02Z</time>
        <sat>8</sat>
      </trkpt>
      <trkpt lat="46.418083" lon="7.071990">
        <ele>1389.2</ele>
        <time>2013-06-16T09:19:03Z</time>
        <sat>8</sat>
      </trkpt>
      <trkpt lat="46.418050" lon="7.071940">
        <ele>1389.4</ele>
        <time>2013-06-16T09:19:04Z</time>
        <sat>8</sat>
      </trkpt>
      <trkpt lat="46.418017" lon="7.071890">
        <ele>1389.5</ele>
        <time>2013-06-16T09:19:05Z</time>
        <sat>8</sat>
      </trkpt>
      <trkpt lat="46.417985" lon="7.071840">
        <ele>1389.6</ele>
        <time>2013-06-16T09:19:06Z</time>
        <sat>8</sat>
      </trkpt>
      <trkpt lat="46.417955" lon="7.071790">
        <ele>1389.2</ele>
        <time>2013-06-16T09:19:07Z</time>
        <sat>8</sat>
      </trkpt>
      <trkpt lat="46.417923" lon="7.071738">
        <ele>1388.9</ele>
        <time>2013-06-16T09:19:08Z</time>
        <sat>8</sat>
      </trkpt>
      <trkpt lat="46.417888" lon="7.071685">
        <ele>1388.8</ele>
        <time>2013-06-16T09:19:09Z</time>
        <sat>8</sat>
      </trkpt>
      <trkpt lat="46.417853" lon="7.071630">
        <ele>1388.7</ele>
        <time>2013-06-16T09:19:10Z</time>
        <sat>8</sat>
      </trkpt>
      <trkpt lat="46.417815" lon="7.071575">
        <ele>1388.6</ele>
        <time>2013-06-16T09:19:11Z</time>
        <sat>8</sat>
      </trkpt>
      <trkpt lat="46.417773" lon="7.071523">
        <ele>1388.5</ele>
        <time>2013-06-16T09:19:12Z</time>
        <sat>8</sat>
      </trkpt>
      <trkpt lat="46.417730" lon="7.071473">
        <ele>1388.5</ele>
        <time>2013-06-16T09:19:13Z</time>
        <sat>8</sat>
      </trkpt>
      <trkpt lat="46.417683" lon="7.071423">
        <ele>1388.7</ele>
        <time>2013-06-16T09:19:14Z</time>
        <sat>8</sat>
      </trkpt>
      <trkpt lat="46.417633" lon="7.071378">
        <ele>1388.8</ele>
        <time>2013-06-16T09:19:15Z</time>
        <sat>8</sat>
      </trkpt>
      <trkpt lat="46.417582" lon="7.071337">
        <ele>1388.4</ele>
        <time>2013-06-16T09:19:16Z</time>
        <sat>8</sat>
      </trkpt>
      <trkpt lat="46.417527" lon="7.071298">
        <ele>1388.2</ele>
        <time>2013-06-16T09:19:17Z</time>
        <sat>8</sat>
      </trkpt>
      <trkpt lat="46.417472" lon="7.071263">
        <ele>1388.0</ele>
        <time>2013-06-16T09:19:18Z</time>
        <sat>8</sat>
      </trkpt>
      <trkpt lat="46.417415" lon="7.071237">
        <ele>1387.6</ele>
        <time>2013-06-16T09:19:19Z</time>
        <sat>8</sat>
      </trkpt>
      <trkpt lat="46.417355" lon="7.071215">
        <ele>1387.3</ele>
        <time>2013-06-16T09:19:20Z</time>
        <sat>8</sat>
      </trkpt>
      <trkpt lat="46.417293" lon="7.071197">
        <ele>1387.0</ele>
        <time>2013-06-16T09:19:21Z</time>
        <sat>8</sat>
      </trkpt>
      <trkpt lat="46.417230" lon="7.071178">
        <ele>1386.8</ele>
        <time>2013-06-16T09:19:22Z</time>
        <sat>8</sat>
      </trkpt>
      <trkpt lat="46.417165" lon="7.071162">
        <ele>1386.6</ele>
        <time>2013-06-16T09:19:23Z</time>
        <sat>8</sat>
      </trkpt>
      <trkpt lat="46.417100" lon="7.071142">
        <ele>1386.5</ele>
        <time>2013-06-16T09:19:24Z</time>
        <sat>8</sat>
      </trkpt>
      <trkpt lat="46.417035" lon="7.071122">
        <ele>1386.5</ele>
        <time>2013-06-16T09:19:25Z</time>
        <sat>8</sat>
      </trkpt>
      <trkpt lat="46.416970" lon="7.071100">
        <ele>1386.2</ele>
        <time>2013-06-16T09:19:26Z</time>
        <sat>8</sat>
      </trkpt>
      <trkpt lat="46.416903" lon="7.071080">
        <ele>1386.1</ele>
        <time>2013-06-16T09:19:27Z</time>
        <sat>8</sat>
      </trkpt>
      <trkpt lat="46.416838" lon="7.071058">
        <ele>1385.8</ele>
        <time>2013-06-16T09:19:28Z</time>
        <sat>8</sat>
      </trkpt>
      <trkpt lat="46.416772" lon="7.071037">
        <ele>1385.7</ele>
        <time>2013-06-16T09:19:29Z</time>
        <sat>8</sat>
      </trkpt>
      <trkpt lat="46.416707" lon="7.071015">
        <ele>1385.5</ele>
        <time>2013-06-16T09:19:30Z</time>
        <sat>8</sat>
      </trkpt>
      <trkpt lat="46.416643" lon="7.070993">
        <ele>1385.6</ele>
        <time>2013-06-16T09:19:31Z</time>
        <sat>8</sat>
      </trkpt>
      <trkpt lat="46.416580" lon="7.070972">
        <ele>1385.6</ele>
        <time>2013-06-16T09:19:32Z</time>
        <sat>8</sat>
      </trkpt>
      <trkpt lat="46.416517" lon="7.070948">
        <ele>1385.2</ele>
        <time>2013-06-16T09:19:33Z</time>
        <sat>8</sat>
      </trkpt>
      <trkpt lat="46.416452" lon="7.070925">
        <ele>1384.9</ele>
        <time>2013-06-16T09:19:34Z</time>
        <sat>8</sat>
      </trkpt>
      <trkpt lat="46.416387" lon="7.070903">
        <ele>1385.1</ele>
        <time>2013-06-16T09:19:35Z</time>
        <sat>8</sat>
      </trkpt>
      <trkpt lat="46.416323" lon="7.070882">
        <ele>1385.3</ele>
        <time>2013-06-16T09:19:36Z</time>
        <sat>8</sat>
      </trkpt>
      <trkpt lat="46.416258" lon="7.070862">
        <ele>1385.4</ele>
        <time>2013-06-16T09:19:37Z</time>
        <sat>8</sat>
      </trkpt>
      <trkpt lat="46.416195" lon="7.070840">
        <ele>1385.4</ele>
        <time>2013-06-16T09:19:38Z</time>
        <sat>8</sat>
      </trkpt>
      <trkpt lat="46.416133" lon="7.070820">
        <ele>1385.5</ele>
        <time>2013-06-16T09:19:39Z</time>
        <sat>8</sat>
      </trkpt>
      <trkpt lat="46.416072" lon="7.070797">
        <ele>1385.2</ele>
        <time>2013-06-16T09:19:40Z</time>
        <sat>8</sat>
      </trkpt>
      <trkpt lat="46.416010" lon="7.070770">
        <ele>1385.0</ele>
        <time>2013-06-16T09:19:41Z</time>
        <sat>8</sat>
      </trkpt>
      <trkpt lat="46.415952" lon="7.070738">
        <ele>1384.9</ele>
        <time>2013-06-16T09:19:42Z</time>
        <sat>8</sat>
      </trkpt>
      <trkpt lat="46.415893" lon="7.070702">
        <ele>1385.1</ele>
        <time>2013-06-16T09:19:43Z</time>
        <sat>8</sat>
      </trkpt>
      <trkpt lat="46.415838" lon="7.070658">
        <ele>1385.3</ele>
        <time>2013-06-16T09:19:44Z</time>
        <sat>8</sat>
      </trkpt>
      <trkpt lat="46.415785" lon="7.070610">
        <ele>1385.3</ele>
        <time>2013-06-16T09:19:45Z</time>
        <sat>8</sat>
      </trkpt>
      <trkpt lat="46.415735" lon="7.070555">
        <ele>1385.3</ele>
        <time>2013-06-16T09:19:46Z</time>
        <sat>8</sat>
      </trkpt>
      <trkpt lat="46.415687" lon="7.070493">
        <ele>1385.6</ele>
        <time>2013-06-16T09:19:47Z</time>
        <sat>8</sat>
      </trkpt>
      <trkpt lat="46.415640" lon="7.070430">
        <ele>1385.9</ele>
        <time>2013-06-16T09:19:48Z</time>
        <sat>8</sat>
      </trkpt>
      <trkpt lat="46.415595" lon="7.070360">
        <ele>1386.1</ele>
        <time>2013-06-16T09:19:49Z</time>
        <sat>8</sat>
      </trkpt>
      <trkpt lat="46.415557" lon="7.070287">
        <ele>1386.2</ele>
        <time>2013-06-16T09:19:50Z</time>
        <sat>8</sat>
      </trkpt>
      <trkpt lat="46.415520" lon="7.070208">
        <ele>1386.3</ele>
        <time>2013-06-16T09:19:51Z</time>
        <sat>8</sat>
      </trkpt>
      <trkpt lat="46.415488" lon="7.070127">
        <ele>1386.1</ele>
        <time>2013-06-16T09:19:52Z</time>
        <sat>8</sat>
      </trkpt>
      <trkpt lat="46.415463" lon="7.070042">
        <ele>1386.0</ele>
        <time>2013-06-16T09:19:53Z</time>
        <sat>8</sat>
      </trkpt>
      <trkpt lat="46.415440" lon="7.069955">
        <ele>1386.1</ele>
        <time>2013-06-16T09:19:54Z</time>
        <sat>8</sat>
      </trkpt>
      <trkpt lat="46.415422" lon="7.069862">
        <ele>1386.2</ele>
        <time>2013-06-16T09:19:55Z</time>
        <sat>8</sat>
      </trkpt>
      <trkpt lat="46.415407" lon="7.069765">
        <ele>1386.3</ele>
        <time>2013-06-16T09:19:56Z</time>
        <sat>8</sat>
      </trkpt>
      <trkpt lat="46.415397" lon="7.069665">
        <ele>1386.1</ele>
        <time>2013-06-16T09:19:57Z</time>
        <sat>8</sat>
      </trkpt>
      <trkpt lat="46.415392" lon="7.069562">
        <ele>1385.9</ele>
        <time>2013-06-16T09:19:58Z</time>
        <sat>8</sat>
      </trkpt>
      <trkpt lat="46.415392" lon="7.069458">
        <ele>1385.8</ele>
        <time>2013-06-16T09:19:59Z</time>
        <sat>8</sat>
      </trkpt>
      <trkpt lat="46.415397" lon="7.069353">
        <ele>1385.7</ele>
        <time>2013-06-16T09:20:00Z</time>
        <sat>8</sat>
      </trkpt>
      <trkpt lat="46.415410" lon="7.069250">
        <ele>1385.4</ele>
        <time>2013-06-16T09:20:01Z</time>
        <sat>7</sat>
      </trkpt>
      <trkpt lat="46.415435" lon="7.069150">
        <ele>1385.1</ele>
        <time>2013-06-16T09:20:02Z</time>
        <sat>6</sat>
      </trkpt>
      <trkpt lat="46.415463" lon="7.069048">
        <ele>1385.0</ele>
        <time>2013-06-16T09:20:03Z</time>
        <sat>6</sat>
      </trkpt>
      <trkpt lat="46.415495" lon="7.068948">
        <ele>1384.8</ele>
        <time>2013-06-16T09:20:04Z</time>
        <sat>6</sat>
      </trkpt>
      <trkpt lat="46.415535" lon="7.068848">
        <ele>1384.8</ele>
        <time>2013-06-16T09:20:05Z</time>
        <sat>6</sat>
      </trkpt>
      <trkpt lat="46.415583" lon="7.068752">
        <ele>1384.3</ele>
        <time>2013-06-16T09:20:06Z</time>
        <sat>6</sat>
      </trkpt>
      <trkpt lat="46.415637" lon="7.068662">
        <ele>1383.9</ele>
        <time>2013-06-16T09:20:07Z</time>
        <sat>6</sat>
      </trkpt>
      <trkpt lat="46.415695" lon="7.068580">
        <ele>1383.7</ele>
        <time>2013-06-16T09:20:08Z</time>
        <sat>6</sat>
      </trkpt>
      <trkpt lat="46.415762" lon="7.068507">
        <ele>1383.6</ele>
        <time>2013-06-16T09:20:09Z</time>
        <sat>6</sat>
      </trkpt>
      <trkpt lat="46.415835" lon="7.068443">
        <ele>1383.5</ele>
        <time>2013-06-16T09:20:10Z</time>
        <sat>6</sat>
      </trkpt>
      <trkpt lat="46.415912" lon="7.068388">
        <ele>1383.4</ele>
        <time>2013-06-16T09:20:11Z</time>
        <sat>6</sat>
      </trkpt>
      <trkpt lat="46.415990" lon="7.068348">
        <ele>1383.4</ele>
        <time>2013-06-16T09:20:12Z</time>
        <sat>6</sat>
      </trkpt>
      <trkpt lat="46.416075" lon="7.068320">
        <ele>1383.0</ele>
        <time>2013-06-16T09:20:13Z</time>
        <sat>6</sat>
      </trkpt>
      <trkpt lat="46.416162" lon="7.068300">
        <ele>1382.7</ele>
        <time>2013-06-16T09:20:14Z</time>
        <sat>6</sat>
      </trkpt>
      <trkpt lat="46.416248" lon="7.068285">
        <ele>1382.4</ele>
        <time>2013-06-16T09:20:15Z</time>
        <sat>6</sat>
      </trkpt>
      <trkpt lat="46.416335" lon="7.068273">
        <ele>1382.3</ele>
        <time>2013-06-16T09:20:16Z</time>
        <sat>6</sat>
      </trkpt>
      <trkpt lat="46.416423" lon="7.068268">
        <ele>1382.2</ele>
        <time>2013-06-16T09:20:17Z</time>
        <sat>6</sat>
      </trkpt>
      <trkpt lat="46.416512" lon="7.068265">
        <ele>1382.1</ele>
        <time>2013-06-16T09:20:18Z</time>
        <sat>6</sat>
      </trkpt>
      <trkpt lat="46.416595" lon="7.068267">
        <ele>1382.1</ele>
        <time>2013-06-16T09:20:19Z</time>
        <sat>6</sat>
      </trkpt>
      <trkpt lat="46.416678" lon="7.068268">
        <ele>1382.1</ele>
        <time>2013-06-16T09:20:20Z</time>
        <sat>6</sat>
      </trkpt>
      <trkpt lat="46.416760" lon="7.068270">
        <ele>1382.1</ele>
        <time>2013-06-16T09:20:21Z</time>
        <sat>6</sat>
      </trkpt>
      <trkpt lat="46.416838" lon="7.068273">
        <ele>1382.1</ele>
        <time>2013-06-16T09:20:22Z</time>
        <sat>6</sat>
      </trkpt>
      <trkpt lat="46.416915" lon="7.068278">
        <ele>1382.3</ele>
        <time>2013-06-16T09:20:23Z</time>
        <sat>6</sat>
      </trkpt>
      <trkpt lat="46.416992" lon="7.068282">
        <ele>1382.5</ele>
        <time>2013-06-16T09:20:24Z</time>
        <sat>6</sat>
      </trkpt>
      <trkpt lat="46.417065" lon="7.068283">
        <ele>1382.3</ele>
        <time>2013-06-16T09:20:25Z</time>
        <sat>6</sat>
      </trkpt>
      <trkpt lat="46.417138" lon="7.068285">
        <ele>1382.2</ele>
        <time>2013-06-16T09:20:26Z</time>
        <sat>6</sat>
      </trkpt>
      <trkpt lat="46.417209" lon="7.068287">
        <ele>1382.0</ele>
        <time>2013-06-16T09:20:27Z</time>
        <sat>6</sat>
      </trkpt>
      <trkpt lat="46.417278" lon="7.068290">
        <ele>1382.4</ele>
        <time>2013-06-16T09:20:28Z</time>
        <sat>6</sat>
      </trkpt>
      <trkpt lat="46.417347" lon="7.068292">
        <ele>1382.7</ele>
        <time>2013-06-16T09:20:29Z</time>
        <sat>6</sat>
      </trkpt>
      <trkpt lat="46.417413" lon="7.068293">
        <ele>1382.5</ele>
        <time>2013-06-16T09:20:30Z</time>
        <sat>6</sat>
      </trkpt>
      <trkpt lat="46.417480" lon="7.068293">
        <ele>1382.3</ele>
        <time>2013-06-16T09:20:31Z</time>
        <sat>6</sat>
      </trkpt>
      <trkpt lat="46.417545" lon="7.068290">
        <ele>1382.2</ele>
        <time>2013-06-16T09:20:32Z</time>
        <sat>6</sat>
      </trkpt>
      <trkpt lat="46.417607" lon="7.068282">
        <ele>1382.2</ele>
        <time>2013-06-16T09:20:33Z</time>
        <sat>6</sat>
      </trkpt>
      <trkpt lat="46.417668" lon="7.068267">
        <ele>1382.1</ele>
        <time>2013-06-16T09:20:34Z</time>
        <sat>6</sat>
      </trkpt>
      <trkpt lat="46.417727" lon="7.068248">
        <ele>1382.5</ele>
        <time>2013-06-16T09:20:35Z</time>
        <sat>6</sat>
      </trkpt>
      <trkpt lat="46.417785" lon="7.068223">
        <ele>1382.8</ele>
        <time>2013-06-16T09:20:36Z</time>
        <sat>6</sat>
      </trkpt>
      <trkpt lat="46.417842" lon="7.068195">
        <ele>1382.7</ele>
        <time>2013-06-16T09:20:37Z</time>
        <sat>6</sat>
      </trkpt>
      <trkpt lat="46.417895" lon="7.068165">
        <ele>1382.5</ele>
        <time>2013-06-16T09:20:38Z</time>
        <sat>6</sat>
      </trkpt>
      <trkpt lat="46.417950" lon="7.068135">
        <ele>1382.8</ele>
        <time>2013-06-16T09:20:39Z</time>
        <sat>6</sat>
      </trkpt>
      <trkpt lat="46.418003" lon="7.068107">
        <ele>1382.9</ele>
        <time>2013-06-16T09:20:40Z</time>
        <sat>6</sat>
      </trkpt>
      <trkpt lat="46.418057" lon="7.068077">
        <ele>1383.0</ele>
        <time>2013-06-16T09:20:41Z</time>
        <sat>6</sat>
      </trkpt>
      <trkpt lat="46.418108" lon="7.068045">
        <ele>1382.8</ele>
        <time>2013-06-16T09:20:42Z</time>
        <sat>6</sat>
      </trkpt>
      <trkpt lat="46.418155" lon="7.068013">
        <ele>1382.6</ele>
        <time>2013-06-16T09:20:43Z</time>
        <sat>6</sat>
      </trkpt>
      <trkpt lat="46.418203" lon="7.067983">
        <ele>1383.1</ele>
        <time>2013-06-16T09:20:44Z</time>
        <sat>6</sat>
      </trkpt>
      <trkpt lat="46.418253" lon="7.067953">
        <ele>1383.5</ele>
        <time>2013-06-16T09:20:45Z</time>
        <sat>6</sat>
      </trkpt>
      <trkpt lat="46.418300" lon="7.067923">
        <ele>1383.8</ele>
        <time>2013-06-16T09:20:46Z</time>
        <sat>6</sat>
      </trkpt>
      <trkpt lat="46.418345" lon="7.067893">
        <ele>1383.6</ele>
        <time>2013-06-16T09:20:47Z</time>
        <sat>6</sat>
      </trkpt>
      <trkpt lat="46.418390" lon="7.067862">
        <ele>1383.5</ele>
        <time>2013-06-16T09:20:48Z</time>
        <sat>6</sat>
      </trkpt>
      <trkpt lat="46.418437" lon="7.067832">
        <ele>1383.7</ele>
        <time>2013-06-16T09:20:49Z</time>
        <sat>6</sat>
      </trkpt>
      <trkpt lat="46.418483" lon="7.067803">
        <ele>1383.9</ele>
        <time>2013-06-16T09:20:50Z</time>
        <sat>6</sat>
      </trkpt>
      <trkpt lat="46.418530" lon="7.067773">
        <ele>1383.8</ele>
        <time>2013-06-16T09:20:51Z</time>
        <sat>6</sat>
      </trkpt>
      <trkpt lat="46.418580" lon="7.067747">
        <ele>1383.8</ele>
        <time>2013-06-16T09:20:52Z</time>
        <sat>6</sat>
      </trkpt>
      <trkpt lat="46.418628" lon="7.067718">
        <ele>1383.8</ele>
        <time>2013-06-16T09:20:53Z</time>
        <sat>6</sat>
      </trkpt>
      <trkpt lat="46.418677" lon="7.067688">
        <ele>1384.0</ele>
        <time>2013-06-16T09:20:54Z</time>
        <sat>6</sat>
      </trkpt>
      <trkpt lat="46.418723" lon="7.067660">
        <ele>1384.2</ele>
        <time>2013-06-16T09:20:55Z</time>
        <sat>6</sat>
      </trkpt>
      <trkpt lat="46.418770" lon="7.067632">
        <ele>1384.1</ele>
        <time>2013-06-16T09:20:56Z</time>
        <sat>6</sat>
      </trkpt>
      <trkpt lat="46.418817" lon="7.067607">
        <ele>1384.0</ele>
        <time>2013-06-16T09:20:57Z</time>
        <sat>6</sat>
      </trkpt>
      <trkpt lat="46.418865" lon="7.067588">
        <ele>1384.3</ele>
        <time>2013-06-16T09:20:58Z</time>
        <sat>6</sat>
      </trkpt>
      <trkpt lat="46.418917" lon="7.067573">
        <ele>1384.5</ele>
        <time>2013-06-16T09:20:59Z</time>
        <sat>6</sat>
      </trkpt>
      <trkpt lat="46.418968" lon="7.067562">
        <ele>1384.6</ele>
        <time>2013-06-16T09:21:00Z</time>
        <sat>6</sat>
      </trkpt>
      <trkpt lat="46.419020" lon="7.067553">
        <ele>1384.6</ele>
        <time>2013-06-16T09:21:01Z</time>
        <sat>6</sat>
      </trkpt>
      <trkpt lat="46.419070" lon="7.067547">
        <ele>1384.7</ele>
        <time>2013-06-16T09:21:02Z</time>
        <sat>6</sat>
      </trkpt>
      <trkpt lat="46.419120" lon="7.067543">
        <ele>1384.5</ele>
        <time>2013-06-16T09:21:03Z</time>
        <sat>6</sat>
      </trkpt>
      <trkpt lat="46.419168" lon="7.067540">
        <ele>1384.4</ele>
        <time>2013-06-16T09:21:04Z</time>
        <sat>6</sat>
      </trkpt>
      <trkpt lat="46.419215" lon="7.067535">
        <ele>1384.8</ele>
        <time>2013-06-16T09:21:05Z</time>
        <sat>6</sat>
      </trkpt>
      <trkpt lat="46.419265" lon="7.067532">
        <ele>1385.1</ele>
        <time>2013-06-16T09:21:06Z</time>
        <sat>6</sat>
      </trkpt>
      <trkpt lat="46.419315" lon="7.067528">
        <ele>1385.3</ele>
        <time>2013-06-16T09:21:07Z</time>
        <sat>6</sat>
      </trkpt>
      <trkpt lat="46.419365" lon="7.067525">
        <ele>1385.3</ele>
        <time>2013-06-16T09:21:08Z</time>
        <sat>6</sat>
      </trkpt>
      <trkpt lat="46.419413" lon="7.067522">
        <ele>1385.4</ele>
        <time>2013-06-16T09:21:09Z</time>
        <sat>6</sat>
      </trkpt>
      <trkpt lat="46.419465" lon="7.067520">
        <ele>1385.5</ele>
        <time>2013-06-16T09:21:10Z</time>
        <sat>6</sat>
      </trkpt>
      <trkpt lat="46.419515" lon="7.067513">
        <ele>1385.6</ele>
        <time>2013-06-16T09:21:11Z</time>
        <sat>7</sat>
      </trkpt>
      <trkpt lat="46.419565" lon="7.067502">
        <ele>1385.7</ele>
        <time>2013-06-16T09:21:12Z</time>
        <sat>7</sat>
      </trkpt>
      <trkpt lat="46.419613" lon="7.067488">
        <ele>1385.5</ele>
        <time>2013-06-16T09:21:13Z</time>
        <sat>7</sat>
      </trkpt>
      <trkpt lat="46.419662" lon="7.067468">
        <ele>1385.4</ele>
        <time>2013-06-16T09:21:14Z</time>
        <sat>7</sat>
      </trkpt>
      <trkpt lat="46.419708" lon="7.067448">
        <ele>1385.5</ele>
        <time>2013-06-16T09:21:15Z</time>
        <sat>7</sat>
      </trkpt>
      <trkpt lat="46.419755" lon="7.067425">
        <ele>1385.6</ele>
        <time>2013-06-16T09:21:16Z</time>
        <sat>7</sat>
      </trkpt>
      <trkpt lat="46.419802" lon="7.067398">
        <ele>1385.6</ele>
        <time>2013-06-16T09:21:17Z</time>
        <sat>7</sat>
      </trkpt>
      <trkpt lat="46.419845" lon="7.067368">
        <ele>1385.6</ele>
        <time>2013-06-16T09:21:18Z</time>
        <sat>7</sat>
      </trkpt>
      <trkpt lat="46.419888" lon="7.067335">
        <ele>1385.6</ele>
        <time>2013-06-16T09:21:19Z</time>
        <sat>7</sat>
      </trkpt>
      <trkpt lat="46.419930" lon="7.067297">
        <ele>1385.6</ele>
        <time>2013-06-16T09:21:20Z</time>
        <sat>7</sat>
      </trkpt>
      <trkpt lat="46.419973" lon="7.067258">
        <ele>1385.7</ele>
        <time>2013-06-16T09:21:21Z</time>
        <sat>7</sat>
      </trkpt>
      <trkpt lat="46.420015" lon="7.067217">
        <ele>1385.7</ele>
        <time>2013-06-16T09:21:22Z</time>
        <sat>7</sat>
      </trkpt>
      <trkpt lat="46.420053" lon="7.067173">
        <ele>1385.7</ele>
        <time>2013-06-16T09:21:23Z</time>
        <sat>8</sat>
      </trkpt>
      <trkpt lat="46.420092" lon="7.067127">
        <ele>1385.8</ele>
        <time>2013-06-16T09:21:24Z</time>
        <sat>8</sat>
      </trkpt>
      <trkpt lat="46.420127" lon="7.067078">
        <ele>1385.8</ele>
        <time>2013-06-16T09:21:25Z</time>
        <sat>8</sat>
      </trkpt>
      <trkpt lat="46.420162" lon="7.067030">
        <ele>1385.9</ele>
        <time>2013-06-16T09:21:26Z</time>
        <sat>8</sat>
      </trkpt>
      <trkpt lat="46.420193" lon="7.066977">
        <ele>1386.0</ele>
        <time>2013-06-16T09:21:27Z</time>
        <sat>8</sat>
      </trkpt>
      <trkpt lat="46.420220" lon="7.066920">
        <ele>1386.2</ele>
        <time>2013-06-16T09:21:28Z</time>
        <sat>8</sat>
      </trkpt>
      <trkpt lat="46.420245" lon="7.066862">
        <ele>1386.7</ele>
        <time>2013-06-16T09:21:29Z</time>
        <sat>8</sat>
      </trkpt>
      <trkpt lat="46.420268" lon="7.066805">
        <ele>1387.1</ele>
        <time>2013-06-16T09:21:30Z</time>
        <sat>8</sat>
      </trkpt>
      <trkpt lat="46.420288" lon="7.066743">
        <ele>1387.4</ele>
        <time>2013-06-16T09:21:31Z</time>
        <sat>8</sat>
      </trkpt>
      <trkpt lat="46.420303" lon="7.066680">
        <ele>1387.1</ele>
        <time>2013-06-16T09:21:32Z</time>
        <sat>8</sat>
      </trkpt>
      <trkpt lat="46.420317" lon="7.066615">
        <ele>1386.8</ele>
        <time>2013-06-16T09:21:33Z</time>
        <sat>8</sat>
      </trkpt>
      <trkpt lat="46.420327" lon="7.066548">
        <ele>1387.0</ele>
        <time>2013-06-16T09:21:34Z</time>
        <sat>8</sat>
      </trkpt>
      <trkpt lat="46.420337" lon="7.066482">
        <ele>1387.2</ele>
        <time>2013-06-16T09:21:35Z</time>
        <sat>8</sat>
      </trkpt>
      <trkpt lat="46.420345" lon="7.066413">
        <ele>1387.3</ele>
        <time>2013-06-16T09:21:36Z</time>
        <sat>8</sat>
      </trkpt>
      <trkpt lat="46.420352" lon="7.066345">
        <ele>1387.3</ele>
        <time>2013-06-16T09:21:37Z</time>
        <sat>8</sat>
      </trkpt>
      <trkpt lat="46.420355" lon="7.066278">
        <ele>1387.4</ele>
        <time>2013-06-16T09:21:38Z</time>
        <sat>8</sat>
      </trkpt>
      <trkpt lat="46.420355" lon="7.066212">
        <ele>1387.2</ele>
        <time>2013-06-16T09:21:39Z</time>
        <sat>8</sat>
      </trkpt>
      <trkpt lat="46.420355" lon="7.066145">
        <ele>1387.0</ele>
        <time>2013-06-16T09:21:40Z</time>
        <sat>8</sat>
      </trkpt>
      <trkpt lat="46.420353" lon="7.066078">
        <ele>1387.1</ele>
        <time>2013-06-16T09:21:41Z</time>
        <sat>8</sat>
      </trkpt>
      <trkpt lat="46.420352" lon="7.066010">
        <ele>1387.2</ele>
        <time>2013-06-16T09:21:42Z</time>
        <sat>8</sat>
      </trkpt>
      <trkpt lat="46.420348" lon="7.065942">
        <ele>1387.3</ele>
        <time>2013-06-16T09:21:43Z</time>
        <sat>8</sat>
      </trkpt>
      <trkpt lat="46.420345" lon="7.065875">
        <ele>1387.3</ele>
        <time>2013-06-16T09:21:44Z</time>
        <sat>8</sat>
      </trkpt>
      <trkpt lat="46.420343" lon="7.065807">
        <ele>1387.4</ele>
        <time>2013-06-16T09:21:45Z</time>
        <sat>8</sat>
      </trkpt>
      <trkpt lat="46.420342" lon="7.065738">
        <ele>1387.4</ele>
        <time>2013-06-16T09:21:46Z</time>
        <sat>8</sat>
      </trkpt>
      <trkpt lat="46.420340" lon="7.065668">
        <ele>1387.4</ele>
        <time>2013-06-16T09:21:47Z</time>
        <sat>8</sat>
      </trkpt>
      <trkpt lat="46.420340" lon="7.065600">
        <ele>1387.6</ele>
        <time>2013-06-16T09:21:48Z</time>
        <sat>8</sat>
      </trkpt>
      <trkpt lat="46.420340" lon="7.065530">
        <ele>1387.8</ele>
        <time>2013-06-16T09:21:49Z</time>
        <sat>8</sat>
      </trkpt>
      <trkpt lat="46.420337" lon="7.065462">
        <ele>1387.9</ele>
        <time>2013-06-16T09:21:50Z</time>
        <sat>8</sat>
      </trkpt>
      <trkpt lat="46.420335" lon="7.065392">
        <ele>1388.1</ele>
        <time>2013-06-16T09:21:51Z</time>
        <sat>8</sat>
      </trkpt>
      <trkpt lat="46.420333" lon="7.065322">
        <ele>1388.2</ele>
        <time>2013-06-16T09:21:52Z</time>
        <sat>8</sat>
      </trkpt>
      <trkpt lat="46.420332" lon="7.065252">
        <ele>1388.4</ele>
        <time>2013-06-16T09:21:53Z</time>
        <sat>8</sat>
      </trkpt>
      <trkpt lat="46.420332" lon="7.065182">
        <ele>1388.5</ele>
        <time>2013-06-16T09:21:54Z</time>
        <sat>8</sat>
      </trkpt>
      <trkpt lat="46.420330" lon="7.065112">
        <ele>1388.3</ele>
        <time>2013-06-16T09:21:55Z</time>
        <sat>8</sat>
      </trkpt>
      <trkpt lat="46.420327" lon="7.065042">
        <ele>1388.2</ele>
        <time>2013-06-16T09:21:56Z</time>
        <sat>8</sat>
      </trkpt>
      <trkpt lat="46.420325" lon="7.064972">
        <ele>1388.1</ele>
        <time>2013-06-16T09:21:57Z</time>
        <sat>8</sat>
      </trkpt>
      <trkpt lat="46.420323" lon="7.064902">
        <ele>1388.5</ele>
        <time>2013-06-16T09:21:58Z</time>
        <sat>8</sat>
      </trkpt>
      <trkpt lat="46.420323" lon="7.064832">
        <ele>1388.9</ele>
        <time>2013-06-16T09:21:59Z</time>
        <sat>8</sat>
      </trkpt>
      <trkpt lat="46.420322" lon="7.064762">
        <ele>1388.7</ele>
        <time>2013-06-16T09:22:00Z</time>
        <sat>8</sat>
      </trkpt>
      <trkpt lat="46.420320" lon="7.064690">
        <ele>1388.5</ele>
        <time>2013-06-16T09:22:01Z</time>
        <sat>8</sat>
      </trkpt>
      <trkpt lat="46.420320" lon="7.064618">
        <ele>1388.8</ele>
        <time>2013-06-16T09:22:02Z</time>
        <sat>8</sat>
      </trkpt>
      <trkpt lat="46.420315" lon="7.064548">
        <ele>1389.1</ele>
        <time>2013-06-16T09:22:03Z</time>
        <sat>8</sat>
      </trkpt>
      <trkpt lat="46.420313" lon="7.064477">
        <ele>1389.3</ele>
        <time>2013-06-16T09:22:04Z</time>
        <sat>8</sat>
      </trkpt>
      <trkpt lat="46.420310" lon="7.064407">
        <ele>1389.3</ele>
        <time>2013-06-16T09:22:05Z</time>
        <sat>8</sat>
      </trkpt>
      <trkpt lat="46.420308" lon="7.064335">
        <ele>1389.4</ele>
        <time>2013-06-16T09:22:06Z</time>
        <sat>8</sat>
      </trkpt>
      <trkpt lat="46.420307" lon="7.064265">
        <ele>1389.5</ele>
        <time>2013-06-16T09:22:07Z</time>
        <sat>8</sat>
      </trkpt>
      <trkpt lat="46.420303" lon="7.064193">
        <ele>1389.5</ele>
        <time>2013-06-16T09:22:08Z</time>
        <sat>8</sat>
      </trkpt>
      <trkpt lat="46.420300" lon="7.064122">
        <ele>1389.6</ele>
        <time>2013-06-16T09:22:09Z</time>
        <sat>8</sat>
      </trkpt>
      <trkpt lat="46.420297" lon="7.064052">
        <ele>1389.5</ele>
        <time>2013-06-16T09:22:10Z</time>
        <sat>8</sat>
      </trkpt>
      <trkpt lat="46.420293" lon="7.063983">
        <ele>1389.4</ele>
        <time>2013-06-16T09:22:11Z</time>
        <sat>8</sat>
      </trkpt>
      <trkpt lat="46.420287" lon="7.063918">
        <ele>1389.5</ele>
        <time>2013-06-16T09:22:12Z</time>
        <sat>8</sat>
      </trkpt>
      <trkpt lat="46.420282" lon="7.063792">
        <ele>1389.7</ele>
        <time>2013-06-16T09:22:14Z</time>
        <sat>8</sat>
      </trkpt>
      <trkpt lat="46.420283" lon="7.063667">
        <ele>1389.8</ele>
        <time>2013-06-16T09:22:16Z</time>
        <sat>8</sat>
      </trkpt>
      <trkpt lat="46.420283" lon="7.063602">
        <ele>1389.9</ele>
        <time>2013-06-16T09:22:17Z</time>
        <sat>8</sat>
      </trkpt>
      <trkpt lat="46.420280" lon="7.063535">
        <ele>1389.9</ele>
        <time>2013-06-16T09:22:18Z</time>
        <sat>8</sat>
      </trkpt>
      <trkpt lat="46.420278" lon="7.063468">
        <ele>1390.0</ele>
        <time>2013-06-16T09:22:19Z</time>
        <sat>8</sat>
      </trkpt>
      <trkpt lat="46.420275" lon="7.063402">
        <ele>1390.1</ele>
        <time>2013-06-16T09:22:20Z</time>
        <sat>8</sat>
      </trkpt>
      <trkpt lat="46.420272" lon="7.063335">
        <ele>1390.3</ele>
        <time>2013-06-16T09:22:21Z</time>
        <sat>8</sat>
      </trkpt>
      <trkpt lat="46.420270" lon="7.063267">
        <ele>1390.4</ele>
        <time>2013-06-16T09:22:22Z</time>
        <sat>8</sat>
      </trkpt>
      <trkpt lat="46.420268" lon="7.063198">
        <ele>1390.5</ele>
        <time>2013-06-16T09:22:23Z</time>
        <sat>8</sat>
      </trkpt>
      <trkpt lat="46.420267" lon="7.063128">
        <ele>1390.4</ele>
        <time>2013-06-16T09:22:24Z</time>
        <sat>8</sat>
      </trkpt>
      <trkpt lat="46.420267" lon="7.063060">
        <ele>1390.3</ele>
        <time>2013-06-16T09:22:25Z</time>
        <sat>8</sat>
      </trkpt>
      <trkpt lat="46.420263" lon="7.062992">
        <ele>1390.6</ele>
        <time>2013-06-16T09:22:26Z</time>
        <sat>8</sat>
      </trkpt>
      <trkpt lat="46.420260" lon="7.062925">
        <ele>1390.7</ele>
        <time>2013-06-16T09:22:27Z</time>
        <sat>8</sat>
      </trkpt>
      <trkpt lat="46.420253" lon="7.062860">
        <ele>1390.9</ele>
        <time>2013-06-16T09:22:28Z</time>
        <sat>8</sat>
      </trkpt>
      <trkpt lat="46.420247" lon="7.062793">
        <ele>1391.0</ele>
        <time>2013-06-16T09:22:29Z</time>
        <sat>8</sat>
      </trkpt>
      <trkpt lat="46.420233" lon="7.062665">
        <ele>1390.8</ele>
        <time>2013-06-16T09:22:31Z</time>
        <sat>8</sat>
      </trkpt>
      <trkpt lat="46.420225" lon="7.062600">
        <ele>1390.7</ele>
        <time>2013-06-16T09:22:32Z</time>
        <sat>8</sat>
      </trkpt>
      <trkpt lat="46.420202" lon="7.062475">
        <ele>1391.1</ele>
        <time>2013-06-16T09:22:34Z</time>
        <sat>8</sat>
      </trkpt>
      <trkpt lat="46.420187" lon="7.062413">
        <ele>1391.2</ele>
        <time>2013-06-16T09:22:35Z</time>
        <sat>8</sat>
      </trkpt>
      <trkpt lat="46.420172" lon="7.062350">
        <ele>1391.2</ele>
        <time>2013-06-16T09:22:36Z</time>
        <sat>8</sat>
      </trkpt>
      <trkpt lat="46.420153" lon="7.062288">
        <ele>1391.1</ele>
        <time>2013-06-16T09:22:37Z</time>
        <sat>8</sat>
      </trkpt>
      <trkpt lat="46.420133" lon="7.062225">
        <ele>1391.4</ele>
        <time>2013-06-16T09:22:38Z</time>
        <sat>8</sat>
      </trkpt>
      <trkpt lat="46.420114" lon="7.062163">
        <ele>1391.6</ele>
        <time>2013-06-16T09:22:39Z</time>
        <sat>8</sat>
      </trkpt>
      <trkpt lat="46.420093" lon="7.062102">
        <ele>1391.0</ele>
        <time>2013-06-16T09:22:40Z</time>
        <sat>8</sat>
      </trkpt>
      <trkpt lat="46.420072" lon="7.062040">
        <ele>1390.6</ele>
        <time>2013-06-16T09:22:41Z</time>
        <sat>8</sat>
      </trkpt>
      <trkpt lat="46.420047" lon="7.061982">
        <ele>1390.3</ele>
        <time>2013-06-16T09:22:42Z</time>
        <sat>8</sat>
      </trkpt>
      <trkpt lat="46.420020" lon="7.061922">
        <ele>1390.5</ele>
        <time>2013-06-16T09:22:43Z</time>
        <sat>8</sat>
      </trkpt>
      <trkpt lat="46.419990" lon="7.061863">
        <ele>1390.7</ele>
        <time>2013-06-16T09:22:44Z</time>
        <sat>8</sat>
      </trkpt>
      <trkpt lat="46.419960" lon="7.061805">
        <ele>1391.0</ele>
        <time>2013-06-16T09:22:45Z</time>
        <sat>8</sat>
      </trkpt>
      <trkpt lat="46.419927" lon="7.061745">
        <ele>1391.3</ele>
        <time>2013-06-16T09:22:46Z</time>
        <sat>8</sat>
      </trkpt>
      <trkpt lat="46.419890" lon="7.061688">
        <ele>1391.4</ele>
        <time>2013-06-16T09:22:47Z</time>
        <sat>8</sat>
      </trkpt>
      <trkpt lat="46.419853" lon="7.061635">
        <ele>1391.3</ele>
        <time>2013-06-16T09:22:48Z</time>
        <sat>8</sat>
      </trkpt>
      <trkpt lat="46.419815" lon="7.061582">
        <ele>1391.3</ele>
        <time>2013-06-16T09:22:49Z</time>
        <sat>8</sat>
      </trkpt>
      <trkpt lat="46.419777" lon="7.061528">
        <ele>1391.3</ele>
        <time>2013-06-16T09:22:50Z</time>
        <sat>8</sat>
      </trkpt>
      <trkpt lat="46.419735" lon="7.061480">
        <ele>1391.3</ele>
        <time>2013-06-16T09:22:51Z</time>
        <sat>8</sat>
      </trkpt>
      <trkpt lat="46.419693" lon="7.061430">
        <ele>1391.3</ele>
        <time>2013-06-16T09:22:52Z</time>
        <sat>8</sat>
      </trkpt>
      <trkpt lat="46.419648" lon="7.061387">
        <ele>1391.3</ele>
        <time>2013-06-16T09:22:53Z</time>
        <sat>8</sat>
      </trkpt>
      <trkpt lat="46.419603" lon="7.061343">
        <ele>1391.3</ele>
        <time>2013-06-16T09:22:54Z</time>
        <sat>8</sat>
      </trkpt>
      <trkpt lat="46.419558" lon="7.061298">
        <ele>1391.1</ele>
        <time>2013-06-16T09:22:55Z</time>
        <sat>8</sat>
      </trkpt>
      <trkpt lat="46.419512" lon="7.061253">
        <ele>1391.0</ele>
        <time>2013-06-16T09:22:56Z</time>
        <sat>8</sat>
      </trkpt>
      <trkpt lat="46.419463" lon="7.061208">
        <ele>1391.5</ele>
        <time>2013-06-16T09:22:57Z</time>
        <sat>8</sat>
      </trkpt>
      <trkpt lat="46.419413" lon="7.061162">
        <ele>1391.8</ele>
        <time>2013-06-16T09:22:58Z</time>
        <sat>8</sat>
      </trkpt>
      <trkpt lat="46.419363" lon="7.061117">
        <ele>1391.6</ele>
        <time>2013-06-16T09:22:59Z</time>
        <sat>8</sat>
      </trkpt>
      <trkpt lat="46.419313" lon="7.061072">
        <ele>1391.4</ele>
        <time>2013-06-16T09:23:00Z</time>
        <sat>8</sat>
      </trkpt>
      <trkpt lat="46.419262" lon="7.061027">
        <ele>1391.3</ele>
        <time>2013-06-16T09:23:01Z</time>
        <sat>8</sat>
      </trkpt>
      <trkpt lat="46.419208" lon="7.060983">
        <ele>1391.5</ele>
        <time>2013-06-16T09:23:02Z</time>
        <sat>8</sat>
      </trkpt>
      <trkpt lat="46.419155" lon="7.060940">
        <ele>1391.7</ele>
        <time>2013-06-16T09:23:03Z</time>
        <sat>8</sat>
      </trkpt>
      <trkpt lat="46.419102" lon="7.060898">
        <ele>1391.4</ele>
        <time>2013-06-16T09:23:04Z</time>
        <sat>8</sat>
      </trkpt>
      <trkpt lat="46.419048" lon="7.060855">
        <ele>1391.2</ele>
        <time>2013-06-16T09:23:05Z</time>
        <sat>8</sat>
      </trkpt>
      <trkpt lat="46.418995" lon="7.060810">
        <ele>1391.0</ele>
        <time>2013-06-16T09:23:06Z</time>
        <sat>8</sat>
      </trkpt>
      <trkpt lat="46.418945" lon="7.060760">
        <ele>1391.2</ele>
        <time>2013-06-16T09:23:07Z</time>
        <sat>8</sat>
      </trkpt>
      <trkpt lat="46.418895" lon="7.060707">
        <ele>1391.3</ele>
        <time>2013-06-16T09:23:08Z</time>
        <sat>8</sat>
      </trkpt>
      <trkpt lat="46.418848" lon="7.060650">
        <ele>1391.0</ele>
        <time>2013-06-16T09:23:09Z</time>
        <sat>8</sat>
      </trkpt>
      <trkpt lat="46.418802" lon="7.060590">
        <ele>1390.9</ele>
        <time>2013-06-16T09:23:10Z</time>
        <sat>8</sat>
      </trkpt>
      <trkpt lat="46.418757" lon="7.060528">
        <ele>1391.4</ele>
        <time>2013-06-16T09:23:11Z</time>
        <sat>8</sat>
      </trkpt>
      <trkpt lat="46.418713" lon="7.060463">
        <ele>1391.8</ele>
        <time>2013-06-16T09:23:12Z</time>
        <sat>8</sat>
      </trkpt>
      <trkpt lat="46.418672" lon="7.060395">
        <ele>1392.1</ele>
        <time>2013-06-16T09:23:13Z</time>
        <sat>8</sat>
      </trkpt>
      <trkpt lat="46.418630" lon="7.060328">
        <ele>1391.2</ele>
        <time>2013-06-16T09:23:14Z</time>
        <sat>8</sat>
      </trkpt>
      <trkpt lat="46.418590" lon="7.060258">
        <ele>1390.6</ele>
        <time>2013-06-16T09:23:15Z</time>
        <sat>8</sat>
      </trkpt>
      <trkpt lat="46.418548" lon="7.060188">
        <ele>1390.3</ele>
        <time>2013-06-16T09:23:16Z</time>
        <sat>8</sat>
      </trkpt>
      <trkpt lat="46.418507" lon="7.060120">
        <ele>1390.1</ele>
        <time>2013-06-16T09:23:17Z</time>
        <sat>8</sat>
      </trkpt>
      <trkpt lat="46.418465" lon="7.060052">
        <ele>1390.3</ele>
        <time>2013-06-16T09:23:18Z</time>
        <sat>8</sat>
      </trkpt>
      <trkpt lat="46.418422" lon="7.059985">
        <ele>1390.5</ele>
        <time>2013-06-16T09:23:19Z</time>
        <sat>8</sat>
      </trkpt>
      <trkpt lat="46.418378" lon="7.059920">
        <ele>1390.6</ele>
        <time>2013-06-16T09:23:20Z</time>
        <sat>8</sat>
      </trkpt>
      <trkpt lat="46.418335" lon="7.059858">
        <ele>1390.4</ele>
        <time>2013-06-16T09:23:21Z</time>
        <sat>8</sat>
      </trkpt>
      <trkpt lat="46.418293" lon="7.059797">
        <ele>1390.3</ele>
        <time>2013-06-16T09:23:22Z</time>
        <sat>8</sat>
      </trkpt>
      <trkpt lat="46.418252" lon="7.059735">
        <ele>1389.8</ele>
        <time>2013-06-16T09:23:23Z</time>
        <sat>8</sat>
      </trkpt>
      <trkpt lat="46.418210" lon="7.059678">
        <ele>1389.5</ele>
        <time>2013-06-16T09:23:24Z</time>
        <sat>8</sat>
      </trkpt>
      <trkpt lat="46.418165" lon="7.059627">
        <ele>1389.6</ele>
        <time>2013-06-16T09:23:25Z</time>
        <sat>8</sat>
      </trkpt>
      <trkpt lat="46.418117" lon="7.059577">
        <ele>1389.6</ele>
        <time>2013-06-16T09:23:26Z</time>
        <sat>8</sat>
      </trkpt>
      <trkpt lat="46.418068" lon="7.059525">
        <ele>1389.7</ele>
        <time>2013-06-16T09:23:27Z</time>
        <sat>8</sat>
      </trkpt>
      <trkpt lat="46.418020" lon="7.059473">
        <ele>1389.8</ele>
        <time>2013-06-16T09:23:28Z</time>
        <sat>8</sat>
      </trkpt>
      <trkpt lat="46.417970" lon="7.059420">
        <ele>1389.9</ele>
        <time>2013-06-16T09:23:29Z</time>
        <sat>8</sat>
      </trkpt>
      <trkpt lat="46.417922" lon="7.059365">
        <ele>1389.5</ele>
        <time>2013-06-16T09:23:30Z</time>
        <sat>8</sat>
      </trkpt>
      <trkpt lat="46.417872" lon="7.059312">
        <ele>1389.2</ele>
        <time>2013-06-16T09:23:31Z</time>
        <sat>8</sat>
      </trkpt>
      <trkpt lat="46.417820" lon="7.059258">
        <ele>1389.0</ele>
        <time>2013-06-16T09:23:32Z</time>
        <sat>8</sat>
      </trkpt>
      <trkpt lat="46.417768" lon="7.059205">
        <ele>1389.3</ele>
        <time>2013-06-16T09:23:33Z</time>
        <sat>8</sat>
      </trkpt>
      <trkpt lat="46.417717" lon="7.059152">
        <ele>1389.5</ele>
        <time>2013-06-16T09:23:34Z</time>
        <sat>8</sat>
      </trkpt>
      <trkpt lat="46.417663" lon="7.059097">
        <ele>1389.0</ele>
        <time>2013-06-16T09:23:35Z</time>
        <sat>8</sat>
      </trkpt>
      <trkpt lat="46.417610" lon="7.059042">
        <ele>1388.7</ele>
        <time>2013-06-16T09:23:36Z</time>
        <sat>8</sat>
      </trkpt>
      <trkpt lat="46.417557" lon="7.058988">
        <ele>1388.7</ele>
        <time>2013-06-16T09:23:37Z</time>
        <sat>8</sat>
      </trkpt>
      <trkpt lat="46.417505" lon="7.058932">
        <ele>1388.7</ele>
        <time>2013-06-16T09:23:38Z</time>
        <sat>8</sat>
      </trkpt>
      <trkpt lat="46.417453" lon="7.058872">
        <ele>1388.7</ele>
        <time>2013-06-16T09:23:39Z</time>
        <sat>8</sat>
      </trkpt>
      <trkpt lat="46.417403" lon="7.058810">
        <ele>1389.0</ele>
        <time>2013-06-16T09:23:40Z</time>
        <sat>8</sat>
      </trkpt>
      <trkpt lat="46.417355" lon="7.058748">
        <ele>1389.2</ele>
        <time>2013-06-16T09:23:41Z</time>
        <sat>8</sat>
      </trkpt>
      <trkpt lat="46.417308" lon="7.058680">
        <ele>1388.5</ele>
        <time>2013-06-16T09:23:42Z</time>
        <sat>8</sat>
      </trkpt>
      <trkpt lat="46.417267" lon="7.058607">
        <ele>1388.0</ele>
        <time>2013-06-16T09:23:43Z</time>
        <sat>8</sat>
      </trkpt>
      <trkpt lat="46.417230" lon="7.058530">
        <ele>1388.0</ele>
        <time>2013-06-16T09:23:44Z</time>
        <sat>8</sat>
      </trkpt>
      <trkpt lat="46.417197" lon="7.058450">
        <ele>1388.0</ele>
        <time>2013-06-16T09:23:45Z</time>
        <sat>8</sat>
      </trkpt>
      <trkpt lat="46.417170" lon="7.058367">
        <ele>1388.1</ele>
        <time>2013-06-16T09:23:46Z</time>
        <sat>8</sat>
      </trkpt>
      <trkpt lat="46.417145" lon="7.058280">
        <ele>1388.0</ele>
        <time>2013-06-16T09:23:47Z</time>
        <sat>8</sat>
      </trkpt>
      <trkpt lat="46.417123" lon="7.058193">
        <ele>1387.9</ele>
        <time>2013-06-16T09:23:48Z</time>
        <sat>8</sat>
      </trkpt>
      <trkpt lat="46.417105" lon="7.058102">
        <ele>1387.9</ele>
        <time>2013-06-16T09:23:49Z</time>
        <sat>8</sat>
      </trkpt>
      <trkpt lat="46.417092" lon="7.058008">
        <ele>1387.9</ele>
        <time>2013-06-16T09:23:50Z</time>
        <sat>8</sat>
      </trkpt>
      <trkpt lat="46.417083" lon="7.057913">
        <ele>1387.9</ele>
        <time>2013-06-16T09:23:51Z</time>
        <sat>8</sat>
      </trkpt>
      <trkpt lat="46.417078" lon="7.057815">
        <ele>1387.6</ele>
        <time>2013-06-16T09:23:52Z</time>
        <sat>7</sat>
      </trkpt>
      <trkpt lat="46.417082" lon="7.057718">
        <ele>1387.4</ele>
        <time>2013-06-16T09:23:53Z</time>
        <sat>7</sat>
      </trkpt>
      <trkpt lat="46.417088" lon="7.057620">
        <ele>1387.1</ele>
        <time>2013-06-16T09:23:54Z</time>
        <sat>7</sat>
      </trkpt>
      <trkpt lat="46.417102" lon="7.057525">
        <ele>1387.0</ele>
        <time>2013-06-16T09:23:55Z</time>
        <sat>7</sat>
      </trkpt>
      <trkpt lat="46.417118" lon="7.057428">
        <ele>1387.6</ele>
        <time>2013-06-16T09:23:56Z</time>
        <sat>7</sat>
      </trkpt>
      <trkpt lat="46.417132" lon="7.057330">
        <ele>1388.1</ele>
        <time>2013-06-16T09:23:57Z</time>
        <sat>7</sat>
      </trkpt>
      <trkpt lat="46.417145" lon="7.057232">
        <ele>1388.4</ele>
        <time>2013-06-16T09:23:58Z</time>
        <sat>7</sat>
      </trkpt>
      <trkpt lat="46.417158" lon="7.057132">
        <ele>1388.1</ele>
        <time>2013-06-16T09:23:59Z</time>
        <sat>7</sat>
      </trkpt>
      <trkpt lat="46.417173" lon="7.057030">
        <ele>1387.8</ele>
        <time>2013-06-16T09:24:00Z</time>
        <sat>7</sat>
      </trkpt>
      <trkpt lat="46.417187" lon="7.056930">
        <ele>1387.8</ele>
        <time>2013-06-16T09:24:01Z</time>
        <sat>7</sat>
      </trkpt>
      <trkpt lat="46.417200" lon="7.056832">
        <ele>1387.8</ele>
        <time>2013-06-16T09:24:02Z</time>
        <sat>7</sat>
      </trkpt>
      <trkpt lat="46.417215" lon="7.056735">
        <ele>1387.8</ele>
        <time>2013-06-16T09:24:03Z</time>
        <sat>7</sat>
      </trkpt>
      <trkpt lat="46.417232" lon="7.056640">
        <ele>1387.6</ele>
        <time>2013-06-16T09:24:04Z</time>
        <sat>7</sat>
      </trkpt>
      <trkpt lat="46.417243" lon="7.056543">
        <ele>1387.4</ele>
        <time>2013-06-16T09:24:05Z</time>
        <sat>8</sat>
      </trkpt>
      <trkpt lat="46.417257" lon="7.056447">
        <ele>1387.5</ele>
        <time>2013-06-16T09:24:06Z</time>
        <sat>8</sat>
      </trkpt>
      <trkpt lat="46.417272" lon="7.056353">
        <ele>1387.6</ele>
        <time>2013-06-16T09:24:07Z</time>
        <sat>8</sat>
      </trkpt>
      <trkpt lat="46.417287" lon="7.056262">
        <ele>1387.4</ele>
        <time>2013-06-16T09:24:08Z</time>
        <sat>8</sat>
      </trkpt>
      <trkpt lat="46.417300" lon="7.056170">
        <ele>1387.4</ele>
        <time>2013-06-16T09:24:09Z</time>
        <sat>8</sat>
      </trkpt>
      <trkpt lat="46.417310" lon="7.056078">
        <ele>1387.3</ele>
        <time>2013-06-16T09:24:10Z</time>
        <sat>8</sat>
      </trkpt>
      <trkpt lat="46.417315" lon="7.055990">
        <ele>1387.0</ele>
        <time>2013-06-16T09:24:11Z</time>
        <sat>8</sat>
      </trkpt>
      <trkpt lat="46.417320" lon="7.055903">
        <ele>1386.7</ele>
        <time>2013-06-16T09:24:12Z</time>
        <sat>8</sat>
      </trkpt>
      <trkpt lat="46.417327" lon="7.055818">
        <ele>1386.3</ele>
        <time>2013-06-16T09:24:13Z</time>
        <sat>8</sat>
      </trkpt>
      <trkpt lat="46.417330" lon="7.055735">
        <ele>1386.0</ele>
        <time>2013-06-16T09:24:14Z</time>
        <sat>8</sat>
      </trkpt>
      <trkpt lat="46.417327" lon="7.055655">
        <ele>1386.0</ele>
        <time>2013-06-16T09:24:15Z</time>
        <sat>8</sat>
      </trkpt>
      <trkpt lat="46.417322" lon="7.055573">
        <ele>1386.0</ele>
        <time>2013-06-16T09:24:16Z</time>
        <sat>8</sat>
      </trkpt>
      <trkpt lat="46.417315" lon="7.055493">
        <ele>1386.0</ele>
        <time>2013-06-16T09:24:17Z</time>
        <sat>8</sat>
      </trkpt>
      <trkpt lat="46.417307" lon="7.055415">
        <ele>1385.9</ele>
        <time>2013-06-16T09:24:18Z</time>
        <sat>8</sat>
      </trkpt>
      <trkpt lat="46.417297" lon="7.055335">
        <ele>1385.8</ele>
        <time>2013-06-16T09:24:19Z</time>
        <sat>8</sat>
      </trkpt>
      <trkpt lat="46.417295" lon="7.055258">
        <ele>1385.6</ele>
        <time>2013-06-16T09:24:20Z</time>
        <sat>8</sat>
      </trkpt>
      <trkpt lat="46.417295" lon="7.055182">
        <ele>1385.3</ele>
        <time>2013-06-16T09:24:21Z</time>
        <sat>8</sat>
      </trkpt>
      <trkpt lat="46.417295" lon="7.055105">
        <ele>1385.5</ele>
        <time>2013-06-16T09:24:22Z</time>
        <sat>7</sat>
      </trkpt>
      <trkpt lat="46.417292" lon="7.054978">
        <ele>1385.6</ele>
        <time>2013-06-16T09:24:24Z</time>
        <sat>8</sat>
      </trkpt>
      <trkpt lat="46.417237" lon="7.054893">
        <ele>1385.6</ele>
        <time>2013-06-16T09:24:27Z</time>
        <sat>8</sat>
      </trkpt>
      <trkpt lat="46.417303" lon="7.054932">
        <ele>1386.4</ele>
        <time>2013-06-16T09:26:32Z</time>
        <sat>8</sat>
      </trkpt>
      <trkpt lat="46.417320" lon="7.054947">
        <ele>1386.3</ele>
        <time>2013-06-16T09:26:33Z</time>
        <sat>8</sat>
      </trkpt>
      <trkpt lat="46.417285" lon="7.055092">
        <ele>1385.8</ele>
        <time>2013-06-16T09:26:41Z</time>
        <sat>8</sat>
      </trkpt>
      <trkpt lat="46.417227" lon="7.055017">
        <ele>1386.4</ele>
        <time>2013-06-16T09:26:44Z</time>
        <sat>8</sat>
      </trkpt>
      <trkpt lat="46.417178" lon="7.054947">
        <ele>1386.0</ele>
        <time>2013-06-16T09:26:46Z</time>
        <sat>8</sat>
      </trkpt>
      <trkpt lat="46.417130" lon="7.054862">
        <ele>1386.0</ele>
        <time>2013-06-16T09:26:48Z</time>
        <sat>8</sat>
      </trkpt>
      <trkpt lat="46.417070" lon="7.054773">
        <ele>1385.9</ele>
        <time>2013-06-16T09:26:50Z</time>
        <sat>8</sat>
      </trkpt>
      <trkpt lat="46.417037" lon="7.054727">
        <ele>1385.9</ele>
        <time>2013-06-16T09:26:51Z</time>
        <sat>8</sat>
      </trkpt>
      <trkpt lat="46.417003" lon="7.054680">
        <ele>1385.6</ele>
        <time>2013-06-16T09:26:52Z</time>
        <sat>8</sat>
      </trkpt>
      <trkpt lat="46.416970" lon="7.054633">
        <ele>1385.5</ele>
        <time>2013-06-16T09:26:53Z</time>
        <sat>8</sat>
      </trkpt>
      <trkpt lat="46.416937" lon="7.054587">
        <ele>1385.9</ele>
        <time>2013-06-16T09:26:54Z</time>
        <sat>8</sat>
      </trkpt>
      <trkpt lat="46.416905" lon="7.054540">
        <ele>1386.2</ele>
        <time>2013-06-16T09:26:55Z</time>
        <sat>8</sat>
      </trkpt>
      <trkpt lat="46.416872" lon="7.054493">
        <ele>1386.5</ele>
        <time>2013-06-16T09:26:56Z</time>
        <sat>8</sat>
      </trkpt>
      <trkpt lat="46.416808" lon="7.054402">
        <ele>1386.3</ele>
        <time>2013-06-16T09:26:58Z</time>
        <sat>8</sat>
      </trkpt>
      <trkpt lat="46.416747" lon="7.054307">
        <ele>1386.3</ele>
        <time>2013-06-16T09:27:00Z</time>
        <sat>8</sat>
      </trkpt>
      <trkpt lat="46.416723" lon="7.054247">
        <ele>1386.3</ele>
        <time>2013-06-16T09:27:01Z</time>
        <sat>8</sat>
      </trkpt>
      <trkpt lat="46.416703" lon="7.054188">
        <ele>1386.2</ele>
        <time>2013-06-16T09:27:02Z</time>
        <sat>8</sat>
      </trkpt>
      <trkpt lat="46.416683" lon="7.054127">
        <ele>1386.1</ele>
        <time>2013-06-16T09:27:03Z</time>
        <sat>8</sat>
      </trkpt>
      <trkpt lat="46.416663" lon="7.054067">
        <ele>1386.2</ele>
        <time>2013-06-16T09:27:04Z</time>
        <sat>8</sat>
      </trkpt>
      <trkpt lat="46.416645" lon="7.054005">
        <ele>1386.3</ele>
        <time>2013-06-16T09:27:05Z</time>
        <sat>8</sat>
      </trkpt>
      <trkpt lat="46.416625" lon="7.053942">
        <ele>1386.1</ele>
        <time>2013-06-16T09:27:06Z</time>
        <sat>8</sat>
      </trkpt>
      <trkpt lat="46.416607" lon="7.053880">
        <ele>1385.9</ele>
        <time>2013-06-16T09:27:07Z</time>
        <sat>8</sat>
      </trkpt>
      <trkpt lat="46.416585" lon="7.053817">
        <ele>1385.8</ele>
        <time>2013-06-16T09:27:08Z</time>
        <sat>8</sat>
      </trkpt>
      <trkpt lat="46.416565" lon="7.053755">
        <ele>1385.9</ele>
        <time>2013-06-16T09:27:09Z</time>
        <sat>8</sat>
      </trkpt>
      <trkpt lat="46.416543" lon="7.053693">
        <ele>1386.0</ele>
        <time>2013-06-16T09:27:10Z</time>
        <sat>8</sat>
      </trkpt>
      <trkpt lat="46.416522" lon="7.053632">
        <ele>1386.1</ele>
        <time>2013-06-16T09:27:11Z</time>
        <sat>8</sat>
      </trkpt>
      <trkpt lat="46.416500" lon="7.053572">
        <ele>1386.2</ele>
        <time>2013-06-16T09:27:12Z</time>
        <sat>8</sat>
      </trkpt>
      <trkpt lat="46.416480" lon="7.053512">
        <ele>1386.3</ele>
        <time>2013-06-16T09:27:13Z</time>
        <sat>8</sat>
      </trkpt>
      <trkpt lat="46.416458" lon="7.053452">
        <ele>1386.3</ele>
        <time>2013-06-16T09:27:14Z</time>
        <sat>8</sat>
      </trkpt>
      <trkpt lat="46.416437" lon="7.053393">
        <ele>1386.3</ele>
        <time>2013-06-16T09:27:15Z</time>
        <sat>8</sat>
      </trkpt>
      <trkpt lat="46.416417" lon="7.053332">
        <ele>1386.5</ele>
        <time>2013-06-16T09:27:16Z</time>
        <sat>8</sat>
      </trkpt>
      <trkpt lat="46.416397" lon="7.053272">
        <ele>1386.7</ele>
        <time>2013-06-16T09:27:17Z</time>
        <sat>8</sat>
      </trkpt>
      <trkpt lat="46.416377" lon="7.053212">
        <ele>1386.7</ele>
        <time>2013-06-16T09:27:18Z</time>
        <sat>8</sat>
      </trkpt>
      <trkpt lat="46.416357" lon="7.053150">
        <ele>1386.7</ele>
        <time>2013-06-16T09:27:19Z</time>
        <sat>8</sat>
      </trkpt>
      <trkpt lat="46.416335" lon="7.053088">
        <ele>1386.7</ele>
        <time>2013-06-16T09:27:20Z</time>
        <sat>8</sat>
      </trkpt>
      <trkpt lat="46.416313" lon="7.053027">
        <ele>1386.8</ele>
        <time>2013-06-16T09:27:21Z</time>
        <sat>8</sat>
      </trkpt>
      <trkpt lat="46.416290" lon="7.052965">
        <ele>1386.9</ele>
        <time>2013-06-16T09:27:22Z</time>
        <sat>8</sat>
      </trkpt>
      <trkpt lat="46.416265" lon="7.052905">
        <ele>1386.9</ele>
        <time>2013-06-16T09:27:23Z</time>
        <sat>8</sat>
      </trkpt>
      <trkpt lat="46.416242" lon="7.052845">
        <ele>1387.0</ele>
        <time>2013-06-16T09:27:24Z</time>
        <sat>8</sat>
      </trkpt>
      <trkpt lat="46.416217" lon="7.052787">
        <ele>1387.1</ele>
        <time>2013-06-16T09:27:25Z</time>
        <sat>8</sat>
      </trkpt>
      <trkpt lat="46.416190" lon="7.052730">
        <ele>1387.1</ele>
        <time>2013-06-16T09:27:26Z</time>
        <sat>8</sat>
      </trkpt>
      <trkpt lat="46.416163" lon="7.052673">
        <ele>1387.2</ele>
        <time>2013-06-16T09:27:27Z</time>
        <sat>8</sat>
      </trkpt>
      <trkpt lat="46.416135" lon="7.052618">
        <ele>1387.1</ele>
        <time>2013-06-16T09:27:28Z</time>
        <sat>8</sat>
      </trkpt>
      <trkpt lat="46.416105" lon="7.052563">
        <ele>1387.0</ele>
        <time>2013-06-16T09:27:29Z</time>
        <sat>8</sat>
      </trkpt>
      <trkpt lat="46.416073" lon="7.052507">
        <ele>1386.8</ele>
        <time>2013-06-16T09:27:30Z</time>
        <sat>8</sat>
      </trkpt>
      <trkpt lat="46.416040" lon="7.052452">
        <ele>1386.7</ele>
        <time>2013-06-16T09:27:31Z</time>
        <sat>8</sat>
      </trkpt>
      <trkpt lat="46.416005" lon="7.052398">
        <ele>1386.8</ele>
        <time>2013-06-16T09:27:32Z</time>
        <sat>8</sat>
      </trkpt>
      <trkpt lat="46.415968" lon="7.052347">
        <ele>1386.8</ele>
        <time>2013-06-16T09:27:33Z</time>
        <sat>8</sat>
      </trkpt>
      <trkpt lat="46.415930" lon="7.052295">
        <ele>1386.8</ele>
        <time>2013-06-16T09:27:34Z</time>
        <sat>8</sat>
      </trkpt>
      <trkpt lat="46.415890" lon="7.052243">
        <ele>1386.9</ele>
        <time>2013-06-16T09:27:35Z</time>
        <sat>8</sat>
      </trkpt>
      <trkpt lat="46.415848" lon="7.052193">
        <ele>1387.0</ele>
        <time>2013-06-16T09:27:36Z</time>
        <sat>8</sat>
      </trkpt>
      <trkpt lat="46.415805" lon="7.052142">
        <ele>1387.0</ele>
        <time>2013-06-16T09:27:37Z</time>
        <sat>8</sat>
      </trkpt>
      <trkpt lat="46.415760" lon="7.052092">
        <ele>1387.0</ele>
        <time>2013-06-16T09:27:38Z</time>
        <sat>8</sat>
      </trkpt>
      <trkpt lat="46.415713" lon="7.052043">
        <ele>1387.0</ele>
        <time>2013-06-16T09:27:39Z</time>
        <sat>8</sat>
      </trkpt>
      <trkpt lat="46.415663" lon="7.051997">
        <ele>1387.3</ele>
        <time>2013-06-16T09:27:40Z</time>
        <sat>8</sat>
      </trkpt>
      <trkpt lat="46.415613" lon="7.051952">
        <ele>1387.5</ele>
        <time>2013-06-16T09:27:41Z</time>
        <sat>8</sat>
      </trkpt>
      <trkpt lat="46.415562" lon="7.051908">
        <ele>1387.2</ele>
        <time>2013-06-16T09:27:42Z</time>
        <sat>8</sat>
      </trkpt>
      <trkpt lat="46.415508" lon="7.051868">
        <ele>1387.1</ele>
        <time>2013-06-16T09:27:43Z</time>
        <sat>8</sat>
      </trkpt>
      <trkpt lat="46.415453" lon="7.051828">
        <ele>1387.0</ele>
        <time>2013-06-16T09:27:44Z</time>
        <sat>8</sat>
      </trkpt>
      <trkpt lat="46.415397" lon="7.051793">
        <ele>1387.0</ele>
        <time>2013-06-16T09:27:45Z</time>
        <sat>8</sat>
      </trkpt>
      <trkpt lat="46.415340" lon="7.051757">
        <ele>1387.0</ele>
        <time>2013-06-16T09:27:46Z</time>
        <sat>8</sat>
      </trkpt>
      <trkpt lat="46.415282" lon="7.051723">
        <ele>1386.6</ele>
        <time>2013-06-16T09:27:47Z</time>
        <sat>8</sat>
      </trkpt>
      <trkpt lat="46.415222" lon="7.051690">
        <ele>1386.3</ele>
        <time>2013-06-16T09:27:48Z</time>
        <sat>8</sat>
      </trkpt>
      <trkpt lat="46.415160" lon="7.051653">
        <ele>1386.1</ele>
        <time>2013-06-16T09:27:49Z</time>
        <sat>8</sat>
      </trkpt>
      <trkpt lat="46.415100" lon="7.051617">
        <ele>1385.9</ele>
        <time>2013-06-16T09:27:50Z</time>
        <sat>8</sat>
      </trkpt>
      <trkpt lat="46.415038" lon="7.051580">
        <ele>1385.3</ele>
        <time>2013-06-16T09:27:51Z</time>
        <sat>8</sat>
      </trkpt>
      <trkpt lat="46.414975" lon="7.051543">
        <ele>1384.8</ele>
        <time>2013-06-16T09:27:52Z</time>
        <sat>8</sat>
      </trkpt>
      <trkpt lat="46.414910" lon="7.051507">
        <ele>1384.4</ele>
        <time>2013-06-16T09:27:53Z</time>
        <sat>8</sat>
      </trkpt>
      <trkpt lat="46.414848" lon="7.051470">
        <ele>1384.0</ele>
        <time>2013-06-16T09:27:54Z</time>
        <sat>8</sat>
      </trkpt>
      <trkpt lat="46.414783" lon="7.051432">
        <ele>1383.6</ele>
        <time>2013-06-16T09:27:55Z</time>
        <sat>8</sat>
      </trkpt>
      <trkpt lat="46.414720" lon="7.051395">
        <ele>1383.3</ele>
        <time>2013-06-16T09:27:56Z</time>
        <sat>8</sat>
      </trkpt>
      <trkpt lat="46.414655" lon="7.051358">
        <ele>1383.1</ele>
        <time>2013-06-16T09:27:57Z</time>
        <sat>8</sat>
      </trkpt>
      <trkpt lat="46.414590" lon="7.051322">
        <ele>1383.0</ele>
        <time>2013-06-16T09:27:58Z</time>
        <sat>8</sat>
      </trkpt>
      <trkpt lat="46.414525" lon="7.051283">
        <ele>1383.0</ele>
        <time>2013-06-16T09:27:59Z</time>
        <sat>8</sat>
      </trkpt>
      <trkpt lat="46.414458" lon="7.051243">
        <ele>1383.0</ele>
        <time>2013-06-16T09:28:00Z</time>
        <sat>8</sat>
      </trkpt>
      <trkpt lat="46.414390" lon="7.051203">
        <ele>1383.2</ele>
        <time>2013-06-16T09:28:01Z</time>
        <sat>8</sat>
      </trkpt>
      <trkpt lat="46.414322" lon="7.051163">
        <ele>1383.4</ele>
        <time>2013-06-16T09:28:02Z</time>
        <sat>8</sat>
      </trkpt>
      <trkpt lat="46.414253" lon="7.051123">
        <ele>1383.0</ele>
        <time>2013-06-16T09:28:03Z</time>
        <sat>8</sat>
      </trkpt>
      <trkpt lat="46.414183" lon="7.051085">
        <ele>1382.8</ele>
        <time>2013-06-16T09:28:04Z</time>
        <sat>8</sat>
      </trkpt>
      <trkpt lat="46.414113" lon="7.051047">
        <ele>1382.5</ele>
        <time>2013-06-16T09:28:05Z</time>
        <sat>8</sat>
      </trkpt>
      <trkpt lat="46.414045" lon="7.051007">
        <ele>1382.4</ele>
        <time>2013-06-16T09:28:06Z</time>
        <sat>8</sat>
      </trkpt>
      <trkpt lat="46.413977" lon="7.050967">
        <ele>1382.3</ele>
        <time>2013-06-16T09:28:07Z</time>
        <sat>8</sat>
      </trkpt>
      <trkpt lat="46.413907" lon="7.050927">
        <ele>1382.4</ele>
        <time>2013-06-16T09:28:08Z</time>
        <sat>8</sat>
      </trkpt>
      <trkpt lat="46.413838" lon="7.050885">
        <ele>1382.4</ele>
        <time>2013-06-16T09:28:09Z</time>
        <sat>8</sat>
      </trkpt>
      <trkpt lat="46.413770" lon="7.050847">
        <ele>1382.1</ele>
        <time>2013-06-16T09:28:10Z</time>
        <sat>8</sat>
      </trkpt>
      <trkpt lat="46.413700" lon="7.050809">
        <ele>1381.9</ele>
        <time>2013-06-16T09:28:11Z</time>
        <sat>7</sat>
      </trkpt>
      <trkpt lat="46.413630" lon="7.050772">
        <ele>1381.7</ele>
        <time>2013-06-16T09:28:12Z</time>
        <sat>7</sat>
      </trkpt>
      <trkpt lat="46.413558" lon="7.050740">
        <ele>1381.3</ele>
        <time>2013-06-16T09:28:13Z</time>
        <sat>8</sat>
      </trkpt>
      <trkpt lat="46.413485" lon="7.050712">
        <ele>1380.9</ele>
        <time>2013-06-16T09:28:14Z</time>
        <sat>8</sat>
      </trkpt>
      <trkpt lat="46.413412" lon="7.050688">
        <ele>1380.5</ele>
        <time>2013-06-16T09:28:15Z</time>
        <sat>8</sat>
      </trkpt>
      <trkpt lat="46.413337" lon="7.050670">
        <ele>1380.3</ele>
        <time>2013-06-16T09:28:16Z</time>
        <sat>8</sat>
      </trkpt>
      <trkpt lat="46.413262" lon="7.050655">
        <ele>1380.0</ele>
        <time>2013-06-16T09:28:17Z</time>
        <sat>8</sat>
      </trkpt>
      <trkpt lat="46.413185" lon="7.050643">
        <ele>1379.9</ele>
        <time>2013-06-16T09:28:18Z</time>
        <sat>8</sat>
      </trkpt>
      <trkpt lat="46.413108" lon="7.050637">
        <ele>1379.8</ele>
        <time>2013-06-16T09:28:19Z</time>
        <sat>8</sat>
      </trkpt>
      <trkpt lat="46.413032" lon="7.050635">
        <ele>1379.4</ele>
        <time>2013-06-16T09:28:20Z</time>
        <sat>8</sat>
      </trkpt>
      <trkpt lat="46.412957" lon="7.050638">
        <ele>1379.1</ele>
        <time>2013-06-16T09:28:21Z</time>
        <sat>8</sat>
      </trkpt>
      <trkpt lat="46.412878" lon="7.050645">
        <ele>1378.9</ele>
        <time>2013-06-16T09:28:22Z</time>
        <sat>7</sat>
      </trkpt>
      <trkpt lat="46.412800" lon="7.050652">
        <ele>1378.7</ele>
        <time>2013-06-16T09:28:23Z</time>
        <sat>7</sat>
      </trkpt>
      <trkpt lat="46.412722" lon="7.050660">
        <ele>1378.6</ele>
        <time>2013-06-16T09:28:24Z</time>
        <sat>7</sat>
      </trkpt>
      <trkpt lat="46.412642" lon="7.050670">
        <ele>1378.1</ele>
        <time>2013-06-16T09:28:25Z</time>
        <sat>7</sat>
      </trkpt>
      <trkpt lat="46.412563" lon="7.050682">
        <ele>1377.8</ele>
        <time>2013-06-16T09:28:26Z</time>
        <sat>7</sat>
      </trkpt>
      <trkpt lat="46.412485" lon="7.050694">
        <ele>1377.5</ele>
        <time>2013-06-16T09:28:27Z</time>
        <sat>7</sat>
      </trkpt>
      <trkpt lat="46.412405" lon="7.050705">
        <ele>1377.4</ele>
        <time>2013-06-16T09:28:28Z</time>
        <sat>7</sat>
      </trkpt>
      <trkpt lat="46.412327" lon="7.050720">
        <ele>1377.5</ele>
        <time>2013-06-16T09:28:29Z</time>
        <sat>7</sat>
      </trkpt>
      <trkpt lat="46.412245" lon="7.050728">
        <ele>1377.6</ele>
        <time>2013-06-16T09:28:30Z</time>
        <sat>7</sat>
      </trkpt>
      <trkpt lat="46.412160" lon="7.050735">
        <ele>1377.6</ele>
        <time>2013-06-16T09:28:31Z</time>
        <sat>7</sat>
      </trkpt>
      <trkpt lat="46.412073" lon="7.050740">
        <ele>1377.2</ele>
        <time>2013-06-16T09:28:32Z</time>
        <sat>7</sat>
      </trkpt>
      <trkpt lat="46.411988" lon="7.050740">
        <ele>1376.8</ele>
        <time>2013-06-16T09:28:33Z</time>
        <sat>7</sat>
      </trkpt>
      <trkpt lat="46.411900" lon="7.050735">
        <ele>1376.3</ele>
        <time>2013-06-16T09:28:34Z</time>
        <sat>7</sat>
      </trkpt>
      <trkpt lat="46.411815" lon="7.050723">
        <ele>1375.9</ele>
        <time>2013-06-16T09:28:35Z</time>
        <sat>7</sat>
      </trkpt>
      <trkpt lat="46.411728" lon="7.050707">
        <ele>1375.4</ele>
        <time>2013-06-16T09:28:36Z</time>
        <sat>7</sat>
      </trkpt>
      <trkpt lat="46.411645" lon="7.050685">
        <ele>1375.1</ele>
        <time>2013-06-16T09:28:37Z</time>
        <sat>7</sat>
      </trkpt>
      <trkpt lat="46.411563" lon="7.050660">
        <ele>1374.8</ele>
        <time>2013-06-16T09:28:38Z</time>
        <sat>7</sat>
      </trkpt>
      <trkpt lat="46.411482" lon="7.050635">
        <ele>1374.4</ele>
        <time>2013-06-16T09:28:39Z</time>
        <sat>7</sat>
      </trkpt>
      <trkpt lat="46.411399" lon="7.050612">
        <ele>1374.1</ele>
        <time>2013-06-16T09:28:40Z</time>
        <sat>7</sat>
      </trkpt>
      <trkpt lat="46.411317" lon="7.050588">
        <ele>1374.2</ele>
        <time>2013-06-16T09:28:41Z</time>
        <sat>7</sat>
      </trkpt>
      <trkpt lat="46.411232" lon="7.050568">
        <ele>1374.2</ele>
        <time>2013-06-16T09:28:42Z</time>
        <sat>7</sat>
      </trkpt>
      <trkpt lat="46.411148" lon="7.050553">
        <ele>1374.3</ele>
        <time>2013-06-16T09:28:43Z</time>
        <sat>7</sat>
      </trkpt>
      <trkpt lat="46.411065" lon="7.050547">
        <ele>1374.0</ele>
        <time>2013-06-16T09:28:44Z</time>
        <sat>7</sat>
      </trkpt>
      <trkpt lat="46.410982" lon="7.050545">
        <ele>1373.8</ele>
        <time>2013-06-16T09:28:45Z</time>
        <sat>7</sat>
      </trkpt>
      <trkpt lat="46.410900" lon="7.050548">
        <ele>1373.8</ele>
        <time>2013-06-16T09:28:46Z</time>
        <sat>7</sat>
      </trkpt>
      <trkpt lat="46.410817" lon="7.050553">
        <ele>1373.8</ele>
        <time>2013-06-16T09:28:47Z</time>
        <sat>7</sat>
      </trkpt>
      <trkpt lat="46.410733" lon="7.050567">
        <ele>1374.2</ele>
        <time>2013-06-16T09:28:48Z</time>
        <sat>7</sat>
      </trkpt>
      <trkpt lat="46.410652" lon="7.050587">
        <ele>1374.4</ele>
        <time>2013-06-16T09:28:49Z</time>
        <sat>7</sat>
      </trkpt>
      <trkpt lat="46.410570" lon="7.050605">
        <ele>1374.6</ele>
        <time>2013-06-16T09:28:50Z</time>
        <sat>7</sat>
      </trkpt>
      <trkpt lat="46.410488" lon="7.050623">
        <ele>1374.2</ele>
        <time>2013-06-16T09:28:51Z</time>
        <sat>7</sat>
      </trkpt>
      <trkpt lat="46.410407" lon="7.050640">
        <ele>1373.9</ele>
        <time>2013-06-16T09:28:52Z</time>
        <sat>7</sat>
      </trkpt>
      <trkpt lat="46.410327" lon="7.050660">
        <ele>1373.5</ele>
        <time>2013-06-16T09:28:53Z</time>
        <sat>7</sat>
      </trkpt>
      <trkpt lat="46.410247" lon="7.050682">
        <ele>1373.2</ele>
        <time>2013-06-16T09:28:54Z</time>
        <sat>7</sat>
      </trkpt>
      <trkpt lat="46.410165" lon="7.050702">
        <ele>1372.5</ele>
        <time>2013-06-16T09:28:55Z</time>
        <sat>7</sat>
      </trkpt>
      <trkpt lat="46.410088" lon="7.050728">
        <ele>1371.9</ele>
        <time>2013-06-16T09:28:56Z</time>
        <sat>7</sat>
      </trkpt>
      <trkpt lat="46.410012" lon="7.050755">
        <ele>1371.4</ele>
        <time>2013-06-16T09:28:57Z</time>
        <sat>7</sat>
      </trkpt>
      <trkpt lat="46.409935" lon="7.050775">
        <ele>1371.0</ele>
        <time>2013-06-16T09:28:58Z</time>
        <sat>6</sat>
      </trkpt>
      <trkpt lat="46.409858" lon="7.050797">
        <ele>1370.6</ele>
        <time>2013-06-16T09:28:59Z</time>
        <sat>6</sat>
      </trkpt>
      <trkpt lat="46.409785" lon="7.050818">
        <ele>1370.0</ele>
        <time>2013-06-16T09:29:00Z</time>
        <sat>7</sat>
      </trkpt>
      <trkpt lat="46.409712" lon="7.050833">
        <ele>1369.6</ele>
        <time>2013-06-16T09:29:01Z</time>
        <sat>7</sat>
      </trkpt>
      <trkpt lat="46.409640" lon="7.050853">
        <ele>1369.2</ele>
        <time>2013-06-16T09:29:02Z</time>
        <sat>7</sat>
      </trkpt>
      <trkpt lat="46.409567" lon="7.050877">
        <ele>1369.1</ele>
        <time>2013-06-16T09:29:03Z</time>
        <sat>7</sat>
      </trkpt>
      <trkpt lat="46.409497" lon="7.050903">
        <ele>1369.1</ele>
        <time>2013-06-16T09:29:04Z</time>
        <sat>7</sat>
      </trkpt>
      <trkpt lat="46.409427" lon="7.050930">
        <ele>1368.6</ele>
        <time>2013-06-16T09:29:05Z</time>
        <sat>7</sat>
      </trkpt>
      <trkpt lat="46.409355" lon="7.050957">
        <ele>1368.2</ele>
        <time>2013-06-16T09:29:06Z</time>
        <sat>7</sat>
      </trkpt>
      <trkpt lat="46.409283" lon="7.050982">
        <ele>1368.0</ele>
        <time>2013-06-16T09:29:07Z</time>
        <sat>7</sat>
      </trkpt>
      <trkpt lat="46.409210" lon="7.051008">
        <ele>1367.9</ele>
        <time>2013-06-16T09:29:08Z</time>
        <sat>7</sat>
      </trkpt>
      <trkpt lat="46.409138" lon="7.051035">
        <ele>1367.8</ele>
        <time>2013-06-16T09:29:09Z</time>
        <sat>7</sat>
      </trkpt>
      <trkpt lat="46.409063" lon="7.051060">
        <ele>1367.6</ele>
        <time>2013-06-16T09:29:10Z</time>
        <sat>7</sat>
      </trkpt>
      <trkpt lat="46.408988" lon="7.051087">
        <ele>1367.5</ele>
        <time>2013-06-16T09:29:11Z</time>
        <sat>7</sat>
      </trkpt>
      <trkpt lat="46.408912" lon="7.051110">
        <ele>1367.2</ele>
        <time>2013-06-16T09:29:12Z</time>
        <sat>7</sat>
      </trkpt>
      <trkpt lat="46.408832" lon="7.051127">
        <ele>1367.0</ele>
        <time>2013-06-16T09:29:13Z</time>
        <sat>7</sat>
      </trkpt>
      <trkpt lat="46.408750" lon="7.051137">
        <ele>1366.8</ele>
        <time>2013-06-16T09:29:14Z</time>
        <sat>7</sat>
      </trkpt>
      <trkpt lat="46.408668" lon="7.051135">
        <ele>1366.3</ele>
        <time>2013-06-16T09:29:15Z</time>
        <sat>7</sat>
      </trkpt>
      <trkpt lat="46.408587" lon="7.051123">
        <ele>1365.9</ele>
        <time>2013-06-16T09:29:16Z</time>
        <sat>7</sat>
      </trkpt>
      <trkpt lat="46.408503" lon="7.051103">
        <ele>1365.4</ele>
        <time>2013-06-16T09:29:17Z</time>
        <sat>7</sat>
      </trkpt>
      <trkpt lat="46.408420" lon="7.051083">
        <ele>1364.9</ele>
        <time>2013-06-16T09:29:18Z</time>
        <sat>7</sat>
      </trkpt>
      <trkpt lat="46.408337" lon="7.051063">
        <ele>1364.7</ele>
        <time>2013-06-16T09:29:19Z</time>
        <sat>7</sat>
      </trkpt>
      <trkpt lat="46.408253" lon="7.051040">
        <ele>1364.6</ele>
        <time>2013-06-16T09:29:20Z</time>
        <sat>7</sat>
      </trkpt>
      <trkpt lat="46.408168" lon="7.051020">
        <ele>1364.4</ele>
        <time>2013-06-16T09:29:21Z</time>
        <sat>7</sat>
      </trkpt>
      <trkpt lat="46.408083" lon="7.051008">
        <ele>1364.4</ele>
        <time>2013-06-16T09:29:22Z</time>
        <sat>7</sat>
      </trkpt>
      <trkpt lat="46.407998" lon="7.051008">
        <ele>1364.3</ele>
        <time>2013-06-16T09:29:23Z</time>
        <sat>7</sat>
      </trkpt>
      <trkpt lat="46.407913" lon="7.051012">
        <ele>1363.4</ele>
        <time>2013-06-16T09:29:24Z</time>
        <sat>7</sat>
      </trkpt>
      <trkpt lat="46.407828" lon="7.051020">
        <ele>1362.7</ele>
        <time>2013-06-16T09:29:25Z</time>
        <sat>7</sat>
      </trkpt>
      <trkpt lat="46.407745" lon="7.051032">
        <ele>1362.0</ele>
        <time>2013-06-16T09:29:26Z</time>
        <sat>7</sat>
      </trkpt>
      <trkpt lat="46.407662" lon="7.051047">
        <ele>1361.5</ele>
        <time>2013-06-16T09:29:27Z</time>
        <sat>8</sat>
      </trkpt>
      <trkpt lat="46.407577" lon="7.051060">
        <ele>1361.1</ele>
        <time>2013-06-16T09:29:28Z</time>
        <sat>8</sat>
      </trkpt>
      <trkpt lat="46.407493" lon="7.051073">
        <ele>1360.9</ele>
        <time>2013-06-16T09:29:29Z</time>
        <sat>8</sat>
      </trkpt>
      <trkpt lat="46.407407" lon="7.051087">
        <ele>1360.8</ele>
        <time>2013-06-16T09:29:30Z</time>
        <sat>8</sat>
      </trkpt>
      <trkpt lat="46.407322" lon="7.051098">
        <ele>1360.3</ele>
        <time>2013-06-16T09:29:31Z</time>
        <sat>7</sat>
      </trkpt>
      <trkpt lat="46.407235" lon="7.051110">
        <ele>1359.9</ele>
        <time>2013-06-16T09:29:32Z</time>
        <sat>7</sat>
      </trkpt>
      <trkpt lat="46.407147" lon="7.051120">
        <ele>1359.3</ele>
        <time>2013-06-16T09:29:33Z</time>
        <sat>7</sat>
      </trkpt>
      <trkpt lat="46.407057" lon="7.051125">
        <ele>1358.8</ele>
        <time>2013-06-16T09:29:34Z</time>
        <sat>7</sat>
      </trkpt>
      <trkpt lat="46.406965" lon="7.051127">
        <ele>1358.5</ele>
        <time>2013-06-16T09:29:35Z</time>
        <sat>7</sat>
      </trkpt>
      <trkpt lat="46.406873" lon="7.051117">
        <ele>1358.2</ele>
        <time>2013-06-16T09:29:36Z</time>
        <sat>7</sat>
      </trkpt>
      <trkpt lat="46.406782" lon="7.051092">
        <ele>1357.9</ele>
        <time>2013-06-16T09:29:37Z</time>
        <sat>7</sat>
      </trkpt>
      <trkpt lat="46.406690" lon="7.051055">
        <ele>1357.8</ele>
        <time>2013-06-16T09:29:38Z</time>
        <sat>7</sat>
      </trkpt>
      <trkpt lat="46.406600" lon="7.051005">
        <ele>1357.8</ele>
        <time>2013-06-16T09:29:39Z</time>
        <sat>7</sat>
      </trkpt>
      <trkpt lat="46.406517" lon="7.050938">
        <ele>1357.7</ele>
        <time>2013-06-16T09:29:40Z</time>
        <sat>7</sat>
      </trkpt>
      <trkpt lat="46.406440" lon="7.050860">
        <ele>1357.1</ele>
        <time>2013-06-16T09:29:41Z</time>
        <sat>7</sat>
      </trkpt>
      <trkpt lat="46.406368" lon="7.050772">
        <ele>1356.7</ele>
        <time>2013-06-16T09:29:42Z</time>
        <sat>7</sat>
      </trkpt>
      <trkpt lat="46.406305" lon="7.050675">
        <ele>1356.4</ele>
        <time>2013-06-16T09:29:43Z</time>
        <sat>7</sat>
      </trkpt>
      <trkpt lat="46.406248" lon="7.050570">
        <ele>1356.1</ele>
        <time>2013-06-16T09:29:44Z</time>
        <sat>7</sat>
      </trkpt>
      <trkpt lat="46.406202" lon="7.050455">
        <ele>1355.8</ele>
        <time>2013-06-16T09:29:45Z</time>
        <sat>7</sat>
      </trkpt>
      <trkpt lat="46.406163" lon="7.050342">
        <ele>1355.6</ele>
        <time>2013-06-16T09:29:46Z</time>
        <sat>7</sat>
      </trkpt>
      <trkpt lat="46.406133" lon="7.050225">
        <ele>1355.4</ele>
        <time>2013-06-16T09:29:47Z</time>
        <sat>8</sat>
      </trkpt>
      <trkpt lat="46.406112" lon="7.050107">
        <ele>1355.6</ele>
        <time>2013-06-16T09:29:48Z</time>
        <sat>8</sat>
      </trkpt>
      <trkpt lat="46.406100" lon="7.049992">
        <ele>1355.6</ele>
        <time>2013-06-16T09:29:49Z</time>
        <sat>8</sat>
      </trkpt>
      <trkpt lat="46.406085" lon="7.049882">
        <ele>1355.4</ele>
        <time>2013-06-16T09:29:50Z</time>
        <sat>8</sat>
      </trkpt>
      <trkpt lat="46.406082" lon="7.049775">
        <ele>1355.2</ele>
        <time>2013-06-16T09:29:51Z</time>
        <sat>8</sat>
      </trkpt>
      <trkpt lat="46.406092" lon="7.049673">
        <ele>1355.2</ele>
        <time>2013-06-16T09:29:52Z</time>
        <sat>8</sat>
      </trkpt>
      <trkpt lat="46.406107" lon="7.049575">
        <ele>1355.2</ele>
        <time>2013-06-16T09:29:53Z</time>
        <sat>8</sat>
      </trkpt>
      <trkpt lat="46.406123" lon="7.049483">
        <ele>1355.2</ele>
        <time>2013-06-16T09:29:54Z</time>
        <sat>8</sat>
      </trkpt>
      <trkpt lat="46.406143" lon="7.049395">
        <ele>1355.3</ele>
        <time>2013-06-16T09:29:55Z</time>
        <sat>8</sat>
      </trkpt>
      <trkpt lat="46.406170" lon="7.049315">
        <ele>1355.3</ele>
        <time>2013-06-16T09:29:56Z</time>
        <sat>8</sat>
      </trkpt>
      <trkpt lat="46.406202" lon="7.049238">
        <ele>1355.6</ele>
        <time>2013-06-16T09:29:57Z</time>
        <sat>8</sat>
      </trkpt>
      <trkpt lat="46.406233" lon="7.049162">
        <ele>1355.9</ele>
        <time>2013-06-16T09:29:58Z</time>
        <sat>8</sat>
      </trkpt>
      <trkpt lat="46.406268" lon="7.049087">
        <ele>1356.3</ele>
        <time>2013-06-16T09:29:59Z</time>
        <sat>8</sat>
      </trkpt>
      <trkpt lat="46.406308" lon="7.049015">
        <ele>1356.7</ele>
        <time>2013-06-16T09:30:00Z</time>
        <sat>8</sat>
      </trkpt>
      <trkpt lat="46.406350" lon="7.048947">
        <ele>1357.0</ele>
        <time>2013-06-16T09:30:01Z</time>
        <sat>8</sat>
      </trkpt>
      <trkpt lat="46.406395" lon="7.048887">
        <ele>1357.0</ele>
        <time>2013-06-16T09:30:02Z</time>
        <sat>7</sat>
      </trkpt>
      <trkpt lat="46.406442" lon="7.048835">
        <ele>1357.0</ele>
        <time>2013-06-16T09:30:03Z</time>
        <sat>7</sat>
      </trkpt>
      <trkpt lat="46.406487" lon="7.048788">
        <ele>1357.6</ele>
        <time>2013-06-16T09:30:04Z</time>
        <sat>7</sat>
      </trkpt>
      <trkpt lat="46.406533" lon="7.048750">
        <ele>1358.0</ele>
        <time>2013-06-16T09:30:05Z</time>
        <sat>7</sat>
      </trkpt>
      <trkpt lat="46.406580" lon="7.048717">
        <ele>1358.3</ele>
        <time>2013-06-16T09:30:06Z</time>
        <sat>7</sat>
      </trkpt>
      <trkpt lat="46.406625" lon="7.048688">
        <ele>1358.2</ele>
        <time>2013-06-16T09:30:07Z</time>
        <sat>7</sat>
      </trkpt>
      <trkpt lat="46.406707" lon="7.048637">
        <ele>1358.5</ele>
        <time>2013-06-16T09:30:09Z</time>
        <sat>7</sat>
      </trkpt>
      <trkpt lat="46.406780" lon="7.048593">
        <ele>1359.5</ele>
        <time>2013-06-16T09:30:11Z</time>
        <sat>7</sat>
      </trkpt>
      <trkpt lat="46.406845" lon="7.048548">
        <ele>1360.4</ele>
        <time>2013-06-16T09:30:13Z</time>
        <sat>7</sat>
      </trkpt>
      <trkpt lat="46.406908" lon="7.048515">
        <ele>1360.2</ele>
        <time>2013-06-16T09:30:15Z</time>
        <sat>7</sat>
      </trkpt>
      <trkpt lat="46.406973" lon="7.048493">
        <ele>1360.4</ele>
        <time>2013-06-16T09:30:17Z</time>
        <sat>8</sat>
      </trkpt>
      <trkpt lat="46.407037" lon="7.048453">
        <ele>1360.3</ele>
        <time>2013-06-16T09:30:19Z</time>
        <sat>8</sat>
      </trkpt>
      <trkpt lat="46.407097" lon="7.048408">
        <ele>1360.3</ele>
        <time>2013-06-16T09:30:21Z</time>
        <sat>8</sat>
      </trkpt>
      <trkpt lat="46.407158" lon="7.048365">
        <ele>1360.8</ele>
        <time>2013-06-16T09:30:23Z</time>
        <sat>8</sat>
      </trkpt>
      <trkpt lat="46.407232" lon="7.048295">
        <ele>1361.2</ele>
        <time>2013-06-16T09:30:26Z</time>
        <sat>8</sat>
      </trkpt>
      <trkpt lat="46.407292" lon="7.048230">
        <ele>1361.4</ele>
        <time>2013-06-16T09:30:29Z</time>
        <sat>8</sat>
      </trkpt>
      <trkpt lat="46.407370" lon="7.048168">
        <ele>1362.0</ele>
        <time>2013-06-16T09:30:53Z</time>
        <sat>8</sat>
      </trkpt>
      <trkpt lat="46.407372" lon="7.048168">
        <ele>1361.8</ele>
        <time>2013-06-16T09:30:54Z</time>
        <sat>8</sat>
      </trkpt>
      <trkpt lat="46.407420" lon="7.048037">
        <ele>1361.4</ele>
        <time>2013-06-16T09:33:27Z</time>
        <sat>8</sat>
      </trkpt>
      <trkpt lat="46.407497" lon="7.047890">
        <ele>1361.6</ele>
        <time>2013-06-16T09:33:32Z</time>
        <sat>8</sat>
      </trkpt>
      <trkpt lat="46.407555" lon="7.047797">
        <ele>1362.0</ele>
        <time>2013-06-16T09:33:35Z</time>
        <sat>8</sat>
      </trkpt>
      <trkpt lat="46.407595" lon="7.047728">
        <ele>1362.5</ele>
        <time>2013-06-16T09:33:37Z</time>
        <sat>8</sat>
      </trkpt>
      <trkpt lat="46.407635" lon="7.047665">
        <ele>1362.9</ele>
        <time>2013-06-16T09:33:39Z</time>
        <sat>8</sat>
      </trkpt>
      <trkpt lat="46.407687" lon="7.047610">
        <ele>1363.0</ele>
        <time>2013-06-16T09:33:41Z</time>
        <sat>8</sat>
      </trkpt>
      <trkpt lat="46.407740" lon="7.047548">
        <ele>1363.4</ele>
        <time>2013-06-16T09:33:43Z</time>
        <sat>8</sat>
      </trkpt>
      <trkpt lat="46.407798" lon="7.047498">
        <ele>1363.6</ele>
        <time>2013-06-16T09:33:45Z</time>
        <sat>8</sat>
      </trkpt>
      <trkpt lat="46.407860" lon="7.047453">
        <ele>1363.6</ele>
        <time>2013-06-16T09:33:47Z</time>
        <sat>8</sat>
      </trkpt>
      <trkpt lat="46.407925" lon="7.047415">
        <ele>1363.6</ele>
        <time>2013-06-16T09:33:49Z</time>
        <sat>8</sat>
      </trkpt>
      <trkpt lat="46.407992" lon="7.047383">
        <ele>1363.8</ele>
        <time>2013-06-16T09:33:51Z</time>
        <sat>8</sat>
      </trkpt>
      <trkpt lat="46.408058" lon="7.047355">
        <ele>1364.9</ele>
        <time>2013-06-16T09:33:53Z</time>
        <sat>8</sat>
      </trkpt>
      <trkpt lat="46.408123" lon="7.047327">
        <ele>1365.4</ele>
        <time>2013-06-16T09:33:55Z</time>
        <sat>8</sat>
      </trkpt>
      <trkpt lat="46.408188" lon="7.047298">
        <ele>1365.1</ele>
        <time>2013-06-16T09:33:57Z</time>
        <sat>8</sat>
      </trkpt>
      <trkpt lat="46.408252" lon="7.047268">
        <ele>1365.1</ele>
        <time>2013-06-16T09:33:59Z</time>
        <sat>8</sat>
      </trkpt>
      <trkpt lat="46.408320" lon="7.047243">
        <ele>1365.5</ele>
        <time>2013-06-16T09:34:01Z</time>
        <sat>8</sat>
      </trkpt>
      <trkpt lat="46.408387" lon="7.047210">
        <ele>1365.8</ele>
        <time>2013-06-16T09:34:03Z</time>
        <sat>8</sat>
      </trkpt>
      <trkpt lat="46.408453" lon="7.047175">
        <ele>1366.1</ele>
        <time>2013-06-16T09:34:05Z</time>
        <sat>8</sat>
      </trkpt>
      <trkpt lat="46.408518" lon="7.047135">
        <ele>1366.2</ele>
        <time>2013-06-16T09:34:07Z</time>
        <sat>8</sat>
      </trkpt>
      <trkpt lat="46.408580" lon="7.047092">
        <ele>1366.5</ele>
        <time>2013-06-16T09:34:09Z</time>
        <sat>8</sat>
      </trkpt>
      <trkpt lat="46.408640" lon="7.047047">
        <ele>1366.9</ele>
        <time>2013-06-16T09:34:11Z</time>
        <sat>8</sat>
      </trkpt>
      <trkpt lat="46.408700" lon="7.046997">
        <ele>1367.5</ele>
        <time>2013-06-16T09:34:13Z</time>
        <sat>8</sat>
      </trkpt>
      <trkpt lat="46.408758" lon="7.046945">
        <ele>1368.0</ele>
        <time>2013-06-16T09:34:15Z</time>
        <sat>8</sat>
      </trkpt>
      <trkpt lat="46.408815" lon="7.046890">
        <ele>1368.4</ele>
        <time>2013-06-16T09:34:17Z</time>
        <sat>8</sat>
      </trkpt>
      <trkpt lat="46.408870" lon="7.046832">
        <ele>1369.0</ele>
        <time>2013-06-16T09:34:19Z</time>
        <sat>8</sat>
      </trkpt>
      <trkpt lat="46.408922" lon="7.046768">
        <ele>1369.1</ele>
        <time>2013-06-16T09:34:21Z</time>
        <sat>8</sat>
      </trkpt>
      <trkpt lat="46.408977" lon="7.046700">
        <ele>1369.1</ele>
        <time>2013-06-16T09:34:23Z</time>
        <sat>8</sat>
      </trkpt>
      <trkpt lat="46.409030" lon="7.046632">
        <ele>1369.6</ele>
        <time>2013-06-16T09:34:25Z</time>
        <sat>8</sat>
      </trkpt>
      <trkpt lat="46.409080" lon="7.046557">
        <ele>1370.2</ele>
        <time>2013-06-16T09:34:27Z</time>
        <sat>8</sat>
      </trkpt>
      <trkpt lat="46.409103" lon="7.046518">
        <ele>1370.4</ele>
        <time>2013-06-16T09:34:28Z</time>
        <sat>8</sat>
      </trkpt>
      <trkpt lat="46.409173" lon="7.046402">
        <ele>1371.3</ele>
        <time>2013-06-16T09:34:31Z</time>
        <sat>8</sat>
      </trkpt>
      <trkpt lat="46.409215" lon="7.046325">
        <ele>1371.3</ele>
        <time>2013-06-16T09:34:33Z</time>
        <sat>8</sat>
      </trkpt>
      <trkpt lat="46.409258" lon="7.046247">
        <ele>1371.4</ele>
        <time>2013-06-16T09:34:35Z</time>
        <sat>8</sat>
      </trkpt>
      <trkpt lat="46.409297" lon="7.046162">
        <ele>1371.4</ele>
        <time>2013-06-16T09:34:37Z</time>
        <sat>8</sat>
      </trkpt>
      <trkpt lat="46.409333" lon="7.046073">
        <ele>1371.4</ele>
        <time>2013-06-16T09:34:39Z</time>
        <sat>7</sat>
      </trkpt>
      <trkpt lat="46.409368" lon="7.045982">
        <ele>1372.1</ele>
        <time>2013-06-16T09:34:41Z</time>
        <sat>7</sat>
      </trkpt>
      <trkpt lat="46.409403" lon="7.045893">
        <ele>1372.3</ele>
        <time>2013-06-16T09:34:43Z</time>
        <sat>7</sat>
      </trkpt>
      <trkpt lat="46.409437" lon="7.045808">
        <ele>1372.0</ele>
        <time>2013-06-16T09:34:45Z</time>
        <sat>7</sat>
      </trkpt>
      <trkpt lat="46.409468" lon="7.045718">
        <ele>1372.2</ele>
        <time>2013-06-16T09:34:47Z</time>
        <sat>7</sat>
      </trkpt>
      <trkpt lat="46.409498" lon="7.045630">
        <ele>1373.4</ele>
        <time>2013-06-16T09:34:49Z</time>
        <sat>7</sat>
      </trkpt>
      <trkpt lat="46.409533" lon="7.045547">
        <ele>1374.4</ele>
        <time>2013-06-16T09:34:51Z</time>
        <sat>7</sat>
      </trkpt>
      <trkpt lat="46.409565" lon="7.045458">
        <ele>1374.7</ele>
        <time>2013-06-16T09:34:53Z</time>
        <sat>7</sat>
      </trkpt>
      <trkpt lat="46.409597" lon="7.045363">
        <ele>1374.1</ele>
        <time>2013-06-16T09:34:55Z</time>
        <sat>7</sat>
      </trkpt>
      <trkpt lat="46.409628" lon="7.045272">
        <ele>1374.2</ele>
        <time>2013-06-16T09:34:57Z</time>
        <sat>7</sat>
      </trkpt>
      <trkpt lat="46.409665" lon="7.045180">
        <ele>1374.3</ele>
        <time>2013-06-16T09:34:59Z</time>
        <sat>7</sat>
      </trkpt>
      <trkpt lat="46.409693" lon="7.045090">
        <ele>1374.8</ele>
        <time>2013-06-16T09:35:01Z</time>
        <sat>7</sat>
      </trkpt>
      <trkpt lat="46.409723" lon="7.045002">
        <ele>1375.5</ele>
        <time>2013-06-16T09:35:03Z</time>
        <sat>7</sat>
      </trkpt>
      <trkpt lat="46.409753" lon="7.044915">
        <ele>1376.1</ele>
        <time>2013-06-16T09:35:05Z</time>
        <sat>7</sat>
      </trkpt>
      <trkpt lat="46.409782" lon="7.044827">
        <ele>1376.3</ele>
        <time>2013-06-16T09:35:07Z</time>
        <sat>7</sat>
      </trkpt>
      <trkpt lat="46.409810" lon="7.044742">
        <ele>1376.2</ele>
        <time>2013-06-16T09:35:09Z</time>
        <sat>7</sat>
      </trkpt>
      <trkpt lat="46.409840" lon="7.044657">
        <ele>1376.9</ele>
        <time>2013-06-16T09:35:11Z</time>
        <sat>7</sat>
      </trkpt>
      <trkpt lat="46.409868" lon="7.044572">
        <ele>1377.3</ele>
        <time>2013-06-16T09:35:13Z</time>
        <sat>7</sat>
      </trkpt>
      <trkpt lat="46.409897" lon="7.044487">
        <ele>1377.4</ele>
        <time>2013-06-16T09:35:15Z</time>
        <sat>7</sat>
      </trkpt>
      <trkpt lat="46.409925" lon="7.044402">
        <ele>1377.3</ele>
        <time>2013-06-16T09:35:17Z</time>
        <sat>7</sat>
      </trkpt>
      <trkpt lat="46.409967" lon="7.044328">
        <ele>1377.7</ele>
        <time>2013-06-16T09:35:19Z</time>
        <sat>7</sat>
      </trkpt>
      <trkpt lat="46.410012" lon="7.044260">
        <ele>1377.5</ele>
        <time>2013-06-16T09:35:21Z</time>
        <sat>7</sat>
      </trkpt>
      <trkpt lat="46.410057" lon="7.044190">
        <ele>1377.4</ele>
        <time>2013-06-16T09:35:23Z</time>
        <sat>7</sat>
      </trkpt>
      <trkpt lat="46.410107" lon="7.044127">
        <ele>1377.8</ele>
        <time>2013-06-16T09:35:25Z</time>
        <sat>7</sat>
      </trkpt>
      <trkpt lat="46.410160" lon="7.044072">
        <ele>1378.5</ele>
        <time>2013-06-16T09:35:27Z</time>
        <sat>7</sat>
      </trkpt>
      <trkpt lat="46.410217" lon="7.044023">
        <ele>1379.4</ele>
        <time>2013-06-16T09:35:29Z</time>
        <sat>7</sat>
      </trkpt>
      <trkpt lat="46.410247" lon="7.044000">
        <ele>1380.0</ele>
        <time>2013-06-16T09:35:30Z</time>
        <sat>7</sat>
      </trkpt>
      <trkpt lat="46.410337" lon="7.043937">
        <ele>1379.8</ele>
        <time>2013-06-16T09:35:33Z</time>
        <sat>7</sat>
      </trkpt>
      <trkpt lat="46.410398" lon="7.043905">
        <ele>1379.6</ele>
        <time>2013-06-16T09:35:35Z</time>
        <sat>7</sat>
      </trkpt>
      <trkpt lat="46.410460" lon="7.043880">
        <ele>1379.7</ele>
        <time>2013-06-16T09:35:37Z</time>
        <sat>7</sat>
      </trkpt>
      <trkpt lat="46.410523" lon="7.043862">
        <ele>1380.4</ele>
        <time>2013-06-16T09:35:39Z</time>
        <sat>7</sat>
      </trkpt>
      <trkpt lat="46.410585" lon="7.043838">
        <ele>1380.6</ele>
        <time>2013-06-16T09:35:41Z</time>
        <sat>7</sat>
      </trkpt>
      <trkpt lat="46.410645" lon="7.043813">
        <ele>1380.2</ele>
        <time>2013-06-16T09:35:43Z</time>
        <sat>7</sat>
      </trkpt>
      <trkpt lat="46.410703" lon="7.043790">
        <ele>1381.2</ele>
        <time>2013-06-16T09:35:45Z</time>
        <sat>7</sat>
      </trkpt>
      <trkpt lat="46.410765" lon="7.043768">
        <ele>1380.9</ele>
        <time>2013-06-16T09:35:47Z</time>
        <sat>7</sat>
      </trkpt>
      <trkpt lat="46.410828" lon="7.043748">
        <ele>1381.6</ele>
        <time>2013-06-16T09:35:49Z</time>
        <sat>7</sat>
      </trkpt>
      <trkpt lat="46.410890" lon="7.043723">
        <ele>1381.7</ele>
        <time>2013-06-16T09:35:51Z</time>
        <sat>7</sat>
      </trkpt>
      <trkpt lat="46.410953" lon="7.043698">
        <ele>1381.9</ele>
        <time>2013-06-16T09:35:53Z</time>
        <sat>7</sat>
      </trkpt>
      <trkpt lat="46.411017" lon="7.043675">
        <ele>1382.4</ele>
        <time>2013-06-16T09:35:55Z</time>
        <sat>7</sat>
      </trkpt>
      <trkpt lat="46.411082" lon="7.043653">
        <ele>1382.0</ele>
        <time>2013-06-16T09:35:57Z</time>
        <sat>7</sat>
      </trkpt>
      <trkpt lat="46.411145" lon="7.043627">
        <ele>1382.0</ele>
        <time>2013-06-16T09:35:59Z</time>
        <sat>7</sat>
      </trkpt>
      <trkpt lat="46.411208" lon="7.043600">
        <ele>1382.5</ele>
        <time>2013-06-16T09:36:01Z</time>
        <sat>7</sat>
      </trkpt>
      <trkpt lat="46.411270" lon="7.043578">
        <ele>1383.0</ele>
        <time>2013-06-16T09:36:03Z</time>
        <sat>7</sat>
      </trkpt>
      <trkpt lat="46.411335" lon="7.043557">
        <ele>1383.7</ele>
        <time>2013-06-16T09:36:05Z</time>
        <sat>7</sat>
      </trkpt>
      <trkpt lat="46.411399" lon="7.043530">
        <ele>1384.2</ele>
        <time>2013-06-16T09:36:07Z</time>
        <sat>7</sat>
      </trkpt>
      <trkpt lat="46.411463" lon="7.043507">
        <ele>1384.6</ele>
        <time>2013-06-16T09:36:09Z</time>
        <sat>8</sat>
      </trkpt>
      <trkpt lat="46.411530" lon="7.043483">
        <ele>1385.5</ele>
        <time>2013-06-16T09:36:11Z</time>
        <sat>8</sat>
      </trkpt>
      <trkpt lat="46.411597" lon="7.043458">
        <ele>1385.8</ele>
        <time>2013-06-16T09:36:13Z</time>
        <sat>8</sat>
      </trkpt>
      <trkpt lat="46.411663" lon="7.043432">
        <ele>1385.9</ele>
        <time>2013-06-16T09:36:15Z</time>
        <sat>8</sat>
      </trkpt>
      <trkpt lat="46.411727" lon="7.043408">
        <ele>1386.2</ele>
        <time>2013-06-16T09:36:17Z</time>
        <sat>8</sat>
      </trkpt>
      <trkpt lat="46.411793" lon="7.043380">
        <ele>1386.4</ele>
        <time>2013-06-16T09:36:19Z</time>
        <sat>8</sat>
      </trkpt>
      <trkpt lat="46.411860" lon="7.043350">
        <ele>1386.4</ele>
        <time>2013-06-16T09:36:21Z</time>
        <sat>8</sat>
      </trkpt>
      <trkpt lat="46.411927" lon="7.043315">
        <ele>1386.2</ele>
        <time>2013-06-16T09:36:23Z</time>
        <sat>8</sat>
      </trkpt>
      <trkpt lat="46.411992" lon="7.043273">
        <ele>1386.4</ele>
        <time>2013-06-16T09:36:25Z</time>
        <sat>8</sat>
      </trkpt>
      <trkpt lat="46.412055" lon="7.043227">
        <ele>1386.5</ele>
        <time>2013-06-16T09:36:27Z</time>
        <sat>8</sat>
      </trkpt>
      <trkpt lat="46.412123" lon="7.043178">
        <ele>1386.9</ele>
        <time>2013-06-16T09:36:29Z</time>
        <sat>8</sat>
      </trkpt>
      <trkpt lat="46.412193" lon="7.043133">
        <ele>1387.2</ele>
        <time>2013-06-16T09:36:31Z</time>
        <sat>8</sat>
      </trkpt>
      <trkpt lat="46.412230" lon="7.043112">
        <ele>1387.2</ele>
        <time>2013-06-16T09:36:32Z</time>
        <sat>8</sat>
      </trkpt>
      <trkpt lat="46.412347" lon="7.043033">
        <ele>1387.3</ele>
        <time>2013-06-16T09:36:35Z</time>
        <sat>8</sat>
      </trkpt>
      <trkpt lat="46.412430" lon="7.042990">
        <ele>1387.2</ele>
        <time>2013-06-16T09:36:37Z</time>
        <sat>8</sat>
      </trkpt>
      <trkpt lat="46.412473" lon="7.042972">
        <ele>1387.3</ele>
        <time>2013-06-16T09:36:38Z</time>
        <sat>8</sat>
      </trkpt>
      <trkpt lat="46.412520" lon="7.042957">
        <ele>1387.3</ele>
        <time>2013-06-16T09:36:39Z</time>
        <sat>8</sat>
      </trkpt>
      <trkpt lat="46.412567" lon="7.042943">
        <ele>1387.4</ele>
        <time>2013-06-16T09:36:40Z</time>
        <sat>8</sat>
      </trkpt>
      <trkpt lat="46.412613" lon="7.042930">
        <ele>1387.2</ele>
        <time>2013-06-16T09:36:41Z</time>
        <sat>8</sat>
      </trkpt>
      <trkpt lat="46.412663" lon="7.042918">
        <ele>1387.2</ele>
        <time>2013-06-16T09:36:42Z</time>
        <sat>8</sat>
      </trkpt>
      <trkpt lat="46.412715" lon="7.042907">
        <ele>1387.5</ele>
        <time>2013-06-16T09:36:43Z</time>
        <sat>8</sat>
      </trkpt>
      <trkpt lat="46.412767" lon="7.042892">
        <ele>1387.8</ele>
        <time>2013-06-16T09:36:44Z</time>
        <sat>8</sat>
      </trkpt>
      <trkpt lat="46.412820" lon="7.042878">
        <ele>1387.4</ele>
        <time>2013-06-16T09:36:45Z</time>
        <sat>8</sat>
      </trkpt>
      <trkpt lat="46.412877" lon="7.042862">
        <ele>1387.0</ele>
        <time>2013-06-16T09:36:46Z</time>
        <sat>8</sat>
      </trkpt>
      <trkpt lat="46.412933" lon="7.042840">
        <ele>1386.8</ele>
        <time>2013-06-16T09:36:47Z</time>
        <sat>8</sat>
      </trkpt>
      <trkpt lat="46.412988" lon="7.042812">
        <ele>1386.7</ele>
        <time>2013-06-16T09:36:48Z</time>
        <sat>8</sat>
      </trkpt>
      <trkpt lat="46.413045" lon="7.042780">
        <ele>1386.6</ele>
        <time>2013-06-16T09:36:49Z</time>
        <sat>8</sat>
      </trkpt>
      <trkpt lat="46.413103" lon="7.042750">
        <ele>1386.8</ele>
        <time>2013-06-16T09:36:50Z</time>
        <sat>8</sat>
      </trkpt>
      <trkpt lat="46.413163" lon="7.042723">
        <ele>1386.9</ele>
        <time>2013-06-16T09:36:51Z</time>
        <sat>8</sat>
      </trkpt>
      <trkpt lat="46.413222" lon="7.042695">
        <ele>1387.1</ele>
        <time>2013-06-16T09:36:52Z</time>
        <sat>8</sat>
      </trkpt>
      <trkpt lat="46.413283" lon="7.042663">
        <ele>1386.9</ele>
        <time>2013-06-16T09:36:53Z</time>
        <sat>8</sat>
      </trkpt>
      <trkpt lat="46.413345" lon="7.042632">
        <ele>1386.8</ele>
        <time>2013-06-16T09:36:54Z</time>
        <sat>8</sat>
      </trkpt>
      <trkpt lat="46.413407" lon="7.042602">
        <ele>1386.2</ele>
        <time>2013-06-16T09:36:55Z</time>
        <sat>8</sat>
      </trkpt>
      <trkpt lat="46.413472" lon="7.042573">
        <ele>1385.7</ele>
        <time>2013-06-16T09:36:56Z</time>
        <sat>8</sat>
      </trkpt>
      <trkpt lat="46.413538" lon="7.042550">
        <ele>1385.4</ele>
        <time>2013-06-16T09:36:57Z</time>
        <sat>8</sat>
      </trkpt>
      <trkpt lat="46.413610" lon="7.042532">
        <ele>1385.1</ele>
        <time>2013-06-16T09:36:58Z</time>
        <sat>8</sat>
      </trkpt>
      <trkpt lat="46.413680" lon="7.042522">
        <ele>1384.9</ele>
        <time>2013-06-16T09:36:59Z</time>
        <sat>8</sat>
      </trkpt>
      <trkpt lat="46.413752" lon="7.042520">
        <ele>1384.8</ele>
        <time>2013-06-16T09:37:00Z</time>
        <sat>8</sat>
      </trkpt>
      <trkpt lat="46.413823" lon="7.042525">
        <ele>1384.7</ele>
        <time>2013-06-16T09:37:01Z</time>
        <sat>8</sat>
      </trkpt>
      <trkpt lat="46.413893" lon="7.042540">
        <ele>1384.3</ele>
        <time>2013-06-16T09:37:02Z</time>
        <sat>8</sat>
      </trkpt>
      <trkpt lat="46.413960" lon="7.042557">
        <ele>1384.0</ele>
        <time>2013-06-16T09:37:03Z</time>
        <sat>8</sat>
      </trkpt>
      <trkpt lat="46.414027" lon="7.042578">
        <ele>1383.5</ele>
        <time>2013-06-16T09:37:04Z</time>
        <sat>8</sat>
      </trkpt>
      <trkpt lat="46.414093" lon="7.042605">
        <ele>1383.1</ele>
        <time>2013-06-16T09:37:05Z</time>
        <sat>8</sat>
      </trkpt>
      <trkpt lat="46.414160" lon="7.042630">
        <ele>1382.8</ele>
        <time>2013-06-16T09:37:06Z</time>
        <sat>8</sat>
      </trkpt>
      <trkpt lat="46.414225" lon="7.042657">
        <ele>1382.5</ele>
        <time>2013-06-16T09:37:07Z</time>
        <sat>8</sat>
      </trkpt>
      <trkpt lat="46.414287" lon="7.042680">
        <ele>1382.3</ele>
        <time>2013-06-16T09:37:08Z</time>
        <sat>8</sat>
      </trkpt>
      <trkpt lat="46.414347" lon="7.042700">
        <ele>1382.2</ele>
        <time>2013-06-16T09:37:09Z</time>
        <sat>8</sat>
      </trkpt>
      <trkpt lat="46.414398" lon="7.042713">
        <ele>1382.2</ele>
        <time>2013-06-16T09:37:10Z</time>
        <sat>8</sat>
      </trkpt>
      <trkpt lat="46.414480" lon="7.042728">
        <ele>1381.2</ele>
        <time>2013-06-16T09:37:12Z</time>
        <sat>8</sat>
      </trkpt>
      <trkpt lat="46.414557" lon="7.042688">
        <ele>1380.6</ele>
        <time>2013-06-16T09:37:14Z</time>
        <sat>8</sat>
      </trkpt>
      <trkpt lat="46.414593" lon="7.042650">
        <ele>1380.4</ele>
        <time>2013-06-16T09:37:15Z</time>
        <sat>8</sat>
      </trkpt>
      <trkpt lat="46.414627" lon="7.042602">
        <ele>1380.2</ele>
        <time>2013-06-16T09:37:16Z</time>
        <sat>8</sat>
      </trkpt>
      <trkpt lat="46.414663" lon="7.042550">
        <ele>1380.0</ele>
        <time>2013-06-16T09:37:17Z</time>
        <sat>8</sat>
      </trkpt>
      <trkpt lat="46.414703" lon="7.042507">
        <ele>1379.8</ele>
        <time>2013-06-16T09:37:18Z</time>
        <sat>8</sat>
      </trkpt>
      <trkpt lat="46.414747" lon="7.042468">
        <ele>1379.7</ele>
        <time>2013-06-16T09:37:19Z</time>
        <sat>8</sat>
      </trkpt>
      <trkpt lat="46.414792" lon="7.042435">
        <ele>1379.7</ele>
        <time>2013-06-16T09:37:20Z</time>
        <sat>8</sat>
      </trkpt>
      <trkpt lat="46.414833" lon="7.042403">
        <ele>1379.9</ele>
        <time>2013-06-16T09:37:21Z</time>
        <sat>8</sat>
      </trkpt>
      <trkpt lat="46.414908" lon="7.042343">
        <ele>1380.2</ele>
        <time>2013-06-16T09:37:23Z</time>
        <sat>8</sat>
      </trkpt>
      <trkpt lat="46.414967" lon="7.042283">
        <ele>1380.4</ele>
        <time>2013-06-16T09:37:25Z</time>
        <sat>8</sat>
      </trkpt>
      <trkpt lat="46.415018" lon="7.042232">
        <ele>1380.4</ele>
        <time>2013-06-16T09:37:27Z</time>
        <sat>8</sat>
      </trkpt>
      <trkpt lat="46.415078" lon="7.042153">
        <ele>1381.3</ele>
        <time>2013-06-16T09:37:30Z</time>
        <sat>8</sat>
      </trkpt>
      <trkpt lat="46.415132" lon="7.042068">
        <ele>1381.9</ele>
        <time>2013-06-16T09:37:33Z</time>
        <sat>8</sat>
      </trkpt>
      <trkpt lat="46.415145" lon="7.042037">
        <ele>1382.1</ele>
        <time>2013-06-16T09:37:34Z</time>
        <sat>8</sat>
      </trkpt>
      <trkpt lat="46.415167" lon="7.041860">
        <ele>1384.1</ele>
        <time>2013-06-16T09:37:39Z</time>
        <sat>8</sat>
      </trkpt>
      <trkpt lat="46.415123" lon="7.041765">
        <ele>1384.4</ele>
        <time>2013-06-16T09:37:43Z</time>
        <sat>7</sat>
      </trkpt>
      <trkpt lat="46.415040" lon="7.041730">
        <ele>1386.1</ele>
        <time>2013-06-16T09:37:48Z</time>
        <sat>8</sat>
      </trkpt>
      <trkpt lat="46.414975" lon="7.041782">
        <ele>1386.9</ele>
        <time>2013-06-16T09:37:52Z</time>
        <sat>8</sat>
      </trkpt>
      <trkpt lat="46.414912" lon="7.041847">
        <ele>1386.9</ele>
        <time>2013-06-16T09:37:56Z</time>
        <sat>8</sat>
      </trkpt>
      <trkpt lat="46.414843" lon="7.041910">
        <ele>1387.9</ele>
        <time>2013-06-16T09:38:00Z</time>
        <sat>8</sat>
      </trkpt>
      <trkpt lat="46.414763" lon="7.041907">
        <ele>1388.8</ele>
        <time>2013-06-16T09:38:04Z</time>
        <sat>8</sat>
      </trkpt>
      <trkpt lat="46.414700" lon="7.041837">
        <ele>1390.2</ele>
        <time>2013-06-16T09:38:08Z</time>
        <sat>8</sat>
      </trkpt>
      <trkpt lat="46.414682" lon="7.041730">
        <ele>1391.1</ele>
        <time>2013-06-16T09:38:12Z</time>
        <sat>8</sat>
      </trkpt>
      <trkpt lat="46.414675" lon="7.041622">
        <ele>1391.8</ele>
        <time>2013-06-16T09:38:16Z</time>
        <sat>8</sat>
      </trkpt>
      <trkpt lat="46.414648" lon="7.041515">
        <ele>1392.7</ele>
        <time>2013-06-16T09:38:20Z</time>
        <sat>8</sat>
      </trkpt>
      <trkpt lat="46.414592" lon="7.041433">
        <ele>1393.0</ele>
        <time>2013-06-16T09:38:24Z</time>
        <sat>8</sat>
      </trkpt>
      <trkpt lat="46.414517" lon="7.041417">
        <ele>1394.0</ele>
        <time>2013-06-16T09:38:28Z</time>
        <sat>8</sat>
      </trkpt>
      <trkpt lat="46.414428" lon="7.041433">
        <ele>1395.2</ele>
        <time>2013-06-16T09:38:33Z</time>
        <sat>8</sat>
      </trkpt>
      <trkpt lat="46.414345" lon="7.041460">
        <ele>1395.3</ele>
        <time>2013-06-16T09:38:38Z</time>
        <sat>8</sat>
      </trkpt>
      <trkpt lat="46.414330" lon="7.041468">
        <ele>1396.0</ele>
        <time>2013-06-16T09:38:39Z</time>
        <sat>8</sat>
      </trkpt>
      <trkpt lat="46.414183" lon="7.041550">
        <ele>1398.3</ele>
        <time>2013-06-16T09:38:48Z</time>
        <sat>8</sat>
      </trkpt>
      <trkpt lat="46.414103" lon="7.041582">
        <ele>1399.3</ele>
        <time>2013-06-16T09:38:53Z</time>
        <sat>8</sat>
      </trkpt>
      <trkpt lat="46.414025" lon="7.041627">
        <ele>1400.5</ele>
        <time>2013-06-16T09:38:58Z</time>
        <sat>9</sat>
      </trkpt>
      <trkpt lat="46.413942" lon="7.041672">
        <ele>1400.8</ele>
        <time>2013-06-16T09:39:03Z</time>
        <sat>9</sat>
      </trkpt>
      <trkpt lat="46.413862" lon="7.041700">
        <ele>1402.3</ele>
        <time>2013-06-16T09:39:08Z</time>
        <sat>9</sat>
      </trkpt>
      <trkpt lat="46.413782" lon="7.041738">
        <ele>1404.0</ele>
        <time>2013-06-16T09:39:13Z</time>
        <sat>9</sat>
      </trkpt>
      <trkpt lat="46.413697" lon="7.041768">
        <ele>1405.5</ele>
        <time>2013-06-16T09:39:18Z</time>
        <sat>9</sat>
      </trkpt>
      <trkpt lat="46.413615" lon="7.041800">
        <ele>1406.2</ele>
        <time>2013-06-16T09:39:23Z</time>
        <sat>9</sat>
      </trkpt>
      <trkpt lat="46.413545" lon="7.041833">
        <ele>1406.5</ele>
        <time>2013-06-16T09:39:27Z</time>
        <sat>9</sat>
      </trkpt>
      <trkpt lat="46.413472" lon="7.041867">
        <ele>1406.3</ele>
        <time>2013-06-16T09:39:31Z</time>
        <sat>9</sat>
      </trkpt>
      <trkpt lat="46.413398" lon="7.041872">
        <ele>1408.5</ele>
        <time>2013-06-16T09:39:35Z</time>
        <sat>9</sat>
      </trkpt>
      <trkpt lat="46.413315" lon="7.041890">
        <ele>1409.1</ele>
        <time>2013-06-16T09:39:39Z</time>
        <sat>9</sat>
      </trkpt>
      <trkpt lat="46.413297" lon="7.041895">
        <ele>1409.1</ele>
        <time>2013-06-16T09:39:40Z</time>
        <sat>9</sat>
      </trkpt>
      <trkpt lat="46.413160" lon="7.041943">
        <ele>1411.4</ele>
        <time>2013-06-16T09:39:48Z</time>
        <sat>9</sat>
      </trkpt>
      <trkpt lat="46.413055" lon="7.041979">
        <ele>1411.4</ele>
        <time>2013-06-16T09:39:54Z</time>
        <sat>7</sat>
      </trkpt>
      <trkpt lat="46.412973" lon="7.042015">
        <ele>1412.4</ele>
        <time>2013-06-16T09:39:58Z</time>
        <sat>7</sat>
      </trkpt>
      <trkpt lat="46.412903" lon="7.042037">
        <ele>1413.1</ele>
        <time>2013-06-16T09:40:01Z</time>
        <sat>7</sat>
      </trkpt>
      <trkpt lat="46.412818" lon="7.042058">
        <ele>1413.4</ele>
        <time>2013-06-16T09:40:05Z</time>
        <sat>7</sat>
      </trkpt>
      <trkpt lat="46.412735" lon="7.042077">
        <ele>1413.1</ele>
        <time>2013-06-16T09:40:09Z</time>
        <sat>7</sat>
      </trkpt>
      <trkpt lat="46.412662" lon="7.042092">
        <ele>1413.2</ele>
        <time>2013-06-16T09:40:12Z</time>
        <sat>7</sat>
      </trkpt>
      <trkpt lat="46.412590" lon="7.042094">
        <ele>1414.5</ele>
        <time>2013-06-16T09:40:15Z</time>
        <sat>7</sat>
      </trkpt>
      <trkpt lat="46.412515" lon="7.042094">
        <ele>1415.8</ele>
        <time>2013-06-16T09:40:19Z</time>
        <sat>7</sat>
      </trkpt>
      <trkpt lat="46.412442" lon="7.042090">
        <ele>1416.9</ele>
        <time>2013-06-16T09:40:23Z</time>
        <sat>8</sat>
      </trkpt>
      <trkpt lat="46.412362" lon="7.042098">
        <ele>1417.6</ele>
        <time>2013-06-16T09:40:27Z</time>
        <sat>8</sat>
      </trkpt>
      <trkpt lat="46.412273" lon="7.042100">
        <ele>1417.7</ele>
        <time>2013-06-16T09:40:31Z</time>
        <sat>8</sat>
      </trkpt>
      <trkpt lat="46.412200" lon="7.042102">
        <ele>1417.9</ele>
        <time>2013-06-16T09:40:34Z</time>
        <sat>8</sat>
      </trkpt>
      <trkpt lat="46.412125" lon="7.042103">
        <ele>1418.5</ele>
        <time>2013-06-16T09:40:37Z</time>
        <sat>8</sat>
      </trkpt>
      <trkpt lat="46.412040" lon="7.042102">
        <ele>1419.3</ele>
        <time>2013-06-16T09:40:41Z</time>
        <sat>8</sat>
      </trkpt>
      <trkpt lat="46.412020" lon="7.042105">
        <ele>1419.4</ele>
        <time>2013-06-16T09:40:42Z</time>
        <sat>8</sat>
      </trkpt>
      <trkpt lat="46.411873" lon="7.042152">
        <ele>1419.6</ele>
        <time>2013-06-16T09:40:49Z</time>
        <sat>8</sat>
      </trkpt>
      <trkpt lat="46.411805" lon="7.042172">
        <ele>1420.0</ele>
        <time>2013-06-16T09:40:52Z</time>
        <sat>8</sat>
      </trkpt>
      <trkpt lat="46.411733" lon="7.042192">
        <ele>1420.3</ele>
        <time>2013-06-16T09:40:55Z</time>
        <sat>8</sat>
      </trkpt>
      <trkpt lat="46.411660" lon="7.042188">
        <ele>1420.9</ele>
        <time>2013-06-16T09:40:58Z</time>
        <sat>8</sat>
      </trkpt>
      <trkpt lat="46.411592" lon="7.042182">
        <ele>1420.9</ele>
        <time>2013-06-16T09:41:01Z</time>
        <sat>8</sat>
      </trkpt>
      <trkpt lat="46.411522" lon="7.042178">
        <ele>1421.0</ele>
        <time>2013-06-16T09:41:04Z</time>
        <sat>8</sat>
      </trkpt>
      <trkpt lat="46.411437" lon="7.042153">
        <ele>1422.0</ele>
        <time>2013-06-16T09:41:08Z</time>
        <sat>8</sat>
      </trkpt>
      <trkpt lat="46.411363" lon="7.042112">
        <ele>1423.4</ele>
        <time>2013-06-16T09:41:12Z</time>
        <sat>8</sat>
      </trkpt>
      <trkpt lat="46.411288" lon="7.042065">
        <ele>1423.1</ele>
        <time>2013-06-16T09:41:16Z</time>
        <sat>8</sat>
      </trkpt>
      <trkpt lat="46.411225" lon="7.041993">
        <ele>1423.9</ele>
        <time>2013-06-16T09:41:20Z</time>
        <sat>7</sat>
      </trkpt>
      <trkpt lat="46.411162" lon="7.041920">
        <ele>1423.9</ele>
        <time>2013-06-16T09:41:24Z</time>
        <sat>7</sat>
      </trkpt>
      <trkpt lat="46.411107" lon="7.041842">
        <ele>1426.0</ele>
        <time>2013-06-16T09:41:28Z</time>
        <sat>7</sat>
      </trkpt>
      <trkpt lat="46.411050" lon="7.041757">
        <ele>1426.4</ele>
        <time>2013-06-16T09:41:32Z</time>
        <sat>9</sat>
      </trkpt>
      <trkpt lat="46.410983" lon="7.041693">
        <ele>1427.8</ele>
        <time>2013-06-16T09:41:36Z</time>
        <sat>9</sat>
      </trkpt>
      <trkpt lat="46.410907" lon="7.041672">
        <ele>1428.0</ele>
        <time>2013-06-16T09:41:40Z</time>
        <sat>8</sat>
      </trkpt>
      <trkpt lat="46.410825" lon="7.041670">
        <ele>1428.6</ele>
        <time>2013-06-16T09:41:44Z</time>
        <sat>8</sat>
      </trkpt>
      <trkpt lat="46.410803" lon="7.041670">
        <ele>1428.9</ele>
        <time>2013-06-16T09:41:45Z</time>
        <sat>8</sat>
      </trkpt>
      <trkpt lat="46.410662" lon="7.041658">
        <ele>1430.8</ele>
        <time>2013-06-16T09:41:52Z</time>
        <sat>8</sat>
      </trkpt>
      <trkpt lat="46.410582" lon="7.041648">
        <ele>1430.9</ele>
        <time>2013-06-16T09:41:56Z</time>
        <sat>8</sat>
      </trkpt>
      <trkpt lat="46.410500" lon="7.041643">
        <ele>1431.9</ele>
        <time>2013-06-16T09:42:00Z</time>
        <sat>8</sat>
      </trkpt>
      <trkpt lat="46.410418" lon="7.041650">
        <ele>1431.6</ele>
        <time>2013-06-16T09:42:04Z</time>
        <sat>8</sat>
      </trkpt>
      <trkpt lat="46.410340" lon="7.041660">
        <ele>1432.4</ele>
        <time>2013-06-16T09:42:08Z</time>
        <sat>8</sat>
      </trkpt>
      <trkpt lat="46.410258" lon="7.041682">
        <ele>1432.4</ele>
        <time>2013-06-16T09:42:12Z</time>
        <sat>8</sat>
      </trkpt>
      <trkpt lat="46.410180" lon="7.041733">
        <ele>1434.3</ele>
        <time>2013-06-16T09:42:16Z</time>
        <sat>8</sat>
      </trkpt>
      <trkpt lat="46.410118" lon="7.041780">
        <ele>1435.2</ele>
        <time>2013-06-16T09:42:19Z</time>
        <sat>8</sat>
      </trkpt>
      <trkpt lat="46.410042" lon="7.041838">
        <ele>1435.9</ele>
        <time>2013-06-16T09:42:23Z</time>
        <sat>8</sat>
      </trkpt>
      <trkpt lat="46.409965" lon="7.041898">
        <ele>1436.7</ele>
        <time>2013-06-16T09:42:27Z</time>
        <sat>8</sat>
      </trkpt>
      <trkpt lat="46.409897" lon="7.041962">
        <ele>1437.5</ele>
        <time>2013-06-16T09:42:31Z</time>
        <sat>8</sat>
      </trkpt>
      <trkpt lat="46.409838" lon="7.042013">
        <ele>1437.5</ele>
        <time>2013-06-16T09:42:34Z</time>
        <sat>8</sat>
      </trkpt>
      <trkpt lat="46.409777" lon="7.042090">
        <ele>1438.8</ele>
        <time>2013-06-16T09:42:38Z</time>
        <sat>8</sat>
      </trkpt>
      <trkpt lat="46.409713" lon="7.042168">
        <ele>1439.4</ele>
        <time>2013-06-16T09:42:42Z</time>
        <sat>8</sat>
      </trkpt>
      <trkpt lat="46.409660" lon="7.042257">
        <ele>1440.0</ele>
        <time>2013-06-16T09:42:46Z</time>
        <sat>8</sat>
      </trkpt>
      <trkpt lat="46.409647" lon="7.042278">
        <ele>1440.1</ele>
        <time>2013-06-16T09:42:47Z</time>
        <sat>8</sat>
      </trkpt>
      <trkpt lat="46.409547" lon="7.042432">
        <ele>1440.4</ele>
        <time>2013-06-16T09:42:54Z</time>
        <sat>8</sat>
      </trkpt>
      <trkpt lat="46.409508" lon="7.042523">
        <ele>1440.2</ele>
        <time>2013-06-16T09:42:57Z</time>
        <sat>8</sat>
      </trkpt>
      <trkpt lat="46.409468" lon="7.042613">
        <ele>1440.0</ele>
        <time>2013-06-16T09:43:00Z</time>
        <sat>8</sat>
      </trkpt>
      <trkpt lat="46.409428" lon="7.042697">
        <ele>1440.3</ele>
        <time>2013-06-16T09:43:03Z</time>
        <sat>8</sat>
      </trkpt>
      <trkpt lat="46.409367" lon="7.042773">
        <ele>1440.6</ele>
        <time>2013-06-16T09:43:07Z</time>
        <sat>8</sat>
      </trkpt>
      <trkpt lat="46.409307" lon="7.042835">
        <ele>1441.1</ele>
        <time>2013-06-16T09:43:11Z</time>
        <sat>8</sat>
      </trkpt>
      <trkpt lat="46.409220" lon="7.042865">
        <ele>1442.5</ele>
        <time>2013-06-16T09:43:16Z</time>
        <sat>8</sat>
      </trkpt>
      <trkpt lat="46.409147" lon="7.042905">
        <ele>1443.2</ele>
        <time>2013-06-16T09:43:21Z</time>
        <sat>8</sat>
      </trkpt>
      <trkpt lat="46.409080" lon="7.042963">
        <ele>1445.0</ele>
        <time>2013-06-16T09:43:26Z</time>
        <sat>8</sat>
      </trkpt>
      <trkpt lat="46.409023" lon="7.043052">
        <ele>1445.9</ele>
        <time>2013-06-16T09:43:31Z</time>
        <sat>8</sat>
      </trkpt>
      <trkpt lat="46.408975" lon="7.043142">
        <ele>1447.6</ele>
        <time>2013-06-16T09:43:36Z</time>
        <sat>8</sat>
      </trkpt>
      <trkpt lat="46.408940" lon="7.043233">
        <ele>1448.6</ele>
        <time>2013-06-16T09:43:40Z</time>
        <sat>8</sat>
      </trkpt>
      <trkpt lat="46.408910" lon="7.043337">
        <ele>1450.9</ele>
        <time>2013-06-16T09:43:44Z</time>
        <sat>8</sat>
      </trkpt>
      <trkpt lat="46.408877" lon="7.043432">
        <ele>1451.7</ele>
        <time>2013-06-16T09:43:48Z</time>
        <sat>8</sat>
      </trkpt>
      <trkpt lat="46.408868" lon="7.043455">
        <ele>1451.8</ele>
        <time>2013-06-16T09:43:49Z</time>
        <sat>8</sat>
      </trkpt>
      <trkpt lat="46.408797" lon="7.043660">
        <ele>1454.4</ele>
        <time>2013-06-16T09:43:58Z</time>
        <sat>8</sat>
      </trkpt>
      <trkpt lat="46.408737" lon="7.043742">
        <ele>1454.7</ele>
        <time>2013-06-16T09:44:03Z</time>
        <sat>8</sat>
      </trkpt>
      <trkpt lat="46.408653" lon="7.043763">
        <ele>1455.5</ele>
        <time>2013-06-16T09:44:09Z</time>
        <sat>8</sat>
      </trkpt>
      <trkpt lat="46.408568" lon="7.043805">
        <ele>1455.7</ele>
        <time>2013-06-16T09:44:15Z</time>
        <sat>9</sat>
      </trkpt>
      <trkpt lat="46.408495" lon="7.043847">
        <ele>1455.3</ele>
        <time>2013-06-16T09:44:20Z</time>
        <sat>9</sat>
      </trkpt>
      <trkpt lat="46.408418" lon="7.043882">
        <ele>1456.8</ele>
        <time>2013-06-16T09:44:25Z</time>
        <sat>8</sat>
      </trkpt>
      <trkpt lat="46.408342" lon="7.043920">
        <ele>1457.5</ele>
        <time>2013-06-16T09:44:30Z</time>
        <sat>8</sat>
      </trkpt>
      <trkpt lat="46.408268" lon="7.043955">
        <ele>1457.9</ele>
        <time>2013-06-16T09:44:35Z</time>
        <sat>8</sat>
      </trkpt>
      <trkpt lat="46.408193" lon="7.043992">
        <ele>1458.7</ele>
        <time>2013-06-16T09:44:40Z</time>
        <sat>9</sat>
      </trkpt>
      <trkpt lat="46.408117" lon="7.044032">
        <ele>1459.2</ele>
        <time>2013-06-16T09:44:45Z</time>
        <sat>9</sat>
      </trkpt>
      <trkpt lat="46.408038" lon="7.044033">
        <ele>1459.7</ele>
        <time>2013-06-16T09:44:49Z</time>
        <sat>8</sat>
      </trkpt>
      <trkpt lat="46.408018" lon="7.044028">
        <ele>1459.8</ele>
        <time>2013-06-16T09:44:50Z</time>
        <sat>8</sat>
      </trkpt>
      <trkpt lat="46.407872" lon="7.044010">
        <ele>1460.9</ele>
        <time>2013-06-16T09:44:57Z</time>
        <sat>8</sat>
      </trkpt>
      <trkpt lat="46.407787" lon="7.044020">
        <ele>1461.7</ele>
        <time>2013-06-16T09:45:01Z</time>
        <sat>8</sat>
      </trkpt>
      <trkpt lat="46.407717" lon="7.044040">
        <ele>1461.6</ele>
        <time>2013-06-16T09:45:04Z</time>
        <sat>8</sat>
      </trkpt>
      <trkpt lat="46.407637" lon="7.044073">
        <ele>1462.5</ele>
        <time>2013-06-16T09:45:09Z</time>
        <sat>8</sat>
      </trkpt>
      <trkpt lat="46.407578" lon="7.044120">
        <ele>1462.6</ele>
        <time>2013-06-16T09:45:12Z</time>
        <sat>8</sat>
      </trkpt>
      <trkpt lat="46.407515" lon="7.044182">
        <ele>1462.6</ele>
        <time>2013-06-16T09:45:15Z</time>
        <sat>8</sat>
      </trkpt>
      <trkpt lat="46.407457" lon="7.044255">
        <ele>1462.6</ele>
        <time>2013-06-16T09:45:18Z</time>
        <sat>8</sat>
      </trkpt>
      <trkpt lat="46.407408" lon="7.044342">
        <ele>1462.7</ele>
        <time>2013-06-16T09:45:21Z</time>
        <sat>8</sat>
      </trkpt>
      <trkpt lat="46.407340" lon="7.044423">
        <ele>1463.8</ele>
        <time>2013-06-16T09:45:25Z</time>
        <sat>8</sat>
      </trkpt>
      <trkpt lat="46.407283" lon="7.044477">
        <ele>1464.2</ele>
        <time>2013-06-16T09:45:28Z</time>
        <sat>9</sat>
      </trkpt>
      <trkpt lat="46.407227" lon="7.044535">
        <ele>1464.6</ele>
        <time>2013-06-16T09:45:31Z</time>
        <sat>9</sat>
      </trkpt>
      <trkpt lat="46.407152" lon="7.044592">
        <ele>1465.2</ele>
        <time>2013-06-16T09:45:35Z</time>
        <sat>9</sat>
      </trkpt>
      <trkpt lat="46.407085" lon="7.044650">
        <ele>1466.3</ele>
        <time>2013-06-16T09:45:39Z</time>
        <sat>9</sat>
      </trkpt>
      <trkpt lat="46.407017" lon="7.044712">
        <ele>1467.1</ele>
        <time>2013-06-16T09:45:44Z</time>
        <sat>9</sat>
      </trkpt>
      <trkpt lat="46.406948" lon="7.044743">
        <ele>1467.5</ele>
        <time>2013-06-16T09:45:48Z</time>
        <sat>9</sat>
      </trkpt>
      <trkpt lat="46.406868" lon="7.044755">
        <ele>1467.8</ele>
        <time>2013-06-16T09:45:52Z</time>
        <sat>5</sat>
      </trkpt>
      <trkpt lat="46.406848" lon="7.044753">
        <ele>1468.0</ele>
        <time>2013-06-16T09:45:53Z</time>
        <sat>5</sat>
      </trkpt>
      <trkpt lat="46.406698" lon="7.044753">
        <ele>1467.1</ele>
        <time>2013-06-16T09:46:02Z</time>
        <sat>9</sat>
      </trkpt>
      <trkpt lat="46.406615" lon="7.044775">
        <ele>1467.2</ele>
        <time>2013-06-16T09:46:06Z</time>
        <sat>9</sat>
      </trkpt>
      <trkpt lat="46.406542" lon="7.044825">
        <ele>1467.6</ele>
        <time>2013-06-16T09:46:10Z</time>
        <sat>8</sat>
      </trkpt>
      <trkpt lat="46.406470" lon="7.044860">
        <ele>1467.1</ele>
        <time>2013-06-16T09:46:14Z</time>
        <sat>7</sat>
      </trkpt>
      <trkpt lat="46.406387" lon="7.044878">
        <ele>1469.1</ele>
        <time>2013-06-16T09:46:19Z</time>
        <sat>8</sat>
      </trkpt>
      <trkpt lat="46.406300" lon="7.044863">
        <ele>1468.2</ele>
        <time>2013-06-16T09:46:24Z</time>
        <sat>8</sat>
      </trkpt>
      <trkpt lat="46.406223" lon="7.044840">
        <ele>1468.4</ele>
        <time>2013-06-16T09:46:28Z</time>
        <sat>8</sat>
      </trkpt>
      <trkpt lat="46.406148" lon="7.044837">
        <ele>1469.2</ele>
        <time>2013-06-16T09:46:32Z</time>
        <sat>8</sat>
      </trkpt>
      <trkpt lat="46.406065" lon="7.044833">
        <ele>1469.9</ele>
        <time>2013-06-16T09:46:36Z</time>
        <sat>8</sat>
      </trkpt>
      <trkpt lat="46.405983" lon="7.044830">
        <ele>1470.4</ele>
        <time>2013-06-16T09:46:40Z</time>
        <sat>8</sat>
      </trkpt>
      <trkpt lat="46.405905" lon="7.044813">
        <ele>1470.8</ele>
        <time>2013-06-16T09:46:44Z</time>
        <sat>9</sat>
      </trkpt>
      <trkpt lat="46.405818" lon="7.044790">
        <ele>1471.7</ele>
        <time>2013-06-16T09:46:48Z</time>
        <sat>9</sat>
      </trkpt>
      <trkpt lat="46.405732" lon="7.044767">
        <ele>1471.4</ele>
        <time>2013-06-16T09:46:52Z</time>
        <sat>8</sat>
      </trkpt>
      <trkpt lat="46.405650" lon="7.044740">
        <ele>1472.0</ele>
        <time>2013-06-16T09:46:56Z</time>
        <sat>8</sat>
      </trkpt>
      <trkpt lat="46.405627" lon="7.044732">
        <ele>1472.1</ele>
        <time>2013-06-16T09:46:57Z</time>
        <sat>8</sat>
      </trkpt>
      <trkpt lat="46.405498" lon="7.044678">
        <ele>1473.1</ele>
        <time>2013-06-16T09:47:03Z</time>
        <sat>9</sat>
      </trkpt>
      <trkpt lat="46.405420" lon="7.044650">
        <ele>1474.1</ele>
        <time>2013-06-16T09:47:07Z</time>
        <sat>9</sat>
      </trkpt>
      <trkpt lat="46.405345" lon="7.044603">
        <ele>1474.3</ele>
        <time>2013-06-16T09:47:11Z</time>
        <sat>8</sat>
      </trkpt>
      <trkpt lat="46.405262" lon="7.044565">
        <ele>1475.1</ele>
        <time>2013-06-16T09:47:15Z</time>
        <sat>8</sat>
      </trkpt>
      <trkpt lat="46.405183" lon="7.044535">
        <ele>1475.2</ele>
        <time>2013-06-16T09:47:18Z</time>
        <sat>8</sat>
      </trkpt>
      <trkpt lat="46.405120" lon="7.044520">
        <ele>1474.6</ele>
        <time>2013-06-16T09:47:20Z</time>
        <sat>8</sat>
      </trkpt>
      <trkpt lat="46.405032" lon="7.044498">
        <ele>1474.6</ele>
        <time>2013-06-16T09:47:23Z</time>
        <sat>8</sat>
      </trkpt>
      <trkpt lat="46.404953" lon="7.044487">
        <ele>1475.4</ele>
        <time>2013-06-16T09:47:26Z</time>
        <sat>9</sat>
      </trkpt>
      <trkpt lat="46.404878" lon="7.044482">
        <ele>1476.0</ele>
        <time>2013-06-16T09:47:29Z</time>
        <sat>9</sat>
      </trkpt>
      <trkpt lat="46.404792" lon="7.044492">
        <ele>1477.4</ele>
        <time>2013-06-16T09:47:33Z</time>
        <sat>9</sat>
      </trkpt>
      <trkpt lat="46.404707" lon="7.044510">
        <ele>1478.2</ele>
        <time>2013-06-16T09:47:37Z</time>
        <sat>9</sat>
      </trkpt>
      <trkpt lat="46.404627" lon="7.044538">
        <ele>1478.1</ele>
        <time>2013-06-16T09:47:41Z</time>
        <sat>9</sat>
      </trkpt>
      <trkpt lat="46.404543" lon="7.044573">
        <ele>1479.7</ele>
        <time>2013-06-16T09:47:45Z</time>
        <sat>9</sat>
      </trkpt>
      <trkpt lat="46.404465" lon="7.044592">
        <ele>1480.2</ele>
        <time>2013-06-16T09:47:49Z</time>
        <sat>9</sat>
      </trkpt>
      <trkpt lat="46.404393" lon="7.044602">
        <ele>1481.7</ele>
        <time>2013-06-16T09:47:53Z</time>
        <sat>9</sat>
      </trkpt>
      <trkpt lat="46.404318" lon="7.044598">
        <ele>1482.2</ele>
        <time>2013-06-16T09:47:57Z</time>
        <sat>9</sat>
      </trkpt>
      <trkpt lat="46.404235" lon="7.044553">
        <ele>1483.4</ele>
        <time>2013-06-16T09:48:01Z</time>
        <sat>9</sat>
      </trkpt>
      <trkpt lat="46.404215" lon="7.044540">
        <ele>1483.5</ele>
        <time>2013-06-16T09:48:02Z</time>
        <sat>9</sat>
      </trkpt>
      <trkpt lat="46.404102" lon="7.044438">
        <ele>1483.9</ele>
        <time>2013-06-16T09:48:08Z</time>
        <sat>9</sat>
      </trkpt>
      <trkpt lat="46.404025" lon="7.044383">
        <ele>1484.6</ele>
        <time>2013-06-16T09:48:12Z</time>
        <sat>9</sat>
      </trkpt>
      <trkpt lat="46.403958" lon="7.044340">
        <ele>1485.2</ele>
        <time>2013-06-16T09:48:15Z</time>
        <sat>9</sat>
      </trkpt>
      <trkpt lat="46.403882" lon="7.044302">
        <ele>1486.2</ele>
        <time>2013-06-16T09:48:18Z</time>
        <sat>8</sat>
      </trkpt>
      <trkpt lat="46.403820" lon="7.044270">
        <ele>1486.3</ele>
        <time>2013-06-16T09:48:21Z</time>
        <sat>8</sat>
      </trkpt>
      <trkpt lat="46.403743" lon="7.044235">
        <ele>1485.6</ele>
        <time>2013-06-16T09:48:24Z</time>
        <sat>8</sat>
      </trkpt>
      <trkpt lat="46.403672" lon="7.044202">
        <ele>1485.9</ele>
        <time>2013-06-16T09:48:27Z</time>
        <sat>8</sat>
      </trkpt>
      <trkpt lat="46.403600" lon="7.044163">
        <ele>1485.3</ele>
        <time>2013-06-16T09:48:30Z</time>
        <sat>8</sat>
      </trkpt>
      <trkpt lat="46.403535" lon="7.044140">
        <ele>1484.9</ele>
        <time>2013-06-16T09:48:32Z</time>
        <sat>8</sat>
      </trkpt>
      <trkpt lat="46.403448" lon="7.044117">
        <ele>1484.8</ele>
        <time>2013-06-16T09:48:34Z</time>
        <sat>8</sat>
      </trkpt>
      <trkpt lat="46.403400" lon="7.044113">
        <ele>1484.3</ele>
        <time>2013-06-16T09:48:35Z</time>
        <sat>8</sat>
      </trkpt>
      <trkpt lat="46.403352" lon="7.044123">
        <ele>1483.9</ele>
        <time>2013-06-16T09:48:36Z</time>
        <sat>8</sat>
      </trkpt>
      <trkpt lat="46.403303" lon="7.044140">
        <ele>1483.9</ele>
        <time>2013-06-16T09:48:37Z</time>
        <sat>8</sat>
      </trkpt>
      <trkpt lat="46.403218" lon="7.044173">
        <ele>1484.0</ele>
        <time>2013-06-16T09:48:39Z</time>
        <sat>8</sat>
      </trkpt>
      <trkpt lat="46.403133" lon="7.044190">
        <ele>1484.1</ele>
        <time>2013-06-16T09:48:42Z</time>
        <sat>9</sat>
      </trkpt>
      <trkpt lat="46.403055" lon="7.044210">
        <ele>1484.5</ele>
        <time>2013-06-16T09:48:45Z</time>
        <sat>8</sat>
      </trkpt>
      <trkpt lat="46.402973" lon="7.044185">
        <ele>1484.7</ele>
        <time>2013-06-16T09:48:48Z</time>
        <sat>9</sat>
      </trkpt>
      <trkpt lat="46.402923" lon="7.044138">
        <ele>1484.7</ele>
        <time>2013-06-16T09:48:50Z</time>
        <sat>9</sat>
      </trkpt>
      <trkpt lat="46.402875" lon="7.044070">
        <ele>1484.9</ele>
        <time>2013-06-16T09:48:52Z</time>
        <sat>9</sat>
      </trkpt>
      <trkpt lat="46.402835" lon="7.043993">
        <ele>1485.0</ele>
        <time>2013-06-16T09:48:54Z</time>
        <sat>8</sat>
      </trkpt>
      <trkpt lat="46.402802" lon="7.043912">
        <ele>1485.0</ele>
        <time>2013-06-16T09:48:56Z</time>
        <sat>9</sat>
      </trkpt>
      <trkpt lat="46.402762" lon="7.043822">
        <ele>1485.0</ele>
        <time>2013-06-16T09:48:58Z</time>
        <sat>7</sat>
      </trkpt>
      <trkpt lat="46.402730" lon="7.043763">
        <ele>1485.2</ele>
        <time>2013-06-16T09:48:59Z</time>
        <sat>8</sat>
      </trkpt>
      <trkpt lat="46.402682" lon="7.043665">
        <ele>1485.2</ele>
        <time>2013-06-16T09:49:01Z</time>
        <sat>7</sat>
      </trkpt>
      <trkpt lat="46.402633" lon="7.043557">
        <ele>1484.9</ele>
        <time>2013-06-16T09:49:03Z</time>
        <sat>7</sat>
      </trkpt>
      <trkpt lat="46.402602" lon="7.043498">
        <ele>1484.6</ele>
        <time>2013-06-16T09:49:04Z</time>
        <sat>8</sat>
      </trkpt>
      <trkpt lat="46.402563" lon="7.043445">
        <ele>1484.4</ele>
        <time>2013-06-16T09:49:05Z</time>
        <sat>7</sat>
      </trkpt>
      <trkpt lat="46.402525" lon="7.043402">
        <ele>1484.8</ele>
        <time>2013-06-16T09:49:06Z</time>
        <sat>8</sat>
      </trkpt>
      <trkpt lat="46.402452" lon="7.043337">
        <ele>1485.3</ele>
        <time>2013-06-16T09:49:08Z</time>
        <sat>8</sat>
      </trkpt>
      <trkpt lat="46.402378" lon="7.043282">
        <ele>1485.6</ele>
        <time>2013-06-16T09:49:10Z</time>
        <sat>8</sat>
      </trkpt>
      <trkpt lat="46.402320" lon="7.043235">
        <ele>1485.8</ele>
        <time>2013-06-16T09:49:12Z</time>
        <sat>8</sat>
      </trkpt>
      <trkpt lat="46.402268" lon="7.043187">
        <ele>1487.3</ele>
        <time>2013-06-16T09:49:14Z</time>
        <sat>8</sat>
      </trkpt>
      <trkpt lat="46.402202" lon="7.043103">
        <ele>1487.3</ele>
        <time>2013-06-16T09:49:17Z</time>
        <sat>8</sat>
      </trkpt>
      <trkpt lat="46.402148" lon="7.043012">
        <ele>1487.9</ele>
        <time>2013-06-16T09:49:20Z</time>
        <sat>8</sat>
      </trkpt>
      <trkpt lat="46.402082" lon="7.042937">
        <ele>1488.2</ele>
        <time>2013-06-16T09:49:23Z</time>
        <sat>8</sat>
      </trkpt>
      <trkpt lat="46.402020" lon="7.042910">
        <ele>1488.0</ele>
        <time>2013-06-16T09:49:25Z</time>
        <sat>8</sat>
      </trkpt>
      <trkpt lat="46.401957" lon="7.042902">
        <ele>1488.2</ele>
        <time>2013-06-16T09:49:27Z</time>
        <sat>7</sat>
      </trkpt>
      <trkpt lat="46.401893" lon="7.042905">
        <ele>1488.4</ele>
        <time>2013-06-16T09:49:29Z</time>
        <sat>7</sat>
      </trkpt>
      <trkpt lat="46.401830" lon="7.042920">
        <ele>1488.7</ele>
        <time>2013-06-16T09:49:31Z</time>
        <sat>7</sat>
      </trkpt>
      <trkpt lat="46.401768" lon="7.042943">
        <ele>1488.4</ele>
        <time>2013-06-16T09:49:33Z</time>
        <sat>7</sat>
      </trkpt>
      <trkpt lat="46.401713" lon="7.042985">
        <ele>1489.1</ele>
        <time>2013-06-16T09:49:35Z</time>
        <sat>7</sat>
      </trkpt>
      <trkpt lat="46.401670" lon="7.043048">
        <ele>1489.6</ele>
        <time>2013-06-16T09:49:37Z</time>
        <sat>7</sat>
      </trkpt>
      <trkpt lat="46.401628" lon="7.043117">
        <ele>1490.0</ele>
        <time>2013-06-16T09:49:39Z</time>
        <sat>7</sat>
      </trkpt>
      <trkpt lat="46.401590" lon="7.043195">
        <ele>1490.0</ele>
        <time>2013-06-16T09:49:41Z</time>
        <sat>8</sat>
      </trkpt>
      <trkpt lat="46.401555" lon="7.043277">
        <ele>1489.8</ele>
        <time>2013-06-16T09:49:43Z</time>
        <sat>7</sat>
      </trkpt>
      <trkpt lat="46.401517" lon="7.043388">
        <ele>1490.5</ele>
        <time>2013-06-16T09:49:46Z</time>
        <sat>7</sat>
      </trkpt>
      <trkpt lat="46.401487" lon="7.043468">
        <ele>1491.2</ele>
        <time>2013-06-16T09:49:48Z</time>
        <sat>8</sat>
      </trkpt>
      <trkpt lat="46.401452" lon="7.043553">
        <ele>1490.9</ele>
        <time>2013-06-16T09:49:50Z</time>
        <sat>8</sat>
      </trkpt>
      <trkpt lat="46.401417" lon="7.043647">
        <ele>1490.6</ele>
        <time>2013-06-16T09:49:52Z</time>
        <sat>8</sat>
      </trkpt>
      <trkpt lat="46.401385" lon="7.043748">
        <ele>1491.2</ele>
        <time>2013-06-16T09:49:54Z</time>
        <sat>8</sat>
      </trkpt>
      <trkpt lat="46.401367" lon="7.043862">
        <ele>1491.3</ele>
        <time>2013-06-16T09:49:56Z</time>
        <sat>8</sat>
      </trkpt>
      <trkpt lat="46.401372" lon="7.043978">
        <ele>1490.7</ele>
        <time>2013-06-16T09:49:58Z</time>
        <sat>8</sat>
      </trkpt>
      <trkpt lat="46.401370" lon="7.044092">
        <ele>1490.6</ele>
        <time>2013-06-16T09:50:00Z</time>
        <sat>8</sat>
      </trkpt>
      <trkpt lat="46.401353" lon="7.044195">
        <ele>1491.0</ele>
        <time>2013-06-16T09:50:02Z</time>
        <sat>8</sat>
      </trkpt>
      <trkpt lat="46.401330" lon="7.044287">
        <ele>1491.7</ele>
        <time>2013-06-16T09:50:04Z</time>
        <sat>8</sat>
      </trkpt>
      <trkpt lat="46.401302" lon="7.044372">
        <ele>1492.4</ele>
        <time>2013-06-16T09:50:06Z</time>
        <sat>8</sat>
      </trkpt>
      <trkpt lat="46.401287" lon="7.044408">
        <ele>1492.6</ele>
        <time>2013-06-16T09:50:07Z</time>
        <sat>8</sat>
      </trkpt>
      <trkpt lat="46.401222" lon="7.044558">
        <ele>1493.5</ele>
        <time>2013-06-16T09:50:12Z</time>
        <sat>8</sat>
      </trkpt>
      <trkpt lat="46.401172" lon="7.044663">
        <ele>1493.6</ele>
        <time>2013-06-16T09:50:16Z</time>
        <sat>8</sat>
      </trkpt>
      <trkpt lat="46.401117" lon="7.044753">
        <ele>1494.6</ele>
        <time>2013-06-16T09:50:20Z</time>
        <sat>8</sat>
      </trkpt>
      <trkpt lat="46.401067" lon="7.044850">
        <ele>1495.2</ele>
        <time>2013-06-16T09:50:24Z</time>
        <sat>8</sat>
      </trkpt>
      <trkpt lat="46.401010" lon="7.044942">
        <ele>1496.1</ele>
        <time>2013-06-16T09:50:28Z</time>
        <sat>8</sat>
      </trkpt>
      <trkpt lat="46.400960" lon="7.045047">
        <ele>1497.5</ele>
        <time>2013-06-16T09:50:32Z</time>
        <sat>8</sat>
      </trkpt>
      <trkpt lat="46.400913" lon="7.045155">
        <ele>1497.7</ele>
        <time>2013-06-16T09:50:36Z</time>
        <sat>8</sat>
      </trkpt>
      <trkpt lat="46.400867" lon="7.045262">
        <ele>1498.5</ele>
        <time>2013-06-16T09:50:40Z</time>
        <sat>8</sat>
      </trkpt>
      <trkpt lat="46.400827" lon="7.045372">
        <ele>1499.0</ele>
        <time>2013-06-16T09:50:44Z</time>
        <sat>8</sat>
      </trkpt>
      <trkpt lat="46.400793" lon="7.045457">
        <ele>1499.6</ele>
        <time>2013-06-16T09:50:47Z</time>
        <sat>8</sat>
      </trkpt>
      <trkpt lat="46.400757" lon="7.045547">
        <ele>1500.0</ele>
        <time>2013-06-16T09:50:50Z</time>
        <sat>8</sat>
      </trkpt>
      <trkpt lat="46.400708" lon="7.045645">
        <ele>1499.8</ele>
        <time>2013-06-16T09:50:53Z</time>
        <sat>8</sat>
      </trkpt>
      <trkpt lat="46.400668" lon="7.045708">
        <ele>1499.5</ele>
        <time>2013-06-16T09:50:55Z</time>
        <sat>5</sat>
      </trkpt>
      <trkpt lat="46.400620" lon="7.045773">
        <ele>1499.4</ele>
        <time>2013-06-16T09:50:57Z</time>
        <sat>5</sat>
      </trkpt>
      <trkpt lat="46.400570" lon="7.045833">
        <ele>1499.5</ele>
        <time>2013-06-16T09:50:59Z</time>
        <sat>8</sat>
      </trkpt>
      <trkpt lat="46.400522" lon="7.045890">
        <ele>1499.7</ele>
        <time>2013-06-16T09:51:01Z</time>
        <sat>8</sat>
      </trkpt>
      <trkpt lat="46.400457" lon="7.045978">
        <ele>1499.0</ele>
        <time>2013-06-16T09:51:04Z</time>
        <sat>8</sat>
      </trkpt>
      <trkpt lat="46.400395" lon="7.046047">
        <ele>1499.5</ele>
        <time>2013-06-16T09:51:07Z</time>
        <sat>8</sat>
      </trkpt>
      <trkpt lat="46.400373" lon="7.046067">
        <ele>1499.7</ele>
        <time>2013-06-16T09:51:08Z</time>
        <sat>8</sat>
      </trkpt>
      <trkpt lat="46.400268" lon="7.046195">
        <ele>1500.8</ele>
        <time>2013-06-16T09:51:14Z</time>
        <sat>8</sat>
      </trkpt>
      <trkpt lat="46.400222" lon="7.046290">
        <ele>1502.0</ele>
        <time>2013-06-16T09:51:18Z</time>
        <sat>8</sat>
      </trkpt>
      <trkpt lat="46.400185" lon="7.046387">
        <ele>1503.2</ele>
        <time>2013-06-16T09:51:23Z</time>
        <sat>8</sat>
      </trkpt>
      <trkpt lat="46.400143" lon="7.046497">
        <ele>1503.9</ele>
        <time>2013-06-16T09:51:29Z</time>
        <sat>8</sat>
      </trkpt>
      <trkpt lat="46.400103" lon="7.046590">
        <ele>1505.8</ele>
        <time>2013-06-16T09:51:34Z</time>
        <sat>9</sat>
      </trkpt>
      <trkpt lat="46.400037" lon="7.046670">
        <ele>1506.6</ele>
        <time>2013-06-16T09:51:40Z</time>
        <sat>9</sat>
      </trkpt>
      <trkpt lat="46.399965" lon="7.046713">
        <ele>1508.6</ele>
        <time>2013-06-16T09:51:46Z</time>
        <sat>9</sat>
      </trkpt>
      <trkpt lat="46.399878" lon="7.046732">
        <ele>1510.4</ele>
        <time>2013-06-16T09:51:53Z</time>
        <sat>9</sat>
      </trkpt>
      <trkpt lat="46.399790" lon="7.046743">
        <ele>1511.0</ele>
        <time>2013-06-16T09:52:01Z</time>
        <sat>9</sat>
      </trkpt>
      <trkpt lat="46.399703" lon="7.046745">
        <ele>1512.2</ele>
        <time>2013-06-16T09:52:10Z</time>
        <sat>9</sat>
      </trkpt>
      <trkpt lat="46.399695" lon="7.046750">
        <ele>1512.6</ele>
        <time>2013-06-16T09:52:11Z</time>
        <sat>9</sat>
      </trkpt>
      <trkpt lat="46.399533" lon="7.046747">
        <ele>1515.8</ele>
        <time>2013-06-16T09:52:26Z</time>
        <sat>9</sat>
      </trkpt>
      <trkpt lat="46.399447" lon="7.046750">
        <ele>1517.9</ele>
        <time>2013-06-16T09:52:34Z</time>
        <sat>9</sat>
      </trkpt>
      <trkpt lat="46.399368" lon="7.046758">
        <ele>1518.9</ele>
        <time>2013-06-16T09:52:41Z</time>
        <sat>9</sat>
      </trkpt>
      <trkpt lat="46.399288" lon="7.046767">
        <ele>1520.4</ele>
        <time>2013-06-16T09:52:48Z</time>
        <sat>9</sat>
      </trkpt>
      <trkpt lat="46.399203" lon="7.046800">
        <ele>1521.8</ele>
        <time>2013-06-16T09:52:56Z</time>
        <sat>9</sat>
      </trkpt>
      <trkpt lat="46.399125" lon="7.046862">
        <ele>1523.5</ele>
        <time>2013-06-16T09:53:04Z</time>
        <sat>9</sat>
      </trkpt>
      <trkpt lat="46.399052" lon="7.046920">
        <ele>1525.0</ele>
        <time>2013-06-16T09:53:12Z</time>
        <sat>9</sat>
      </trkpt>
      <trkpt lat="46.399042" lon="7.046923">
        <ele>1524.9</ele>
        <time>2013-06-16T09:53:13Z</time>
        <sat>9</sat>
      </trkpt>
      <trkpt lat="46.398883" lon="7.046977">
        <ele>1528.3</ele>
        <time>2013-06-16T09:53:28Z</time>
        <sat>9</sat>
      </trkpt>
      <trkpt lat="46.398803" lon="7.047010">
        <ele>1529.6</ele>
        <time>2013-06-16T09:53:36Z</time>
        <sat>9</sat>
      </trkpt>
      <trkpt lat="46.398720" lon="7.047023">
        <ele>1530.5</ele>
        <time>2013-06-16T09:53:44Z</time>
        <sat>9</sat>
      </trkpt>
      <trkpt lat="46.398640" lon="7.047040">
        <ele>1531.8</ele>
        <time>2013-06-16T09:53:52Z</time>
        <sat>8</sat>
      </trkpt>
      <trkpt lat="46.398553" lon="7.047045">
        <ele>1533.5</ele>
        <time>2013-06-16T09:54:01Z</time>
        <sat>9</sat>
      </trkpt>
      <trkpt lat="46.398475" lon="7.047058">
        <ele>1535.2</ele>
        <time>2013-06-16T09:54:10Z</time>
        <sat>8</sat>
      </trkpt>
      <trkpt lat="46.398397" lon="7.047098">
        <ele>1536.4</ele>
        <time>2013-06-16T09:54:18Z</time>
        <sat>9</sat>
      </trkpt>
      <trkpt lat="46.398388" lon="7.047103">
        <ele>1536.7</ele>
        <time>2013-06-16T09:54:19Z</time>
        <sat>9</sat>
      </trkpt>
      <trkpt lat="46.398230" lon="7.047108">
        <ele>1539.5</ele>
        <time>2013-06-16T09:54:36Z</time>
        <sat>8</sat>
      </trkpt>
      <trkpt lat="46.398142" lon="7.047112">
        <ele>1542.3</ele>
        <time>2013-06-16T09:54:45Z</time>
        <sat>9</sat>
      </trkpt>
      <trkpt lat="46.398058" lon="7.047143">
        <ele>1544.1</ele>
        <time>2013-06-16T09:54:54Z</time>
        <sat>9</sat>
      </trkpt>
      <trkpt lat="46.397978" lon="7.047148">
        <ele>1546.0</ele>
        <time>2013-06-16T09:55:02Z</time>
        <sat>9</sat>
      </trkpt>
      <trkpt lat="46.397890" lon="7.047152">
        <ele>1547.4</ele>
        <time>2013-06-16T09:55:11Z</time>
        <sat>9</sat>
      </trkpt>
      <trkpt lat="46.397808" lon="7.047168">
        <ele>1550.9</ele>
        <time>2013-06-16T09:55:30Z</time>
        <sat>9</sat>
      </trkpt>
      <trkpt lat="46.397800" lon="7.047168">
        <ele>1551.2</ele>
        <time>2013-06-16T09:55:31Z</time>
        <sat>9</sat>
      </trkpt>
      <trkpt lat="46.397637" lon="7.047132">
        <ele>1553.8</ele>
        <time>2013-06-16T09:55:57Z</time>
        <sat>9</sat>
      </trkpt>
      <trkpt lat="46.397555" lon="7.047103">
        <ele>1555.8</ele>
        <time>2013-06-16T09:56:09Z</time>
        <sat>9</sat>
      </trkpt>
      <trkpt lat="46.397472" lon="7.047080">
        <ele>1557.4</ele>
        <time>2013-06-16T09:56:19Z</time>
        <sat>8</sat>
      </trkpt>
      <trkpt lat="46.397390" lon="7.047050">
        <ele>1558.5</ele>
        <time>2013-06-16T09:56:30Z</time>
        <sat>9</sat>
      </trkpt>
      <trkpt lat="46.397307" lon="7.047018">
        <ele>1560.4</ele>
        <time>2013-06-16T09:56:41Z</time>
        <sat>9</sat>
      </trkpt>
      <trkpt lat="46.397295" lon="7.047022">
        <ele>1560.8</ele>
        <time>2013-06-16T09:56:42Z</time>
        <sat>9</sat>
      </trkpt>
      <trkpt lat="46.397153" lon="7.047118">
        <ele>1564.2</ele>
        <time>2013-06-16T09:57:03Z</time>
        <sat>9</sat>
      </trkpt>
      <trkpt lat="46.397068" lon="7.047148">
        <ele>1566.7</ele>
        <time>2013-06-16T09:57:15Z</time>
        <sat>9</sat>
      </trkpt>
      <trkpt lat="46.396988" lon="7.047093">
        <ele>1567.7</ele>
        <time>2013-06-16T09:57:47Z</time>
        <sat>9</sat>
      </trkpt>
      <trkpt lat="46.396982" lon="7.047087">
        <ele>1567.9</ele>
        <time>2013-06-16T09:57:48Z</time>
        <sat>9</sat>
      </trkpt>
      <trkpt lat="46.396830" lon="7.047005">
        <ele>1575.1</ele>
        <time>2013-06-16T10:03:16Z</time>
        <sat>8</sat>
      </trkpt>
      <trkpt lat="46.396813" lon="7.046995">
        <ele>1575.3</ele>
        <time>2013-06-16T10:03:17Z</time>
        <sat>8</sat>
      </trkpt>
      <trkpt lat="46.396677" lon="7.046908">
        <ele>1577.5</ele>
        <time>2013-06-16T10:03:26Z</time>
        <sat>7</sat>
      </trkpt>
      <trkpt lat="46.396605" lon="7.046868">
        <ele>1578.1</ele>
        <time>2013-06-16T10:03:31Z</time>
        <sat>7</sat>
      </trkpt>
      <trkpt lat="46.396525" lon="7.046893">
        <ele>1577.6</ele>
        <time>2013-06-16T10:03:36Z</time>
        <sat>7</sat>
      </trkpt>
      <trkpt lat="46.396473" lon="7.046983">
        <ele>1578.7</ele>
        <time>2013-06-16T10:03:41Z</time>
        <sat>7</sat>
      </trkpt>
      <trkpt lat="46.396428" lon="7.047090">
        <ele>1579.8</ele>
        <time>2013-06-16T10:03:46Z</time>
        <sat>7</sat>
      </trkpt>
      <trkpt lat="46.396380" lon="7.047172">
        <ele>1580.7</ele>
        <time>2013-06-16T10:03:50Z</time>
        <sat>7</sat>
      </trkpt>
      <trkpt lat="46.396322" lon="7.047247">
        <ele>1581.1</ele>
        <time>2013-06-16T10:03:54Z</time>
        <sat>7</sat>
      </trkpt>
      <trkpt lat="46.396257" lon="7.047310">
        <ele>1581.6</ele>
        <time>2013-06-16T10:03:58Z</time>
        <sat>7</sat>
      </trkpt>
      <trkpt lat="46.396182" lon="7.047358">
        <ele>1582.4</ele>
        <time>2013-06-16T10:04:02Z</time>
        <sat>7</sat>
      </trkpt>
      <trkpt lat="46.396102" lon="7.047388">
        <ele>1582.2</ele>
        <time>2013-06-16T10:04:06Z</time>
        <sat>7</sat>
      </trkpt>
      <trkpt lat="46.396025" lon="7.047417">
        <ele>1583.0</ele>
        <time>2013-06-16T10:04:10Z</time>
        <sat>7</sat>
      </trkpt>
      <trkpt lat="46.395947" lon="7.047422">
        <ele>1583.2</ele>
        <time>2013-06-16T10:04:14Z</time>
        <sat>7</sat>
      </trkpt>
      <trkpt lat="46.395858" lon="7.047418">
        <ele>1583.7</ele>
        <time>2013-06-16T10:04:19Z</time>
        <sat>7</sat>
      </trkpt>
      <trkpt lat="46.395840" lon="7.047420">
        <ele>1583.8</ele>
        <time>2013-06-16T10:04:20Z</time>
        <sat>7</sat>
      </trkpt>
      <trkpt lat="46.395702" lon="7.047417">
        <ele>1584.9</ele>
        <time>2013-06-16T10:04:29Z</time>
        <sat>7</sat>
      </trkpt>
      <trkpt lat="46.395615" lon="7.047447">
        <ele>1586.1</ele>
        <time>2013-06-16T10:04:35Z</time>
        <sat>7</sat>
      </trkpt>
      <trkpt lat="46.395545" lon="7.047518">
        <ele>1587.5</ele>
        <time>2013-06-16T10:04:41Z</time>
        <sat>7</sat>
      </trkpt>
      <trkpt lat="46.395495" lon="7.047608">
        <ele>1589.6</ele>
        <time>2013-06-16T10:04:47Z</time>
        <sat>7</sat>
      </trkpt>
      <trkpt lat="46.395453" lon="7.047718">
        <ele>1589.4</ele>
        <time>2013-06-16T10:04:53Z</time>
        <sat>7</sat>
      </trkpt>
      <trkpt lat="46.395428" lon="7.047828">
        <ele>1591.6</ele>
        <time>2013-06-16T10:04:59Z</time>
        <sat>7</sat>
      </trkpt>
      <trkpt lat="46.395420" lon="7.047950">
        <ele>1594.6</ele>
        <time>2013-06-16T10:05:06Z</time>
        <sat>7</sat>
      </trkpt>
      <trkpt lat="46.395437" lon="7.048065">
        <ele>1595.9</ele>
        <time>2013-06-16T10:05:13Z</time>
        <sat>7</sat>
      </trkpt>
      <trkpt lat="46.395477" lon="7.048175">
        <ele>1596.6</ele>
        <time>2013-06-16T10:05:21Z</time>
        <sat>7</sat>
      </trkpt>
      <trkpt lat="46.395483" lon="7.048187">
        <ele>1596.7</ele>
        <time>2013-06-16T10:05:22Z</time>
        <sat>7</sat>
      </trkpt>
      <trkpt lat="46.395620" lon="7.048298">
        <ele>1599.6</ele>
        <time>2013-06-16T10:05:36Z</time>
        <sat>7</sat>
      </trkpt>
      <trkpt lat="46.395683" lon="7.048385">
        <ele>1600.8</ele>
        <time>2013-06-16T10:05:42Z</time>
        <sat>7</sat>
      </trkpt>
      <trkpt lat="46.395683" lon="7.048505">
        <ele>1602.4</ele>
        <time>2013-06-16T10:05:49Z</time>
        <sat>7</sat>
      </trkpt>
      <trkpt lat="46.395625" lon="7.048585">
        <ele>1603.0</ele>
        <time>2013-06-16T10:05:56Z</time>
        <sat>7</sat>
      </trkpt>
      <trkpt lat="46.395550" lon="7.048622">
        <ele>1605.2</ele>
        <time>2013-06-16T10:06:03Z</time>
        <sat>7</sat>
      </trkpt>
      <trkpt lat="46.395467" lon="7.048660">
        <ele>1606.8</ele>
        <time>2013-06-16T10:06:11Z</time>
        <sat>7</sat>
      </trkpt>
      <trkpt lat="46.395385" lon="7.048710">
        <ele>1607.5</ele>
        <time>2013-06-16T10:06:20Z</time>
        <sat>7</sat>
      </trkpt>
      <trkpt lat="46.395302" lon="7.048737">
        <ele>1609.9</ele>
        <time>2013-06-16T10:06:29Z</time>
        <sat>8</sat>
      </trkpt>
      <trkpt lat="46.395290" lon="7.048742">
        <ele>1609.9</ele>
        <time>2013-06-16T10:06:30Z</time>
        <sat>8</sat>
      </trkpt>
      <trkpt lat="46.395142" lon="7.048758">
        <ele>1613.8</ele>
        <time>2013-06-16T10:06:44Z</time>
        <sat>8</sat>
      </trkpt>
      <trkpt lat="46.395058" lon="7.048717">
        <ele>1614.8</ele>
        <time>2013-06-16T10:06:52Z</time>
        <sat>8</sat>
      </trkpt>
      <trkpt lat="46.394985" lon="7.048662">
        <ele>1615.9</ele>
        <time>2013-06-16T10:07:00Z</time>
        <sat>8</sat>
      </trkpt>
      <trkpt lat="46.394923" lon="7.048585">
        <ele>1617.3</ele>
        <time>2013-06-16T10:07:08Z</time>
        <sat>8</sat>
      </trkpt>
      <trkpt lat="46.394860" lon="7.048493">
        <ele>1618.1</ele>
        <time>2013-06-16T10:07:16Z</time>
        <sat>8</sat>
      </trkpt>
      <trkpt lat="46.394817" lon="7.048397">
        <ele>1618.9</ele>
        <time>2013-06-16T10:07:23Z</time>
        <sat>8</sat>
      </trkpt>
      <trkpt lat="46.394767" lon="7.048290">
        <ele>1620.7</ele>
        <time>2013-06-16T10:07:32Z</time>
        <sat>8</sat>
      </trkpt>
      <trkpt lat="46.394760" lon="7.048278">
        <ele>1621.1</ele>
        <time>2013-06-16T10:07:33Z</time>
        <sat>8</sat>
      </trkpt>
      <trkpt lat="46.394668" lon="7.048105">
        <ele>1623.8</ele>
        <time>2013-06-16T10:07:47Z</time>
        <sat>8</sat>
      </trkpt>
      <trkpt lat="46.394622" lon="7.048000">
        <ele>1624.6</ele>
        <time>2013-06-16T10:07:54Z</time>
        <sat>8</sat>
      </trkpt>
      <trkpt lat="46.394577" lon="7.047900">
        <ele>1625.5</ele>
        <time>2013-06-16T10:08:01Z</time>
        <sat>8</sat>
      </trkpt>
      <trkpt lat="46.394542" lon="7.047780">
        <ele>1626.6</ele>
        <time>2013-06-16T10:08:09Z</time>
        <sat>8</sat>
      </trkpt>
      <trkpt lat="46.394477" lon="7.047707">
        <ele>1628.1</ele>
        <time>2013-06-16T10:08:19Z</time>
        <sat>8</sat>
      </trkpt>
      <trkpt lat="46.394402" lon="7.047763">
        <ele>1628.8</ele>
        <time>2013-06-16T10:08:25Z</time>
        <sat>8</sat>
      </trkpt>
      <trkpt lat="46.394317" lon="7.047722">
        <ele>1630.1</ele>
        <time>2013-06-16T10:08:34Z</time>
        <sat>8</sat>
      </trkpt>
      <trkpt lat="46.394310" lon="7.047708">
        <ele>1630.0</ele>
        <time>2013-06-16T10:08:35Z</time>
        <sat>8</sat>
      </trkpt>
      <trkpt lat="46.394432" lon="7.047553">
        <ele>1629.9</ele>
        <time>2013-06-16T10:09:01Z</time>
        <sat>8</sat>
      </trkpt>
      <trkpt lat="46.394373" lon="7.047473">
        <ele>1631.0</ele>
        <time>2013-06-16T10:09:07Z</time>
        <sat>8</sat>
      </trkpt>
      <trkpt lat="46.394297" lon="7.047437">
        <ele>1632.6</ele>
        <time>2013-06-16T10:09:13Z</time>
        <sat>8</sat>
      </trkpt>
      <trkpt lat="46.394213" lon="7.047418">
        <ele>1633.1</ele>
        <time>2013-06-16T10:09:19Z</time>
        <sat>7</sat>
      </trkpt>
      <trkpt lat="46.394130" lon="7.047395">
        <ele>1635.4</ele>
        <time>2013-06-16T10:09:25Z</time>
        <sat>8</sat>
      </trkpt>
      <trkpt lat="46.394042" lon="7.047378">
        <ele>1637.8</ele>
        <time>2013-06-16T10:09:32Z</time>
        <sat>8</sat>
      </trkpt>
      <trkpt lat="46.393960" lon="7.047357">
        <ele>1639.2</ele>
        <time>2013-06-16T10:09:39Z</time>
        <sat>8</sat>
      </trkpt>
      <trkpt lat="46.393952" lon="7.047348">
        <ele>1639.5</ele>
        <time>2013-06-16T10:09:40Z</time>
        <sat>8</sat>
      </trkpt>
      <trkpt lat="46.393807" lon="7.047310">
        <ele>1641.5</ele>
        <time>2013-06-16T10:09:52Z</time>
        <sat>8</sat>
      </trkpt>
      <trkpt lat="46.393730" lon="7.047257">
        <ele>1642.1</ele>
        <time>2013-06-16T10:09:59Z</time>
        <sat>7</sat>
      </trkpt>
      <trkpt lat="46.393650" lon="7.047213">
        <ele>1643.4</ele>
        <time>2013-06-16T10:10:06Z</time>
        <sat>8</sat>
      </trkpt>
      <trkpt lat="46.393568" lon="7.047185">
        <ele>1644.0</ele>
        <time>2013-06-16T10:10:15Z</time>
        <sat>8</sat>
      </trkpt>
      <trkpt lat="46.393495" lon="7.047120">
        <ele>1645.2</ele>
        <time>2013-06-16T10:10:46Z</time>
        <sat>8</sat>
      </trkpt>
      <trkpt lat="46.393487" lon="7.047107">
        <ele>1645.3</ele>
        <time>2013-06-16T10:10:47Z</time>
        <sat>8</sat>
      </trkpt>
      <trkpt lat="46.393347" lon="7.046998">
        <ele>1646.4</ele>
        <time>2013-06-16T10:10:59Z</time>
        <sat>8</sat>
      </trkpt>
      <trkpt lat="46.393267" lon="7.046942">
        <ele>1648.2</ele>
        <time>2013-06-16T10:11:06Z</time>
        <sat>8</sat>
      </trkpt>
      <trkpt lat="46.393187" lon="7.046897">
        <ele>1649.0</ele>
        <time>2013-06-16T10:11:13Z</time>
        <sat>8</sat>
      </trkpt>
      <trkpt lat="46.393120" lon="7.046840">
        <ele>1648.8</ele>
        <time>2013-06-16T10:11:19Z</time>
        <sat>8</sat>
      </trkpt>
      <trkpt lat="46.393043" lon="7.046787">
        <ele>1650.2</ele>
        <time>2013-06-16T10:11:26Z</time>
        <sat>8</sat>
      </trkpt>
      <trkpt lat="46.392965" lon="7.046762">
        <ele>1652.5</ele>
        <time>2013-06-16T10:11:32Z</time>
        <sat>8</sat>
      </trkpt>
      <trkpt lat="46.392898" lon="7.046702">
        <ele>1654.7</ele>
        <time>2013-06-16T10:11:38Z</time>
        <sat>8</sat>
      </trkpt>
      <trkpt lat="46.392823" lon="7.046638">
        <ele>1656.5</ele>
        <time>2013-06-16T10:11:45Z</time>
        <sat>8</sat>
      </trkpt>
      <trkpt lat="46.392752" lon="7.046585">
        <ele>1655.7</ele>
        <time>2013-06-16T10:11:51Z</time>
        <sat>8</sat>
      </trkpt>
      <trkpt lat="46.392740" lon="7.046573">
        <ele>1655.9</ele>
        <time>2013-06-16T10:11:52Z</time>
        <sat>9</sat>
      </trkpt>
      <trkpt lat="46.392608" lon="7.046460">
        <ele>1657.2</ele>
        <time>2013-06-16T10:12:03Z</time>
        <sat>9</sat>
      </trkpt>
      <trkpt lat="46.392527" lon="7.046423">
        <ele>1659.1</ele>
        <time>2013-06-16T10:12:09Z</time>
        <sat>9</sat>
      </trkpt>
      <trkpt lat="46.392448" lon="7.046382">
        <ele>1660.0</ele>
        <time>2013-06-16T10:12:14Z</time>
        <sat>9</sat>
      </trkpt>
      <trkpt lat="46.392363" lon="7.046342">
        <ele>1661.0</ele>
        <time>2013-06-16T10:12:20Z</time>
        <sat>9</sat>
      </trkpt>
      <trkpt lat="46.392282" lon="7.046312">
        <ele>1660.6</ele>
        <time>2013-06-16T10:12:26Z</time>
        <sat>9</sat>
      </trkpt>
      <trkpt lat="46.392193" lon="7.046293">
        <ele>1662.2</ele>
        <time>2013-06-16T10:12:32Z</time>
        <sat>9</sat>
      </trkpt>
      <trkpt lat="46.392105" lon="7.046278">
        <ele>1663.9</ele>
        <time>2013-06-16T10:12:38Z</time>
        <sat>8</sat>
      </trkpt>
      <trkpt lat="46.392020" lon="7.046265">
        <ele>1664.5</ele>
        <time>2013-06-16T10:12:44Z</time>
        <sat>8</sat>
      </trkpt>
      <trkpt lat="46.391932" lon="7.046247">
        <ele>1666.3</ele>
        <time>2013-06-16T10:12:50Z</time>
        <sat>9</sat>
      </trkpt>
      <trkpt lat="46.391843" lon="7.046230">
        <ele>1667.3</ele>
        <time>2013-06-16T10:12:55Z</time>
        <sat>9</sat>
      </trkpt>
      <trkpt lat="46.391827" lon="7.046227">
        <ele>1667.5</ele>
        <time>2013-06-16T10:12:56Z</time>
        <sat>9</sat>
      </trkpt>
      <trkpt lat="46.391688" lon="7.046167">
        <ele>1669.0</ele>
        <time>2013-06-16T10:15:44Z</time>
        <sat>9</sat>
      </trkpt>
      <trkpt lat="46.391658" lon="7.046162">
        <ele>1668.6</ele>
        <time>2013-06-16T10:15:45Z</time>
        <sat>8</sat>
      </trkpt>
      <trkpt lat="46.391538" lon="7.046088">
        <ele>1667.4</ele>
        <time>2013-06-16T10:15:51Z</time>
        <sat>8</sat>
      </trkpt>
      <trkpt lat="46.391462" lon="7.046040">
        <ele>1666.8</ele>
        <time>2013-06-16T10:16:01Z</time>
        <sat>8</sat>
      </trkpt>
      <trkpt lat="46.391382" lon="7.046007">
        <ele>1666.3</ele>
        <time>2013-06-16T10:16:05Z</time>
        <sat>8</sat>
      </trkpt>
      <trkpt lat="46.391307" lon="7.045957">
        <ele>1666.1</ele>
        <time>2013-06-16T10:16:08Z</time>
        <sat>7</sat>
      </trkpt>
      <trkpt lat="46.391247" lon="7.045930">
        <ele>1665.5</ele>
        <time>2013-06-16T10:16:10Z</time>
        <sat>7</sat>
      </trkpt>
      <trkpt lat="46.391187" lon="7.045903">
        <ele>1664.8</ele>
        <time>2013-06-16T10:16:12Z</time>
        <sat>8</sat>
      </trkpt>
      <trkpt lat="46.391125" lon="7.045885">
        <ele>1664.3</ele>
        <time>2013-06-16T10:16:14Z</time>
        <sat>8</sat>
      </trkpt>
      <trkpt lat="46.391067" lon="7.045865">
        <ele>1664.3</ele>
        <time>2013-06-16T10:16:16Z</time>
        <sat>8</sat>
      </trkpt>
      <trkpt lat="46.390983" lon="7.045827">
        <ele>1663.9</ele>
        <time>2013-06-16T10:16:19Z</time>
        <sat>8</sat>
      </trkpt>
      <trkpt lat="46.390915" lon="7.045798">
        <ele>1664.0</ele>
        <time>2013-06-16T10:16:22Z</time>
        <sat>7</sat>
      </trkpt>
      <trkpt lat="46.390843" lon="7.045782">
        <ele>1662.8</ele>
        <time>2013-06-16T10:16:25Z</time>
        <sat>8</sat>
      </trkpt>
      <trkpt lat="46.390768" lon="7.045775">
        <ele>1662.4</ele>
        <time>2013-06-16T10:16:28Z</time>
        <sat>8</sat>
      </trkpt>
      <trkpt lat="46.390708" lon="7.045792">
        <ele>1662.1</ele>
        <time>2013-06-16T10:16:30Z</time>
        <sat>8</sat>
      </trkpt>
      <trkpt lat="46.390640" lon="7.045792">
        <ele>1661.7</ele>
        <time>2013-06-16T10:16:32Z</time>
        <sat>8</sat>
      </trkpt>
      <trkpt lat="46.390568" lon="7.045802">
        <ele>1661.2</ele>
        <time>2013-06-16T10:16:34Z</time>
        <sat>8</sat>
      </trkpt>
      <trkpt lat="46.390493" lon="7.045823">
        <ele>1660.4</ele>
        <time>2013-06-16T10:16:36Z</time>
        <sat>8</sat>
      </trkpt>
      <trkpt lat="46.390417" lon="7.045862">
        <ele>1659.6</ele>
        <time>2013-06-16T10:16:38Z</time>
        <sat>8</sat>
      </trkpt>
      <trkpt lat="46.390328" lon="7.045883">
        <ele>1658.5</ele>
        <time>2013-06-16T10:16:40Z</time>
        <sat>8</sat>
      </trkpt>
      <trkpt lat="46.390283" lon="7.045895">
        <ele>1658.0</ele>
        <time>2013-06-16T10:16:41Z</time>
        <sat>8</sat>
      </trkpt>
      <trkpt lat="46.390237" lon="7.045913">
        <ele>1657.4</ele>
        <time>2013-06-16T10:16:42Z</time>
        <sat>8</sat>
      </trkpt>
      <trkpt lat="46.390187" lon="7.045930">
        <ele>1656.9</ele>
        <time>2013-06-16T10:16:43Z</time>
        <sat>8</sat>
      </trkpt>
      <trkpt lat="46.390132" lon="7.045943">
        <ele>1656.5</ele>
        <time>2013-06-16T10:16:44Z</time>
        <sat>7</sat>
      </trkpt>
      <trkpt lat="46.390075" lon="7.045953">
        <ele>1656.1</ele>
        <time>2013-06-16T10:16:45Z</time>
        <sat>8</sat>
      </trkpt>
      <trkpt lat="46.390018" lon="7.045962">
        <ele>1655.8</ele>
        <time>2013-06-16T10:16:46Z</time>
        <sat>8</sat>
      </trkpt>
      <trkpt lat="46.389963" lon="7.045965">
        <ele>1655.0</ele>
        <time>2013-06-16T10:16:47Z</time>
        <sat>8</sat>
      </trkpt>
      <trkpt lat="46.389908" lon="7.045965">
        <ele>1654.5</ele>
        <time>2013-06-16T10:16:48Z</time>
        <sat>8</sat>
      </trkpt>
      <trkpt lat="46.389855" lon="7.045968">
        <ele>1654.0</ele>
        <time>2013-06-16T10:16:49Z</time>
        <sat>8</sat>
      </trkpt>
      <trkpt lat="46.389803" lon="7.045973">
        <ele>1653.1</ele>
        <time>2013-06-16T10:16:50Z</time>
        <sat>8</sat>
      </trkpt>
      <trkpt lat="46.389755" lon="7.045983">
        <ele>1652.3</ele>
        <time>2013-06-16T10:16:51Z</time>
        <sat>8</sat>
      </trkpt>
      <trkpt lat="46.389667" lon="7.045993">
        <ele>1650.6</ele>
        <time>2013-06-16T10:16:53Z</time>
        <sat>8</sat>
      </trkpt>
      <trkpt lat="46.389582" lon="7.046005">
        <ele>1649.5</ele>
        <time>2013-06-16T10:16:55Z</time>
        <sat>8</sat>
      </trkpt>
      <trkpt lat="46.389538" lon="7.046010">
        <ele>1649.1</ele>
        <time>2013-06-16T10:16:56Z</time>
        <sat>8</sat>
      </trkpt>
      <trkpt lat="46.389492" lon="7.046017">
        <ele>1648.6</ele>
        <time>2013-06-16T10:16:57Z</time>
        <sat>8</sat>
      </trkpt>
      <trkpt lat="46.389443" lon="7.046023">
        <ele>1648.3</ele>
        <time>2013-06-16T10:16:58Z</time>
        <sat>8</sat>
      </trkpt>
      <trkpt lat="46.389395" lon="7.046023">
        <ele>1647.7</ele>
        <time>2013-06-16T10:16:59Z</time>
        <sat>8</sat>
      </trkpt>
      <trkpt lat="46.389347" lon="7.046022">
        <ele>1647.3</ele>
        <time>2013-06-16T10:17:00Z</time>
        <sat>8</sat>
      </trkpt>
      <trkpt lat="46.389297" lon="7.046022">
        <ele>1646.7</ele>
        <time>2013-06-16T10:17:01Z</time>
        <sat>8</sat>
      </trkpt>
      <trkpt lat="46.389245" lon="7.046022">
        <ele>1646.2</ele>
        <time>2013-06-16T10:17:02Z</time>
        <sat>8</sat>
      </trkpt>
      <trkpt lat="46.389192" lon="7.046020">
        <ele>1645.9</ele>
        <time>2013-06-16T10:17:03Z</time>
        <sat>8</sat>
      </trkpt>
      <trkpt lat="46.389138" lon="7.046018">
        <ele>1645.1</ele>
        <time>2013-06-16T10:17:04Z</time>
        <sat>8</sat>
      </trkpt>
      <trkpt lat="46.389085" lon="7.046023">
        <ele>1644.5</ele>
        <time>2013-06-16T10:17:05Z</time>
        <sat>8</sat>
      </trkpt>
      <trkpt lat="46.389033" lon="7.046033">
        <ele>1643.9</ele>
        <time>2013-06-16T10:17:06Z</time>
        <sat>8</sat>
      </trkpt>
      <trkpt lat="46.388983" lon="7.046050">
        <ele>1643.4</ele>
        <time>2013-06-16T10:17:07Z</time>
        <sat>8</sat>
      </trkpt>
      <trkpt lat="46.388937" lon="7.046070">
        <ele>1642.7</ele>
        <time>2013-06-16T10:17:08Z</time>
        <sat>8</sat>
      </trkpt>
      <trkpt lat="46.388893" lon="7.046093">
        <ele>1642.2</ele>
        <time>2013-06-16T10:17:09Z</time>
        <sat>8</sat>
      </trkpt>
      <trkpt lat="46.388812" lon="7.046135">
        <ele>1641.4</ele>
        <time>2013-06-16T10:17:11Z</time>
        <sat>7</sat>
      </trkpt>
      <trkpt lat="46.388728" lon="7.046163">
        <ele>1640.7</ele>
        <time>2013-06-16T10:17:13Z</time>
        <sat>8</sat>
      </trkpt>
      <trkpt lat="46.388643" lon="7.046168">
        <ele>1640.2</ele>
        <time>2013-06-16T10:17:15Z</time>
        <sat>8</sat>
      </trkpt>
      <trkpt lat="46.388562" lon="7.046162">
        <ele>1639.3</ele>
        <time>2013-06-16T10:17:17Z</time>
        <sat>8</sat>
      </trkpt>
      <trkpt lat="46.388488" lon="7.046145">
        <ele>1638.3</ele>
        <time>2013-06-16T10:17:19Z</time>
        <sat>8</sat>
      </trkpt>
      <trkpt lat="46.388418" lon="7.046127">
        <ele>1637.7</ele>
        <time>2013-06-16T10:17:21Z</time>
        <sat>8</sat>
      </trkpt>
      <trkpt lat="46.388345" lon="7.046097">
        <ele>1637.1</ele>
        <time>2013-06-16T10:17:23Z</time>
        <sat>8</sat>
      </trkpt>
      <trkpt lat="46.388262" lon="7.046088">
        <ele>1636.0</ele>
        <time>2013-06-16T10:17:25Z</time>
        <sat>8</sat>
      </trkpt>
      <trkpt lat="46.388180" lon="7.046080">
        <ele>1634.9</ele>
        <time>2013-06-16T10:17:27Z</time>
        <sat>8</sat>
      </trkpt>
      <trkpt lat="46.388135" lon="7.046077">
        <ele>1634.5</ele>
        <time>2013-06-16T10:17:28Z</time>
        <sat>8</sat>
      </trkpt>
      <trkpt lat="46.388088" lon="7.046075">
        <ele>1634.3</ele>
        <time>2013-06-16T10:17:29Z</time>
        <sat>8</sat>
      </trkpt>
      <trkpt lat="46.388044" lon="7.046078">
        <ele>1633.3</ele>
        <time>2013-06-16T10:17:30Z</time>
        <sat>8</sat>
      </trkpt>
      <trkpt lat="46.387998" lon="7.046088">
        <ele>1632.6</ele>
        <time>2013-06-16T10:17:31Z</time>
        <sat>8</sat>
      </trkpt>
      <trkpt lat="46.387952" lon="7.046098">
        <ele>1631.5</ele>
        <time>2013-06-16T10:17:32Z</time>
        <sat>8</sat>
      </trkpt>
      <trkpt lat="46.387905" lon="7.046108">
        <ele>1630.6</ele>
        <time>2013-06-16T10:17:33Z</time>
        <sat>8</sat>
      </trkpt>
      <trkpt lat="46.387858" lon="7.046120">
        <ele>1629.9</ele>
        <time>2013-06-16T10:17:34Z</time>
        <sat>8</sat>
      </trkpt>
      <trkpt lat="46.387773" lon="7.046145">
        <ele>1628.7</ele>
        <time>2013-06-16T10:17:36Z</time>
        <sat>8</sat>
      </trkpt>
      <trkpt lat="46.387705" lon="7.046157">
        <ele>1627.7</ele>
        <time>2013-06-16T10:17:38Z</time>
        <sat>8</sat>
      </trkpt>
      <trkpt lat="46.387623" lon="7.046183">
        <ele>1623.8</ele>
        <time>2013-06-16T10:18:19Z</time>
        <sat>8</sat>
      </trkpt>
      <trkpt lat="46.387603" lon="7.046197">
        <ele>1624.0</ele>
        <time>2013-06-16T10:18:20Z</time>
        <sat>8</sat>
      </trkpt>
      <trkpt lat="46.387492" lon="7.046302">
        <ele>1622.1</ele>
        <time>2013-06-16T10:23:02Z</time>
        <sat>7</sat>
      </trkpt>
      <trkpt lat="46.387468" lon="7.046325">
        <ele>1622.1</ele>
        <time>2013-06-16T10:23:03Z</time>
        <sat>7</sat>
      </trkpt>
      <trkpt lat="46.387372" lon="7.046395">
        <ele>1621.0</ele>
        <time>2013-06-16T10:23:06Z</time>
        <sat>7</sat>
      </trkpt>
      <trkpt lat="46.387295" lon="7.046437">
        <ele>1620.1</ele>
        <time>2013-06-16T10:23:08Z</time>
        <sat>7</sat>
      </trkpt>
      <trkpt lat="46.387213" lon="7.046470">
        <ele>1619.4</ele>
        <time>2013-06-16T10:23:10Z</time>
        <sat>7</sat>
      </trkpt>
      <trkpt lat="46.387140" lon="7.046503">
        <ele>1618.9</ele>
        <time>2013-06-16T10:23:12Z</time>
        <sat>7</sat>
      </trkpt>
      <trkpt lat="46.387067" lon="7.046540">
        <ele>1618.1</ele>
        <time>2013-06-16T10:23:14Z</time>
        <sat>7</sat>
      </trkpt>
      <trkpt lat="46.387025" lon="7.046567">
        <ele>1617.6</ele>
        <time>2013-06-16T10:23:15Z</time>
        <sat>7</sat>
      </trkpt>
      <trkpt lat="46.386980" lon="7.046595">
        <ele>1616.9</ele>
        <time>2013-06-16T10:23:16Z</time>
        <sat>7</sat>
      </trkpt>
      <trkpt lat="46.386935" lon="7.046622">
        <ele>1616.4</ele>
        <time>2013-06-16T10:23:17Z</time>
        <sat>7</sat>
      </trkpt>
      <trkpt lat="46.386888" lon="7.046643">
        <ele>1616.0</ele>
        <time>2013-06-16T10:23:18Z</time>
        <sat>7</sat>
      </trkpt>
      <trkpt lat="46.386842" lon="7.046663">
        <ele>1615.2</ele>
        <time>2013-06-16T10:23:19Z</time>
        <sat>7</sat>
      </trkpt>
      <trkpt lat="46.386795" lon="7.046683">
        <ele>1614.6</ele>
        <time>2013-06-16T10:23:20Z</time>
        <sat>7</sat>
      </trkpt>
      <trkpt lat="46.386747" lon="7.046705">
        <ele>1613.6</ele>
        <time>2013-06-16T10:23:21Z</time>
        <sat>7</sat>
      </trkpt>
      <trkpt lat="46.386698" lon="7.046725">
        <ele>1612.8</ele>
        <time>2013-06-16T10:23:22Z</time>
        <sat>7</sat>
      </trkpt>
      <trkpt lat="46.386650" lon="7.046745">
        <ele>1611.9</ele>
        <time>2013-06-16T10:23:23Z</time>
        <sat>7</sat>
      </trkpt>
      <trkpt lat="46.386602" lon="7.046768">
        <ele>1611.3</ele>
        <time>2013-06-16T10:23:24Z</time>
        <sat>7</sat>
      </trkpt>
      <trkpt lat="46.386555" lon="7.046795">
        <ele>1610.8</ele>
        <time>2013-06-16T10:23:25Z</time>
        <sat>7</sat>
      </trkpt>
      <trkpt lat="46.386473" lon="7.046835">
        <ele>1609.3</ele>
        <time>2013-06-16T10:23:27Z</time>
        <sat>6</sat>
      </trkpt>
      <trkpt lat="46.386398" lon="7.046872">
        <ele>1607.6</ele>
        <time>2013-06-16T10:23:29Z</time>
        <sat>7</sat>
      </trkpt>
      <trkpt lat="46.386348" lon="7.046893">
        <ele>1607.1</ele>
        <time>2013-06-16T10:23:30Z</time>
        <sat>7</sat>
      </trkpt>
      <trkpt lat="46.386292" lon="7.046912">
        <ele>1606.2</ele>
        <time>2013-06-16T10:23:31Z</time>
        <sat>7</sat>
      </trkpt>
      <trkpt lat="46.386232" lon="7.046930">
        <ele>1605.6</ele>
        <time>2013-06-16T10:23:32Z</time>
        <sat>8</sat>
      </trkpt>
      <trkpt lat="46.386170" lon="7.046948">
        <ele>1604.4</ele>
        <time>2013-06-16T10:23:33Z</time>
        <sat>8</sat>
      </trkpt>
      <trkpt lat="46.386108" lon="7.046968">
        <ele>1603.6</ele>
        <time>2013-06-16T10:23:34Z</time>
        <sat>8</sat>
      </trkpt>
      <trkpt lat="46.386047" lon="7.046988">
        <ele>1602.6</ele>
        <time>2013-06-16T10:23:35Z</time>
        <sat>8</sat>
      </trkpt>
      <trkpt lat="46.385987" lon="7.047005">
        <ele>1601.9</ele>
        <time>2013-06-16T10:23:36Z</time>
        <sat>8</sat>
      </trkpt>
      <trkpt lat="46.385928" lon="7.047018">
        <ele>1601.4</ele>
        <time>2013-06-16T10:23:37Z</time>
        <sat>7</sat>
      </trkpt>
      <trkpt lat="46.385870" lon="7.047032">
        <ele>1600.5</ele>
        <time>2013-06-16T10:23:38Z</time>
        <sat>8</sat>
      </trkpt>
      <trkpt lat="46.385812" lon="7.047050">
        <ele>1599.9</ele>
        <time>2013-06-16T10:23:39Z</time>
        <sat>8</sat>
      </trkpt>
      <trkpt lat="46.385755" lon="7.047075">
        <ele>1598.6</ele>
        <time>2013-06-16T10:23:40Z</time>
        <sat>8</sat>
      </trkpt>
      <trkpt lat="46.385698" lon="7.047103">
        <ele>1597.6</ele>
        <time>2013-06-16T10:23:41Z</time>
        <sat>8</sat>
      </trkpt>
      <trkpt lat="46.385642" lon="7.047135">
        <ele>1596.8</ele>
        <time>2013-06-16T10:23:42Z</time>
        <sat>8</sat>
      </trkpt>
      <trkpt lat="46.385587" lon="7.047168">
        <ele>1596.1</ele>
        <time>2013-06-16T10:23:43Z</time>
        <sat>8</sat>
      </trkpt>
      <trkpt lat="46.385532" lon="7.047200">
        <ele>1595.6</ele>
        <time>2013-06-16T10:23:44Z</time>
        <sat>8</sat>
      </trkpt>
      <trkpt lat="46.385472" lon="7.047233">
        <ele>1594.3</ele>
        <time>2013-06-16T10:23:45Z</time>
        <sat>8</sat>
      </trkpt>
      <trkpt lat="46.385408" lon="7.047268">
        <ele>1593.2</ele>
        <time>2013-06-16T10:23:46Z</time>
        <sat>8</sat>
      </trkpt>
      <trkpt lat="46.385343" lon="7.047302">
        <ele>1592.1</ele>
        <time>2013-06-16T10:23:47Z</time>
        <sat>8</sat>
      </trkpt>
      <trkpt lat="46.385278" lon="7.047333">
        <ele>1591.2</ele>
        <time>2013-06-16T10:23:48Z</time>
        <sat>8</sat>
      </trkpt>
      <trkpt lat="46.385218" lon="7.047365">
        <ele>1590.5</ele>
        <time>2013-06-16T10:23:49Z</time>
        <sat>8</sat>
      </trkpt>
      <trkpt lat="46.385162" lon="7.047392">
        <ele>1589.5</ele>
        <time>2013-06-16T10:23:50Z</time>
        <sat>8</sat>
      </trkpt>
      <trkpt lat="46.385107" lon="7.047417">
        <ele>1588.7</ele>
        <time>2013-06-16T10:23:51Z</time>
        <sat>8</sat>
      </trkpt>
      <trkpt lat="46.385048" lon="7.047438">
        <ele>1587.8</ele>
        <time>2013-06-16T10:23:52Z</time>
        <sat>8</sat>
      </trkpt>
      <trkpt lat="46.384988" lon="7.047462">
        <ele>1587.2</ele>
        <time>2013-06-16T10:23:53Z</time>
        <sat>8</sat>
      </trkpt>
      <trkpt lat="46.384925" lon="7.047480">
        <ele>1585.8</ele>
        <time>2013-06-16T10:23:54Z</time>
        <sat>8</sat>
      </trkpt>
      <trkpt lat="46.384858" lon="7.047493">
        <ele>1584.8</ele>
        <time>2013-06-16T10:23:55Z</time>
        <sat>8</sat>
      </trkpt>
      <trkpt lat="46.384792" lon="7.047512">
        <ele>1584.0</ele>
        <time>2013-06-16T10:23:56Z</time>
        <sat>8</sat>
      </trkpt>
      <trkpt lat="46.384722" lon="7.047532">
        <ele>1582.8</ele>
        <time>2013-06-16T10:23:57Z</time>
        <sat>8</sat>
      </trkpt>
      <trkpt lat="46.384648" lon="7.047553">
        <ele>1581.8</ele>
        <time>2013-06-16T10:23:58Z</time>
        <sat>8</sat>
      </trkpt>
      <trkpt lat="46.384573" lon="7.047580">
        <ele>1580.9</ele>
        <time>2013-06-16T10:23:59Z</time>
        <sat>8</sat>
      </trkpt>
      <trkpt lat="46.384502" lon="7.047615">
        <ele>1580.2</ele>
        <time>2013-06-16T10:24:00Z</time>
        <sat>8</sat>
      </trkpt>
      <trkpt lat="46.384428" lon="7.047653">
        <ele>1578.7</ele>
        <time>2013-06-16T10:24:01Z</time>
        <sat>8</sat>
      </trkpt>
      <trkpt lat="46.384358" lon="7.047692">
        <ele>1577.6</ele>
        <time>2013-06-16T10:24:02Z</time>
        <sat>8</sat>
      </trkpt>
      <trkpt lat="46.384293" lon="7.047727">
        <ele>1576.7</ele>
        <time>2013-06-16T10:24:03Z</time>
        <sat>8</sat>
      </trkpt>
      <trkpt lat="46.384232" lon="7.047752">
        <ele>1575.9</ele>
        <time>2013-06-16T10:24:04Z</time>
        <sat>8</sat>
      </trkpt>
      <trkpt lat="46.384177" lon="7.047767">
        <ele>1575.3</ele>
        <time>2013-06-16T10:24:05Z</time>
        <sat>8</sat>
      </trkpt>
      <trkpt lat="46.384093" lon="7.047802">
        <ele>1573.8</ele>
        <time>2013-06-16T10:24:07Z</time>
        <sat>8</sat>
      </trkpt>
      <trkpt lat="46.384043" lon="7.047873">
        <ele>1572.8</ele>
        <time>2013-06-16T10:24:09Z</time>
        <sat>8</sat>
      </trkpt>
      <trkpt lat="46.383987" lon="7.047962">
        <ele>1571.9</ele>
        <time>2013-06-16T10:24:12Z</time>
        <sat>8</sat>
      </trkpt>
      <trkpt lat="46.383935" lon="7.048040">
        <ele>1571.6</ele>
        <time>2013-06-16T10:24:15Z</time>
        <sat>8</sat>
      </trkpt>
      <trkpt lat="46.383888" lon="7.048125">
        <ele>1571.5</ele>
        <time>2013-06-16T10:24:18Z</time>
        <sat>8</sat>
      </trkpt>
      <trkpt lat="46.383842" lon="7.048205">
        <ele>1571.6</ele>
        <time>2013-06-16T10:24:21Z</time>
        <sat>8</sat>
      </trkpt>
      <trkpt lat="46.383790" lon="7.048288">
        <ele>1571.9</ele>
        <time>2013-06-16T10:24:24Z</time>
        <sat>7</sat>
      </trkpt>
      <trkpt lat="46.383733" lon="7.048357">
        <ele>1571.9</ele>
        <time>2013-06-16T10:24:27Z</time>
        <sat>8</sat>
      </trkpt>
      <trkpt lat="46.383670" lon="7.048408">
        <ele>1572.5</ele>
        <time>2013-06-16T10:24:30Z</time>
        <sat>8</sat>
      </trkpt>
      <trkpt lat="46.383587" lon="7.048452">
        <ele>1572.8</ele>
        <time>2013-06-16T10:24:34Z</time>
        <sat>8</sat>
      </trkpt>
      <trkpt lat="46.383508" lon="7.048488">
        <ele>1573.7</ele>
        <time>2013-06-16T10:24:38Z</time>
        <sat>7</sat>
      </trkpt>
      <trkpt lat="46.383437" lon="7.048547">
        <ele>1574.6</ele>
        <time>2013-06-16T10:24:42Z</time>
        <sat>8</sat>
      </trkpt>
      <trkpt lat="46.383362" lon="7.048613">
        <ele>1575.8</ele>
        <time>2013-06-16T10:24:46Z</time>
        <sat>8</sat>
      </trkpt>
      <trkpt lat="46.383307" lon="7.048672">
        <ele>1576.5</ele>
        <time>2013-06-16T10:24:49Z</time>
        <sat>8</sat>
      </trkpt>
      <trkpt lat="46.383253" lon="7.048733">
        <ele>1577.1</ele>
        <time>2013-06-16T10:24:52Z</time>
        <sat>8</sat>
      </trkpt>
      <trkpt lat="46.383188" lon="7.048817">
        <ele>1577.8</ele>
        <time>2013-06-16T10:24:56Z</time>
        <sat>8</sat>
      </trkpt>
      <trkpt lat="46.383122" lon="7.048897">
        <ele>1577.9</ele>
        <time>2013-06-16T10:25:00Z</time>
        <sat>8</sat>
      </trkpt>
      <trkpt lat="46.383068" lon="7.048963">
        <ele>1578.6</ele>
        <time>2013-06-16T10:25:03Z</time>
        <sat>8</sat>
      </trkpt>
      <trkpt lat="46.383000" lon="7.049047">
        <ele>1579.9</ele>
        <time>2013-06-16T10:25:07Z</time>
        <sat>8</sat>
      </trkpt>
      <trkpt lat="46.382983" lon="7.049070">
        <ele>1579.9</ele>
        <time>2013-06-16T10:25:08Z</time>
        <sat>8</sat>
      </trkpt>
      <trkpt lat="46.382878" lon="7.049198">
        <ele>1579.1</ele>
        <time>2013-06-16T10:25:14Z</time>
        <sat>8</sat>
      </trkpt>
      <trkpt lat="46.382823" lon="7.049272">
        <ele>1579.7</ele>
        <time>2013-06-16T10:25:17Z</time>
        <sat>8</sat>
      </trkpt>
      <trkpt lat="46.382760" lon="7.049358">
        <ele>1579.4</ele>
        <time>2013-06-16T10:25:21Z</time>
        <sat>8</sat>
      </trkpt>
      <trkpt lat="46.382707" lon="7.049430">
        <ele>1579.6</ele>
        <time>2013-06-16T10:25:24Z</time>
        <sat>8</sat>
      </trkpt>
      <trkpt lat="46.382658" lon="7.049508">
        <ele>1579.4</ele>
        <time>2013-06-16T10:25:27Z</time>
        <sat>8</sat>
      </trkpt>
      <trkpt lat="46.382618" lon="7.049605">
        <ele>1579.2</ele>
        <time>2013-06-16T10:25:30Z</time>
        <sat>8</sat>
      </trkpt>
      <trkpt lat="46.382587" lon="7.049713">
        <ele>1579.5</ele>
        <time>2013-06-16T10:25:33Z</time>
        <sat>8</sat>
      </trkpt>
      <trkpt lat="46.382568" lon="7.049815">
        <ele>1580.0</ele>
        <time>2013-06-16T10:25:36Z</time>
        <sat>8</sat>
      </trkpt>
      <trkpt lat="46.382552" lon="7.049918">
        <ele>1579.9</ele>
        <time>2013-06-16T10:25:39Z</time>
        <sat>8</sat>
      </trkpt>
      <trkpt lat="46.382547" lon="7.050037">
        <ele>1579.8</ele>
        <time>2013-06-16T10:25:42Z</time>
        <sat>8</sat>
      </trkpt>
      <trkpt lat="46.382548" lon="7.050145">
        <ele>1579.5</ele>
        <time>2013-06-16T10:25:45Z</time>
        <sat>8</sat>
      </trkpt>
      <trkpt lat="46.382555" lon="7.050248">
        <ele>1579.5</ele>
        <time>2013-06-16T10:25:48Z</time>
        <sat>8</sat>
      </trkpt>
      <trkpt lat="46.382547" lon="7.050357">
        <ele>1579.4</ele>
        <time>2013-06-16T10:25:51Z</time>
        <sat>8</sat>
      </trkpt>
      <trkpt lat="46.382512" lon="7.050468">
        <ele>1579.3</ele>
        <time>2013-06-16T10:25:54Z</time>
        <sat>8</sat>
      </trkpt>
      <trkpt lat="46.382463" lon="7.050577">
        <ele>1579.9</ele>
        <time>2013-06-16T10:25:57Z</time>
        <sat>8</sat>
      </trkpt>
      <trkpt lat="46.382423" lon="7.050650">
        <ele>1579.3</ele>
        <time>2013-06-16T10:25:59Z</time>
        <sat>8</sat>
      </trkpt>
      <trkpt lat="46.382382" lon="7.050723">
        <ele>1579.6</ele>
        <time>2013-06-16T10:26:01Z</time>
        <sat>8</sat>
      </trkpt>
      <trkpt lat="46.382345" lon="7.050809">
        <ele>1579.4</ele>
        <time>2013-06-16T10:26:03Z</time>
        <sat>8</sat>
      </trkpt>
      <trkpt lat="46.382315" lon="7.050903">
        <ele>1579.2</ele>
        <time>2013-06-16T10:26:05Z</time>
        <sat>8</sat>
      </trkpt>
      <trkpt lat="46.382290" lon="7.051003">
        <ele>1578.9</ele>
        <time>2013-06-16T10:26:07Z</time>
        <sat>8</sat>
      </trkpt>
      <trkpt lat="46.382275" lon="7.051108">
        <ele>1578.8</ele>
        <time>2013-06-16T10:26:09Z</time>
        <sat>8</sat>
      </trkpt>
      <trkpt lat="46.382270" lon="7.051158">
        <ele>1578.7</ele>
        <time>2013-06-16T10:26:10Z</time>
        <sat>8</sat>
      </trkpt>
      <trkpt lat="46.382277" lon="7.051308">
        <ele>1578.7</ele>
        <time>2013-06-16T10:26:13Z</time>
        <sat>8</sat>
      </trkpt>
      <trkpt lat="46.382275" lon="7.051402">
        <ele>1579.0</ele>
        <time>2013-06-16T10:26:15Z</time>
        <sat>8</sat>
      </trkpt>
      <trkpt lat="46.382273" lon="7.051517">
        <ele>1578.7</ele>
        <time>2013-06-16T10:26:17Z</time>
        <sat>8</sat>
      </trkpt>
      <trkpt lat="46.382263" lon="7.051583">
        <ele>1578.3</ele>
        <time>2013-06-16T10:26:18Z</time>
        <sat>7</sat>
      </trkpt>
      <trkpt lat="46.382243" lon="7.051650">
        <ele>1577.8</ele>
        <time>2013-06-16T10:26:19Z</time>
        <sat>8</sat>
      </trkpt>
      <trkpt lat="46.382215" lon="7.051712">
        <ele>1577.4</ele>
        <time>2013-06-16T10:26:20Z</time>
        <sat>7</sat>
      </trkpt>
      <trkpt lat="46.382177" lon="7.051763">
        <ele>1577.1</ele>
        <time>2013-06-16T10:26:21Z</time>
        <sat>7</sat>
      </trkpt>
      <trkpt lat="46.382137" lon="7.051810">
        <ele>1576.9</ele>
        <time>2013-06-16T10:26:22Z</time>
        <sat>7</sat>
      </trkpt>
      <trkpt lat="46.382090" lon="7.051848">
        <ele>1576.8</ele>
        <time>2013-06-16T10:26:23Z</time>
        <sat>7</sat>
      </trkpt>
      <trkpt lat="46.382048" lon="7.051883">
        <ele>1576.4</ele>
        <time>2013-06-16T10:26:24Z</time>
        <sat>7</sat>
      </trkpt>
      <trkpt lat="46.381980" lon="7.051955">
        <ele>1575.8</ele>
        <time>2013-06-16T10:26:26Z</time>
        <sat>7</sat>
      </trkpt>
      <trkpt lat="46.381913" lon="7.052008">
        <ele>1575.4</ele>
        <time>2013-06-16T10:26:28Z</time>
        <sat>7</sat>
      </trkpt>
      <trkpt lat="46.381847" lon="7.052060">
        <ele>1575.2</ele>
        <time>2013-06-16T10:26:30Z</time>
        <sat>7</sat>
      </trkpt>
      <trkpt lat="46.381792" lon="7.052120">
        <ele>1575.0</ele>
        <time>2013-06-16T10:26:32Z</time>
        <sat>7</sat>
      </trkpt>
      <trkpt lat="46.381720" lon="7.052192">
        <ele>1574.8</ele>
        <time>2013-06-16T10:26:35Z</time>
        <sat>8</sat>
      </trkpt>
      <trkpt lat="46.381658" lon="7.052265">
        <ele>1574.2</ele>
        <time>2013-06-16T10:26:38Z</time>
        <sat>8</sat>
      </trkpt>
      <trkpt lat="46.381600" lon="7.052338">
        <ele>1574.2</ele>
        <time>2013-06-16T10:26:41Z</time>
        <sat>8</sat>
      </trkpt>
      <trkpt lat="46.381547" lon="7.052438">
        <ele>1573.6</ele>
        <time>2013-06-16T10:27:11Z</time>
        <sat>8</sat>
      </trkpt>
      <trkpt lat="46.381545" lon="7.052442">
        <ele>1573.0</ele>
        <time>2013-06-16T10:27:12Z</time>
        <sat>8</sat>
      </trkpt>
      <trkpt lat="46.381528" lon="7.052575">
        <ele>1573.2</ele>
        <time>2013-06-16T10:28:48Z</time>
        <sat>7</sat>
      </trkpt>
      <trkpt lat="46.381490" lon="7.052758">
        <ele>1571.8</ele>
        <time>2013-06-16T10:28:53Z</time>
        <sat>8</sat>
      </trkpt>
      <trkpt lat="46.381460" lon="7.052852">
        <ele>1571.6</ele>
        <time>2013-06-16T10:28:55Z</time>
        <sat>7</sat>
      </trkpt>
      <trkpt lat="46.381428" lon="7.052943">
        <ele>1571.1</ele>
        <time>2013-06-16T10:28:57Z</time>
        <sat>7</sat>
      </trkpt>
      <trkpt lat="46.381400" lon="7.053030">
        <ele>1570.8</ele>
        <time>2013-06-16T10:28:59Z</time>
        <sat>7</sat>
      </trkpt>
      <trkpt lat="46.381373" lon="7.053118">
        <ele>1570.2</ele>
        <time>2013-06-16T10:29:01Z</time>
        <sat>7</sat>
      </trkpt>
      <trkpt lat="46.381353" lon="7.053212">
        <ele>1569.8</ele>
        <time>2013-06-16T10:29:03Z</time>
        <sat>7</sat>
      </trkpt>
      <trkpt lat="46.381323" lon="7.053307">
        <ele>1569.2</ele>
        <time>2013-06-16T10:29:05Z</time>
        <sat>7</sat>
      </trkpt>
      <trkpt lat="46.381297" lon="7.053405">
        <ele>1568.7</ele>
        <time>2013-06-16T10:29:07Z</time>
        <sat>7</sat>
      </trkpt>
      <trkpt lat="46.381273" lon="7.053503">
        <ele>1568.4</ele>
        <time>2013-06-16T10:29:09Z</time>
        <sat>7</sat>
      </trkpt>
      <trkpt lat="46.381253" lon="7.053605">
        <ele>1567.5</ele>
        <time>2013-06-16T10:29:11Z</time>
        <sat>7</sat>
      </trkpt>
      <trkpt lat="46.381230" lon="7.053695">
        <ele>1567.6</ele>
        <time>2013-06-16T10:29:13Z</time>
        <sat>7</sat>
      </trkpt>
      <trkpt lat="46.381202" lon="7.053797">
        <ele>1567.2</ele>
        <time>2013-06-16T10:29:16Z</time>
        <sat>8</sat>
      </trkpt>
      <trkpt lat="46.381223" lon="7.053903">
        <ele>1566.8</ele>
        <time>2013-06-16T10:29:20Z</time>
        <sat>8</sat>
      </trkpt>
      <trkpt lat="46.381248" lon="7.053978">
        <ele>1566.7</ele>
        <time>2013-06-16T10:29:22Z</time>
        <sat>8</sat>
      </trkpt>
      <trkpt lat="46.381272" lon="7.054070">
        <ele>1566.1</ele>
        <time>2013-06-16T10:29:24Z</time>
        <sat>8</sat>
      </trkpt>
      <trkpt lat="46.381263" lon="7.054195">
        <ele>1565.4</ele>
        <time>2013-06-16T10:29:27Z</time>
        <sat>7</sat>
      </trkpt>
      <trkpt lat="46.381228" lon="7.054297">
        <ele>1565.4</ele>
        <time>2013-06-16T10:29:30Z</time>
        <sat>7</sat>
      </trkpt>
      <trkpt lat="46.381187" lon="7.054382">
        <ele>1565.5</ele>
        <time>2013-06-16T10:29:33Z</time>
        <sat>7</sat>
      </trkpt>
      <trkpt lat="46.381157" lon="7.054462">
        <ele>1565.3</ele>
        <time>2013-06-16T10:29:35Z</time>
        <sat>7</sat>
      </trkpt>
      <trkpt lat="46.381125" lon="7.054547">
        <ele>1563.6</ele>
        <time>2013-06-16T10:29:37Z</time>
        <sat>7</sat>
      </trkpt>
      <trkpt lat="46.381093" lon="7.054627">
        <ele>1563.3</ele>
        <time>2013-06-16T10:29:39Z</time>
        <sat>7</sat>
      </trkpt>
      <trkpt lat="46.381050" lon="7.054697">
        <ele>1562.9</ele>
        <time>2013-06-16T10:29:41Z</time>
        <sat>7</sat>
      </trkpt>
      <trkpt lat="46.380995" lon="7.054755">
        <ele>1562.4</ele>
        <time>2013-06-16T10:29:43Z</time>
        <sat>7</sat>
      </trkpt>
      <trkpt lat="46.380930" lon="7.054805">
        <ele>1562.0</ele>
        <time>2013-06-16T10:29:45Z</time>
        <sat>7</sat>
      </trkpt>
      <trkpt lat="46.380868" lon="7.054857">
        <ele>1561.9</ele>
        <time>2013-06-16T10:29:47Z</time>
        <sat>7</sat>
      </trkpt>
      <trkpt lat="46.380797" lon="7.054920">
        <ele>1561.3</ele>
        <time>2013-06-16T10:29:50Z</time>
        <sat>7</sat>
      </trkpt>
      <trkpt lat="46.380777" lon="7.054938">
        <ele>1560.9</ele>
        <time>2013-06-16T10:29:51Z</time>
        <sat>7</sat>
      </trkpt>
      <trkpt lat="46.380655" lon="7.055047">
        <ele>1559.2</ele>
        <time>2013-06-16T10:29:56Z</time>
        <sat>7</sat>
      </trkpt>
      <trkpt lat="46.380603" lon="7.055102">
        <ele>1558.8</ele>
        <time>2013-06-16T10:29:58Z</time>
        <sat>7</sat>
      </trkpt>
      <trkpt lat="46.380548" lon="7.055158">
        <ele>1558.6</ele>
        <time>2013-06-16T10:30:00Z</time>
        <sat>7</sat>
      </trkpt>
      <trkpt lat="46.380502" lon="7.055228">
        <ele>1557.9</ele>
        <time>2013-06-16T10:30:02Z</time>
        <sat>7</sat>
      </trkpt>
      <trkpt lat="46.380463" lon="7.055303">
        <ele>1558.0</ele>
        <time>2013-06-16T10:30:04Z</time>
        <sat>7</sat>
      </trkpt>
      <trkpt lat="46.380448" lon="7.055388">
        <ele>1558.6</ele>
        <time>2013-06-16T10:30:06Z</time>
        <sat>7</sat>
      </trkpt>
      <trkpt lat="46.380432" lon="7.055512">
        <ele>1557.1</ele>
        <time>2013-06-16T10:30:09Z</time>
        <sat>7</sat>
      </trkpt>
      <trkpt lat="46.380428" lon="7.055623">
        <ele>1556.5</ele>
        <time>2013-06-16T10:30:12Z</time>
        <sat>7</sat>
      </trkpt>
      <trkpt lat="46.380443" lon="7.055727">
        <ele>1555.6</ele>
        <time>2013-06-16T10:30:15Z</time>
        <sat>7</sat>
      </trkpt>
      <trkpt lat="46.380463" lon="7.055845">
        <ele>1554.9</ele>
        <time>2013-06-16T10:30:19Z</time>
        <sat>7</sat>
      </trkpt>
      <trkpt lat="46.380455" lon="7.055963">
        <ele>1554.2</ele>
        <time>2013-06-16T10:30:32Z</time>
        <sat>7</sat>
      </trkpt>
      <trkpt lat="46.380412" lon="7.056067">
        <ele>1555.4</ele>
        <time>2013-06-16T10:30:40Z</time>
        <sat>7</sat>
      </trkpt>
      <trkpt lat="46.380378" lon="7.056172">
        <ele>1554.8</ele>
        <time>2013-06-16T10:30:47Z</time>
        <sat>7</sat>
      </trkpt>
      <trkpt lat="46.380342" lon="7.056287">
        <ele>1554.4</ele>
        <time>2013-06-16T10:30:55Z</time>
        <sat>7</sat>
      </trkpt>
      <trkpt lat="46.380338" lon="7.056300">
        <ele>1554.4</ele>
        <time>2013-06-16T10:30:56Z</time>
        <sat>7</sat>
      </trkpt>
      <trkpt lat="46.380228" lon="7.056482">
        <ele>1552.2</ele>
        <time>2013-06-16T10:31:19Z</time>
        <sat>6</sat>
      </trkpt>
      <trkpt lat="46.380173" lon="7.056567">
        <ele>1550.6</ele>
        <time>2013-06-16T10:31:52Z</time>
        <sat>6</sat>
      </trkpt>
      <trkpt lat="46.380142" lon="7.056667">
        <ele>1550.2</ele>
        <time>2013-06-16T10:31:57Z</time>
        <sat>7</sat>
      </trkpt>
      <trkpt lat="46.380133" lon="7.056687">
        <ele>1550.5</ele>
        <time>2013-06-16T10:31:58Z</time>
        <sat>6</sat>
      </trkpt>
      <trkpt lat="46.380043" lon="7.056857">
        <ele>1549.0</ele>
        <time>2013-06-16T10:32:07Z</time>
        <sat>6</sat>
      </trkpt>
      <trkpt lat="46.379972" lon="7.056932">
        <ele>1548.8</ele>
        <time>2013-06-16T10:32:12Z</time>
        <sat>6</sat>
      </trkpt>
      <trkpt lat="46.379918" lon="7.057008">
        <ele>1548.7</ele>
        <time>2013-06-16T10:32:16Z</time>
        <sat>7</sat>
      </trkpt>
      <trkpt lat="46.379868" lon="7.057083">
        <ele>1548.2</ele>
        <time>2013-06-16T10:32:19Z</time>
        <sat>7</sat>
      </trkpt>
      <trkpt lat="46.379805" lon="7.057162">
        <ele>1546.8</ele>
        <time>2013-06-16T10:32:22Z</time>
        <sat>7</sat>
      </trkpt>
      <trkpt lat="46.379748" lon="7.057237">
        <ele>1546.7</ele>
        <time>2013-06-16T10:32:25Z</time>
        <sat>6</sat>
      </trkpt>
      <trkpt lat="46.379723" lon="7.057347">
        <ele>1546.8</ele>
        <time>2013-06-16T10:32:30Z</time>
        <sat>7</sat>
      </trkpt>
      <trkpt lat="46.379733" lon="7.057473">
        <ele>1547.0</ele>
        <time>2013-06-16T10:32:36Z</time>
        <sat>7</sat>
      </trkpt>
      <trkpt lat="46.379757" lon="7.057588">
        <ele>1546.0</ele>
        <time>2013-06-16T10:32:42Z</time>
        <sat>7</sat>
      </trkpt>
      <trkpt lat="46.379758" lon="7.057715">
        <ele>1545.8</ele>
        <time>2013-06-16T10:32:50Z</time>
        <sat>7</sat>
      </trkpt>
      <trkpt lat="46.379758" lon="7.057840">
        <ele>1545.7</ele>
        <time>2013-06-16T10:32:57Z</time>
        <sat>7</sat>
      </trkpt>
      <trkpt lat="46.379742" lon="7.057943">
        <ele>1545.3</ele>
        <time>2013-06-16T10:33:01Z</time>
        <sat>7</sat>
      </trkpt>
      <trkpt lat="46.379737" lon="7.057967">
        <ele>1545.3</ele>
        <time>2013-06-16T10:33:02Z</time>
        <sat>7</sat>
      </trkpt>
      <trkpt lat="46.379703" lon="7.058165">
        <ele>1544.4</ele>
        <time>2013-06-16T10:33:11Z</time>
        <sat>7</sat>
      </trkpt>
      <trkpt lat="46.379665" lon="7.058260">
        <ele>1544.0</ele>
        <time>2013-06-16T10:33:15Z</time>
        <sat>7</sat>
      </trkpt>
      <trkpt lat="46.379653" lon="7.058387">
        <ele>1543.7</ele>
        <time>2013-06-16T10:33:19Z</time>
        <sat>7</sat>
      </trkpt>
      <trkpt lat="46.379642" lon="7.058490">
        <ele>1543.6</ele>
        <time>2013-06-16T10:33:22Z</time>
        <sat>8</sat>
      </trkpt>
      <trkpt lat="46.379620" lon="7.058595">
        <ele>1543.9</ele>
        <time>2013-06-16T10:33:25Z</time>
        <sat>8</sat>
      </trkpt>
      <trkpt lat="46.379605" lon="7.058702">
        <ele>1544.0</ele>
        <time>2013-06-16T10:33:28Z</time>
        <sat>8</sat>
      </trkpt>
      <trkpt lat="46.379577" lon="7.058813">
        <ele>1543.9</ele>
        <time>2013-06-16T10:33:31Z</time>
        <sat>8</sat>
      </trkpt>
      <trkpt lat="46.379538" lon="7.058905">
        <ele>1543.4</ele>
        <time>2013-06-16T10:33:34Z</time>
        <sat>8</sat>
      </trkpt>
      <trkpt lat="46.379502" lon="7.058992">
        <ele>1542.9</ele>
        <time>2013-06-16T10:33:37Z</time>
        <sat>8</sat>
      </trkpt>
      <trkpt lat="46.379463" lon="7.059098">
        <ele>1542.5</ele>
        <time>2013-06-16T10:33:40Z</time>
        <sat>8</sat>
      </trkpt>
      <trkpt lat="46.379435" lon="7.059208">
        <ele>1542.1</ele>
        <time>2013-06-16T10:33:43Z</time>
        <sat>8</sat>
      </trkpt>
      <trkpt lat="46.379423" lon="7.059320">
        <ele>1542.5</ele>
        <time>2013-06-16T10:33:46Z</time>
        <sat>8</sat>
      </trkpt>
      <trkpt lat="46.379417" lon="7.059432">
        <ele>1543.2</ele>
        <time>2013-06-16T10:33:49Z</time>
        <sat>8</sat>
      </trkpt>
      <trkpt lat="46.379397" lon="7.059555">
        <ele>1543.3</ele>
        <time>2013-06-16T10:33:53Z</time>
        <sat>8</sat>
      </trkpt>
      <trkpt lat="46.379343" lon="7.059620">
        <ele>1542.7</ele>
        <time>2013-06-16T10:33:57Z</time>
        <sat>8</sat>
      </trkpt>
      <trkpt lat="46.379275" lon="7.059680">
        <ele>1542.0</ele>
        <time>2013-06-16T10:34:00Z</time>
        <sat>8</sat>
      </trkpt>
      <trkpt lat="46.379203" lon="7.059742">
        <ele>1541.4</ele>
        <time>2013-06-16T10:34:03Z</time>
        <sat>8</sat>
      </trkpt>
      <trkpt lat="46.379178" lon="7.059765">
        <ele>1540.6</ele>
        <time>2013-06-16T10:34:04Z</time>
        <sat>8</sat>
      </trkpt>
      <trkpt lat="46.379085" lon="7.059907">
        <ele>1538.6</ele>
        <time>2013-06-16T10:34:09Z</time>
        <sat>8</sat>
      </trkpt>
      <trkpt lat="46.379030" lon="7.060002">
        <ele>1537.4</ele>
        <time>2013-06-16T10:34:12Z</time>
        <sat>8</sat>
      </trkpt>
      <trkpt lat="46.378973" lon="7.060082">
        <ele>1537.2</ele>
        <time>2013-06-16T10:34:15Z</time>
        <sat>8</sat>
      </trkpt>
      <trkpt lat="46.378915" lon="7.060180">
        <ele>1535.8</ele>
        <time>2013-06-16T10:34:19Z</time>
        <sat>8</sat>
      </trkpt>
      <trkpt lat="46.378873" lon="7.060263">
        <ele>1534.7</ele>
        <time>2013-06-16T10:34:22Z</time>
        <sat>8</sat>
      </trkpt>
      <trkpt lat="46.378825" lon="7.060345">
        <ele>1533.7</ele>
        <time>2013-06-16T10:34:25Z</time>
        <sat>8</sat>
      </trkpt>
      <trkpt lat="46.378757" lon="7.060428">
        <ele>1533.1</ele>
        <time>2013-06-16T10:34:29Z</time>
        <sat>8</sat>
      </trkpt>
      <trkpt lat="46.378692" lon="7.060505">
        <ele>1531.4</ele>
        <time>2013-06-16T10:34:36Z</time>
        <sat>8</sat>
      </trkpt>
      <trkpt lat="46.378627" lon="7.060587">
        <ele>1530.6</ele>
        <time>2013-06-16T10:34:45Z</time>
        <sat>8</sat>
      </trkpt>
      <trkpt lat="46.378568" lon="7.060675">
        <ele>1529.0</ele>
        <time>2013-06-16T10:35:04Z</time>
        <sat>8</sat>
      </trkpt>
      <trkpt lat="46.378503" lon="7.060748">
        <ele>1529.1</ele>
        <time>2013-06-16T10:35:10Z</time>
        <sat>8</sat>
      </trkpt>
      <trkpt lat="46.378490" lon="7.060757">
        <ele>1529.3</ele>
        <time>2013-06-16T10:35:11Z</time>
        <sat>8</sat>
      </trkpt>
      <trkpt lat="46.378345" lon="7.060847">
        <ele>1527.8</ele>
        <time>2013-06-16T10:35:21Z</time>
        <sat>8</sat>
      </trkpt>
      <trkpt lat="46.378280" lon="7.060897">
        <ele>1527.5</ele>
        <time>2013-06-16T10:35:24Z</time>
        <sat>8</sat>
      </trkpt>
      <trkpt lat="46.378207" lon="7.060962">
        <ele>1526.5</ele>
        <time>2013-06-16T10:35:27Z</time>
        <sat>8</sat>
      </trkpt>
      <trkpt lat="46.378157" lon="7.061028">
        <ele>1525.8</ele>
        <time>2013-06-16T10:35:29Z</time>
        <sat>8</sat>
      </trkpt>
      <trkpt lat="46.378117" lon="7.061120">
        <ele>1525.4</ele>
        <time>2013-06-16T10:35:31Z</time>
        <sat>8</sat>
      </trkpt>
      <trkpt lat="46.378093" lon="7.061227">
        <ele>1525.0</ele>
        <time>2013-06-16T10:35:33Z</time>
        <sat>8</sat>
      </trkpt>
      <trkpt lat="46.378087" lon="7.061330">
        <ele>1524.7</ele>
        <time>2013-06-16T10:35:35Z</time>
        <sat>8</sat>
      </trkpt>
      <trkpt lat="46.378078" lon="7.061422">
        <ele>1524.3</ele>
        <time>2013-06-16T10:35:37Z</time>
        <sat>8</sat>
      </trkpt>
      <trkpt lat="46.378037" lon="7.061537">
        <ele>1524.1</ele>
        <time>2013-06-16T10:35:40Z</time>
        <sat>8</sat>
      </trkpt>
      <trkpt lat="46.377997" lon="7.061608">
        <ele>1523.6</ele>
        <time>2013-06-16T10:35:42Z</time>
        <sat>8</sat>
      </trkpt>
      <trkpt lat="46.377945" lon="7.061702">
        <ele>1523.8</ele>
        <time>2013-06-16T10:35:45Z</time>
        <sat>8</sat>
      </trkpt>
      <trkpt lat="46.377910" lon="7.061815">
        <ele>1524.1</ele>
        <time>2013-06-16T10:35:48Z</time>
        <sat>8</sat>
      </trkpt>
      <trkpt lat="46.377890" lon="7.061933">
        <ele>1525.7</ele>
        <time>2013-06-16T10:35:51Z</time>
        <sat>8</sat>
      </trkpt>
      <trkpt lat="46.377865" lon="7.062042">
        <ele>1526.1</ele>
        <time>2013-06-16T10:35:54Z</time>
        <sat>8</sat>
      </trkpt>
      <trkpt lat="46.377840" lon="7.062140">
        <ele>1526.3</ele>
        <time>2013-06-16T10:35:57Z</time>
        <sat>8</sat>
      </trkpt>
      <trkpt lat="46.377810" lon="7.062235">
        <ele>1526.4</ele>
        <time>2013-06-16T10:36:00Z</time>
        <sat>7</sat>
      </trkpt>
      <trkpt lat="46.377773" lon="7.062345">
        <ele>1526.8</ele>
        <time>2013-06-16T10:36:03Z</time>
        <sat>8</sat>
      </trkpt>
      <trkpt lat="46.377750" lon="7.062429">
        <ele>1527.1</ele>
        <time>2013-06-16T10:36:05Z</time>
        <sat>8</sat>
      </trkpt>
      <trkpt lat="46.377725" lon="7.062518">
        <ele>1527.4</ele>
        <time>2013-06-16T10:36:07Z</time>
        <sat>8</sat>
      </trkpt>
      <trkpt lat="46.377693" lon="7.062598">
        <ele>1527.4</ele>
        <time>2013-06-16T10:36:09Z</time>
        <sat>8</sat>
      </trkpt>
      <trkpt lat="46.377657" lon="7.062717">
        <ele>1527.5</ele>
        <time>2013-06-16T10:36:12Z</time>
        <sat>8</sat>
      </trkpt>
      <trkpt lat="46.377643" lon="7.062757">
        <ele>1527.7</ele>
        <time>2013-06-16T10:36:13Z</time>
        <sat>8</sat>
      </trkpt>
      <trkpt lat="46.377607" lon="7.062885">
        <ele>1527.8</ele>
        <time>2013-06-16T10:36:16Z</time>
        <sat>8</sat>
      </trkpt>
      <trkpt lat="46.377577" lon="7.062972">
        <ele>1528.0</ele>
        <time>2013-06-16T10:36:18Z</time>
        <sat>8</sat>
      </trkpt>
      <trkpt lat="46.377542" lon="7.063060">
        <ele>1527.9</ele>
        <time>2013-06-16T10:36:20Z</time>
        <sat>8</sat>
      </trkpt>
      <trkpt lat="46.377503" lon="7.063148">
        <ele>1527.7</ele>
        <time>2013-06-16T10:36:22Z</time>
        <sat>7</sat>
      </trkpt>
      <trkpt lat="46.377463" lon="7.063225">
        <ele>1527.2</ele>
        <time>2013-06-16T10:36:24Z</time>
        <sat>7</sat>
      </trkpt>
      <trkpt lat="46.377420" lon="7.063293">
        <ele>1526.7</ele>
        <time>2013-06-16T10:36:26Z</time>
        <sat>7</sat>
      </trkpt>
      <trkpt lat="46.377373" lon="7.063365">
        <ele>1526.7</ele>
        <time>2013-06-16T10:36:28Z</time>
        <sat>8</sat>
      </trkpt>
      <trkpt lat="46.377325" lon="7.063450">
        <ele>1527.2</ele>
        <time>2013-06-16T10:36:30Z</time>
        <sat>8</sat>
      </trkpt>
      <trkpt lat="46.377293" lon="7.063550">
        <ele>1526.2</ele>
        <time>2013-06-16T10:36:32Z</time>
        <sat>8</sat>
      </trkpt>
      <trkpt lat="46.377280" lon="7.063658">
        <ele>1525.4</ele>
        <time>2013-06-16T10:36:34Z</time>
        <sat>8</sat>
      </trkpt>
      <trkpt lat="46.377267" lon="7.063775">
        <ele>1524.5</ele>
        <time>2013-06-16T10:36:36Z</time>
        <sat>8</sat>
      </trkpt>
      <trkpt lat="46.377243" lon="7.063878">
        <ele>1523.4</ele>
        <time>2013-06-16T10:36:38Z</time>
        <sat>8</sat>
      </trkpt>
      <trkpt lat="46.377217" lon="7.063978">
        <ele>1522.7</ele>
        <time>2013-06-16T10:36:40Z</time>
        <sat>8</sat>
      </trkpt>
      <trkpt lat="46.377213" lon="7.064077">
        <ele>1522.7</ele>
        <time>2013-06-16T10:36:42Z</time>
        <sat>8</sat>
      </trkpt>
      <trkpt lat="46.377238" lon="7.064180">
        <ele>1521.8</ele>
        <time>2013-06-16T10:36:44Z</time>
        <sat>8</sat>
      </trkpt>
      <trkpt lat="46.377250" lon="7.064288">
        <ele>1521.0</ele>
        <time>2013-06-16T10:36:46Z</time>
        <sat>8</sat>
      </trkpt>
      <trkpt lat="46.377230" lon="7.064395">
        <ele>1520.5</ele>
        <time>2013-06-16T10:36:48Z</time>
        <sat>8</sat>
      </trkpt>
      <trkpt lat="46.377203" lon="7.064497">
        <ele>1519.9</ele>
        <time>2013-06-16T10:36:50Z</time>
        <sat>8</sat>
      </trkpt>
      <trkpt lat="46.377177" lon="7.064603">
        <ele>1519.4</ele>
        <time>2013-06-16T10:36:52Z</time>
        <sat>8</sat>
      </trkpt>
      <trkpt lat="46.377153" lon="7.064718">
        <ele>1519.2</ele>
        <time>2013-06-16T10:36:54Z</time>
        <sat>8</sat>
      </trkpt>
      <trkpt lat="46.377130" lon="7.064835">
        <ele>1518.2</ele>
        <time>2013-06-16T10:36:56Z</time>
        <sat>8</sat>
      </trkpt>
      <trkpt lat="46.377103" lon="7.064955">
        <ele>1517.5</ele>
        <time>2013-06-16T10:36:58Z</time>
        <sat>8</sat>
      </trkpt>
      <trkpt lat="46.377068" lon="7.065070">
        <ele>1516.8</ele>
        <time>2013-06-16T10:37:00Z</time>
        <sat>8</sat>
      </trkpt>
      <trkpt lat="46.377027" lon="7.065168">
        <ele>1516.3</ele>
        <time>2013-06-16T10:37:02Z</time>
        <sat>8</sat>
      </trkpt>
      <trkpt lat="46.376982" lon="7.065267">
        <ele>1516.0</ele>
        <time>2013-06-16T10:37:04Z</time>
        <sat>8</sat>
      </trkpt>
      <trkpt lat="46.376930" lon="7.065347">
        <ele>1515.3</ele>
        <time>2013-06-16T10:37:06Z</time>
        <sat>8</sat>
      </trkpt>
      <trkpt lat="46.376867" lon="7.065417">
        <ele>1514.8</ele>
        <time>2013-06-16T10:37:08Z</time>
        <sat>8</sat>
      </trkpt>
      <trkpt lat="46.376800" lon="7.065473">
        <ele>1513.6</ele>
        <time>2013-06-16T10:37:10Z</time>
        <sat>8</sat>
      </trkpt>
      <trkpt lat="46.376730" lon="7.065538">
        <ele>1512.5</ele>
        <time>2013-06-16T10:37:12Z</time>
        <sat>8</sat>
      </trkpt>
      <trkpt lat="46.376657" lon="7.065603">
        <ele>1511.2</ele>
        <time>2013-06-16T10:37:14Z</time>
        <sat>8</sat>
      </trkpt>
      <trkpt lat="46.376625" lon="7.065630">
        <ele>1510.6</ele>
        <time>2013-06-16T10:37:15Z</time>
        <sat>8</sat>
      </trkpt>
      <trkpt lat="46.376545" lon="7.065750">
        <ele>1509.7</ele>
        <time>2013-06-16T10:37:19Z</time>
        <sat>8</sat>
      </trkpt>
      <trkpt lat="46.376568" lon="7.065860">
        <ele>1508.5</ele>
        <time>2013-06-16T10:37:22Z</time>
        <sat>8</sat>
      </trkpt>
      <trkpt lat="46.376597" lon="7.065948">
        <ele>1507.4</ele>
        <time>2013-06-16T10:37:24Z</time>
        <sat>8</sat>
      </trkpt>
      <trkpt lat="46.376615" lon="7.066037">
        <ele>1507.0</ele>
        <time>2013-06-16T10:37:26Z</time>
        <sat>8</sat>
      </trkpt>
      <trkpt lat="46.376643" lon="7.066137">
        <ele>1506.3</ele>
        <time>2013-06-16T10:37:29Z</time>
        <sat>8</sat>
      </trkpt>
      <trkpt lat="46.376688" lon="7.066240">
        <ele>1505.0</ele>
        <time>2013-06-16T10:37:44Z</time>
        <sat>8</sat>
      </trkpt>
      <trkpt lat="46.376747" lon="7.066337">
        <ele>1505.1</ele>
        <time>2013-06-16T10:38:06Z</time>
        <sat>8</sat>
      </trkpt>
      <trkpt lat="46.376798" lon="7.066442">
        <ele>1504.3</ele>
        <time>2013-06-16T10:38:22Z</time>
        <sat>8</sat>
      </trkpt>
      <trkpt lat="46.376812" lon="7.066452">
        <ele>1504.4</ele>
        <time>2013-06-16T10:38:23Z</time>
        <sat>8</sat>
      </trkpt>
      <trkpt lat="46.376932" lon="7.066573">
        <ele>1505.1</ele>
        <time>2013-06-16T10:38:32Z</time>
        <sat>8</sat>
      </trkpt>
      <trkpt lat="46.376962" lon="7.066692">
        <ele>1505.4</ele>
        <time>2013-06-16T10:38:37Z</time>
        <sat>8</sat>
      </trkpt>
      <trkpt lat="46.377005" lon="7.066787">
        <ele>1506.6</ele>
        <time>2013-06-16T10:38:42Z</time>
        <sat>8</sat>
      </trkpt>
      <trkpt lat="46.377082" lon="7.066835">
        <ele>1507.8</ele>
        <time>2013-06-16T10:38:47Z</time>
        <sat>8</sat>
      </trkpt>
      <trkpt lat="46.377150" lon="7.066882">
        <ele>1508.5</ele>
        <time>2013-06-16T10:38:51Z</time>
        <sat>8</sat>
      </trkpt>
      <trkpt lat="46.377213" lon="7.066963">
        <ele>1508.4</ele>
        <time>2013-06-16T10:38:55Z</time>
        <sat>8</sat>
      </trkpt>
      <trkpt lat="46.377248" lon="7.067060">
        <ele>1509.2</ele>
        <time>2013-06-16T10:38:59Z</time>
        <sat>8</sat>
      </trkpt>
      <trkpt lat="46.377297" lon="7.067167">
        <ele>1510.1</ele>
        <time>2013-06-16T10:39:03Z</time>
        <sat>8</sat>
      </trkpt>
      <trkpt lat="46.377355" lon="7.067263">
        <ele>1510.8</ele>
        <time>2013-06-16T10:39:07Z</time>
        <sat>8</sat>
      </trkpt>
      <trkpt lat="46.377413" lon="7.067343">
        <ele>1511.2</ele>
        <time>2013-06-16T10:39:11Z</time>
        <sat>8</sat>
      </trkpt>
      <trkpt lat="46.377477" lon="7.067420">
        <ele>1511.3</ele>
        <time>2013-06-16T10:39:15Z</time>
        <sat>8</sat>
      </trkpt>
      <trkpt lat="46.377507" lon="7.067510">
        <ele>1511.9</ele>
        <time>2013-06-16T10:39:18Z</time>
        <sat>8</sat>
      </trkpt>
      <trkpt lat="46.377502" lon="7.067635">
        <ele>1512.5</ele>
        <time>2013-06-16T10:39:22Z</time>
        <sat>8</sat>
      </trkpt>
      <trkpt lat="46.377498" lon="7.067757">
        <ele>1512.8</ele>
        <time>2013-06-16T10:39:26Z</time>
        <sat>8</sat>
      </trkpt>
      <trkpt lat="46.377500" lon="7.067788">
        <ele>1512.7</ele>
        <time>2013-06-16T10:39:27Z</time>
        <sat>8</sat>
      </trkpt>
      <trkpt lat="46.377495" lon="7.068000">
        <ele>1513.4</ele>
        <time>2013-06-16T10:39:35Z</time>
        <sat>8</sat>
      </trkpt>
      <trkpt lat="46.377500" lon="7.068125">
        <ele>1514.2</ele>
        <time>2013-06-16T10:39:43Z</time>
        <sat>8</sat>
      </trkpt>
      <trkpt lat="46.377470" lon="7.068233">
        <ele>1515.7</ele>
        <time>2013-06-16T10:39:53Z</time>
        <sat>8</sat>
      </trkpt>
      <trkpt lat="46.377437" lon="7.068347">
        <ele>1515.7</ele>
        <time>2013-06-16T10:40:01Z</time>
        <sat>8</sat>
      </trkpt>
      <trkpt lat="46.377418" lon="7.068470">
        <ele>1516.3</ele>
        <time>2013-06-16T10:40:10Z</time>
        <sat>8</sat>
      </trkpt>
      <trkpt lat="46.377452" lon="7.068585">
        <ele>1517.6</ele>
        <time>2013-06-16T10:40:27Z</time>
        <sat>8</sat>
      </trkpt>
      <trkpt lat="46.377453" lon="7.068603">
        <ele>1517.9</ele>
        <time>2013-06-16T10:40:28Z</time>
        <sat>8</sat>
      </trkpt>
      <trkpt lat="46.377507" lon="7.068813">
        <ele>1518.4</ele>
        <time>2013-06-16T10:40:39Z</time>
        <sat>8</sat>
      </trkpt>
      <trkpt lat="46.377547" lon="7.068905">
        <ele>1518.1</ele>
        <time>2013-06-16T10:40:43Z</time>
        <sat>8</sat>
      </trkpt>
      <trkpt lat="46.377588" lon="7.069015">
        <ele>1519.3</ele>
        <time>2013-06-16T10:40:47Z</time>
        <sat>8</sat>
      </trkpt>
      <trkpt lat="46.377607" lon="7.069132">
        <ele>1518.3</ele>
        <time>2013-06-16T10:40:51Z</time>
        <sat>8</sat>
      </trkpt>
      <trkpt lat="46.377595" lon="7.069238">
        <ele>1518.1</ele>
        <time>2013-06-16T10:40:54Z</time>
        <sat>8</sat>
      </trkpt>
      <trkpt lat="46.377588" lon="7.069363">
        <ele>1517.2</ele>
        <time>2013-06-16T10:40:57Z</time>
        <sat>8</sat>
      </trkpt>
      <trkpt lat="46.377588" lon="7.069477">
        <ele>1517.1</ele>
        <time>2013-06-16T10:41:00Z</time>
        <sat>8</sat>
      </trkpt>
      <trkpt lat="46.377593" lon="7.069560">
        <ele>1516.9</ele>
        <time>2013-06-16T10:41:02Z</time>
        <sat>8</sat>
      </trkpt>
      <trkpt lat="46.377600" lon="7.069655">
        <ele>1516.7</ele>
        <time>2013-06-16T10:41:04Z</time>
        <sat>8</sat>
      </trkpt>
      <trkpt lat="46.377608" lon="7.069758">
        <ele>1516.6</ele>
        <time>2013-06-16T10:41:06Z</time>
        <sat>8</sat>
      </trkpt>
      <trkpt lat="46.377613" lon="7.069862">
        <ele>1517.1</ele>
        <time>2013-06-16T10:41:08Z</time>
        <sat>8</sat>
      </trkpt>
      <trkpt lat="46.377622" lon="7.069972">
        <ele>1516.3</ele>
        <time>2013-06-16T10:41:10Z</time>
        <sat>8</sat>
      </trkpt>
      <trkpt lat="46.377632" lon="7.070085">
        <ele>1515.6</ele>
        <time>2013-06-16T10:41:12Z</time>
        <sat>8</sat>
      </trkpt>
      <trkpt lat="46.377642" lon="7.070195">
        <ele>1515.0</ele>
        <time>2013-06-16T10:41:14Z</time>
        <sat>8</sat>
      </trkpt>
      <trkpt lat="46.377660" lon="7.070308">
        <ele>1513.5</ele>
        <time>2013-06-16T10:41:16Z</time>
        <sat>8</sat>
      </trkpt>
      <trkpt lat="46.377682" lon="7.070415">
        <ele>1511.9</ele>
        <time>2013-06-16T10:41:18Z</time>
        <sat>8</sat>
      </trkpt>
      <trkpt lat="46.377707" lon="7.070518">
        <ele>1510.7</ele>
        <time>2013-06-16T10:41:20Z</time>
        <sat>8</sat>
      </trkpt>
      <trkpt lat="46.377723" lon="7.070632">
        <ele>1510.2</ele>
        <time>2013-06-16T10:41:22Z</time>
        <sat>8</sat>
      </trkpt>
      <trkpt lat="46.377738" lon="7.070735">
        <ele>1510.0</ele>
        <time>2013-06-16T10:41:24Z</time>
        <sat>8</sat>
      </trkpt>
      <trkpt lat="46.377747" lon="7.070835">
        <ele>1509.3</ele>
        <time>2013-06-16T10:41:26Z</time>
        <sat>8</sat>
      </trkpt>
      <trkpt lat="46.377743" lon="7.070937">
        <ele>1507.9</ele>
        <time>2013-06-16T10:41:28Z</time>
        <sat>8</sat>
      </trkpt>
      <trkpt lat="46.377738" lon="7.071043">
        <ele>1506.9</ele>
        <time>2013-06-16T10:41:30Z</time>
        <sat>8</sat>
      </trkpt>
      <trkpt lat="46.377735" lon="7.071098">
        <ele>1506.6</ele>
        <time>2013-06-16T10:41:31Z</time>
        <sat>8</sat>
      </trkpt>
      <trkpt lat="46.377738" lon="7.071265">
        <ele>1505.1</ele>
        <time>2013-06-16T10:41:34Z</time>
        <sat>8</sat>
      </trkpt>
      <trkpt lat="46.377732" lon="7.071370">
        <ele>1503.6</ele>
        <time>2013-06-16T10:41:36Z</time>
        <sat>8</sat>
      </trkpt>
      <trkpt lat="46.377727" lon="7.071472">
        <ele>1503.1</ele>
        <time>2013-06-16T10:41:38Z</time>
        <sat>8</sat>
      </trkpt>
      <trkpt lat="46.377728" lon="7.071572">
        <ele>1502.0</ele>
        <time>2013-06-16T10:41:40Z</time>
        <sat>8</sat>
      </trkpt>
      <trkpt lat="46.377748" lon="7.071668">
        <ele>1501.0</ele>
        <time>2013-06-16T10:41:42Z</time>
        <sat>8</sat>
      </trkpt>
      <trkpt lat="46.377783" lon="7.071752">
        <ele>1500.6</ele>
        <time>2013-06-16T10:41:44Z</time>
        <sat>8</sat>
      </trkpt>
      <trkpt lat="46.377823" lon="7.071825">
        <ele>1499.0</ele>
        <time>2013-06-16T10:41:46Z</time>
        <sat>8</sat>
      </trkpt>
      <trkpt lat="46.377870" lon="7.071882">
        <ele>1498.9</ele>
        <time>2013-06-16T10:41:48Z</time>
        <sat>8</sat>
      </trkpt>
      <trkpt lat="46.377918" lon="7.071942">
        <ele>1498.1</ele>
        <time>2013-06-16T10:41:50Z</time>
        <sat>8</sat>
      </trkpt>
      <trkpt lat="46.377958" lon="7.072018">
        <ele>1497.3</ele>
        <time>2013-06-16T10:41:52Z</time>
        <sat>8</sat>
      </trkpt>
      <trkpt lat="46.377982" lon="7.072105">
        <ele>1496.1</ele>
        <time>2013-06-16T10:41:54Z</time>
        <sat>8</sat>
      </trkpt>
      <trkpt lat="46.377998" lon="7.072193">
        <ele>1495.2</ele>
        <time>2013-06-16T10:41:56Z</time>
        <sat>8</sat>
      </trkpt>
      <trkpt lat="46.378020" lon="7.072290">
        <ele>1494.9</ele>
        <time>2013-06-16T10:41:58Z</time>
        <sat>8</sat>
      </trkpt>
      <trkpt lat="46.378043" lon="7.072392">
        <ele>1493.8</ele>
        <time>2013-06-16T10:42:00Z</time>
        <sat>8</sat>
      </trkpt>
      <trkpt lat="46.378062" lon="7.072493">
        <ele>1492.5</ele>
        <time>2013-06-16T10:42:02Z</time>
        <sat>8</sat>
      </trkpt>
      <trkpt lat="46.378082" lon="7.072595">
        <ele>1491.3</ele>
        <time>2013-06-16T10:42:04Z</time>
        <sat>8</sat>
      </trkpt>
      <trkpt lat="46.378097" lon="7.072695">
        <ele>1490.1</ele>
        <time>2013-06-16T10:42:06Z</time>
        <sat>8</sat>
      </trkpt>
      <trkpt lat="46.378115" lon="7.072803">
        <ele>1488.8</ele>
        <time>2013-06-16T10:42:08Z</time>
        <sat>8</sat>
      </trkpt>
      <trkpt lat="46.378133" lon="7.072923">
        <ele>1487.8</ele>
        <time>2013-06-16T10:42:10Z</time>
        <sat>8</sat>
      </trkpt>
      <trkpt lat="46.378152" lon="7.073048">
        <ele>1487.2</ele>
        <time>2013-06-16T10:42:12Z</time>
        <sat>8</sat>
      </trkpt>
      <trkpt lat="46.378160" lon="7.073117">
        <ele>1486.3</ele>
        <time>2013-06-16T10:42:13Z</time>
        <sat>8</sat>
      </trkpt>
      <trkpt lat="46.378178" lon="7.073228">
        <ele>1485.1</ele>
        <time>2013-06-16T10:42:15Z</time>
        <sat>8</sat>
      </trkpt>
      <trkpt lat="46.378207" lon="7.073348">
        <ele>1484.1</ele>
        <time>2013-06-16T10:42:18Z</time>
        <sat>8</sat>
      </trkpt>
      <trkpt lat="46.378248" lon="7.073450">
        <ele>1483.3</ele>
        <time>2013-06-16T10:42:21Z</time>
        <sat>8</sat>
      </trkpt>
      <trkpt lat="46.378242" lon="7.073560">
        <ele>1481.7</ele>
        <time>2013-06-16T10:42:24Z</time>
        <sat>8</sat>
      </trkpt>
      <trkpt lat="46.378167" lon="7.073592">
        <ele>1480.9</ele>
        <time>2013-06-16T10:42:27Z</time>
        <sat>8</sat>
      </trkpt>
      <trkpt lat="46.378088" lon="7.073553">
        <ele>1478.7</ele>
        <time>2013-06-16T10:42:31Z</time>
        <sat>8</sat>
      </trkpt>
      <trkpt lat="46.378017" lon="7.073482">
        <ele>1476.5</ele>
        <time>2013-06-16T10:42:48Z</time>
        <sat>8</sat>
      </trkpt>
      <trkpt lat="46.378012" lon="7.073482">
        <ele>1476.6</ele>
        <time>2013-06-16T10:42:49Z</time>
        <sat>8</sat>
      </trkpt>
      <trkpt lat="46.377857" lon="7.073442">
        <ele>1474.1</ele>
        <time>2013-06-16T10:43:31Z</time>
        <sat>8</sat>
      </trkpt>
      <trkpt lat="46.377780" lon="7.073388">
        <ele>1473.1</ele>
        <time>2013-06-16T10:43:34Z</time>
        <sat>8</sat>
      </trkpt>
      <trkpt lat="46.377698" lon="7.073347">
        <ele>1472.1</ele>
        <time>2013-06-16T10:43:37Z</time>
        <sat>8</sat>
      </trkpt>
      <trkpt lat="46.377703" lon="7.073470">
        <ele>1470.2</ele>
        <time>2013-06-16T10:43:44Z</time>
        <sat>8</sat>
      </trkpt>
      <trkpt lat="46.377770" lon="7.073507">
        <ele>1470.8</ele>
        <time>2013-06-16T10:43:48Z</time>
        <sat>8</sat>
      </trkpt>
      <trkpt lat="46.377842" lon="7.073547">
        <ele>1471.9</ele>
        <time>2013-06-16T10:43:52Z</time>
        <sat>8</sat>
      </trkpt>
      <trkpt lat="46.377858" lon="7.073555">
        <ele>1471.9</ele>
        <time>2013-06-16T10:43:53Z</time>
        <sat>8</sat>
      </trkpt>
      <trkpt lat="46.377980" lon="7.073618">
        <ele>1472.8</ele>
        <time>2013-06-16T10:44:00Z</time>
        <sat>8</sat>
      </trkpt>
      <trkpt lat="46.378047" lon="7.073658">
        <ele>1474.1</ele>
        <time>2013-06-16T10:44:04Z</time>
        <sat>8</sat>
      </trkpt>
      <trkpt lat="46.378118" lon="7.073712">
        <ele>1475.1</ele>
        <time>2013-06-16T10:44:09Z</time>
        <sat>8</sat>
      </trkpt>
      <trkpt lat="46.378197" lon="7.073767">
        <ele>1476.1</ele>
        <time>2013-06-16T10:44:15Z</time>
        <sat>8</sat>
      </trkpt>
      <trkpt lat="46.378265" lon="7.073848">
        <ele>1477.2</ele>
        <time>2013-06-16T10:44:21Z</time>
        <sat>8</sat>
      </trkpt>
      <trkpt lat="46.378323" lon="7.073937">
        <ele>1477.4</ele>
        <time>2013-06-16T10:44:27Z</time>
        <sat>8</sat>
      </trkpt>
      <trkpt lat="46.378385" lon="7.074027">
        <ele>1479.3</ele>
        <time>2013-06-16T10:44:33Z</time>
        <sat>8</sat>
      </trkpt>
      <trkpt lat="46.378465" lon="7.074078">
        <ele>1480.8</ele>
        <time>2013-06-16T10:44:39Z</time>
        <sat>8</sat>
      </trkpt>
      <trkpt lat="46.378540" lon="7.074135">
        <ele>1482.3</ele>
        <time>2013-06-16T10:44:45Z</time>
        <sat>8</sat>
      </trkpt>
      <trkpt lat="46.378617" lon="7.074178">
        <ele>1483.2</ele>
        <time>2013-06-16T10:44:50Z</time>
        <sat>8</sat>
      </trkpt>
      <trkpt lat="46.378677" lon="7.074260">
        <ele>1484.5</ele>
        <time>2013-06-16T10:44:55Z</time>
        <sat>8</sat>
      </trkpt>
      <trkpt lat="46.378685" lon="7.074282">
        <ele>1484.6</ele>
        <time>2013-06-16T10:44:56Z</time>
        <sat>8</sat>
      </trkpt>
      <trkpt lat="46.378770" lon="7.074430">
        <ele>1486.2</ele>
        <time>2013-06-16T10:45:03Z</time>
        <sat>8</sat>
      </trkpt>
      <trkpt lat="46.378820" lon="7.074515">
        <ele>1487.3</ele>
        <time>2013-06-16T10:45:07Z</time>
        <sat>8</sat>
      </trkpt>
      <trkpt lat="46.378875" lon="7.074597">
        <ele>1488.6</ele>
        <time>2013-06-16T10:45:11Z</time>
        <sat>8</sat>
      </trkpt>
      <trkpt lat="46.378932" lon="7.074678">
        <ele>1489.1</ele>
        <time>2013-06-16T10:45:15Z</time>
        <sat>8</sat>
      </trkpt>
      <trkpt lat="46.378988" lon="7.074753">
        <ele>1488.5</ele>
        <time>2013-06-16T10:45:19Z</time>
        <sat>8</sat>
      </trkpt>
      <trkpt lat="46.379048" lon="7.074835">
        <ele>1488.6</ele>
        <time>2013-06-16T10:45:23Z</time>
        <sat>8</sat>
      </trkpt>
      <trkpt lat="46.379113" lon="7.074913">
        <ele>1489.1</ele>
        <time>2013-06-16T10:45:27Z</time>
        <sat>8</sat>
      </trkpt>
      <trkpt lat="46.379178" lon="7.074948">
        <ele>1489.1</ele>
        <time>2013-06-16T10:45:30Z</time>
        <sat>8</sat>
      </trkpt>
      <trkpt lat="46.379247" lon="7.074982">
        <ele>1488.7</ele>
        <time>2013-06-16T10:45:33Z</time>
        <sat>8</sat>
      </trkpt>
      <trkpt lat="46.379327" lon="7.075022">
        <ele>1489.8</ele>
        <time>2013-06-16T10:45:37Z</time>
        <sat>8</sat>
      </trkpt>
      <trkpt lat="46.379398" lon="7.075072">
        <ele>1489.5</ele>
        <time>2013-06-16T10:45:41Z</time>
        <sat>8</sat>
      </trkpt>
      <trkpt lat="46.379460" lon="7.075137">
        <ele>1490.0</ele>
        <time>2013-06-16T10:45:45Z</time>
        <sat>8</sat>
      </trkpt>
      <trkpt lat="46.379523" lon="7.075223">
        <ele>1490.5</ele>
        <time>2013-06-16T10:45:50Z</time>
        <sat>8</sat>
      </trkpt>
      <trkpt lat="46.379577" lon="7.075295">
        <ele>1491.2</ele>
        <time>2013-06-16T10:45:54Z</time>
        <sat>8</sat>
      </trkpt>
      <trkpt lat="46.379633" lon="7.075358">
        <ele>1491.3</ele>
        <time>2013-06-16T10:45:58Z</time>
        <sat>8</sat>
      </trkpt>
      <trkpt lat="46.379648" lon="7.075375">
        <ele>1491.2</ele>
        <time>2013-06-16T10:45:59Z</time>
        <sat>8</sat>
      </trkpt>
      <trkpt lat="46.379742" lon="7.075545">
        <ele>1493.0</ele>
        <time>2013-06-16T10:46:09Z</time>
        <sat>8</sat>
      </trkpt>
      <trkpt lat="46.379810" lon="7.075625">
        <ele>1493.8</ele>
        <time>2013-06-16T10:46:16Z</time>
        <sat>8</sat>
      </trkpt>
      <trkpt lat="46.379875" lon="7.075695">
        <ele>1494.2</ele>
        <time>2013-06-16T10:46:22Z</time>
        <sat>8</sat>
      </trkpt>
      <trkpt lat="46.379935" lon="7.075787">
        <ele>1494.9</ele>
        <time>2013-06-16T10:46:27Z</time>
        <sat>8</sat>
      </trkpt>
      <trkpt lat="46.379972" lon="7.075868">
        <ele>1494.7</ele>
        <time>2013-06-16T10:46:30Z</time>
        <sat>8</sat>
      </trkpt>
      <trkpt lat="46.380008" lon="7.075968">
        <ele>1495.7</ele>
        <time>2013-06-16T10:46:33Z</time>
        <sat>7</sat>
      </trkpt>
      <trkpt lat="46.380050" lon="7.076068">
        <ele>1495.4</ele>
        <time>2013-06-16T10:46:36Z</time>
        <sat>8</sat>
      </trkpt>
      <trkpt lat="46.380075" lon="7.076172">
        <ele>1495.8</ele>
        <time>2013-06-16T10:46:39Z</time>
        <sat>8</sat>
      </trkpt>
      <trkpt lat="46.380100" lon="7.076267">
        <ele>1496.3</ele>
        <time>2013-06-16T10:46:42Z</time>
        <sat>8</sat>
      </trkpt>
      <trkpt lat="46.380130" lon="7.076387">
        <ele>1496.8</ele>
        <time>2013-06-16T10:46:46Z</time>
        <sat>8</sat>
      </trkpt>
      <trkpt lat="46.380162" lon="7.076497">
        <ele>1497.5</ele>
        <time>2013-06-16T10:46:50Z</time>
        <sat>8</sat>
      </trkpt>
      <trkpt lat="46.380203" lon="7.076602">
        <ele>1498.4</ele>
        <time>2013-06-16T10:46:54Z</time>
        <sat>8</sat>
      </trkpt>
      <trkpt lat="46.380252" lon="7.076697">
        <ele>1498.7</ele>
        <time>2013-06-16T10:46:58Z</time>
        <sat>8</sat>
      </trkpt>
      <trkpt lat="46.380308" lon="7.076762">
        <ele>1498.9</ele>
        <time>2013-06-16T10:47:02Z</time>
        <sat>8</sat>
      </trkpt>
      <trkpt lat="46.380327" lon="7.076770">
        <ele>1499.0</ele>
        <time>2013-06-16T10:47:03Z</time>
        <sat>8</sat>
      </trkpt>
      <trkpt lat="46.380432" lon="7.076647">
        <ele>1500.9</ele>
        <time>2013-06-16T10:47:12Z</time>
        <sat>8</sat>
      </trkpt>
      <trkpt lat="46.380440" lon="7.076532">
        <ele>1501.5</ele>
        <time>2013-06-16T10:47:17Z</time>
        <sat>8</sat>
      </trkpt>
      <trkpt lat="46.380443" lon="7.076420">
        <ele>1502.2</ele>
        <time>2013-06-16T10:47:22Z</time>
        <sat>8</sat>
      </trkpt>
      <trkpt lat="46.380443" lon="7.076308">
        <ele>1503.4</ele>
        <time>2013-06-16T10:47:27Z</time>
        <sat>8</sat>
      </trkpt>
      <trkpt lat="46.380422" lon="7.076195">
        <ele>1504.1</ele>
        <time>2013-06-16T10:47:32Z</time>
        <sat>8</sat>
      </trkpt>
      <trkpt lat="46.380385" lon="7.076085">
        <ele>1504.9</ele>
        <time>2013-06-16T10:47:37Z</time>
        <sat>8</sat>
      </trkpt>
      <trkpt lat="46.380345" lon="7.075975">
        <ele>1505.2</ele>
        <time>2013-06-16T10:47:42Z</time>
        <sat>8</sat>
      </trkpt>
      <trkpt lat="46.380320" lon="7.075875">
        <ele>1506.1</ele>
        <time>2013-06-16T10:47:46Z</time>
        <sat>8</sat>
      </trkpt>
      <trkpt lat="46.380303" lon="7.075763">
        <ele>1507.7</ele>
        <time>2013-06-16T10:47:51Z</time>
        <sat>8</sat>
      </trkpt>
      <trkpt lat="46.380290" lon="7.075638">
        <ele>1508.5</ele>
        <time>2013-06-16T10:47:57Z</time>
        <sat>8</sat>
      </trkpt>
      <trkpt lat="46.380293" lon="7.075513">
        <ele>1510.0</ele>
        <time>2013-06-16T10:48:04Z</time>
        <sat>8</sat>
      </trkpt>
      <trkpt lat="46.380292" lon="7.075493">
        <ele>1510.1</ele>
        <time>2013-06-16T10:48:05Z</time>
        <sat>8</sat>
      </trkpt>
      <trkpt lat="46.380295" lon="7.075275">
        <ele>1511.3</ele>
        <time>2013-06-16T10:48:15Z</time>
        <sat>8</sat>
      </trkpt>
      <trkpt lat="46.380302" lon="7.075148">
        <ele>1513.4</ele>
        <time>2013-06-16T10:48:21Z</time>
        <sat>8</sat>
      </trkpt>
      <trkpt lat="46.380337" lon="7.075028">
        <ele>1514.2</ele>
        <time>2013-06-16T10:48:27Z</time>
        <sat>8</sat>
      </trkpt>
      <trkpt lat="46.380415" lon="7.074983">
        <ele>1514.5</ele>
        <time>2013-06-16T10:48:33Z</time>
        <sat>8</sat>
      </trkpt>
      <trkpt lat="46.380473" lon="7.075057">
        <ele>1516.3</ele>
        <time>2013-06-16T10:48:39Z</time>
        <sat>8</sat>
      </trkpt>
      <trkpt lat="46.380500" lon="7.075180">
        <ele>1518.0</ele>
        <time>2013-06-16T10:48:45Z</time>
        <sat>8</sat>
      </trkpt>
      <trkpt lat="46.380525" lon="7.075293">
        <ele>1517.7</ele>
        <time>2013-06-16T10:48:50Z</time>
        <sat>8</sat>
      </trkpt>
      <trkpt lat="46.380562" lon="7.075398">
        <ele>1518.5</ele>
        <time>2013-06-16T10:48:55Z</time>
        <sat>8</sat>
      </trkpt>
      <trkpt lat="46.380597" lon="7.075495">
        <ele>1519.7</ele>
        <time>2013-06-16T10:49:00Z</time>
        <sat>8</sat>
      </trkpt>
      <trkpt lat="46.380652" lon="7.075583">
        <ele>1520.1</ele>
        <time>2013-06-16T10:49:05Z</time>
        <sat>8</sat>
      </trkpt>
      <trkpt lat="46.380702" lon="7.075670">
        <ele>1521.7</ele>
        <time>2013-06-16T10:49:10Z</time>
        <sat>8</sat>
      </trkpt>
      <trkpt lat="46.380715" lon="7.075683">
        <ele>1521.8</ele>
        <time>2013-06-16T10:49:11Z</time>
        <sat>8</sat>
      </trkpt>
      <trkpt lat="46.380847" lon="7.075812">
        <ele>1522.4</ele>
        <time>2013-06-16T10:49:22Z</time>
        <sat>8</sat>
      </trkpt>
      <trkpt lat="46.380915" lon="7.075868">
        <ele>1523.1</ele>
        <time>2013-06-16T10:49:27Z</time>
        <sat>8</sat>
      </trkpt>
      <trkpt lat="46.380990" lon="7.075915">
        <ele>1524.3</ele>
        <time>2013-06-16T10:49:33Z</time>
        <sat>8</sat>
      </trkpt>
      <trkpt lat="46.381078" lon="7.075912">
        <ele>1526.1</ele>
        <time>2013-06-16T10:49:40Z</time>
        <sat>8</sat>
      </trkpt>
      <trkpt lat="46.381160" lon="7.075917">
        <ele>1526.4</ele>
        <time>2013-06-16T10:49:47Z</time>
        <sat>8</sat>
      </trkpt>
      <trkpt lat="46.381245" lon="7.075918">
        <ele>1528.6</ele>
        <time>2013-06-16T10:49:54Z</time>
        <sat>8</sat>
      </trkpt>
      <trkpt lat="46.381332" lon="7.075922">
        <ele>1529.7</ele>
        <time>2013-06-16T10:50:00Z</time>
        <sat>8</sat>
      </trkpt>
      <trkpt lat="46.381417" lon="7.075950">
        <ele>1532.0</ele>
        <time>2013-06-16T10:50:33Z</time>
        <sat>8</sat>
      </trkpt>
      <trkpt lat="46.381420" lon="7.075952">
        <ele>1531.8</ele>
        <time>2013-06-16T10:50:34Z</time>
        <sat>8</sat>
      </trkpt>
      <trkpt lat="46.381493" lon="7.076045">
        <ele>1532.0</ele>
        <time>2013-06-16T10:52:28Z</time>
        <sat>8</sat>
      </trkpt>
      <trkpt lat="46.381593" lon="7.076212">
        <ele>1534.5</ele>
        <time>2013-06-16T10:52:40Z</time>
        <sat>8</sat>
      </trkpt>
      <trkpt lat="46.381657" lon="7.076295">
        <ele>1535.8</ele>
        <time>2013-06-16T10:52:47Z</time>
        <sat>8</sat>
      </trkpt>
      <trkpt lat="46.381735" lon="7.076343">
        <ele>1537.5</ele>
        <time>2013-06-16T10:52:54Z</time>
        <sat>8</sat>
      </trkpt>
      <trkpt lat="46.381805" lon="7.076390">
        <ele>1538.3</ele>
        <time>2013-06-16T10:53:00Z</time>
        <sat>8</sat>
      </trkpt>
      <trkpt lat="46.381882" lon="7.076457">
        <ele>1539.9</ele>
        <time>2013-06-16T10:53:07Z</time>
        <sat>8</sat>
      </trkpt>
      <trkpt lat="46.381933" lon="7.076560">
        <ele>1541.2</ele>
        <time>2013-06-16T10:53:14Z</time>
        <sat>8</sat>
      </trkpt>
      <trkpt lat="46.381955" lon="7.076678">
        <ele>1542.2</ele>
        <time>2013-06-16T10:53:21Z</time>
        <sat>8</sat>
      </trkpt>
      <trkpt lat="46.381977" lon="7.076797">
        <ele>1545.0</ele>
        <time>2013-06-16T10:53:28Z</time>
        <sat>8</sat>
      </trkpt>
      <trkpt lat="46.382007" lon="7.076917">
        <ele>1545.3</ele>
        <time>2013-06-16T10:53:35Z</time>
        <sat>8</sat>
      </trkpt>
      <trkpt lat="46.382013" lon="7.076932">
        <ele>1545.2</ele>
        <time>2013-06-16T10:53:36Z</time>
        <sat>8</sat>
      </trkpt>
      <trkpt lat="46.382098" lon="7.077123">
        <ele>1548.3</ele>
        <time>2013-06-16T10:53:49Z</time>
        <sat>8</sat>
      </trkpt>
      <trkpt lat="46.382157" lon="7.077207">
        <ele>1549.5</ele>
        <time>2013-06-16T10:53:56Z</time>
        <sat>8</sat>
      </trkpt>
      <trkpt lat="46.382202" lon="7.077303">
        <ele>1550.8</ele>
        <time>2013-06-16T10:54:03Z</time>
        <sat>8</sat>
      </trkpt>
      <trkpt lat="46.382263" lon="7.077390">
        <ele>1551.0</ele>
        <time>2013-06-16T10:54:11Z</time>
        <sat>8</sat>
      </trkpt>
      <trkpt lat="46.382328" lon="7.077468">
        <ele>1553.1</ele>
        <time>2013-06-16T10:54:19Z</time>
        <sat>8</sat>
      </trkpt>
      <trkpt lat="46.382385" lon="7.077557">
        <ele>1554.9</ele>
        <time>2013-06-16T10:54:27Z</time>
        <sat>8</sat>
      </trkpt>
      <trkpt lat="46.382457" lon="7.077635">
        <ele>1556.7</ele>
        <time>2013-06-16T10:54:36Z</time>
        <sat>8</sat>
      </trkpt>
      <trkpt lat="46.382523" lon="7.077708">
        <ele>1557.6</ele>
        <time>2013-06-16T10:54:44Z</time>
        <sat>8</sat>
      </trkpt>
      <trkpt lat="46.382532" lon="7.077718">
        <ele>1557.4</ele>
        <time>2013-06-16T10:54:45Z</time>
        <sat>8</sat>
      </trkpt>
      <trkpt lat="46.382657" lon="7.077852">
        <ele>1559.9</ele>
        <time>2013-06-16T10:55:08Z</time>
        <sat>8</sat>
      </trkpt>
      <trkpt lat="46.382725" lon="7.077925">
        <ele>1561.5</ele>
        <time>2013-06-16T10:55:19Z</time>
        <sat>8</sat>
      </trkpt>
      <trkpt lat="46.382793" lon="7.078008">
        <ele>1562.8</ele>
        <time>2013-06-16T10:55:31Z</time>
        <sat>8</sat>
      </trkpt>
      <trkpt lat="46.382850" lon="7.078105">
        <ele>1564.6</ele>
        <time>2013-06-16T10:55:44Z</time>
        <sat>8</sat>
      </trkpt>
      <trkpt lat="46.382902" lon="7.078210">
        <ele>1566.6</ele>
        <time>2013-06-16T10:55:57Z</time>
        <sat>8</sat>
      </trkpt>
      <trkpt lat="46.382907" lon="7.078218">
        <ele>1566.6</ele>
        <time>2013-06-16T10:55:58Z</time>
        <sat>8</sat>
      </trkpt>
      <trkpt lat="46.383000" lon="7.078420">
        <ele>1568.2</ele>
        <time>2013-06-16T10:56:19Z</time>
        <sat>8</sat>
      </trkpt>
      <trkpt lat="46.383022" lon="7.078542">
        <ele>1569.8</ele>
        <time>2013-06-16T10:57:46Z</time>
        <sat>8</sat>
      </trkpt>
      <trkpt lat="46.383027" lon="7.078545">
        <ele>1569.9</ele>
        <time>2013-06-16T10:57:47Z</time>
        <sat>8</sat>
      </trkpt>
      <trkpt lat="46.383178" lon="7.078633">
        <ele>1572.2</ele>
        <time>2013-06-16T10:58:10Z</time>
        <sat>8</sat>
      </trkpt>
      <trkpt lat="46.383255" lon="7.078688">
        <ele>1573.7</ele>
        <time>2013-06-16T10:58:22Z</time>
        <sat>8</sat>
      </trkpt>
      <trkpt lat="46.383330" lon="7.078748">
        <ele>1575.3</ele>
        <time>2013-06-16T10:58:33Z</time>
        <sat>8</sat>
      </trkpt>
      <trkpt lat="46.383405" lon="7.078803">
        <ele>1575.1</ele>
        <time>2013-06-16T10:58:44Z</time>
        <sat>8</sat>
      </trkpt>
      <trkpt lat="46.383478" lon="7.078867">
        <ele>1576.9</ele>
        <time>2013-06-16T10:58:54Z</time>
        <sat>8</sat>
      </trkpt>
      <trkpt lat="46.383487" lon="7.078873">
        <ele>1577.1</ele>
        <time>2013-06-16T10:58:55Z</time>
        <sat>8</sat>
      </trkpt>
      <trkpt lat="46.383618" lon="7.079017">
        <ele>1578.4</ele>
        <time>2013-06-16T10:59:16Z</time>
        <sat>8</sat>
      </trkpt>
      <trkpt lat="46.383685" lon="7.079093">
        <ele>1579.7</ele>
        <time>2013-06-16T10:59:28Z</time>
        <sat>8</sat>
      </trkpt>
      <trkpt lat="46.383757" lon="7.079170">
        <ele>1581.0</ele>
        <time>2013-06-16T10:59:40Z</time>
        <sat>8</sat>
      </trkpt>
      <trkpt lat="46.383828" lon="7.079240">
        <ele>1583.0</ele>
        <time>2013-06-16T10:59:51Z</time>
        <sat>8</sat>
      </trkpt>
      <trkpt lat="46.383903" lon="7.079308">
        <ele>1583.6</ele>
        <time>2013-06-16T11:00:03Z</time>
        <sat>8</sat>
      </trkpt>
      <trkpt lat="46.383910" lon="7.079313">
        <ele>1583.7</ele>
        <time>2013-06-16T11:00:04Z</time>
        <sat>8</sat>
      </trkpt>
      <trkpt lat="46.384033" lon="7.079453">
        <ele>1585.4</ele>
        <time>2013-06-16T11:01:29Z</time>
        <sat>8</sat>
      </trkpt>
      <trkpt lat="46.384047" lon="7.079463">
        <ele>1585.3</ele>
        <time>2013-06-16T11:01:30Z</time>
        <sat>8</sat>
      </trkpt>
      <trkpt lat="46.384165" lon="7.079570">
        <ele>1587.3</ele>
        <time>2013-06-16T11:01:39Z</time>
        <sat>8</sat>
      </trkpt>
      <trkpt lat="46.384232" lon="7.079625">
        <ele>1588.2</ele>
        <time>2013-06-16T11:01:44Z</time>
        <sat>8</sat>
      </trkpt>
      <trkpt lat="46.384298" lon="7.079693">
        <ele>1588.3</ele>
        <time>2013-06-16T11:01:49Z</time>
        <sat>8</sat>
      </trkpt>
      <trkpt lat="46.384368" lon="7.079763">
        <ele>1589.2</ele>
        <time>2013-06-16T11:01:54Z</time>
        <sat>8</sat>
      </trkpt>
      <trkpt lat="46.384437" lon="7.079840">
        <ele>1590.0</ele>
        <time>2013-06-16T11:01:59Z</time>
        <sat>8</sat>
      </trkpt>
      <trkpt lat="46.384492" lon="7.079908">
        <ele>1590.6</ele>
        <time>2013-06-16T11:02:03Z</time>
        <sat>8</sat>
      </trkpt>
      <trkpt lat="46.384550" lon="7.079987">
        <ele>1590.8</ele>
        <time>2013-06-16T11:02:07Z</time>
        <sat>8</sat>
      </trkpt>
      <trkpt lat="46.384615" lon="7.080062">
        <ele>1590.9</ele>
        <time>2013-06-16T11:02:11Z</time>
        <sat>8</sat>
      </trkpt>
      <trkpt lat="46.384682" lon="7.080142">
        <ele>1591.5</ele>
        <time>2013-06-16T11:02:15Z</time>
        <sat>8</sat>
      </trkpt>
      <trkpt lat="46.384738" lon="7.080227">
        <ele>1591.9</ele>
        <time>2013-06-16T11:02:20Z</time>
        <sat>8</sat>
      </trkpt>
      <trkpt lat="46.384805" lon="7.080310">
        <ele>1591.6</ele>
        <time>2013-06-16T11:02:40Z</time>
        <sat>8</sat>
      </trkpt>
      <trkpt lat="46.384810" lon="7.080307">
        <ele>1591.7</ele>
        <time>2013-06-16T11:02:41Z</time>
        <sat>8</sat>
      </trkpt>
      <trkpt lat="46.384883" lon="7.080245">
        <ele>1592.9</ele>
        <time>2013-06-16T11:06:32Z</time>
        <sat>8</sat>
      </trkpt>
      <trkpt lat="46.384802" lon="7.080303">
        <ele>1593.9</ele>
        <time>2013-06-16T11:22:52Z</time>
        <sat>8</sat>
      </trkpt>
      <trkpt lat="46.384857" lon="7.080195">
        <ele>1599.4</ele>
        <time>2013-06-16T11:29:59Z</time>
        <sat>8</sat>
      </trkpt>
      <trkpt lat="46.384817" lon="7.080318">
        <ele>1600.8</ele>
        <time>2013-06-16T11:31:40Z</time>
        <sat>8</sat>
      </trkpt>
      <trkpt lat="46.384890" lon="7.080525">
        <ele>1600.0</ele>
        <time>2013-06-16T11:32:14Z</time>
        <sat>8</sat>
      </trkpt>
      <trkpt lat="46.384940" lon="7.080610">
        <ele>1600.8</ele>
        <time>2013-06-16T11:32:19Z</time>
        <sat>8</sat>
      </trkpt>
      <trkpt lat="46.384998" lon="7.080705">
        <ele>1602.3</ele>
        <time>2013-06-16T11:32:26Z</time>
        <sat>8</sat>
      </trkpt>
      <trkpt lat="46.385058" lon="7.080787">
        <ele>1603.2</ele>
        <time>2013-06-16T11:32:32Z</time>
        <sat>8</sat>
      </trkpt>
      <trkpt lat="46.385120" lon="7.080850">
        <ele>1604.5</ele>
        <time>2013-06-16T11:32:37Z</time>
        <sat>8</sat>
      </trkpt>
      <trkpt lat="46.385193" lon="7.080905">
        <ele>1604.4</ele>
        <time>2013-06-16T11:32:42Z</time>
        <sat>8</sat>
      </trkpt>
      <trkpt lat="46.385210" lon="7.080915">
        <ele>1604.3</ele>
        <time>2013-06-16T11:32:43Z</time>
        <sat>8</sat>
      </trkpt>
      <trkpt lat="46.385363" lon="7.080930">
        <ele>1604.8</ele>
        <time>2013-06-16T11:32:49Z</time>
        <sat>8</sat>
      </trkpt>
      <trkpt lat="46.385427" lon="7.080923">
        <ele>1604.6</ele>
        <time>2013-06-16T11:32:51Z</time>
        <sat>8</sat>
      </trkpt>
      <trkpt lat="46.385497" lon="7.080918">
        <ele>1604.5</ele>
        <time>2013-06-16T11:32:53Z</time>
        <sat>8</sat>
      </trkpt>
      <trkpt lat="46.385570" lon="7.080933">
        <ele>1604.8</ele>
        <time>2013-06-16T11:32:55Z</time>
        <sat>7</sat>
      </trkpt>
      <trkpt lat="46.385647" lon="7.080980">
        <ele>1604.6</ele>
        <time>2013-06-16T11:32:57Z</time>
        <sat>7</sat>
      </trkpt>
      <trkpt lat="46.385722" lon="7.081027">
        <ele>1604.3</ele>
        <time>2013-06-16T11:32:59Z</time>
        <sat>6</sat>
      </trkpt>
      <trkpt lat="46.385787" lon="7.081078">
        <ele>1603.8</ele>
        <time>2013-06-16T11:33:01Z</time>
        <sat>6</sat>
      </trkpt>
      <trkpt lat="46.385855" lon="7.081125">
        <ele>1603.8</ele>
        <time>2013-06-16T11:33:04Z</time>
        <sat>6</sat>
      </trkpt>
      <trkpt lat="46.385923" lon="7.081167">
        <ele>1603.9</ele>
        <time>2013-06-16T11:33:08Z</time>
        <sat>6</sat>
      </trkpt>
      <trkpt lat="46.385990" lon="7.081212">
        <ele>1604.6</ele>
        <time>2013-06-16T11:33:12Z</time>
        <sat>6</sat>
      </trkpt>
      <trkpt lat="46.386058" lon="7.081258">
        <ele>1605.9</ele>
        <time>2013-06-16T11:33:16Z</time>
        <sat>6</sat>
      </trkpt>
      <trkpt lat="46.386125" lon="7.081317">
        <ele>1605.8</ele>
        <time>2013-06-16T11:33:21Z</time>
        <sat>6</sat>
      </trkpt>
      <trkpt lat="46.386205" lon="7.081363">
        <ele>1606.3</ele>
        <time>2013-06-16T11:33:26Z</time>
        <sat>5</sat>
      </trkpt>
      <trkpt lat="46.386280" lon="7.081407">
        <ele>1606.5</ele>
        <time>2013-06-16T11:33:30Z</time>
        <sat>5</sat>
      </trkpt>
      <trkpt lat="46.386357" lon="7.081448">
        <ele>1606.8</ele>
        <time>2013-06-16T11:33:34Z</time>
        <sat>6</sat>
      </trkpt>
      <trkpt lat="46.386423" lon="7.081492">
        <ele>1607.8</ele>
        <time>2013-06-16T11:33:38Z</time>
        <sat>7</sat>
      </trkpt>
      <trkpt lat="46.386507" lon="7.081522">
        <ele>1608.6</ele>
        <time>2013-06-16T11:33:43Z</time>
        <sat>7</sat>
      </trkpt>
      <trkpt lat="46.386587" lon="7.081580">
        <ele>1609.9</ele>
        <time>2013-06-16T11:33:48Z</time>
        <sat>7</sat>
      </trkpt>
      <trkpt lat="46.386600" lon="7.081597">
        <ele>1609.8</ele>
        <time>2013-06-16T11:33:49Z</time>
        <sat>7</sat>
      </trkpt>
      <trkpt lat="46.386737" lon="7.081702">
        <ele>1612.1</ele>
        <time>2013-06-16T11:33:59Z</time>
        <sat>7</sat>
      </trkpt>
      <trkpt lat="46.386808" lon="7.081768">
        <ele>1613.4</ele>
        <time>2013-06-16T11:34:05Z</time>
        <sat>7</sat>
      </trkpt>
      <trkpt lat="46.386878" lon="7.081833">
        <ele>1614.7</ele>
        <time>2013-06-16T11:34:11Z</time>
        <sat>7</sat>
      </trkpt>
      <trkpt lat="46.386928" lon="7.081922">
        <ele>1615.7</ele>
        <time>2013-06-16T11:34:17Z</time>
        <sat>7</sat>
      </trkpt>
      <trkpt lat="46.386970" lon="7.082025">
        <ele>1617.4</ele>
        <time>2013-06-16T11:34:23Z</time>
        <sat>7</sat>
      </trkpt>
      <trkpt lat="46.386995" lon="7.082138">
        <ele>1617.8</ele>
        <time>2013-06-16T11:34:30Z</time>
        <sat>7</sat>
      </trkpt>
      <trkpt lat="46.387038" lon="7.082245">
        <ele>1619.1</ele>
        <time>2013-06-16T11:34:37Z</time>
        <sat>7</sat>
      </trkpt>
      <trkpt lat="46.387075" lon="7.082348">
        <ele>1619.5</ele>
        <time>2013-06-16T11:34:44Z</time>
        <sat>8</sat>
      </trkpt>
      <trkpt lat="46.387127" lon="7.082440">
        <ele>1620.8</ele>
        <time>2013-06-16T11:34:51Z</time>
        <sat>8</sat>
      </trkpt>
      <trkpt lat="46.387138" lon="7.082450">
        <ele>1621.0</ele>
        <time>2013-06-16T11:34:52Z</time>
        <sat>8</sat>
      </trkpt>
      <trkpt lat="46.387272" lon="7.082578">
        <ele>1623.6</ele>
        <time>2013-06-16T11:35:05Z</time>
        <sat>8</sat>
      </trkpt>
      <trkpt lat="46.387345" lon="7.082622">
        <ele>1625.3</ele>
        <time>2013-06-16T11:35:12Z</time>
        <sat>8</sat>
      </trkpt>
      <trkpt lat="46.387425" lon="7.082620">
        <ele>1626.3</ele>
        <time>2013-06-16T11:35:19Z</time>
        <sat>8</sat>
      </trkpt>
      <trkpt lat="46.387508" lon="7.082613">
        <ele>1627.4</ele>
        <time>2013-06-16T11:35:26Z</time>
        <sat>8</sat>
      </trkpt>
      <trkpt lat="46.387595" lon="7.082605">
        <ele>1628.6</ele>
        <time>2013-06-16T11:35:33Z</time>
        <sat>8</sat>
      </trkpt>
      <trkpt lat="46.387678" lon="7.082588">
        <ele>1630.5</ele>
        <time>2013-06-16T11:35:40Z</time>
        <sat>8</sat>
      </trkpt>
      <trkpt lat="46.387763" lon="7.082572">
        <ele>1631.5</ele>
        <time>2013-06-16T11:35:47Z</time>
        <sat>7</sat>
      </trkpt>
      <trkpt lat="46.387848" lon="7.082552">
        <ele>1633.3</ele>
        <time>2013-06-16T11:35:54Z</time>
        <sat>7</sat>
      </trkpt>
      <trkpt lat="46.387860" lon="7.082550">
        <ele>1633.6</ele>
        <time>2013-06-16T11:35:55Z</time>
        <sat>7</sat>
      </trkpt>
      <trkpt lat="46.388007" lon="7.082520">
        <ele>1634.8</ele>
        <time>2013-06-16T11:36:08Z</time>
        <sat>7</sat>
      </trkpt>
      <trkpt lat="46.388083" lon="7.082497">
        <ele>1636.2</ele>
        <time>2013-06-16T11:36:15Z</time>
        <sat>7</sat>
      </trkpt>
      <trkpt lat="46.388162" lon="7.082485">
        <ele>1637.2</ele>
        <time>2013-06-16T11:36:22Z</time>
        <sat>7</sat>
      </trkpt>
      <trkpt lat="46.388245" lon="7.082478">
        <ele>1638.9</ele>
        <time>2013-06-16T11:36:29Z</time>
        <sat>7</sat>
      </trkpt>
      <trkpt lat="46.388333" lon="7.082483">
        <ele>1640.2</ele>
        <time>2013-06-16T11:36:36Z</time>
        <sat>7</sat>
      </trkpt>
      <trkpt lat="46.388415" lon="7.082482">
        <ele>1641.1</ele>
        <time>2013-06-16T11:36:42Z</time>
        <sat>7</sat>
      </trkpt>
      <trkpt lat="46.388502" lon="7.082515">
        <ele>1642.7</ele>
        <time>2013-06-16T11:36:49Z</time>
        <sat>7</sat>
      </trkpt>
      <trkpt lat="46.388575" lon="7.082582">
        <ele>1644.7</ele>
        <time>2013-06-16T11:36:56Z</time>
        <sat>7</sat>
      </trkpt>
      <trkpt lat="46.388587" lon="7.082593">
        <ele>1645.0</ele>
        <time>2013-06-16T11:36:57Z</time>
        <sat>7</sat>
      </trkpt>
      <trkpt lat="46.388715" lon="7.082702">
        <ele>1646.6</ele>
        <time>2013-06-16T11:37:08Z</time>
        <sat>7</sat>
      </trkpt>
      <trkpt lat="46.388793" lon="7.082758">
        <ele>1647.2</ele>
        <time>2013-06-16T11:37:14Z</time>
        <sat>7</sat>
      </trkpt>
      <trkpt lat="46.388872" lon="7.082820">
        <ele>1648.3</ele>
        <time>2013-06-16T11:37:20Z</time>
        <sat>7</sat>
      </trkpt>
      <trkpt lat="46.388945" lon="7.082852">
        <ele>1648.1</ele>
        <time>2013-06-16T11:37:25Z</time>
        <sat>7</sat>
      </trkpt>
      <trkpt lat="46.389022" lon="7.082873">
        <ele>1648.1</ele>
        <time>2013-06-16T11:37:30Z</time>
        <sat>7</sat>
      </trkpt>
      <trkpt lat="46.389102" lon="7.082898">
        <ele>1647.5</ele>
        <time>2013-06-16T11:37:35Z</time>
        <sat>7</sat>
      </trkpt>
      <trkpt lat="46.389190" lon="7.082913">
        <ele>1649.3</ele>
        <time>2013-06-16T11:37:41Z</time>
        <sat>7</sat>
      </trkpt>
      <trkpt lat="46.389278" lon="7.082918">
        <ele>1649.6</ele>
        <time>2013-06-16T11:37:47Z</time>
        <sat>7</sat>
      </trkpt>
      <trkpt lat="46.389358" lon="7.082912">
        <ele>1651.0</ele>
        <time>2013-06-16T11:37:52Z</time>
        <sat>7</sat>
      </trkpt>
      <trkpt lat="46.389443" lon="7.082913">
        <ele>1651.2</ele>
        <time>2013-06-16T11:37:58Z</time>
        <sat>7</sat>
      </trkpt>
      <trkpt lat="46.389457" lon="7.082913">
        <ele>1651.3</ele>
        <time>2013-06-16T11:37:59Z</time>
        <sat>7</sat>
      </trkpt>
      <trkpt lat="46.389598" lon="7.082907">
        <ele>1653.6</ele>
        <time>2013-06-16T11:38:10Z</time>
        <sat>7</sat>
      </trkpt>
      <trkpt lat="46.389675" lon="7.082902">
        <ele>1654.8</ele>
        <time>2013-06-16T11:38:16Z</time>
        <sat>7</sat>
      </trkpt>
      <trkpt lat="46.389762" lon="7.082905">
        <ele>1656.2</ele>
        <time>2013-06-16T11:38:23Z</time>
        <sat>7</sat>
      </trkpt>
      <trkpt lat="46.389850" lon="7.082913">
        <ele>1657.3</ele>
        <time>2013-06-16T11:38:30Z</time>
        <sat>7</sat>
      </trkpt>
      <trkpt lat="46.389930" lon="7.082920">
        <ele>1658.2</ele>
        <time>2013-06-16T11:38:36Z</time>
        <sat>7</sat>
      </trkpt>
      <trkpt lat="46.390018" lon="7.082917">
        <ele>1659.8</ele>
        <time>2013-06-16T11:38:43Z</time>
        <sat>7</sat>
      </trkpt>
      <trkpt lat="46.390097" lon="7.082925">
        <ele>1660.4</ele>
        <time>2013-06-16T11:38:49Z</time>
        <sat>7</sat>
      </trkpt>
      <trkpt lat="46.390178" lon="7.082955">
        <ele>1661.5</ele>
        <time>2013-06-16T11:38:55Z</time>
        <sat>7</sat>
      </trkpt>
      <trkpt lat="46.390253" lon="7.083008">
        <ele>1661.8</ele>
        <time>2013-06-16T11:39:01Z</time>
        <sat>7</sat>
      </trkpt>
      <trkpt lat="46.390267" lon="7.083017">
        <ele>1661.7</ele>
        <time>2013-06-16T11:39:02Z</time>
        <sat>7</sat>
      </trkpt>
      <trkpt lat="46.390392" lon="7.083148">
        <ele>1664.2</ele>
        <time>2013-06-16T11:39:13Z</time>
        <sat>7</sat>
      </trkpt>
      <trkpt lat="46.390458" lon="7.083220">
        <ele>1666.1</ele>
        <time>2013-06-16T11:39:19Z</time>
        <sat>7</sat>
      </trkpt>
      <trkpt lat="46.390537" lon="7.083257">
        <ele>1667.0</ele>
        <time>2013-06-16T11:39:25Z</time>
        <sat>7</sat>
      </trkpt>
      <trkpt lat="46.390620" lon="7.083213">
        <ele>1667.8</ele>
        <time>2013-06-16T11:39:31Z</time>
        <sat>7</sat>
      </trkpt>
      <trkpt lat="46.390635" lon="7.083085">
        <ele>1668.7</ele>
        <time>2013-06-16T11:39:39Z</time>
        <sat>7</sat>
      </trkpt>
      <trkpt lat="46.390573" lon="7.083000">
        <ele>1669.9</ele>
        <time>2013-06-16T11:39:46Z</time>
        <sat>7</sat>
      </trkpt>
      <trkpt lat="46.390512" lon="7.082920">
        <ele>1671.3</ele>
        <time>2013-06-16T11:39:53Z</time>
        <sat>7</sat>
      </trkpt>
      <trkpt lat="46.390472" lon="7.082817">
        <ele>1672.2</ele>
        <time>2013-06-16T11:40:00Z</time>
        <sat>7</sat>
      </trkpt>
      <trkpt lat="46.390432" lon="7.082718">
        <ele>1672.2</ele>
        <time>2013-06-16T11:40:07Z</time>
        <sat>7</sat>
      </trkpt>
      <trkpt lat="46.390422" lon="7.082708">
        <ele>1672.4</ele>
        <time>2013-06-16T11:40:08Z</time>
        <sat>7</sat>
      </trkpt>
      <trkpt lat="46.390308" lon="7.082553">
        <ele>1675.3</ele>
        <time>2013-06-16T11:40:20Z</time>
        <sat>7</sat>
      </trkpt>
      <trkpt lat="46.390253" lon="7.082460">
        <ele>1676.8</ele>
        <time>2013-06-16T11:40:27Z</time>
        <sat>7</sat>
      </trkpt>
      <trkpt lat="46.390182" lon="7.082382">
        <ele>1677.9</ele>
        <time>2013-06-16T11:40:34Z</time>
        <sat>7</sat>
      </trkpt>
      <trkpt lat="46.390117" lon="7.082308">
        <ele>1679.5</ele>
        <time>2013-06-16T11:40:41Z</time>
        <sat>7</sat>
      </trkpt>
      <trkpt lat="46.390053" lon="7.082220">
        <ele>1680.8</ele>
        <time>2013-06-16T11:40:49Z</time>
        <sat>7</sat>
      </trkpt>
      <trkpt lat="46.389997" lon="7.082122">
        <ele>1682.4</ele>
        <time>2013-06-16T11:40:58Z</time>
        <sat>7</sat>
      </trkpt>
      <trkpt lat="46.389955" lon="7.082017">
        <ele>1683.7</ele>
        <time>2013-06-16T11:41:06Z</time>
        <sat>7</sat>
      </trkpt>
      <trkpt lat="46.389923" lon="7.081903">
        <ele>1685.1</ele>
        <time>2013-06-16T11:41:13Z</time>
        <sat>7</sat>
      </trkpt>
      <trkpt lat="46.389925" lon="7.081887">
        <ele>1685.4</ele>
        <time>2013-06-16T11:41:14Z</time>
        <sat>7</sat>
      </trkpt>
      <trkpt lat="46.389888" lon="7.081677">
        <ele>1690.9</ele>
        <time>2013-06-16T11:44:47Z</time>
        <sat>7</sat>
      </trkpt>
      <trkpt lat="46.389883" lon="7.081660">
        <ele>1690.8</ele>
        <time>2013-06-16T11:44:48Z</time>
        <sat>7</sat>
      </trkpt>
      <trkpt lat="46.389788" lon="7.081465">
        <ele>1691.7</ele>
        <time>2013-06-16T11:45:01Z</time>
        <sat>7</sat>
      </trkpt>
      <trkpt lat="46.389732" lon="7.081380">
        <ele>1693.1</ele>
        <time>2013-06-16T11:45:07Z</time>
        <sat>7</sat>
      </trkpt>
      <trkpt lat="46.389673" lon="7.081295">
        <ele>1693.9</ele>
        <time>2013-06-16T11:45:13Z</time>
        <sat>7</sat>
      </trkpt>
      <trkpt lat="46.389615" lon="7.081222">
        <ele>1695.0</ele>
        <time>2013-06-16T11:45:19Z</time>
        <sat>7</sat>
      </trkpt>
      <trkpt lat="46.389555" lon="7.081150">
        <ele>1696.0</ele>
        <time>2013-06-16T11:45:25Z</time>
        <sat>7</sat>
      </trkpt>
      <trkpt lat="46.389485" lon="7.081078">
        <ele>1697.9</ele>
        <time>2013-06-16T11:45:32Z</time>
        <sat>7</sat>
      </trkpt>
      <trkpt lat="46.389425" lon="7.080993">
        <ele>1699.1</ele>
        <time>2013-06-16T11:45:39Z</time>
        <sat>7</sat>
      </trkpt>
      <trkpt lat="46.389407" lon="7.080972">
        <ele>1699.7</ele>
        <time>2013-06-16T11:45:41Z</time>
        <sat>7</sat>
      </trkpt>
      <trkpt lat="46.389282" lon="7.080685">
        <ele>1700.7</ele>
        <time>2013-06-16T11:46:01Z</time>
        <sat>7</sat>
      </trkpt>
      <trkpt lat="46.389362" lon="7.080648">
        <ele>1703.5</ele>
        <time>2013-06-16T11:46:08Z</time>
        <sat>7</sat>
      </trkpt>
      <trkpt lat="46.389447" lon="7.080688">
        <ele>1704.2</ele>
        <time>2013-06-16T11:46:14Z</time>
        <sat>7</sat>
      </trkpt>
      <trkpt lat="46.389523" lon="7.080743">
        <ele>1704.3</ele>
        <time>2013-06-16T11:46:19Z</time>
        <sat>7</sat>
      </trkpt>
      <trkpt lat="46.389595" lon="7.080777">
        <ele>1705.3</ele>
        <time>2013-06-16T11:46:23Z</time>
        <sat>7</sat>
      </trkpt>
      <trkpt lat="46.389673" lon="7.080807">
        <ele>1706.0</ele>
        <time>2013-06-16T11:46:27Z</time>
        <sat>7</sat>
      </trkpt>
      <trkpt lat="46.389753" lon="7.080848">
        <ele>1706.4</ele>
        <time>2013-06-16T11:46:31Z</time>
        <sat>7</sat>
      </trkpt>
      <trkpt lat="46.389833" lon="7.080882">
        <ele>1706.2</ele>
        <time>2013-06-16T11:46:35Z</time>
        <sat>7</sat>
      </trkpt>
      <trkpt lat="46.389907" lon="7.080903">
        <ele>1707.1</ele>
        <time>2013-06-16T11:46:39Z</time>
        <sat>7</sat>
      </trkpt>
      <trkpt lat="46.389977" lon="7.080933">
        <ele>1707.8</ele>
        <time>2013-06-16T11:46:43Z</time>
        <sat>7</sat>
      </trkpt>
      <trkpt lat="46.390060" lon="7.080978">
        <ele>1708.6</ele>
        <time>2013-06-16T11:46:48Z</time>
        <sat>7</sat>
      </trkpt>
      <trkpt lat="46.390140" lon="7.080998">
        <ele>1709.9</ele>
        <time>2013-06-16T11:46:53Z</time>
        <sat>7</sat>
      </trkpt>
      <trkpt lat="46.390215" lon="7.081035">
        <ele>1711.1</ele>
        <time>2013-06-16T11:46:58Z</time>
        <sat>7</sat>
      </trkpt>
      <trkpt lat="46.390292" lon="7.081057">
        <ele>1711.8</ele>
        <time>2013-06-16T11:47:03Z</time>
        <sat>7</sat>
      </trkpt>
      <trkpt lat="46.390307" lon="7.081063">
        <ele>1711.9</ele>
        <time>2013-06-16T11:47:04Z</time>
        <sat>7</sat>
      </trkpt>
      <trkpt lat="46.390455" lon="7.081092">
        <ele>1713.9</ele>
        <time>2013-06-16T11:47:14Z</time>
        <sat>7</sat>
      </trkpt>
      <trkpt lat="46.390533" lon="7.081077">
        <ele>1714.2</ele>
        <time>2013-06-16T11:47:19Z</time>
        <sat>7</sat>
      </trkpt>
      <trkpt lat="46.390613" lon="7.081058">
        <ele>1715.5</ele>
        <time>2013-06-16T11:47:24Z</time>
        <sat>7</sat>
      </trkpt>
      <trkpt lat="46.390702" lon="7.081035">
        <ele>1715.7</ele>
        <time>2013-06-16T11:47:30Z</time>
        <sat>6</sat>
      </trkpt>
      <trkpt lat="46.390785" lon="7.081015">
        <ele>1716.7</ele>
        <time>2013-06-16T11:47:36Z</time>
        <sat>6</sat>
      </trkpt>
      <trkpt lat="46.390867" lon="7.081000">
        <ele>1718.5</ele>
        <time>2013-06-16T11:47:42Z</time>
        <sat>6</sat>
      </trkpt>
      <trkpt lat="46.390953" lon="7.080980">
        <ele>1719.2</ele>
        <time>2013-06-16T11:47:48Z</time>
        <sat>6</sat>
      </trkpt>
      <trkpt lat="46.391038" lon="7.080963">
        <ele>1721.2</ele>
        <time>2013-06-16T11:47:54Z</time>
        <sat>6</sat>
      </trkpt>
      <trkpt lat="46.391118" lon="7.080948">
        <ele>1722.3</ele>
        <time>2013-06-16T11:47:59Z</time>
        <sat>7</sat>
      </trkpt>
      <trkpt lat="46.391203" lon="7.080920">
        <ele>1722.5</ele>
        <time>2013-06-16T11:48:04Z</time>
        <sat>7</sat>
      </trkpt>
      <trkpt lat="46.391275" lon="7.080907">
        <ele>1722.4</ele>
        <time>2013-06-16T11:48:08Z</time>
        <sat>7</sat>
      </trkpt>
      <trkpt lat="46.391293" lon="7.080903">
        <ele>1722.6</ele>
        <time>2013-06-16T11:48:09Z</time>
        <sat>7</sat>
      </trkpt>
      <trkpt lat="46.391432" lon="7.080857">
        <ele>1722.2</ele>
        <time>2013-06-16T11:48:16Z</time>
        <sat>7</sat>
      </trkpt>
      <trkpt lat="46.391502" lon="7.080840">
        <ele>1723.0</ele>
        <time>2013-06-16T11:48:19Z</time>
        <sat>7</sat>
      </trkpt>
      <trkpt lat="46.391575" lon="7.080813">
        <ele>1723.2</ele>
        <time>2013-06-16T11:48:22Z</time>
        <sat>7</sat>
      </trkpt>
      <trkpt lat="46.391655" lon="7.080787">
        <ele>1723.6</ele>
        <time>2013-06-16T11:48:25Z</time>
        <sat>7</sat>
      </trkpt>
      <trkpt lat="46.391733" lon="7.080763">
        <ele>1723.7</ele>
        <time>2013-06-16T11:48:28Z</time>
        <sat>7</sat>
      </trkpt>
      <trkpt lat="46.391797" lon="7.080753">
        <ele>1724.0</ele>
        <time>2013-06-16T11:48:30Z</time>
        <sat>7</sat>
      </trkpt>
      <trkpt lat="46.391860" lon="7.080742">
        <ele>1723.6</ele>
        <time>2013-06-16T11:48:32Z</time>
        <sat>7</sat>
      </trkpt>
      <trkpt lat="46.391948" lon="7.080720">
        <ele>1723.7</ele>
        <time>2013-06-16T11:48:35Z</time>
        <sat>7</sat>
      </trkpt>
      <trkpt lat="46.392025" lon="7.080687">
        <ele>1724.1</ele>
        <time>2013-06-16T11:48:38Z</time>
        <sat>7</sat>
      </trkpt>
      <trkpt lat="46.392095" lon="7.080645">
        <ele>1724.0</ele>
        <time>2013-06-16T11:48:41Z</time>
        <sat>7</sat>
      </trkpt>
      <trkpt lat="46.392168" lon="7.080590">
        <ele>1724.6</ele>
        <time>2013-06-16T11:48:45Z</time>
        <sat>7</sat>
      </trkpt>
      <trkpt lat="46.392228" lon="7.080550">
        <ele>1725.6</ele>
        <time>2013-06-16T11:48:48Z</time>
        <sat>7</sat>
      </trkpt>
      <trkpt lat="46.392298" lon="7.080512">
        <ele>1726.5</ele>
        <time>2013-06-16T11:48:51Z</time>
        <sat>7</sat>
      </trkpt>
      <trkpt lat="46.392373" lon="7.080480">
        <ele>1727.8</ele>
        <time>2013-06-16T11:48:54Z</time>
        <sat>7</sat>
      </trkpt>
      <trkpt lat="46.392445" lon="7.080462">
        <ele>1727.9</ele>
        <time>2013-06-16T11:48:57Z</time>
        <sat>7</sat>
      </trkpt>
      <trkpt lat="46.392512" lon="7.080443">
        <ele>1728.2</ele>
        <time>2013-06-16T11:49:00Z</time>
        <sat>7</sat>
      </trkpt>
      <trkpt lat="46.392587" lon="7.080423">
        <ele>1729.2</ele>
        <time>2013-06-16T11:49:03Z</time>
        <sat>7</sat>
      </trkpt>
      <trkpt lat="46.392660" lon="7.080408">
        <ele>1729.1</ele>
        <time>2013-06-16T11:49:06Z</time>
        <sat>7</sat>
      </trkpt>
      <trkpt lat="46.392728" lon="7.080397">
        <ele>1729.8</ele>
        <time>2013-06-16T11:49:09Z</time>
        <sat>7</sat>
      </trkpt>
      <trkpt lat="46.392802" lon="7.080397">
        <ele>1730.1</ele>
        <time>2013-06-16T11:49:12Z</time>
        <sat>7</sat>
      </trkpt>
      <trkpt lat="46.392828" lon="7.080390">
        <ele>1730.1</ele>
        <time>2013-06-16T11:49:13Z</time>
        <sat>6</sat>
      </trkpt>
      <trkpt lat="46.392955" lon="7.080368">
        <ele>1729.5</ele>
        <time>2013-06-16T11:49:17Z</time>
        <sat>7</sat>
      </trkpt>
      <trkpt lat="46.393030" lon="7.080358">
        <ele>1729.7</ele>
        <time>2013-06-16T11:49:19Z</time>
        <sat>7</sat>
      </trkpt>
      <trkpt lat="46.393102" lon="7.080343">
        <ele>1729.6</ele>
        <time>2013-06-16T11:49:21Z</time>
        <sat>7</sat>
      </trkpt>
      <trkpt lat="46.393170" lon="7.080332">
        <ele>1729.4</ele>
        <time>2013-06-16T11:49:23Z</time>
        <sat>7</sat>
      </trkpt>
      <trkpt lat="46.393237" lon="7.080313">
        <ele>1729.2</ele>
        <time>2013-06-16T11:49:25Z</time>
        <sat>7</sat>
      </trkpt>
      <trkpt lat="46.393303" lon="7.080295">
        <ele>1729.1</ele>
        <time>2013-06-16T11:49:27Z</time>
        <sat>7</sat>
      </trkpt>
      <trkpt lat="46.393372" lon="7.080267">
        <ele>1729.2</ele>
        <time>2013-06-16T11:49:29Z</time>
        <sat>7</sat>
      </trkpt>
      <trkpt lat="46.393445" lon="7.080238">
        <ele>1729.4</ele>
        <time>2013-06-16T11:49:31Z</time>
        <sat>6</sat>
      </trkpt>
      <trkpt lat="46.393530" lon="7.080210">
        <ele>1729.7</ele>
        <time>2013-06-16T11:49:33Z</time>
        <sat>6</sat>
      </trkpt>
      <trkpt lat="46.393578" lon="7.080198">
        <ele>1729.7</ele>
        <time>2013-06-16T11:49:34Z</time>
        <sat>5</sat>
      </trkpt>
      <trkpt lat="46.393628" lon="7.080195">
        <ele>1729.5</ele>
        <time>2013-06-16T11:49:35Z</time>
        <sat>6</sat>
      </trkpt>
      <trkpt lat="46.393682" lon="7.080197">
        <ele>1729.3</ele>
        <time>2013-06-16T11:49:36Z</time>
        <sat>6</sat>
      </trkpt>
      <trkpt lat="46.393737" lon="7.080203">
        <ele>1729.0</ele>
        <time>2013-06-16T11:49:37Z</time>
        <sat>6</sat>
      </trkpt>
      <trkpt lat="46.393793" lon="7.080212">
        <ele>1728.9</ele>
        <time>2013-06-16T11:49:38Z</time>
        <sat>6</sat>
      </trkpt>
      <trkpt lat="46.393845" lon="7.080223">
        <ele>1728.7</ele>
        <time>2013-06-16T11:49:39Z</time>
        <sat>6</sat>
      </trkpt>
      <trkpt lat="46.393893" lon="7.080232">
        <ele>1728.7</ele>
        <time>2013-06-16T11:49:40Z</time>
        <sat>6</sat>
      </trkpt>
      <trkpt lat="46.393978" lon="7.080245">
        <ele>1728.6</ele>
        <time>2013-06-16T11:49:42Z</time>
        <sat>6</sat>
      </trkpt>
      <trkpt lat="46.394067" lon="7.080248">
        <ele>1728.4</ele>
        <time>2013-06-16T11:49:44Z</time>
        <sat>6</sat>
      </trkpt>
      <trkpt lat="46.394110" lon="7.080250">
        <ele>1728.3</ele>
        <time>2013-06-16T11:49:45Z</time>
        <sat>5</sat>
      </trkpt>
      <trkpt lat="46.394157" lon="7.080248">
        <ele>1728.2</ele>
        <time>2013-06-16T11:49:46Z</time>
        <sat>5</sat>
      </trkpt>
      <trkpt lat="46.394207" lon="7.080245">
        <ele>1728.0</ele>
        <time>2013-06-16T11:49:47Z</time>
        <sat>5</sat>
      </trkpt>
      <trkpt lat="46.394313" lon="7.080243">
        <ele>1727.4</ele>
        <time>2013-06-16T11:49:49Z</time>
        <sat>5</sat>
      </trkpt>
      <trkpt lat="46.394370" lon="7.080262">
        <ele>1726.9</ele>
        <time>2013-06-16T11:49:50Z</time>
        <sat>5</sat>
      </trkpt>
      <trkpt lat="46.394433" lon="7.080288">
        <ele>1726.7</ele>
        <time>2013-06-16T11:49:51Z</time>
        <sat>6</sat>
      </trkpt>
      <trkpt lat="46.394498" lon="7.080333">
        <ele>1726.6</ele>
        <time>2013-06-16T11:49:52Z</time>
        <sat>6</sat>
      </trkpt>
      <trkpt lat="46.394570" lon="7.080385">
        <ele>1726.5</ele>
        <time>2013-06-16T11:49:53Z</time>
        <sat>6</sat>
      </trkpt>
      <trkpt lat="46.394657" lon="7.080437">
        <ele>1725.9</ele>
        <time>2013-06-16T11:49:54Z</time>
        <sat>6</sat>
      </trkpt>
      <trkpt lat="46.394748" lon="7.080497">
        <ele>1725.4</ele>
        <time>2013-06-16T11:49:55Z</time>
        <sat>6</sat>
      </trkpt>
      <trkpt lat="46.394840" lon="7.080565">
        <ele>1724.3</ele>
        <time>2013-06-16T11:49:56Z</time>
        <sat>6</sat>
      </trkpt>
      <trkpt lat="46.394935" lon="7.080637">
        <ele>1723.5</ele>
        <time>2013-06-16T11:49:57Z</time>
        <sat>6</sat>
      </trkpt>
      <trkpt lat="46.395412" lon="7.081038">
        <ele>1695.3</ele>
        <time>2013-06-16T05:29:22Z</time>
      </trkpt>
      <trkpt lat="46.395636" lon="7.081104">
        <ele>1691.9</ele>
        <time>2013-06-16T05:47:35Z</time>
      </trkpt>
      <trkpt lat="46.396122" lon="7.081550">
        <ele>1677.9</ele>
        <time>2013-06-16T06:33:21Z</time>
      </trkpt>
      <trkpt lat="46.396497" lon="7.081957">
        <ele>1669.3</ele>
        <time>2013-06-16T07:10:37Z</time>
      </trkpt>
      <trkpt lat="46.397082" lon="7.081993">
        <ele>1670.2</ele>
        <time>2013-06-16T07:56:30Z</time>
      </trkpt>
      <trkpt lat="46.397476" lon="7.082400">
        <ele>1656.3</ele>
        <time>2013-06-16T08:34:22Z</time>
      </trkpt>
      <trkpt lat="46.397669" lon="7.082610">
        <ele>1653.5</ele>
        <time>2013-06-16T12:03:30Z</time>
        <sat>6</sat>
      </trkpt>
      <trkpt lat="46.397569" lon="7.082782">
        <ele>1651.2</ele>
        <time>2013-06-16T12:04:41Z</time>
        <sat>5</sat>
      </trkpt>
      <trkpt lat="46.397498" lon="7.082997">
        <ele>1685.1</ele>
        <time>2013-06-16T12:05:02Z</time>
        <sat>5</sat>
      </trkpt>
      <trkpt lat="46.397480" lon="7.083087">
        <ele>1685.3</ele>
        <time>2013-06-16T12:05:03Z</time>
        <sat>5</sat>
      </trkpt>
      <trkpt lat="46.397463" lon="7.083178">
        <ele>1685.4</ele>
        <time>2013-06-16T12:05:04Z</time>
        <sat>5</sat>
      </trkpt>
      <trkpt lat="46.397448" lon="7.083263">
        <ele>1685.3</ele>
        <time>2013-06-16T12:05:05Z</time>
        <sat>5</sat>
      </trkpt>
      <trkpt lat="46.397438" lon="7.083332">
        <ele>1685.2</ele>
        <time>2013-06-16T12:05:06Z</time>
        <sat>5</sat>
      </trkpt>
      <trkpt lat="46.397415" lon="7.083443">
        <ele>1685.7</ele>
        <time>2013-06-16T12:05:08Z</time>
        <sat>5</sat>
      </trkpt>
      <trkpt lat="46.397398" lon="7.083535">
        <ele>1686.7</ele>
        <time>2013-06-16T12:05:10Z</time>
        <sat>5</sat>
      </trkpt>
      <trkpt lat="46.397382" lon="7.083618">
        <ele>1687.3</ele>
        <time>2013-06-16T12:05:12Z</time>
        <sat>5</sat>
      </trkpt>
      <trkpt lat="46.397363" lon="7.083732">
        <ele>1688.3</ele>
        <time>2013-06-16T12:05:15Z</time>
        <sat>5</sat>
      </trkpt>
      <trkpt lat="46.397335" lon="7.083847">
        <ele>1689.1</ele>
        <time>2013-06-16T12:05:18Z</time>
        <sat>5</sat>
      </trkpt>
      <trkpt lat="46.397310" lon="7.083968">
        <ele>1689.5</ele>
        <time>2013-06-16T12:05:21Z</time>
        <sat>5</sat>
      </trkpt>
      <trkpt lat="46.397290" lon="7.084083">
        <ele>1690.6</ele>
        <time>2013-06-16T12:05:24Z</time>
        <sat>5</sat>
      </trkpt>
      <trkpt lat="46.397267" lon="7.084208">
        <ele>1691.0</ele>
        <time>2013-06-16T12:05:28Z</time>
        <sat>5</sat>
      </trkpt>
      <trkpt lat="46.397260" lon="7.084335">
        <ele>1690.6</ele>
        <time>2013-06-16T12:05:33Z</time>
        <sat>5</sat>
      </trkpt>
      <trkpt lat="46.397298" lon="7.084423">
        <ele>1690.9</ele>
        <time>2013-06-16T12:05:45Z</time>
        <sat>5</sat>
      </trkpt>
      <trkpt lat="46.397315" lon="7.084443">
        <ele>1690.8</ele>
        <time>2013-06-16T12:05:46Z</time>
        <sat>5</sat>
      </trkpt>
      <trkpt lat="46.397440" lon="7.084558">
        <ele>1692.1</ele>
        <time>2013-06-16T12:05:56Z</time>
        <sat>5</sat>
      </trkpt>
      <trkpt lat="46.397512" lon="7.084612">
        <ele>1692.6</ele>
        <time>2013-06-16T12:06:01Z</time>
        <sat>5</sat>
      </trkpt>
      <trkpt lat="46.397558" lon="7.084695">
        <ele>1692.5</ele>
        <time>2013-06-16T12:06:05Z</time>
        <sat>5</sat>
      </trkpt>
      <trkpt lat="46.397643" lon="7.084722">
        <ele>1693.8</ele>
        <time>2013-06-16T12:06:32Z</time>
        <sat>5</sat>
      </trkpt>
      <trkpt lat="46.397705" lon="7.084803">
        <ele>1694.1</ele>
        <time>2013-06-16T12:06:46Z</time>
        <sat>5</sat>
      </trkpt>
      <trkpt lat="46.397748" lon="7.084910">
        <ele>1692.2</ele>
        <time>2013-06-16T12:06:51Z</time>
        <sat>5</sat>
      </trkpt>
      <trkpt lat="46.397760" lon="7.084935">
        <ele>1691.8</ele>
        <time>2013-06-16T12:06:52Z</time>
        <sat>5</sat>
      </trkpt>
      <trkpt lat="46.397802" lon="7.085122">
        <ele>1688.3</ele>
        <time>2013-06-16T12:07:00Z</time>
        <sat>5</sat>
      </trkpt>
      <trkpt lat="46.397832" lon="7.085232">
        <ele>1686.7</ele>
        <time>2013-06-16T12:07:35Z</time>
        <sat>5</sat>
      </trkpt>
      <trkpt lat="46.397872" lon="7.085348">
        <ele>1686.0</ele>
        <time>2013-06-16T12:07:39Z</time>
        <sat>5</sat>
      </trkpt>
      <trkpt lat="46.397902" lon="7.085443">
        <ele>1685.0</ele>
        <time>2013-06-16T12:07:42Z</time>
        <sat>5</sat>
      </trkpt>
      <trkpt lat="46.397938" lon="7.085547">
        <ele>1684.4</ele>
        <time>2013-06-16T12:07:45Z</time>
        <sat>5</sat>
      </trkpt>
      <trkpt lat="46.397975" lon="7.085643">
        <ele>1683.0</ele>
        <time>2013-06-16T12:07:48Z</time>
        <sat>5</sat>
      </trkpt>
      <trkpt lat="46.398015" lon="7.085753">
        <ele>1681.3</ele>
        <time>2013-06-16T12:07:51Z</time>
        <sat>5</sat>
      </trkpt>
      <trkpt lat="46.398047" lon="7.085832">
        <ele>1680.5</ele>
        <time>2013-06-16T12:07:53Z</time>
        <sat>5</sat>
      </trkpt>
      <trkpt lat="46.398065" lon="7.085873">
        <ele>1680.3</ele>
        <time>2013-06-16T12:07:54Z</time>
        <sat>5</sat>
      </trkpt>
      <trkpt lat="46.398117" lon="7.085987">
        <ele>1678.5</ele>
        <time>2013-06-16T12:07:57Z</time>
        <sat>5</sat>
      </trkpt>
      <trkpt lat="46.398148" lon="7.086067">
        <ele>1677.4</ele>
        <time>2013-06-16T12:07:59Z</time>
        <sat>5</sat>
      </trkpt>
      <trkpt lat="46.398185" lon="7.086148">
        <ele>1676.4</ele>
        <time>2013-06-16T12:08:01Z</time>
        <sat>5</sat>
      </trkpt>
      <trkpt lat="46.398218" lon="7.086230">
        <ele>1675.3</ele>
        <time>2013-06-16T12:08:03Z</time>
        <sat>5</sat>
      </trkpt>
      <trkpt lat="46.398252" lon="7.086343">
        <ele>1674.1</ele>
        <time>2013-06-16T12:08:06Z</time>
        <sat>5</sat>
      </trkpt>
      <trkpt lat="46.398277" lon="7.086450">
        <ele>1673.1</ele>
        <time>2013-06-16T12:08:09Z</time>
        <sat>5</sat>
      </trkpt>
      <trkpt lat="46.398305" lon="7.086543">
        <ele>1672.0</ele>
        <time>2013-06-16T12:08:12Z</time>
        <sat>5</sat>
      </trkpt>
      <trkpt lat="46.398313" lon="7.086640">
        <ele>1670.8</ele>
        <time>2013-06-16T12:08:15Z</time>
        <sat>5</sat>
      </trkpt>
      <trkpt lat="46.398322" lon="7.086757">
        <ele>1669.7</ele>
        <time>2013-06-16T12:08:19Z</time>
        <sat>5</sat>
      </trkpt>
      <trkpt lat="46.398375" lon="7.086860">
        <ele>1666.9</ele>
        <time>2013-06-16T12:08:25Z</time>
        <sat>5</sat>
      </trkpt>
      <trkpt lat="46.398375" lon="7.086980">
        <ele>1664.5</ele>
        <time>2013-06-16T12:11:11Z</time>
        <sat>5</sat>
      </trkpt>
      <trkpt lat="46.398385" lon="7.086993">
        <ele>1664.7</ele>
        <time>2013-06-16T12:11:12Z</time>
        <sat>5</sat>
      </trkpt>
      <trkpt lat="46.398510" lon="7.087113">
        <ele>1662.4</ele>
        <time>2013-06-16T12:11:22Z</time>
        <sat>5</sat>
      </trkpt>
      <trkpt lat="46.398595" lon="7.087150">
        <ele>1660.7</ele>
        <time>2013-06-16T12:11:26Z</time>
        <sat>5</sat>
      </trkpt>
      <trkpt lat="46.398670" lon="7.087183">
        <ele>1660.0</ele>
        <time>2013-06-16T12:11:29Z</time>
        <sat>5</sat>
      </trkpt>
      <trkpt lat="46.398720" lon="7.087255">
        <ele>1658.5</ele>
        <time>2013-06-16T12:11:32Z</time>
        <sat>5</sat>
      </trkpt>
      <trkpt lat="46.398778" lon="7.087350">
        <ele>1657.8</ele>
        <time>2013-06-16T12:11:36Z</time>
        <sat>5</sat>
      </trkpt>
      <trkpt lat="46.398840" lon="7.087418">
        <ele>1656.8</ele>
        <time>2013-06-16T12:11:39Z</time>
        <sat>5</sat>
      </trkpt>
      <trkpt lat="46.398910" lon="7.087485">
        <ele>1655.6</ele>
        <time>2013-06-16T12:11:42Z</time>
        <sat>5</sat>
      </trkpt>
      <trkpt lat="46.398980" lon="7.087562">
        <ele>1655.4</ele>
        <time>2013-06-16T12:11:45Z</time>
        <sat>5</sat>
      </trkpt>
      <trkpt lat="46.399055" lon="7.087630">
        <ele>1654.5</ele>
        <time>2013-06-16T12:11:49Z</time>
        <sat>5</sat>
      </trkpt>
      <trkpt lat="46.399113" lon="7.087695">
        <ele>1653.6</ele>
        <time>2013-06-16T12:11:53Z</time>
        <sat>5</sat>
      </trkpt>
      <trkpt lat="46.399173" lon="7.087738">
        <ele>1653.5</ele>
        <time>2013-06-16T12:11:56Z</time>
        <sat>5</sat>
      </trkpt>
      <trkpt lat="46.399247" lon="7.087773">
        <ele>1653.5</ele>
        <time>2013-06-16T12:11:59Z</time>
        <sat>5</sat>
      </trkpt>
      <trkpt lat="46.399313" lon="7.087823">
        <ele>1653.1</ele>
        <time>2013-06-16T12:12:02Z</time>
        <sat>5</sat>
      </trkpt>
      <trkpt lat="46.399378" lon="7.087878">
        <ele>1652.1</ele>
        <time>2013-06-16T12:12:05Z</time>
        <sat>5</sat>
      </trkpt>
      <trkpt lat="46.399437" lon="7.087932">
        <ele>1651.5</ele>
        <time>2013-06-16T12:12:08Z</time>
        <sat>5</sat>
      </trkpt>
      <trkpt lat="46.399500" lon="7.087973">
        <ele>1651.7</ele>
        <time>2013-06-16T12:12:11Z</time>
        <sat>5</sat>
      </trkpt>
      <trkpt lat="46.399572" lon="7.088032">
        <ele>1650.4</ele>
        <time>2013-06-16T12:12:15Z</time>
        <sat>5</sat>
      </trkpt>
      <trkpt lat="46.399590" lon="7.088043">
        <ele>1650.3</ele>
        <time>2013-06-16T12:12:16Z</time>
        <sat>5</sat>
      </trkpt>
      <trkpt lat="46.399710" lon="7.088153">
        <ele>1648.4</ele>
        <time>2013-06-16T12:12:22Z</time>
        <sat>5</sat>
      </trkpt>
      <trkpt lat="46.399777" lon="7.088210">
        <ele>1647.3</ele>
        <time>2013-06-16T12:12:25Z</time>
        <sat>5</sat>
      </trkpt>
      <trkpt lat="46.399838" lon="7.088277">
        <ele>1645.9</ele>
        <time>2013-06-16T12:12:28Z</time>
        <sat>5</sat>
      </trkpt>
      <trkpt lat="46.399902" lon="7.088352">
        <ele>1644.9</ele>
        <time>2013-06-16T12:12:31Z</time>
        <sat>5</sat>
      </trkpt>
      <trkpt lat="46.399943" lon="7.088457">
        <ele>1643.7</ele>
        <time>2013-06-16T12:12:34Z</time>
        <sat>5</sat>
      </trkpt>
      <trkpt lat="46.399972" lon="7.088560">
        <ele>1642.1</ele>
        <time>2013-06-16T12:12:37Z</time>
        <sat>5</sat>
      </trkpt>
      <trkpt lat="46.400032" lon="7.088655">
        <ele>1638.6</ele>
        <time>2013-06-16T12:12:44Z</time>
        <sat>5</sat>
      </trkpt>
      <trkpt lat="46.400107" lon="7.088583">
        <ele>1639.0</ele>
        <time>2013-06-16T12:13:15Z</time>
        <sat>5</sat>
      </trkpt>
      <trkpt lat="46.400023" lon="7.088587">
        <ele>1638.1</ele>
        <time>2013-06-16T12:14:10Z</time>
        <sat>5</sat>
      </trkpt>
      <trkpt lat="46.400013" lon="7.088587">
        <ele>1638.3</ele>
        <time>2013-06-16T12:14:11Z</time>
        <sat>5</sat>
      </trkpt>
      <trkpt lat="46.399878" lon="7.088715">
        <ele>1636.6</ele>
        <time>2013-06-16T12:14:33Z</time>
        <sat>5</sat>
      </trkpt>
      <trkpt lat="46.399813" lon="7.088778">
        <ele>1635.2</ele>
        <time>2013-06-16T12:14:38Z</time>
        <sat>5</sat>
      </trkpt>
      <trkpt lat="46.399738" lon="7.088850">
        <ele>1631.8</ele>
        <time>2013-06-16T12:14:49Z</time>
        <sat>5</sat>
      </trkpt>
      <trkpt lat="46.399678" lon="7.088935">
        <ele>1631.5</ele>
        <time>2013-06-16T12:14:54Z</time>
        <sat>5</sat>
      </trkpt>
      <trkpt lat="46.399607" lon="7.089005">
        <ele>1630.0</ele>
        <time>2013-06-16T12:14:58Z</time>
        <sat>5</sat>
      </trkpt>
      <trkpt lat="46.399540" lon="7.089065">
        <ele>1628.6</ele>
        <time>2013-06-16T12:15:02Z</time>
        <sat>5</sat>
      </trkpt>
      <trkpt lat="46.399478" lon="7.089110">
        <ele>1627.5</ele>
        <time>2013-06-16T12:15:06Z</time>
        <sat>5</sat>
      </trkpt>
      <trkpt lat="46.399413" lon="7.089155">
        <ele>1626.5</ele>
        <time>2013-06-16T12:15:09Z</time>
        <sat>5</sat>
      </trkpt>
      <trkpt lat="46.399338" lon="7.089190">
        <ele>1623.8</ele>
        <time>2013-06-16T12:15:13Z</time>
        <sat>5</sat>
      </trkpt>
      <trkpt lat="46.399317" lon="7.089195">
        <ele>1623.1</ele>
        <time>2013-06-16T12:15:14Z</time>
        <sat>5</sat>
      </trkpt>
      <trkpt lat="46.399167" lon="7.089213">
        <ele>1619.5</ele>
        <time>2013-06-16T12:15:21Z</time>
        <sat>5</sat>
      </trkpt>
      <trkpt lat="46.399087" lon="7.089250">
        <ele>1618.9</ele>
        <time>2013-06-16T12:15:25Z</time>
        <sat>5</sat>
      </trkpt>
      <trkpt lat="46.399018" lon="7.089272">
        <ele>1618.2</ele>
        <time>2013-06-16T12:15:28Z</time>
        <sat>5</sat>
      </trkpt>
      <trkpt lat="46.398935" lon="7.089288">
        <ele>1617.8</ele>
        <time>2013-06-16T12:15:32Z</time>
        <sat>5</sat>
      </trkpt>
      <trkpt lat="46.398848" lon="7.089288">
        <ele>1616.2</ele>
        <time>2013-06-16T12:15:37Z</time>
        <sat>5</sat>
      </trkpt>
      <trkpt lat="46.398760" lon="7.089282">
        <ele>1615.4</ele>
        <time>2013-06-16T12:16:05Z</time>
        <sat>5</sat>
      </trkpt>
      <trkpt lat="46.398683" lon="7.089305">
        <ele>1615.2</ele>
        <time>2013-06-16T12:16:15Z</time>
        <sat>5</sat>
      </trkpt>
      <trkpt lat="46.398667" lon="7.089312">
        <ele>1615.0</ele>
        <time>2013-06-16T12:16:16Z</time>
        <sat>5</sat>
      </trkpt>
      <trkpt lat="46.398555" lon="7.089413">
        <ele>1614.2</ele>
        <time>2013-06-16T12:16:23Z</time>
        <sat>5</sat>
      </trkpt>
      <trkpt lat="46.398495" lon="7.089490">
        <ele>1614.2</ele>
        <time>2013-06-16T12:16:27Z</time>
        <sat>5</sat>
      </trkpt>
      <trkpt lat="46.398438" lon="7.089587">
        <ele>1613.6</ele>
        <time>2013-06-16T12:17:43Z</time>
        <sat>5</sat>
      </trkpt>
      <trkpt lat="46.398437" lon="7.089590">
        <ele>1613.6</ele>
        <time>2013-06-16T12:17:44Z</time>
        <sat>5</sat>
      </trkpt>
      <trkpt lat="46.398387" lon="7.089783">
        <ele>1611.4</ele>
        <time>2013-06-16T12:18:00Z</time>
        <sat>5</sat>
      </trkpt>
      <trkpt lat="46.398335" lon="7.089867">
        <ele>1610.5</ele>
        <time>2013-06-16T12:18:05Z</time>
        <sat>5</sat>
      </trkpt>
      <trkpt lat="46.398340" lon="7.089975">
        <ele>1607.8</ele>
        <time>2013-06-16T12:18:09Z</time>
        <sat>5</sat>
      </trkpt>
      <trkpt lat="46.398332" lon="7.090085">
        <ele>1606.5</ele>
        <time>2013-06-16T12:18:13Z</time>
        <sat>5</sat>
      </trkpt>
      <trkpt lat="46.398288" lon="7.090195">
        <ele>1605.3</ele>
        <time>2013-06-16T12:18:17Z</time>
        <sat>5</sat>
      </trkpt>
      <trkpt lat="46.398222" lon="7.090262">
        <ele>1603.8</ele>
        <time>2013-06-16T12:18:21Z</time>
        <sat>5</sat>
      </trkpt>
      <trkpt lat="46.398189" lon="7.090389">
        <ele>1599.0</ele>
        <time>2013-06-16T12:18:56Z</time>
        <sat>4</sat>
      </trkpt>
      <trkpt lat="46.398188" lon="7.090388">
        <ele>1599.1</ele>
        <time>2013-06-16T12:18:58Z</time>
        <sat>4</sat>
      </trkpt>
      <trkpt lat="46.398193" lon="7.090391">
        <ele>1598.0</ele>
        <time>2013-06-16T12:20:04Z</time>
        <sat>4</sat>
      </trkpt>
      <trkpt lat="46.398192" lon="7.090395">
        <ele>1598.3</ele>
        <time>2013-06-16T12:20:06Z</time>
        <sat>5</sat>
      </trkpt>
      <trkpt lat="46.398113" lon="7.090535">
        <ele>1597.2</ele>
        <time>2013-06-16T12:20:40Z</time>
        <sat>5</sat>
      </trkpt>
      <trkpt lat="46.398047" lon="7.090545">
        <ele>1596.4</ele>
        <time>2013-06-16T12:20:43Z</time>
        <sat>5</sat>
      </trkpt>
      <trkpt lat="46.397963" lon="7.090538">
        <ele>1596.1</ele>
        <time>2013-06-16T12:20:47Z</time>
        <sat>5</sat>
      </trkpt>
      <trkpt lat="46.397893" lon="7.090550">
        <ele>1595.1</ele>
        <time>2013-06-16T12:20:50Z</time>
        <sat>5</sat>
      </trkpt>
      <trkpt lat="46.397837" lon="7.090570">
        <ele>1594.5</ele>
        <time>2013-06-16T12:20:52Z</time>
        <sat>5</sat>
      </trkpt>
      <trkpt lat="46.397768" lon="7.090598">
        <ele>1593.7</ele>
        <time>2013-06-16T12:20:54Z</time>
        <sat>5</sat>
      </trkpt>
      <trkpt lat="46.397702" lon="7.090625">
        <ele>1592.9</ele>
        <time>2013-06-16T12:20:56Z</time>
        <sat>5</sat>
      </trkpt>
      <trkpt lat="46.397642" lon="7.090648">
        <ele>1591.8</ele>
        <time>2013-06-16T12:20:58Z</time>
        <sat>5</sat>
      </trkpt>
      <trkpt lat="46.397583" lon="7.090672">
        <ele>1591.3</ele>
        <time>2013-06-16T12:21:00Z</time>
        <sat>5</sat>
      </trkpt>
      <trkpt lat="46.397522" lon="7.090693">
        <ele>1590.2</ele>
        <time>2013-06-16T12:21:02Z</time>
        <sat>5</sat>
      </trkpt>
      <trkpt lat="46.397440" lon="7.090718">
        <ele>1588.0</ele>
        <time>2013-06-16T12:21:05Z</time>
        <sat>5</sat>
      </trkpt>
      <trkpt lat="46.397355" lon="7.090732">
        <ele>1586.1</ele>
        <time>2013-06-16T12:21:08Z</time>
        <sat>5</sat>
      </trkpt>
      <trkpt lat="46.397328" lon="7.090742">
        <ele>1585.6</ele>
        <time>2013-06-16T12:21:09Z</time>
        <sat>5</sat>
      </trkpt>
      <trkpt lat="46.397215" lon="7.090807">
        <ele>1583.2</ele>
        <time>2013-06-16T12:21:13Z</time>
        <sat>5</sat>
      </trkpt>
      <trkpt lat="46.397153" lon="7.090837">
        <ele>1581.8</ele>
        <time>2013-06-16T12:21:15Z</time>
        <sat>5</sat>
      </trkpt>
      <trkpt lat="46.397088" lon="7.090867">
        <ele>1581.2</ele>
        <time>2013-06-16T12:21:17Z</time>
        <sat>5</sat>
      </trkpt>
      <trkpt lat="46.397017" lon="7.090890">
        <ele>1580.7</ele>
        <time>2013-06-16T12:21:19Z</time>
        <sat>5</sat>
      </trkpt>
      <trkpt lat="46.396947" lon="7.090915">
        <ele>1579.2</ele>
        <time>2013-06-16T12:21:21Z</time>
        <sat>5</sat>
      </trkpt>
      <trkpt lat="46.396875" lon="7.090940">
        <ele>1578.4</ele>
        <time>2013-06-16T12:21:23Z</time>
        <sat>5</sat>
      </trkpt>
      <trkpt lat="46.396805" lon="7.090965">
        <ele>1577.4</ele>
        <time>2013-06-16T12:21:25Z</time>
        <sat>5</sat>
      </trkpt>
      <trkpt lat="46.396728" lon="7.090988">
        <ele>1576.4</ele>
        <time>2013-06-16T12:21:27Z</time>
        <sat>6</sat>
      </trkpt>
      <trkpt lat="46.396648" lon="7.091012">
        <ele>1576.0</ele>
        <time>2013-06-16T12:21:29Z</time>
        <sat>5</sat>
      </trkpt>
      <trkpt lat="46.396605" lon="7.091022">
        <ele>1575.3</ele>
        <time>2013-06-16T12:21:30Z</time>
        <sat>6</sat>
      </trkpt>
      <trkpt lat="46.396557" lon="7.091035">
        <ele>1574.8</ele>
        <time>2013-06-16T12:21:31Z</time>
        <sat>6</sat>
      </trkpt>
      <trkpt lat="46.396500" lon="7.091052">
        <ele>1574.2</ele>
        <time>2013-06-16T12:21:32Z</time>
        <sat>5</sat>
      </trkpt>
      <trkpt lat="46.396440" lon="7.091072">
        <ele>1573.7</ele>
        <time>2013-06-16T12:21:33Z</time>
        <sat>5</sat>
      </trkpt>
      <trkpt lat="46.396375" lon="7.091090">
        <ele>1573.3</ele>
        <time>2013-06-16T12:21:34Z</time>
        <sat>6</sat>
      </trkpt>
      <trkpt lat="46.396308" lon="7.091107">
        <ele>1573.2</ele>
        <time>2013-06-16T12:21:35Z</time>
        <sat>6</sat>
      </trkpt>
      <trkpt lat="46.396240" lon="7.091122">
        <ele>1573.1</ele>
        <time>2013-06-16T12:21:36Z</time>
        <sat>6</sat>
      </trkpt>
      <trkpt lat="46.396177" lon="7.091130">
        <ele>1572.4</ele>
        <time>2013-06-16T12:21:37Z</time>
        <sat>6</sat>
      </trkpt>
      <trkpt lat="46.396117" lon="7.091133">
        <ele>1571.9</ele>
        <time>2013-06-16T12:21:38Z</time>
        <sat>6</sat>
      </trkpt>
      <trkpt lat="46.396062" lon="7.091137">
        <ele>1571.5</ele>
        <time>2013-06-16T12:21:39Z</time>
        <sat>6</sat>
      </trkpt>
      <trkpt lat="46.396012" lon="7.091140">
        <ele>1571.2</ele>
        <time>2013-06-16T12:21:40Z</time>
        <sat>5</sat>
      </trkpt>
      <trkpt lat="46.395962" lon="7.091143">
        <ele>1571.1</ele>
        <time>2013-06-16T12:21:41Z</time>
        <sat>5</sat>
      </trkpt>
      <trkpt lat="46.395913" lon="7.091150">
        <ele>1570.5</ele>
        <time>2013-06-16T12:21:42Z</time>
        <sat>6</sat>
      </trkpt>
      <trkpt lat="46.395865" lon="7.091163">
        <ele>1570.1</ele>
        <time>2013-06-16T12:21:43Z</time>
        <sat>6</sat>
      </trkpt>
      <trkpt lat="46.395817" lon="7.091180">
        <ele>1569.4</ele>
        <time>2013-06-16T12:21:44Z</time>
        <sat>6</sat>
      </trkpt>
      <trkpt lat="46.395768" lon="7.091200">
        <ele>1568.9</ele>
        <time>2013-06-16T12:21:45Z</time>
        <sat>6</sat>
      </trkpt>
      <trkpt lat="46.395723" lon="7.091225">
        <ele>1568.4</ele>
        <time>2013-06-16T12:21:46Z</time>
        <sat>6</sat>
      </trkpt>
      <trkpt lat="46.395640" lon="7.091258">
        <ele>1567.8</ele>
        <time>2013-06-16T12:21:48Z</time>
        <sat>6</sat>
      </trkpt>
      <trkpt lat="46.395598" lon="7.091272">
        <ele>1567.1</ele>
        <time>2013-06-16T12:21:49Z</time>
        <sat>6</sat>
      </trkpt>
      <trkpt lat="46.395552" lon="7.091283">
        <ele>1566.7</ele>
        <time>2013-06-16T12:21:50Z</time>
        <sat>6</sat>
      </trkpt>
      <trkpt lat="46.395500" lon="7.091295">
        <ele>1566.3</ele>
        <time>2013-06-16T12:21:51Z</time>
        <sat>6</sat>
      </trkpt>
      <trkpt lat="46.395447" lon="7.091310">
        <ele>1566.0</ele>
        <time>2013-06-16T12:21:52Z</time>
        <sat>6</sat>
      </trkpt>
      <trkpt lat="46.395393" lon="7.091325">
        <ele>1565.7</ele>
        <time>2013-06-16T12:21:53Z</time>
        <sat>6</sat>
      </trkpt>
      <trkpt lat="46.395337" lon="7.091338">
        <ele>1565.0</ele>
        <time>2013-06-16T12:21:54Z</time>
        <sat>6</sat>
      </trkpt>
      <trkpt lat="46.395280" lon="7.091352">
        <ele>1564.4</ele>
        <time>2013-06-16T12:21:55Z</time>
        <sat>6</sat>
      </trkpt>
      <trkpt lat="46.395225" lon="7.091364">
        <ele>1563.3</ele>
        <time>2013-06-16T12:21:56Z</time>
        <sat>6</sat>
      </trkpt>
      <trkpt lat="46.395175" lon="7.091373">
        <ele>1562.6</ele>
        <time>2013-06-16T12:21:57Z</time>
        <sat>6</sat>
      </trkpt>
      <trkpt lat="46.395125" lon="7.091380">
        <ele>1561.3</ele>
        <time>2013-06-16T12:21:58Z</time>
        <sat>6</sat>
      </trkpt>
      <trkpt lat="46.395073" lon="7.091388">
        <ele>1560.4</ele>
        <time>2013-06-16T12:21:59Z</time>
        <sat>6</sat>
      </trkpt>
      <trkpt lat="46.395017" lon="7.091398">
        <ele>1559.7</ele>
        <time>2013-06-16T12:22:00Z</time>
        <sat>6</sat>
      </trkpt>
      <trkpt lat="46.394955" lon="7.091410">
        <ele>1559.2</ele>
        <time>2013-06-16T12:22:01Z</time>
        <sat>6</sat>
      </trkpt>
      <trkpt lat="46.394893" lon="7.091422">
        <ele>1558.9</ele>
        <time>2013-06-16T12:22:02Z</time>
        <sat>6</sat>
      </trkpt>
      <trkpt lat="46.394838" lon="7.091437">
        <ele>1558.4</ele>
        <time>2013-06-16T12:22:03Z</time>
        <sat>6</sat>
      </trkpt>
      <trkpt lat="46.394790" lon="7.091450">
        <ele>1557.9</ele>
        <time>2013-06-16T12:22:04Z</time>
        <sat>6</sat>
      </trkpt>
      <trkpt lat="46.394715" lon="7.091477">
        <ele>1557.6</ele>
        <time>2013-06-16T12:22:06Z</time>
        <sat>6</sat>
      </trkpt>
      <trkpt lat="46.394638" lon="7.091540">
        <ele>1557.1</ele>
        <time>2013-06-16T12:22:09Z</time>
        <sat>6</sat>
      </trkpt>
      <trkpt lat="46.394632" lon="7.091585">
        <ele>1556.4</ele>
        <time>2013-06-16T12:22:10Z</time>
        <sat>6</sat>
      </trkpt>
      <trkpt lat="46.394650" lon="7.091767">
        <ele>1554.9</ele>
        <time>2013-06-16T12:22:13Z</time>
        <sat>6</sat>
      </trkpt>
      <trkpt lat="46.394652" lon="7.091837">
        <ele>1554.4</ele>
        <time>2013-06-16T12:22:14Z</time>
        <sat>6</sat>
      </trkpt>
      <trkpt lat="46.394655" lon="7.091908">
        <ele>1554.0</ele>
        <time>2013-06-16T12:22:15Z</time>
        <sat>6</sat>
      </trkpt>
      <trkpt lat="46.394658" lon="7.091980">
        <ele>1553.7</ele>
        <time>2013-06-16T12:22:16Z</time>
        <sat>6</sat>
      </trkpt>
      <trkpt lat="46.394655" lon="7.092053">
        <ele>1553.0</ele>
        <time>2013-06-16T12:22:17Z</time>
        <sat>6</sat>
      </trkpt>
      <trkpt lat="46.394653" lon="7.092122">
        <ele>1552.4</ele>
        <time>2013-06-16T12:22:18Z</time>
        <sat>6</sat>
      </trkpt>
      <trkpt lat="46.394652" lon="7.092187">
        <ele>1552.0</ele>
        <time>2013-06-16T12:22:19Z</time>
        <sat>6</sat>
      </trkpt>
      <trkpt lat="46.394645" lon="7.092253">
        <ele>1551.4</ele>
        <time>2013-06-16T12:22:20Z</time>
        <sat>6</sat>
      </trkpt>
      <trkpt lat="46.394638" lon="7.092320">
        <ele>1551.0</ele>
        <time>2013-06-16T12:22:21Z</time>
        <sat>6</sat>
      </trkpt>
      <trkpt lat="46.394630" lon="7.092387">
        <ele>1550.2</ele>
        <time>2013-06-16T12:22:22Z</time>
        <sat>6</sat>
      </trkpt>
      <trkpt lat="46.394622" lon="7.092457">
        <ele>1549.5</ele>
        <time>2013-06-16T12:22:23Z</time>
        <sat>6</sat>
      </trkpt>
      <trkpt lat="46.394618" lon="7.092525">
        <ele>1549.1</ele>
        <time>2013-06-16T12:22:24Z</time>
        <sat>6</sat>
      </trkpt>
      <trkpt lat="46.394637" lon="7.092648">
        <ele>1547.3</ele>
        <time>2013-06-16T12:22:26Z</time>
        <sat>6</sat>
      </trkpt>
      <trkpt lat="46.394707" lon="7.092725">
        <ele>1545.4</ele>
        <time>2013-06-16T12:22:28Z</time>
        <sat>6</sat>
      </trkpt>
      <trkpt lat="46.394748" lon="7.092757">
        <ele>1544.2</ele>
        <time>2013-06-16T12:22:29Z</time>
        <sat>6</sat>
      </trkpt>
      <trkpt lat="46.394785" lon="7.092798">
        <ele>1543.3</ele>
        <time>2013-06-16T12:22:30Z</time>
        <sat>6</sat>
      </trkpt>
      <trkpt lat="46.394812" lon="7.092857">
        <ele>1542.6</ele>
        <time>2013-06-16T12:22:31Z</time>
        <sat>6</sat>
      </trkpt>
      <trkpt lat="46.394828" lon="7.092928">
        <ele>1541.5</ele>
        <time>2013-06-16T12:22:32Z</time>
        <sat>5</sat>
      </trkpt>
      <trkpt lat="46.394833" lon="7.093008">
        <ele>1540.6</ele>
        <time>2013-06-16T12:22:33Z</time>
        <sat>6</sat>
      </trkpt>
      <trkpt lat="46.394837" lon="7.093092">
        <ele>1539.6</ele>
        <time>2013-06-16T12:22:34Z</time>
        <sat>6</sat>
      </trkpt>
      <trkpt lat="46.394832" lon="7.093180">
        <ele>1538.9</ele>
        <time>2013-06-16T12:22:35Z</time>
        <sat>6</sat>
      </trkpt>
      <trkpt lat="46.394822" lon="7.093263">
        <ele>1538.3</ele>
        <time>2013-06-16T12:22:36Z</time>
        <sat>6</sat>
      </trkpt>
      <trkpt lat="46.394805" lon="7.093340">
        <ele>1537.2</ele>
        <time>2013-06-16T12:22:37Z</time>
        <sat>6</sat>
      </trkpt>
      <trkpt lat="46.394778" lon="7.093408">
        <ele>1536.4</ele>
        <time>2013-06-16T12:22:38Z</time>
        <sat>6</sat>
      </trkpt>
      <trkpt lat="46.394750" lon="7.093467">
        <ele>1535.2</ele>
        <time>2013-06-16T12:22:39Z</time>
        <sat>6</sat>
      </trkpt>
      <trkpt lat="46.394723" lon="7.093520">
        <ele>1534.4</ele>
        <time>2013-06-16T12:22:40Z</time>
        <sat>6</sat>
      </trkpt>
      <trkpt lat="46.394695" lon="7.093572">
        <ele>1533.0</ele>
        <time>2013-06-16T12:22:41Z</time>
        <sat>6</sat>
      </trkpt>
      <trkpt lat="46.394668" lon="7.093632">
        <ele>1532.0</ele>
        <time>2013-06-16T12:22:42Z</time>
        <sat>6</sat>
      </trkpt>
      <trkpt lat="46.394650" lon="7.093700">
        <ele>1531.3</ele>
        <time>2013-06-16T12:22:43Z</time>
        <sat>6</sat>
      </trkpt>
      <trkpt lat="46.394638" lon="7.093775">
        <ele>1530.7</ele>
        <time>2013-06-16T12:22:44Z</time>
        <sat>6</sat>
      </trkpt>
      <trkpt lat="46.394638" lon="7.093852">
        <ele>1530.3</ele>
        <time>2013-06-16T12:22:45Z</time>
        <sat>6</sat>
      </trkpt>
      <trkpt lat="46.394642" lon="7.093928">
        <ele>1529.9</ele>
        <time>2013-06-16T12:22:46Z</time>
        <sat>6</sat>
      </trkpt>
      <trkpt lat="46.394642" lon="7.094000">
        <ele>1529.7</ele>
        <time>2013-06-16T12:22:47Z</time>
        <sat>6</sat>
      </trkpt>
      <trkpt lat="46.394645" lon="7.094128">
        <ele>1528.2</ele>
        <time>2013-06-16T12:22:49Z</time>
        <sat>6</sat>
      </trkpt>
      <trkpt lat="46.394647" lon="7.094195">
        <ele>1527.7</ele>
        <time>2013-06-16T12:22:50Z</time>
        <sat>6</sat>
      </trkpt>
      <trkpt lat="46.394652" lon="7.094269">
        <ele>1527.5</ele>
        <time>2013-06-16T12:22:51Z</time>
        <sat>6</sat>
      </trkpt>
      <trkpt lat="46.394662" lon="7.094395">
        <ele>1527.7</ele>
        <time>2013-06-16T12:22:53Z</time>
        <sat>6</sat>
      </trkpt>
      <trkpt lat="46.394670" lon="7.094460">
        <ele>1527.9</ele>
        <time>2013-06-16T12:22:54Z</time>
        <sat>6</sat>
      </trkpt>
      <trkpt lat="46.394683" lon="7.094527">
        <ele>1526.7</ele>
        <time>2013-06-16T12:22:55Z</time>
        <sat>6</sat>
      </trkpt>
      <trkpt lat="46.394702" lon="7.094592">
        <ele>1525.8</ele>
        <time>2013-06-16T12:22:56Z</time>
        <sat>6</sat>
      </trkpt>
      <trkpt lat="46.394723" lon="7.094665">
        <ele>1525.1</ele>
        <time>2013-06-16T12:22:57Z</time>
        <sat>6</sat>
      </trkpt>
      <trkpt lat="46.394752" lon="7.094735">
        <ele>1524.1</ele>
        <time>2013-06-16T12:22:58Z</time>
        <sat>6</sat>
      </trkpt>
      <trkpt lat="46.394785" lon="7.094802">
        <ele>1523.3</ele>
        <time>2013-06-16T12:22:59Z</time>
        <sat>6</sat>
      </trkpt>
      <trkpt lat="46.394820" lon="7.094868">
        <ele>1522.5</ele>
        <time>2013-06-16T12:23:00Z</time>
        <sat>6</sat>
      </trkpt>
      <trkpt lat="46.394855" lon="7.094938">
        <ele>1521.8</ele>
        <time>2013-06-16T12:23:01Z</time>
        <sat>6</sat>
      </trkpt>
      <trkpt lat="46.394890" lon="7.095007">
        <ele>1521.3</ele>
        <time>2013-06-16T12:23:02Z</time>
        <sat>6</sat>
      </trkpt>
      <trkpt lat="46.394925" lon="7.095075">
        <ele>1520.3</ele>
        <time>2013-06-16T12:23:03Z</time>
        <sat>6</sat>
      </trkpt>
      <trkpt lat="46.394957" lon="7.095142">
        <ele>1519.6</ele>
        <time>2013-06-16T12:23:04Z</time>
        <sat>6</sat>
      </trkpt>
      <trkpt lat="46.394980" lon="7.095207">
        <ele>1519.1</ele>
        <time>2013-06-16T12:23:05Z</time>
        <sat>6</sat>
      </trkpt>
      <trkpt lat="46.394972" lon="7.095332">
        <ele>1517.9</ele>
        <time>2013-06-16T12:23:07Z</time>
        <sat>6</sat>
      </trkpt>
      <trkpt lat="46.394917" lon="7.095433">
        <ele>1516.8</ele>
        <time>2013-06-16T12:23:09Z</time>
        <sat>6</sat>
      </trkpt>
      <trkpt lat="46.394880" lon="7.095483">
        <ele>1516.0</ele>
        <time>2013-06-16T12:23:10Z</time>
        <sat>6</sat>
      </trkpt>
      <trkpt lat="46.394837" lon="7.095533">
        <ele>1515.4</ele>
        <time>2013-06-16T12:23:11Z</time>
        <sat>6</sat>
      </trkpt>
      <trkpt lat="46.394800" lon="7.095583">
        <ele>1514.7</ele>
        <time>2013-06-16T12:23:12Z</time>
        <sat>5</sat>
      </trkpt>
      <trkpt lat="46.394762" lon="7.095637">
        <ele>1514.3</ele>
        <time>2013-06-16T12:23:13Z</time>
        <sat>5</sat>
      </trkpt>
      <trkpt lat="46.394732" lon="7.095695">
        <ele>1512.8</ele>
        <time>2013-06-16T12:23:14Z</time>
        <sat>5</sat>
      </trkpt>
      <trkpt lat="46.394717" lon="7.095768">
        <ele>1511.7</ele>
        <time>2013-06-16T12:23:15Z</time>
        <sat>5</sat>
      </trkpt>
      <trkpt lat="46.394715" lon="7.095848">
        <ele>1510.9</ele>
        <time>2013-06-16T12:23:16Z</time>
        <sat>5</sat>
      </trkpt>
      <trkpt lat="46.394728" lon="7.095930">
        <ele>1509.6</ele>
        <time>2013-06-16T12:23:17Z</time>
        <sat>5</sat>
      </trkpt>
      <trkpt lat="46.394748" lon="7.096017">
        <ele>1508.6</ele>
        <time>2013-06-16T12:23:18Z</time>
        <sat>5</sat>
      </trkpt>
      <trkpt lat="46.394768" lon="7.096108">
        <ele>1507.4</ele>
        <time>2013-06-16T12:23:19Z</time>
        <sat>5</sat>
      </trkpt>
      <trkpt lat="46.394785" lon="7.096200">
        <ele>1506.5</ele>
        <time>2013-06-16T12:23:20Z</time>
        <sat>5</sat>
      </trkpt>
      <trkpt lat="46.394802" lon="7.096290">
        <ele>1505.8</ele>
        <time>2013-06-16T12:23:21Z</time>
        <sat>5</sat>
      </trkpt>
      <trkpt lat="46.394818" lon="7.096378">
        <ele>1504.2</ele>
        <time>2013-06-16T12:23:22Z</time>
        <sat>5</sat>
      </trkpt>
      <trkpt lat="46.394837" lon="7.096467">
        <ele>1503.0</ele>
        <time>2013-06-16T12:23:23Z</time>
        <sat>5</sat>
      </trkpt>
      <trkpt lat="46.394858" lon="7.096555">
        <ele>1502.1</ele>
        <time>2013-06-16T12:23:24Z</time>
        <sat>5</sat>
      </trkpt>
      <trkpt lat="46.394883" lon="7.096647">
        <ele>1501.4</ele>
        <time>2013-06-16T12:23:25Z</time>
        <sat>5</sat>
      </trkpt>
      <trkpt lat="46.394910" lon="7.096738">
        <ele>1500.5</ele>
        <time>2013-06-16T12:23:26Z</time>
        <sat>5</sat>
      </trkpt>
      <trkpt lat="46.394938" lon="7.096832">
        <ele>1499.8</ele>
        <time>2013-06-16T12:23:27Z</time>
        <sat>5</sat>
      </trkpt>
      <trkpt lat="46.394965" lon="7.096922">
        <ele>1499.3</ele>
        <time>2013-06-16T12:23:28Z</time>
        <sat>5</sat>
      </trkpt>
      <trkpt lat="46.394988" lon="7.097013">
        <ele>1498.6</ele>
        <time>2013-06-16T12:23:29Z</time>
        <sat>5</sat>
      </trkpt>
      <trkpt lat="46.395012" lon="7.097105">
        <ele>1498.0</ele>
        <time>2013-06-16T12:23:30Z</time>
        <sat>5</sat>
      </trkpt>
      <trkpt lat="46.395035" lon="7.097198">
        <ele>1497.8</ele>
        <time>2013-06-16T12:23:31Z</time>
        <sat>5</sat>
      </trkpt>
      <trkpt lat="46.395057" lon="7.097290">
        <ele>1497.6</ele>
        <time>2013-06-16T12:23:32Z</time>
        <sat>5</sat>
      </trkpt>
      <trkpt lat="46.395077" lon="7.097380">
        <ele>1497.7</ele>
        <time>2013-06-16T12:23:33Z</time>
        <sat>6</sat>
      </trkpt>
      <trkpt lat="46.395095" lon="7.097470">
        <ele>1497.8</ele>
        <time>2013-06-16T12:23:34Z</time>
        <sat>6</sat>
      </trkpt>
      <trkpt lat="46.395113" lon="7.097557">
        <ele>1497.9</ele>
        <time>2013-06-16T12:23:35Z</time>
        <sat>6</sat>
      </trkpt>
      <trkpt lat="46.395132" lon="7.097642">
        <ele>1498.2</ele>
        <time>2013-06-16T12:23:36Z</time>
        <sat>6</sat>
      </trkpt>
      <trkpt lat="46.395148" lon="7.097728">
        <ele>1498.4</ele>
        <time>2013-06-16T12:23:37Z</time>
        <sat>6</sat>
      </trkpt>
      <trkpt lat="46.395165" lon="7.097815">
        <ele>1498.2</ele>
        <time>2013-06-16T12:23:38Z</time>
        <sat>6</sat>
      </trkpt>
      <trkpt lat="46.395178" lon="7.097902">
        <ele>1498.2</ele>
        <time>2013-06-16T12:23:39Z</time>
        <sat>6</sat>
      </trkpt>
      <trkpt lat="46.395193" lon="7.097987">
        <ele>1498.1</ele>
        <time>2013-06-16T12:23:40Z</time>
        <sat>6</sat>
      </trkpt>
      <trkpt lat="46.395207" lon="7.098070">
        <ele>1497.8</ele>
        <time>2013-06-16T12:23:41Z</time>
        <sat>6</sat>
      </trkpt>
      <trkpt lat="46.395218" lon="7.098153">
        <ele>1497.5</ele>
        <time>2013-06-16T12:23:42Z</time>
        <sat>6</sat>
      </trkpt>
      <trkpt lat="46.395230" lon="7.098235">
        <ele>1497.3</ele>
        <time>2013-06-16T12:23:43Z</time>
        <sat>6</sat>
      </trkpt>
      <trkpt lat="46.395238" lon="7.098317">
        <ele>1497.2</ele>
        <time>2013-06-16T12:23:44Z</time>
        <sat>6</sat>
      </trkpt>
      <trkpt lat="46.395247" lon="7.098398">
        <ele>1497.2</ele>
        <time>2013-06-16T12:23:45Z</time>
        <sat>6</sat>
      </trkpt>
      <trkpt lat="46.395250" lon="7.098482">
        <ele>1497.2</ele>
        <time>2013-06-16T12:23:46Z</time>
        <sat>6</sat>
      </trkpt>
      <trkpt lat="46.395253" lon="7.098567">
        <ele>1497.2</ele>
        <time>2013-06-16T12:23:47Z</time>
        <sat>6</sat>
      </trkpt>
      <trkpt lat="46.395253" lon="7.098650">
        <ele>1496.8</ele>
        <time>2013-06-16T12:23:48Z</time>
        <sat>6</sat>
      </trkpt>
      <trkpt lat="46.395257" lon="7.098735">
        <ele>1496.5</ele>
        <time>2013-06-16T12:23:49Z</time>
        <sat>6</sat>
      </trkpt>
      <trkpt lat="46.395262" lon="7.098823">
        <ele>1495.5</ele>
        <time>2013-06-16T12:23:50Z</time>
        <sat>6</sat>
      </trkpt>
      <trkpt lat="46.395268" lon="7.098913">
        <ele>1494.8</ele>
        <time>2013-06-16T12:23:51Z</time>
        <sat>6</sat>
      </trkpt>
      <trkpt lat="46.395277" lon="7.099008">
        <ele>1493.9</ele>
        <time>2013-06-16T12:23:52Z</time>
        <sat>6</sat>
      </trkpt>
      <trkpt lat="46.395290" lon="7.099102">
        <ele>1493.2</ele>
        <time>2013-06-16T12:23:53Z</time>
        <sat>6</sat>
      </trkpt>
      <trkpt lat="46.395303" lon="7.099190">
        <ele>1492.8</ele>
        <time>2013-06-16T12:23:54Z</time>
        <sat>6</sat>
      </trkpt>
      <trkpt lat="46.395325" lon="7.099270">
        <ele>1492.6</ele>
        <time>2013-06-16T12:23:55Z</time>
        <sat>6</sat>
      </trkpt>
      <trkpt lat="46.395347" lon="7.099350">
        <ele>1492.5</ele>
        <time>2013-06-16T12:23:56Z</time>
        <sat>6</sat>
      </trkpt>
      <trkpt lat="46.395358" lon="7.099437">
        <ele>1492.1</ele>
        <time>2013-06-16T12:23:57Z</time>
        <sat>6</sat>
      </trkpt>
      <trkpt lat="46.395358" lon="7.099525">
        <ele>1491.7</ele>
        <time>2013-06-16T12:23:58Z</time>
        <sat>6</sat>
      </trkpt>
      <trkpt lat="46.395355" lon="7.099612">
        <ele>1491.5</ele>
        <time>2013-06-16T12:23:59Z</time>
        <sat>6</sat>
      </trkpt>
      <trkpt lat="46.395345" lon="7.099693">
        <ele>1491.0</ele>
        <time>2013-06-16T12:24:00Z</time>
        <sat>6</sat>
      </trkpt>
      <trkpt lat="46.395330" lon="7.099772">
        <ele>1490.6</ele>
        <time>2013-06-16T12:24:01Z</time>
        <sat>6</sat>
      </trkpt>
      <trkpt lat="46.395313" lon="7.099843">
        <ele>1490.0</ele>
        <time>2013-06-16T12:24:02Z</time>
        <sat>6</sat>
      </trkpt>
      <trkpt lat="46.395290" lon="7.099915">
        <ele>1489.6</ele>
        <time>2013-06-16T12:24:03Z</time>
        <sat>6</sat>
      </trkpt>
      <trkpt lat="46.395265" lon="7.099985">
        <ele>1489.0</ele>
        <time>2013-06-16T12:24:04Z</time>
        <sat>6</sat>
      </trkpt>
      <trkpt lat="46.395240" lon="7.100057">
        <ele>1488.6</ele>
        <time>2013-06-16T12:24:05Z</time>
        <sat>6</sat>
      </trkpt>
      <trkpt lat="46.395217" lon="7.100130">
        <ele>1488.2</ele>
        <time>2013-06-16T12:24:06Z</time>
        <sat>6</sat>
      </trkpt>
      <trkpt lat="46.395192" lon="7.100200">
        <ele>1488.0</ele>
        <time>2013-06-16T12:24:07Z</time>
        <sat>6</sat>
      </trkpt>
      <trkpt lat="46.395160" lon="7.100262">
        <ele>1487.9</ele>
        <time>2013-06-16T12:24:08Z</time>
        <sat>6</sat>
      </trkpt>
      <trkpt lat="46.395123" lon="7.100317">
        <ele>1487.0</ele>
        <time>2013-06-16T12:24:09Z</time>
        <sat>6</sat>
      </trkpt>
      <trkpt lat="46.395080" lon="7.100357">
        <ele>1486.3</ele>
        <time>2013-06-16T12:24:10Z</time>
        <sat>6</sat>
      </trkpt>
      <trkpt lat="46.395030" lon="7.100372">
        <ele>1485.3</ele>
        <time>2013-06-16T12:24:11Z</time>
        <sat>6</sat>
      </trkpt>
      <trkpt lat="46.394983" lon="7.100362">
        <ele>1484.6</ele>
        <time>2013-06-16T12:24:12Z</time>
        <sat>6</sat>
      </trkpt>
      <trkpt lat="46.394940" lon="7.100340">
        <ele>1484.0</ele>
        <time>2013-06-16T12:24:13Z</time>
        <sat>6</sat>
      </trkpt>
      <trkpt lat="46.394857" lon="7.100298">
        <ele>1483.1</ele>
        <time>2013-06-16T12:24:15Z</time>
        <sat>6</sat>
      </trkpt>
      <trkpt lat="46.394815" lon="7.100283">
        <ele>1482.4</ele>
        <time>2013-06-16T12:24:16Z</time>
        <sat>6</sat>
      </trkpt>
      <trkpt lat="46.394688" lon="7.100268">
        <ele>1480.8</ele>
        <time>2013-06-16T12:24:19Z</time>
        <sat>5</sat>
      </trkpt>
      <trkpt lat="46.394607" lon="7.100280">
        <ele>1479.9</ele>
        <time>2013-06-16T12:24:21Z</time>
        <sat>6</sat>
      </trkpt>
      <trkpt lat="46.394522" lon="7.100285">
        <ele>1478.4</ele>
        <time>2013-06-16T12:24:24Z</time>
        <sat>6</sat>
      </trkpt>
      <trkpt lat="46.394445" lon="7.100345">
        <ele>1476.7</ele>
        <time>2013-06-16T12:24:29Z</time>
        <sat>6</sat>
      </trkpt>
      <trkpt lat="46.394420" lon="7.100458">
        <ele>1475.0</ele>
        <time>2013-06-16T12:24:32Z</time>
        <sat>6</sat>
      </trkpt>
      <trkpt lat="46.394438" lon="7.100572">
        <ele>1475.3</ele>
        <time>2013-06-16T12:24:35Z</time>
        <sat>6</sat>
      </trkpt>
      <trkpt lat="46.394467" lon="7.100680">
        <ele>1475.6</ele>
        <time>2013-06-16T12:24:38Z</time>
        <sat>6</sat>
      </trkpt>
      <trkpt lat="46.394495" lon="7.100780">
        <ele>1476.0</ele>
        <time>2013-06-16T12:24:41Z</time>
        <sat>6</sat>
      </trkpt>
      <trkpt lat="46.394508" lon="7.100885">
        <ele>1476.4</ele>
        <time>2013-06-16T12:24:44Z</time>
        <sat>6</sat>
      </trkpt>
      <trkpt lat="46.394527" lon="7.100983">
        <ele>1477.0</ele>
        <time>2013-06-16T12:24:47Z</time>
        <sat>6</sat>
      </trkpt>
      <trkpt lat="46.394545" lon="7.101082">
        <ele>1477.5</ele>
        <time>2013-06-16T12:24:50Z</time>
        <sat>6</sat>
      </trkpt>
      <trkpt lat="46.394572" lon="7.101198">
        <ele>1477.3</ele>
        <time>2013-06-16T12:24:53Z</time>
        <sat>6</sat>
      </trkpt>
      <trkpt lat="46.394587" lon="7.101283">
        <ele>1477.0</ele>
        <time>2013-06-16T12:24:55Z</time>
        <sat>6</sat>
      </trkpt>
      <trkpt lat="46.394613" lon="7.101402">
        <ele>1477.4</ele>
        <time>2013-06-16T12:24:58Z</time>
        <sat>6</sat>
      </trkpt>
      <trkpt lat="46.394643" lon="7.101508">
        <ele>1478.2</ele>
        <time>2013-06-16T12:25:01Z</time>
        <sat>6</sat>
      </trkpt>
      <trkpt lat="46.394688" lon="7.101605">
        <ele>1478.3</ele>
        <time>2013-06-16T12:25:05Z</time>
        <sat>6</sat>
      </trkpt>
      <trkpt lat="46.394735" lon="7.101702">
        <ele>1480.5</ele>
        <time>2013-06-16T12:25:10Z</time>
        <sat>6</sat>
      </trkpt>
      <trkpt lat="46.394778" lon="7.101780">
        <ele>1480.0</ele>
        <time>2013-06-16T12:25:13Z</time>
        <sat>6</sat>
      </trkpt>
      <trkpt lat="46.394830" lon="7.101855">
        <ele>1480.0</ele>
        <time>2013-06-16T12:25:16Z</time>
        <sat>6</sat>
      </trkpt>
      <trkpt lat="46.394848" lon="7.101878">
        <ele>1480.3</ele>
        <time>2013-06-16T12:25:17Z</time>
        <sat>6</sat>
      </trkpt>
      <trkpt lat="46.394943" lon="7.101998">
        <ele>1479.5</ele>
        <time>2013-06-16T12:25:22Z</time>
        <sat>6</sat>
      </trkpt>
      <trkpt lat="46.395010" lon="7.102077">
        <ele>1480.3</ele>
        <time>2013-06-16T12:25:25Z</time>
        <sat>6</sat>
      </trkpt>
      <trkpt lat="46.395080" lon="7.102140">
        <ele>1481.2</ele>
        <time>2013-06-16T12:25:28Z</time>
        <sat>6</sat>
      </trkpt>
      <trkpt lat="46.395145" lon="7.102193">
        <ele>1481.2</ele>
        <time>2013-06-16T12:25:31Z</time>
        <sat>6</sat>
      </trkpt>
      <trkpt lat="46.395222" lon="7.102232">
        <ele>1482.6</ele>
        <time>2013-06-16T12:25:34Z</time>
        <sat>6</sat>
      </trkpt>
      <trkpt lat="46.395307" lon="7.102250">
        <ele>1482.3</ele>
        <time>2013-06-16T12:25:37Z</time>
        <sat>6</sat>
      </trkpt>
      <trkpt lat="46.395390" lon="7.102273">
        <ele>1482.6</ele>
        <time>2013-06-16T12:25:40Z</time>
        <sat>6</sat>
      </trkpt>
      <trkpt lat="46.395472" lon="7.102292">
        <ele>1483.0</ele>
        <time>2013-06-16T12:25:43Z</time>
        <sat>6</sat>
      </trkpt>
      <trkpt lat="46.395558" lon="7.102305">
        <ele>1482.9</ele>
        <time>2013-06-16T12:25:46Z</time>
        <sat>6</sat>
      </trkpt>
      <trkpt lat="46.395618" lon="7.102313">
        <ele>1483.0</ele>
        <time>2013-06-16T12:25:48Z</time>
        <sat>6</sat>
      </trkpt>
      <trkpt lat="46.395678" lon="7.102315">
        <ele>1483.4</ele>
        <time>2013-06-16T12:25:50Z</time>
        <sat>6</sat>
      </trkpt>
      <trkpt lat="46.395740" lon="7.102307">
        <ele>1483.7</ele>
        <time>2013-06-16T12:25:52Z</time>
        <sat>6</sat>
      </trkpt>
      <trkpt lat="46.395802" lon="7.102295">
        <ele>1484.0</ele>
        <time>2013-06-16T12:25:54Z</time>
        <sat>6</sat>
      </trkpt>
      <trkpt lat="46.395862" lon="7.102278">
        <ele>1484.1</ele>
        <time>2013-06-16T12:25:56Z</time>
        <sat>6</sat>
      </trkpt>
      <trkpt lat="46.395922" lon="7.102262">
        <ele>1484.2</ele>
        <time>2013-06-16T12:25:58Z</time>
        <sat>6</sat>
      </trkpt>
      <trkpt lat="46.395982" lon="7.102240">
        <ele>1484.4</ele>
        <time>2013-06-16T12:26:00Z</time>
        <sat>6</sat>
      </trkpt>
      <trkpt lat="46.396038" lon="7.102208">
        <ele>1484.6</ele>
        <time>2013-06-16T12:26:02Z</time>
        <sat>6</sat>
      </trkpt>
      <trkpt lat="46.396093" lon="7.102168">
        <ele>1484.8</ele>
        <time>2013-06-16T12:26:04Z</time>
        <sat>6</sat>
      </trkpt>
      <trkpt lat="46.396152" lon="7.102132">
        <ele>1485.1</ele>
        <time>2013-06-16T12:26:06Z</time>
        <sat>6</sat>
      </trkpt>
      <trkpt lat="46.396217" lon="7.102097">
        <ele>1484.8</ele>
        <time>2013-06-16T12:26:08Z</time>
        <sat>6</sat>
      </trkpt>
      <trkpt lat="46.396283" lon="7.102060">
        <ele>1484.9</ele>
        <time>2013-06-16T12:26:10Z</time>
        <sat>6</sat>
      </trkpt>
      <trkpt lat="46.396353" lon="7.102027">
        <ele>1485.4</ele>
        <time>2013-06-16T12:26:12Z</time>
        <sat>6</sat>
      </trkpt>
      <trkpt lat="46.396423" lon="7.101988">
        <ele>1485.7</ele>
        <time>2013-06-16T12:26:14Z</time>
        <sat>6</sat>
      </trkpt>
      <trkpt lat="46.396497" lon="7.101947">
        <ele>1485.4</ele>
        <time>2013-06-16T12:26:16Z</time>
        <sat>6</sat>
      </trkpt>
      <trkpt lat="46.396572" lon="7.101898">
        <ele>1485.9</ele>
        <time>2013-06-16T12:26:18Z</time>
        <sat>5</sat>
      </trkpt>
      <trkpt lat="46.396612" lon="7.101877">
        <ele>1486.1</ele>
        <time>2013-06-16T12:26:19Z</time>
        <sat>5</sat>
      </trkpt>
      <trkpt lat="46.396727" lon="7.101813">
        <ele>1486.9</ele>
        <time>2013-06-16T12:26:22Z</time>
        <sat>5</sat>
      </trkpt>
      <trkpt lat="46.396805" lon="7.101772">
        <ele>1486.3</ele>
        <time>2013-06-16T12:26:24Z</time>
        <sat>5</sat>
      </trkpt>
      <trkpt lat="46.396885" lon="7.101725">
        <ele>1485.5</ele>
        <time>2013-06-16T12:26:26Z</time>
        <sat>5</sat>
      </trkpt>
      <trkpt lat="46.396968" lon="7.101682">
        <ele>1485.8</ele>
        <time>2013-06-16T12:26:28Z</time>
        <sat>5</sat>
      </trkpt>
      <trkpt lat="46.397052" lon="7.101635">
        <ele>1486.0</ele>
        <time>2013-06-16T12:26:30Z</time>
        <sat>5</sat>
      </trkpt>
      <trkpt lat="46.397095" lon="7.101613">
        <ele>1485.9</ele>
        <time>2013-06-16T12:26:31Z</time>
        <sat>5</sat>
      </trkpt>
      <trkpt lat="46.397140" lon="7.101592">
        <ele>1485.7</ele>
        <time>2013-06-16T12:26:32Z</time>
        <sat>5</sat>
      </trkpt>
      <trkpt lat="46.397185" lon="7.101575">
        <ele>1485.6</ele>
        <time>2013-06-16T12:26:33Z</time>
        <sat>5</sat>
      </trkpt>
      <trkpt lat="46.397232" lon="7.101560">
        <ele>1486.0</ele>
        <time>2013-06-16T12:26:34Z</time>
        <sat>5</sat>
      </trkpt>
      <trkpt lat="46.397277" lon="7.101548">
        <ele>1486.2</ele>
        <time>2013-06-16T12:26:35Z</time>
        <sat>5</sat>
      </trkpt>
      <trkpt lat="46.397323" lon="7.101538">
        <ele>1486.0</ele>
        <time>2013-06-16T12:26:36Z</time>
        <sat>5</sat>
      </trkpt>
      <trkpt lat="46.397372" lon="7.101533">
        <ele>1485.8</ele>
        <time>2013-06-16T12:26:37Z</time>
        <sat>5</sat>
      </trkpt>
      <trkpt lat="46.397422" lon="7.101532">
        <ele>1485.7</ele>
        <time>2013-06-16T12:26:38Z</time>
        <sat>5</sat>
      </trkpt>
      <trkpt lat="46.397472" lon="7.101532">
        <ele>1485.4</ele>
        <time>2013-06-16T12:26:39Z</time>
        <sat>5</sat>
      </trkpt>
      <trkpt lat="46.397518" lon="7.101540">
        <ele>1485.2</ele>
        <time>2013-06-16T12:26:40Z</time>
        <sat>5</sat>
      </trkpt>
      <trkpt lat="46.397567" lon="7.101553">
        <ele>1485.5</ele>
        <time>2013-06-16T12:26:41Z</time>
        <sat>5</sat>
      </trkpt>
      <trkpt lat="46.397613" lon="7.101570">
        <ele>1485.7</ele>
        <time>2013-06-16T12:26:42Z</time>
        <sat>5</sat>
      </trkpt>
      <trkpt lat="46.397660" lon="7.101592">
        <ele>1485.6</ele>
        <time>2013-06-16T12:26:43Z</time>
        <sat>5</sat>
      </trkpt>
      <trkpt lat="46.397708" lon="7.101617">
        <ele>1485.6</ele>
        <time>2013-06-16T12:26:44Z</time>
        <sat>5</sat>
      </trkpt>
      <trkpt lat="46.397757" lon="7.101647">
        <ele>1485.5</ele>
        <time>2013-06-16T12:26:45Z</time>
        <sat>5</sat>
      </trkpt>
      <trkpt lat="46.397803" lon="7.101680">
        <ele>1486.0</ele>
        <time>2013-06-16T12:26:46Z</time>
        <sat>5</sat>
      </trkpt>
      <trkpt lat="46.397847" lon="7.101722">
        <ele>1486.4</ele>
        <time>2013-06-16T12:26:47Z</time>
        <sat>5</sat>
      </trkpt>
      <trkpt lat="46.397890" lon="7.101765">
        <ele>1486.4</ele>
        <time>2013-06-16T12:26:48Z</time>
        <sat>5</sat>
      </trkpt>
      <trkpt lat="46.397932" lon="7.101812">
        <ele>1486.4</ele>
        <time>2013-06-16T12:26:49Z</time>
        <sat>5</sat>
      </trkpt>
      <trkpt lat="46.397972" lon="7.101860">
        <ele>1486.5</ele>
        <time>2013-06-16T12:26:50Z</time>
        <sat>5</sat>
      </trkpt>
      <trkpt lat="46.398010" lon="7.101905">
        <ele>1486.6</ele>
        <time>2013-06-16T12:26:51Z</time>
        <sat>5</sat>
      </trkpt>
      <trkpt lat="46.398048" lon="7.101952">
        <ele>1486.6</ele>
        <time>2013-06-16T12:26:52Z</time>
        <sat>5</sat>
      </trkpt>
      <trkpt lat="46.398088" lon="7.101995">
        <ele>1486.4</ele>
        <time>2013-06-16T12:26:53Z</time>
        <sat>5</sat>
      </trkpt>
      <trkpt lat="46.398127" lon="7.102038">
        <ele>1486.3</ele>
        <time>2013-06-16T12:26:54Z</time>
        <sat>5</sat>
      </trkpt>
      <trkpt lat="46.398167" lon="7.102082">
        <ele>1485.7</ele>
        <time>2013-06-16T12:26:55Z</time>
        <sat>5</sat>
      </trkpt>
      <trkpt lat="46.398203" lon="7.102127">
        <ele>1485.2</ele>
        <time>2013-06-16T12:26:56Z</time>
        <sat>5</sat>
      </trkpt>
      <trkpt lat="46.398243" lon="7.102168">
        <ele>1484.9</ele>
        <time>2013-06-16T12:26:57Z</time>
        <sat>5</sat>
      </trkpt>
      <trkpt lat="46.398285" lon="7.102208">
        <ele>1485.3</ele>
        <time>2013-06-16T12:26:58Z</time>
        <sat>5</sat>
      </trkpt>
      <trkpt lat="46.398327" lon="7.102252">
        <ele>1485.7</ele>
        <time>2013-06-16T12:26:59Z</time>
        <sat>5</sat>
      </trkpt>
      <trkpt lat="46.398372" lon="7.102293">
        <ele>1485.6</ele>
        <time>2013-06-16T12:27:00Z</time>
        <sat>5</sat>
      </trkpt>
      <trkpt lat="46.398417" lon="7.102333">
        <ele>1485.6</ele>
        <time>2013-06-16T12:27:01Z</time>
        <sat>6</sat>
      </trkpt>
      <trkpt lat="46.398460" lon="7.102375">
        <ele>1485.2</ele>
        <time>2013-06-16T12:27:02Z</time>
        <sat>6</sat>
      </trkpt>
      <trkpt lat="46.398505" lon="7.102413">
        <ele>1485.0</ele>
        <time>2013-06-16T12:27:03Z</time>
        <sat>6</sat>
      </trkpt>
      <trkpt lat="46.398550" lon="7.102448">
        <ele>1484.8</ele>
        <time>2013-06-16T12:27:04Z</time>
        <sat>6</sat>
      </trkpt>
      <trkpt lat="46.398595" lon="7.102473">
        <ele>1485.0</ele>
        <time>2013-06-16T12:27:05Z</time>
        <sat>6</sat>
      </trkpt>
      <trkpt lat="46.398642" lon="7.102498">
        <ele>1485.1</ele>
        <time>2013-06-16T12:27:06Z</time>
        <sat>6</sat>
      </trkpt>
      <trkpt lat="46.398687" lon="7.102525">
        <ele>1485.0</ele>
        <time>2013-06-16T12:27:07Z</time>
        <sat>6</sat>
      </trkpt>
      <trkpt lat="46.398732" lon="7.102548">
        <ele>1484.9</ele>
        <time>2013-06-16T12:27:08Z</time>
        <sat>6</sat>
      </trkpt>
      <trkpt lat="46.398778" lon="7.102570">
        <ele>1485.2</ele>
        <time>2013-06-16T12:27:09Z</time>
        <sat>6</sat>
      </trkpt>
      <trkpt lat="46.398825" lon="7.102595">
        <ele>1485.5</ele>
        <time>2013-06-16T12:27:10Z</time>
        <sat>6</sat>
      </trkpt>
      <trkpt lat="46.398872" lon="7.102620">
        <ele>1485.7</ele>
        <time>2013-06-16T12:27:11Z</time>
        <sat>6</sat>
      </trkpt>
      <trkpt lat="46.398920" lon="7.102645">
        <ele>1485.4</ele>
        <time>2013-06-16T12:27:12Z</time>
        <sat>6</sat>
      </trkpt>
      <trkpt lat="46.398968" lon="7.102670">
        <ele>1485.2</ele>
        <time>2013-06-16T12:27:13Z</time>
        <sat>6</sat>
      </trkpt>
      <trkpt lat="46.399017" lon="7.102695">
        <ele>1485.2</ele>
        <time>2013-06-16T12:27:14Z</time>
        <sat>6</sat>
      </trkpt>
      <trkpt lat="46.399068" lon="7.102717">
        <ele>1485.3</ele>
        <time>2013-06-16T12:27:15Z</time>
        <sat>6</sat>
      </trkpt>
      <trkpt lat="46.399120" lon="7.102732">
        <ele>1485.4</ele>
        <time>2013-06-16T12:27:16Z</time>
        <sat>6</sat>
      </trkpt>
      <trkpt lat="46.399175" lon="7.102740">
        <ele>1485.5</ele>
        <time>2013-06-16T12:27:17Z</time>
        <sat>6</sat>
      </trkpt>
      <trkpt lat="46.399230" lon="7.102743">
        <ele>1485.6</ele>
        <time>2013-06-16T12:27:18Z</time>
        <sat>6</sat>
      </trkpt>
      <trkpt lat="46.399285" lon="7.102738">
        <ele>1485.6</ele>
        <time>2013-06-16T12:27:19Z</time>
        <sat>6</sat>
      </trkpt>
      <trkpt lat="46.399342" lon="7.102727">
        <ele>1485.5</ele>
        <time>2013-06-16T12:27:20Z</time>
        <sat>6</sat>
      </trkpt>
      <trkpt lat="46.399398" lon="7.102708">
        <ele>1485.2</ele>
        <time>2013-06-16T12:27:21Z</time>
        <sat>6</sat>
      </trkpt>
      <trkpt lat="46.399455" lon="7.102685">
        <ele>1484.9</ele>
        <time>2013-06-16T12:27:22Z</time>
        <sat>6</sat>
      </trkpt>
      <trkpt lat="46.399513" lon="7.102653">
        <ele>1484.7</ele>
        <time>2013-06-16T12:27:23Z</time>
        <sat>6</sat>
      </trkpt>
      <trkpt lat="46.399573" lon="7.102618">
        <ele>1484.9</ele>
        <time>2013-06-16T12:27:24Z</time>
        <sat>6</sat>
      </trkpt>
      <trkpt lat="46.399635" lon="7.102582">
        <ele>1485.0</ele>
        <time>2013-06-16T12:27:25Z</time>
        <sat>6</sat>
      </trkpt>
      <trkpt lat="46.399700" lon="7.102552">
        <ele>1484.7</ele>
        <time>2013-06-16T12:27:26Z</time>
        <sat>6</sat>
      </trkpt>
      <trkpt lat="46.399768" lon="7.102523">
        <ele>1484.4</ele>
        <time>2013-06-16T12:27:27Z</time>
        <sat>6</sat>
      </trkpt>
      <trkpt lat="46.399837" lon="7.102510">
        <ele>1485.0</ele>
        <time>2013-06-16T12:27:28Z</time>
        <sat>6</sat>
      </trkpt>
      <trkpt lat="46.399908" lon="7.102502">
        <ele>1485.4</ele>
        <time>2013-06-16T12:27:29Z</time>
        <sat>6</sat>
      </trkpt>
      <trkpt lat="46.399980" lon="7.102497">
        <ele>1485.7</ele>
        <time>2013-06-16T12:27:30Z</time>
        <sat>6</sat>
      </trkpt>
      <trkpt lat="46.400055" lon="7.102503">
        <ele>1485.0</ele>
        <time>2013-06-16T12:27:31Z</time>
        <sat>6</sat>
      </trkpt>
      <trkpt lat="46.400130" lon="7.102513">
        <ele>1484.5</ele>
        <time>2013-06-16T12:27:32Z</time>
        <sat>6</sat>
      </trkpt>
      <trkpt lat="46.400208" lon="7.102520">
        <ele>1484.5</ele>
        <time>2013-06-16T12:27:33Z</time>
        <sat>6</sat>
      </trkpt>
      <trkpt lat="46.400288" lon="7.102525">
        <ele>1484.5</ele>
        <time>2013-06-16T12:27:34Z</time>
        <sat>6</sat>
      </trkpt>
      <trkpt lat="46.400368" lon="7.102533">
        <ele>1484.5</ele>
        <time>2013-06-16T12:27:35Z</time>
        <sat>6</sat>
      </trkpt>
      <trkpt lat="46.400450" lon="7.102540">
        <ele>1484.0</ele>
        <time>2013-06-16T12:27:36Z</time>
        <sat>6</sat>
      </trkpt>
      <trkpt lat="46.400530" lon="7.102548">
        <ele>1483.7</ele>
        <time>2013-06-16T12:27:37Z</time>
        <sat>6</sat>
      </trkpt>
      <trkpt lat="46.400610" lon="7.102553">
        <ele>1483.2</ele>
        <time>2013-06-16T12:27:38Z</time>
        <sat>6</sat>
      </trkpt>
      <trkpt lat="46.400692" lon="7.102563">
        <ele>1482.9</ele>
        <time>2013-06-16T12:27:39Z</time>
        <sat>6</sat>
      </trkpt>
      <trkpt lat="46.400777" lon="7.102590">
        <ele>1482.7</ele>
        <time>2013-06-16T12:27:40Z</time>
        <sat>6</sat>
      </trkpt>
      <trkpt lat="46.400858" lon="7.102627">
        <ele>1482.5</ele>
        <time>2013-06-16T12:27:41Z</time>
        <sat>6</sat>
      </trkpt>
      <trkpt lat="46.400937" lon="7.102675">
        <ele>1482.4</ele>
        <time>2013-06-16T12:27:42Z</time>
        <sat>6</sat>
      </trkpt>
      <trkpt lat="46.401017" lon="7.102725">
        <ele>1482.3</ele>
        <time>2013-06-16T12:27:43Z</time>
        <sat>6</sat>
      </trkpt>
      <trkpt lat="46.401093" lon="7.102780">
        <ele>1482.2</ele>
        <time>2013-06-16T12:27:44Z</time>
        <sat>6</sat>
      </trkpt>
      <trkpt lat="46.401170" lon="7.102830">
        <ele>1481.8</ele>
        <time>2013-06-16T12:27:45Z</time>
        <sat>6</sat>
      </trkpt>
      <trkpt lat="46.401252" lon="7.102870">
        <ele>1481.5</ele>
        <time>2013-06-16T12:27:46Z</time>
        <sat>6</sat>
      </trkpt>
      <trkpt lat="46.401335" lon="7.102897">
        <ele>1481.3</ele>
        <time>2013-06-16T12:27:47Z</time>
        <sat>6</sat>
      </trkpt>
      <trkpt lat="46.401420" lon="7.102900">
        <ele>1481.1</ele>
        <time>2013-06-16T12:27:48Z</time>
        <sat>6</sat>
      </trkpt>
      <trkpt lat="46.401507" lon="7.102885">
        <ele>1480.9</ele>
        <time>2013-06-16T12:27:49Z</time>
        <sat>6</sat>
      </trkpt>
      <trkpt lat="46.401590" lon="7.102852">
        <ele>1480.6</ele>
        <time>2013-06-16T12:27:50Z</time>
        <sat>6</sat>
      </trkpt>
      <trkpt lat="46.401667" lon="7.102800">
        <ele>1480.3</ele>
        <time>2013-06-16T12:27:51Z</time>
        <sat>6</sat>
      </trkpt>
      <trkpt lat="46.401738" lon="7.102733">
        <ele>1480.2</ele>
        <time>2013-06-16T12:27:52Z</time>
        <sat>6</sat>
      </trkpt>
      <trkpt lat="46.401803" lon="7.102657">
        <ele>1480.0</ele>
        <time>2013-06-16T12:27:53Z</time>
        <sat>6</sat>
      </trkpt>
      <trkpt lat="46.401867" lon="7.102573">
        <ele>1479.9</ele>
        <time>2013-06-16T12:27:54Z</time>
        <sat>6</sat>
      </trkpt>
      <trkpt lat="46.401933" lon="7.102493">
        <ele>1479.6</ele>
        <time>2013-06-16T12:27:55Z</time>
        <sat>6</sat>
      </trkpt>
      <trkpt lat="46.402005" lon="7.102423">
        <ele>1479.4</ele>
        <time>2013-06-16T12:27:56Z</time>
        <sat>6</sat>
      </trkpt>
      <trkpt lat="46.402080" lon="7.102362">
        <ele>1478.8</ele>
        <time>2013-06-16T12:27:57Z</time>
        <sat>6</sat>
      </trkpt>
      <trkpt lat="46.402160" lon="7.102312">
        <ele>1478.3</ele>
        <time>2013-06-16T12:27:58Z</time>
        <sat>6</sat>
      </trkpt>
      <trkpt lat="46.402245" lon="7.102277">
        <ele>1477.7</ele>
        <time>2013-06-16T12:27:59Z</time>
        <sat>6</sat>
      </trkpt>
      <trkpt lat="46.402332" lon="7.102257">
        <ele>1477.3</ele>
        <time>2013-06-16T12:28:00Z</time>
        <sat>6</sat>
      </trkpt>
      <trkpt lat="46.402418" lon="7.102253">
        <ele>1477.0</ele>
        <time>2013-06-16T12:28:01Z</time>
        <sat>6</sat>
      </trkpt>
      <trkpt lat="46.402505" lon="7.102262">
        <ele>1477.0</ele>
        <time>2013-06-16T12:28:02Z</time>
        <sat>6</sat>
      </trkpt>
      <trkpt lat="46.402592" lon="7.102270">
        <ele>1477.1</ele>
        <time>2013-06-16T12:28:03Z</time>
        <sat>6</sat>
      </trkpt>
      <trkpt lat="46.402678" lon="7.102280">
        <ele>1477.3</ele>
        <time>2013-06-16T12:28:04Z</time>
        <sat>6</sat>
      </trkpt>
      <trkpt lat="46.402767" lon="7.102288">
        <ele>1477.5</ele>
        <time>2013-06-16T12:28:05Z</time>
        <sat>6</sat>
      </trkpt>
      <trkpt lat="46.402853" lon="7.102302">
        <ele>1477.4</ele>
        <time>2013-06-16T12:28:06Z</time>
        <sat>6</sat>
      </trkpt>
      <trkpt lat="46.402940" lon="7.102317">
        <ele>1477.3</ele>
        <time>2013-06-16T12:28:07Z</time>
        <sat>6</sat>
      </trkpt>
      <trkpt lat="46.403028" lon="7.102333">
        <ele>1477.2</ele>
        <time>2013-06-16T12:28:08Z</time>
        <sat>6</sat>
      </trkpt>
      <trkpt lat="46.403113" lon="7.102358">
        <ele>1476.8</ele>
        <time>2013-06-16T12:28:09Z</time>
        <sat>6</sat>
      </trkpt>
      <trkpt lat="46.403195" lon="7.102395">
        <ele>1476.6</ele>
        <time>2013-06-16T12:28:10Z</time>
        <sat>6</sat>
      </trkpt>
      <trkpt lat="46.403275" lon="7.102445">
        <ele>1476.5</ele>
        <time>2013-06-16T12:28:11Z</time>
        <sat>6</sat>
      </trkpt>
      <trkpt lat="46.403353" lon="7.102503">
        <ele>1476.5</ele>
        <time>2013-06-16T12:28:12Z</time>
        <sat>6</sat>
      </trkpt>
      <trkpt lat="46.403430" lon="7.102565">
        <ele>1476.0</ele>
        <time>2013-06-16T12:28:13Z</time>
        <sat>6</sat>
      </trkpt>
      <trkpt lat="46.403507" lon="7.102627">
        <ele>1475.6</ele>
        <time>2013-06-16T12:28:14Z</time>
        <sat>6</sat>
      </trkpt>
      <trkpt lat="46.403587" lon="7.102678">
        <ele>1475.2</ele>
        <time>2013-06-16T12:28:15Z</time>
        <sat>6</sat>
      </trkpt>
      <trkpt lat="46.403672" lon="7.102722">
        <ele>1475.0</ele>
        <time>2013-06-16T12:28:16Z</time>
        <sat>6</sat>
      </trkpt>
      <trkpt lat="46.403758" lon="7.102755">
        <ele>1474.8</ele>
        <time>2013-06-16T12:28:17Z</time>
        <sat>6</sat>
      </trkpt>
      <trkpt lat="46.403850" lon="7.102777">
        <ele>1474.4</ele>
        <time>2013-06-16T12:28:18Z</time>
        <sat>6</sat>
      </trkpt>
      <trkpt lat="46.403942" lon="7.102793">
        <ele>1474.2</ele>
        <time>2013-06-16T12:28:19Z</time>
        <sat>6</sat>
      </trkpt>
      <trkpt lat="46.404037" lon="7.102807">
        <ele>1474.0</ele>
        <time>2013-06-16T12:28:20Z</time>
        <sat>6</sat>
      </trkpt>
      <trkpt lat="46.404133" lon="7.102812">
        <ele>1473.5</ele>
        <time>2013-06-16T12:28:21Z</time>
        <sat>6</sat>
      </trkpt>
      <trkpt lat="46.404232" lon="7.102813">
        <ele>1473.1</ele>
        <time>2013-06-16T12:28:22Z</time>
        <sat>6</sat>
      </trkpt>
      <trkpt lat="46.404333" lon="7.102818">
        <ele>1472.7</ele>
        <time>2013-06-16T12:28:23Z</time>
        <sat>6</sat>
      </trkpt>
      <trkpt lat="46.404437" lon="7.102823">
        <ele>1472.5</ele>
        <time>2013-06-16T12:28:24Z</time>
        <sat>6</sat>
      </trkpt>
      <trkpt lat="46.404542" lon="7.102828">
        <ele>1472.1</ele>
        <time>2013-06-16T12:28:25Z</time>
        <sat>6</sat>
      </trkpt>
      <trkpt lat="46.404647" lon="7.102838">
        <ele>1471.8</ele>
        <time>2013-06-16T12:28:26Z</time>
        <sat>6</sat>
      </trkpt>
      <trkpt lat="46.404750" lon="7.102862">
        <ele>1471.5</ele>
        <time>2013-06-16T12:28:27Z</time>
        <sat>6</sat>
      </trkpt>
      <trkpt lat="46.404855" lon="7.102902">
        <ele>1471.2</ele>
        <time>2013-06-16T12:28:28Z</time>
        <sat>6</sat>
      </trkpt>
      <trkpt lat="46.404957" lon="7.102960">
        <ele>1471.0</ele>
        <time>2013-06-16T12:28:29Z</time>
        <sat>6</sat>
      </trkpt>
      <trkpt lat="46.405052" lon="7.103045">
        <ele>1470.1</ele>
        <time>2013-06-16T12:28:30Z</time>
        <sat>6</sat>
      </trkpt>
      <trkpt lat="46.405132" lon="7.103157">
        <ele>1469.4</ele>
        <time>2013-06-16T12:28:31Z</time>
        <sat>6</sat>
      </trkpt>
      <trkpt lat="46.405195" lon="7.103290">
        <ele>1468.7</ele>
        <time>2013-06-16T12:28:32Z</time>
        <sat>6</sat>
      </trkpt>
      <trkpt lat="46.405243" lon="7.103433">
        <ele>1468.2</ele>
        <time>2013-06-16T12:28:33Z</time>
        <sat>6</sat>
      </trkpt>
      <trkpt lat="46.405292" lon="7.103577">
        <ele>1467.8</ele>
        <time>2013-06-16T12:28:34Z</time>
        <sat>6</sat>
      </trkpt>
      <trkpt lat="46.405350" lon="7.103712">
        <ele>1467.5</ele>
        <time>2013-06-16T12:28:35Z</time>
        <sat>6</sat>
      </trkpt>
      <trkpt lat="46.405422" lon="7.103833">
        <ele>1467.2</ele>
        <time>2013-06-16T12:28:36Z</time>
        <sat>6</sat>
      </trkpt>
      <trkpt lat="46.405512" lon="7.103932">
        <ele>1466.2</ele>
        <time>2013-06-16T12:28:37Z</time>
        <sat>6</sat>
      </trkpt>
      <trkpt lat="46.405612" lon="7.104007">
        <ele>1465.4</ele>
        <time>2013-06-16T12:28:38Z</time>
        <sat>6</sat>
      </trkpt>
      <trkpt lat="46.405718" lon="7.104070">
        <ele>1464.8</ele>
        <time>2013-06-16T12:28:39Z</time>
        <sat>6</sat>
      </trkpt>
      <trkpt lat="46.405825" lon="7.104130">
        <ele>1464.2</ele>
        <time>2013-06-16T12:28:40Z</time>
        <sat>6</sat>
      </trkpt>
      <trkpt lat="46.405928" lon="7.104203">
        <ele>1463.8</ele>
        <time>2013-06-16T12:28:41Z</time>
        <sat>6</sat>
      </trkpt>
      <trkpt lat="46.406022" lon="7.104307">
        <ele>1463.4</ele>
        <time>2013-06-16T12:28:42Z</time>
        <sat>6</sat>
      </trkpt>
      <trkpt lat="46.406098" lon="7.104437">
        <ele>1463.1</ele>
        <time>2013-06-16T12:28:43Z</time>
        <sat>6</sat>
      </trkpt>
      <trkpt lat="46.406153" lon="7.104583">
        <ele>1462.3</ele>
        <time>2013-06-16T12:28:44Z</time>
        <sat>6</sat>
      </trkpt>
      <trkpt lat="46.406185" lon="7.104735">
        <ele>1461.8</ele>
        <time>2013-06-16T12:28:45Z</time>
        <sat>6</sat>
      </trkpt>
      <trkpt lat="46.406218" lon="7.104877">
        <ele>1461.4</ele>
        <time>2013-06-16T12:28:46Z</time>
        <sat>6</sat>
      </trkpt>
      <trkpt lat="46.406270" lon="7.105000">
        <ele>1460.5</ele>
        <time>2013-06-16T12:28:47Z</time>
        <sat>6</sat>
      </trkpt>
      <trkpt lat="46.406350" lon="7.105090">
        <ele>1459.9</ele>
        <time>2013-06-16T12:28:48Z</time>
        <sat>6</sat>
      </trkpt>
      <trkpt lat="46.406448" lon="7.105137">
        <ele>1459.1</ele>
        <time>2013-06-16T12:28:49Z</time>
        <sat>6</sat>
      </trkpt>
      <trkpt lat="46.406553" lon="7.105127">
        <ele>1458.5</ele>
        <time>2013-06-16T12:28:50Z</time>
        <sat>6</sat>
      </trkpt>
      <trkpt lat="46.406652" lon="7.105062">
        <ele>1457.6</ele>
        <time>2013-06-16T12:28:51Z</time>
        <sat>6</sat>
      </trkpt>
      <trkpt lat="46.406740" lon="7.104967">
        <ele>1456.9</ele>
        <time>2013-06-16T12:28:52Z</time>
        <sat>6</sat>
      </trkpt>
      <trkpt lat="46.406828" lon="7.104862">
        <ele>1456.4</ele>
        <time>2013-06-16T12:28:53Z</time>
        <sat>6</sat>
      </trkpt>
      <trkpt lat="46.406927" lon="7.104767">
        <ele>1454.7</ele>
        <time>2013-06-16T12:28:54Z</time>
        <sat>6</sat>
      </trkpt>
      <trkpt lat="46.407037" lon="7.104693">
        <ele>1453.4</ele>
        <time>2013-06-16T12:28:55Z</time>
        <sat>6</sat>
      </trkpt>
      <trkpt lat="46.407157" lon="7.104650">
        <ele>1452.3</ele>
        <time>2013-06-16T12:28:56Z</time>
        <sat>6</sat>
      </trkpt>
      <trkpt lat="46.407282" lon="7.104643">
        <ele>1451.5</ele>
        <time>2013-06-16T12:28:57Z</time>
        <sat>6</sat>
      </trkpt>
      <trkpt lat="46.407408" lon="7.104658">
        <ele>1450.8</ele>
        <time>2013-06-16T12:28:58Z</time>
        <sat>6</sat>
      </trkpt>
      <trkpt lat="46.407537" lon="7.104673">
        <ele>1450.0</ele>
        <time>2013-06-16T12:28:59Z</time>
        <sat>6</sat>
      </trkpt>
      <trkpt lat="46.407665" lon="7.104685">
        <ele>1449.3</ele>
        <time>2013-06-16T12:29:00Z</time>
        <sat>6</sat>
      </trkpt>
      <trkpt lat="46.407792" lon="7.104692">
        <ele>1448.2</ele>
        <time>2013-06-16T12:29:01Z</time>
        <sat>6</sat>
      </trkpt>
      <trkpt lat="46.407922" lon="7.104683">
        <ele>1447.3</ele>
        <time>2013-06-16T12:29:02Z</time>
        <sat>6</sat>
      </trkpt>
      <trkpt lat="46.408050" lon="7.104652">
        <ele>1446.3</ele>
        <time>2013-06-16T12:29:03Z</time>
        <sat>6</sat>
      </trkpt>
      <trkpt lat="46.408180" lon="7.104598">
        <ele>1445.5</ele>
        <time>2013-06-16T12:29:04Z</time>
        <sat>6</sat>
      </trkpt>
      <trkpt lat="46.408308" lon="7.104538">
        <ele>1445.0</ele>
        <time>2013-06-16T12:29:05Z</time>
        <sat>6</sat>
      </trkpt>
      <trkpt lat="46.408435" lon="7.104462">
        <ele>1443.5</ele>
        <time>2013-06-16T12:29:06Z</time>
        <sat>6</sat>
      </trkpt>
      <trkpt lat="46.408562" lon="7.104375">
        <ele>1442.4</ele>
        <time>2013-06-16T12:29:07Z</time>
        <sat>6</sat>
      </trkpt>
      <trkpt lat="46.408687" lon="7.104282">
        <ele>1441.3</ele>
        <time>2013-06-16T12:29:08Z</time>
        <sat>6</sat>
      </trkpt>
      <trkpt lat="46.408812" lon="7.104183">
        <ele>1440.4</ele>
        <time>2013-06-16T12:29:09Z</time>
        <sat>6</sat>
      </trkpt>
      <trkpt lat="46.408940" lon="7.104085">
        <ele>1438.9</ele>
        <time>2013-06-16T12:29:10Z</time>
        <sat>6</sat>
      </trkpt>
      <trkpt lat="46.409070" lon="7.103990">
        <ele>1437.7</ele>
        <time>2013-06-16T12:29:11Z</time>
        <sat>6</sat>
      </trkpt>
      <trkpt lat="46.409202" lon="7.103902">
        <ele>1436.8</ele>
        <time>2013-06-16T12:29:12Z</time>
        <sat>6</sat>
      </trkpt>
      <trkpt lat="46.409337" lon="7.103828">
        <ele>1435.7</ele>
        <time>2013-06-16T12:29:13Z</time>
        <sat>6</sat>
      </trkpt>
      <trkpt lat="46.409473" lon="7.103768">
        <ele>1434.8</ele>
        <time>2013-06-16T12:29:14Z</time>
        <sat>6</sat>
      </trkpt>
      <trkpt lat="46.409610" lon="7.103722">
        <ele>1434.1</ele>
        <time>2013-06-16T12:29:15Z</time>
        <sat>6</sat>
      </trkpt>
      <trkpt lat="46.409747" lon="7.103687">
        <ele>1433.5</ele>
        <time>2013-06-16T12:29:16Z</time>
        <sat>6</sat>
      </trkpt>
      <trkpt lat="46.409883" lon="7.103667">
        <ele>1433.1</ele>
        <time>2013-06-16T12:29:17Z</time>
        <sat>6</sat>
      </trkpt>
      <trkpt lat="46.410018" lon="7.103657">
        <ele>1432.2</ele>
        <time>2013-06-16T12:29:18Z</time>
        <sat>6</sat>
      </trkpt>
      <trkpt lat="46.410150" lon="7.103652">
        <ele>1431.5</ele>
        <time>2013-06-16T12:29:19Z</time>
        <sat>6</sat>
      </trkpt>
      <trkpt lat="46.410278" lon="7.103647">
        <ele>1430.9</ele>
        <time>2013-06-16T12:29:20Z</time>
        <sat>6</sat>
      </trkpt>
      <trkpt lat="46.410408" lon="7.103643">
        <ele>1430.4</ele>
        <time>2013-06-16T12:29:21Z</time>
        <sat>6</sat>
      </trkpt>
      <trkpt lat="46.410537" lon="7.103637">
        <ele>1429.9</ele>
        <time>2013-06-16T12:29:22Z</time>
        <sat>6</sat>
      </trkpt>
      <trkpt lat="46.410667" lon="7.103630">
        <ele>1429.4</ele>
        <time>2013-06-16T12:29:23Z</time>
        <sat>6</sat>
      </trkpt>
      <trkpt lat="46.410793" lon="7.103622">
        <ele>1429.1</ele>
        <time>2013-06-16T12:29:24Z</time>
        <sat>6</sat>
      </trkpt>
      <trkpt lat="46.410922" lon="7.103622">
        <ele>1428.3</ele>
        <time>2013-06-16T12:29:25Z</time>
        <sat>6</sat>
      </trkpt>
      <trkpt lat="46.411047" lon="7.103618">
        <ele>1427.6</ele>
        <time>2013-06-16T12:29:26Z</time>
        <sat>6</sat>
      </trkpt>
      <trkpt lat="46.411172" lon="7.103617">
        <ele>1426.6</ele>
        <time>2013-06-16T12:29:27Z</time>
        <sat>6</sat>
      </trkpt>
      <trkpt lat="46.411297" lon="7.103620">
        <ele>1425.8</ele>
        <time>2013-06-16T12:29:28Z</time>
        <sat>6</sat>
      </trkpt>
      <trkpt lat="46.411420" lon="7.103635">
        <ele>1425.3</ele>
        <time>2013-06-16T12:29:29Z</time>
        <sat>6</sat>
      </trkpt>
      <trkpt lat="46.411537" lon="7.103665">
        <ele>1424.9</ele>
        <time>2013-06-16T12:29:30Z</time>
        <sat>6</sat>
      </trkpt>
      <trkpt lat="46.411647" lon="7.103702">
        <ele>1424.6</ele>
        <time>2013-06-16T12:29:31Z</time>
        <sat>6</sat>
      </trkpt>
      <trkpt lat="46.411762" lon="7.103753">
        <ele>1424.3</ele>
        <time>2013-06-16T12:29:32Z</time>
        <sat>6</sat>
      </trkpt>
      <trkpt lat="46.411867" lon="7.103807">
        <ele>1424.1</ele>
        <time>2013-06-16T12:29:33Z</time>
        <sat>6</sat>
      </trkpt>
      <trkpt lat="46.411973" lon="7.103848">
        <ele>1424.0</ele>
        <time>2013-06-16T12:29:34Z</time>
        <sat>6</sat>
      </trkpt>
      <trkpt lat="46.412088" lon="7.103875">
        <ele>1423.9</ele>
        <time>2013-06-16T12:29:35Z</time>
        <sat>6</sat>
      </trkpt>
      <trkpt lat="46.412202" lon="7.103887">
        <ele>1423.9</ele>
        <time>2013-06-16T12:29:36Z</time>
        <sat>6</sat>
      </trkpt>
      <trkpt lat="46.412315" lon="7.103883">
        <ele>1423.4</ele>
        <time>2013-06-16T12:29:37Z</time>
        <sat>6</sat>
      </trkpt>
      <trkpt lat="46.412428" lon="7.103865">
        <ele>1423.1</ele>
        <time>2013-06-16T12:29:38Z</time>
        <sat>6</sat>
      </trkpt>
      <trkpt lat="46.412542" lon="7.103845">
        <ele>1422.2</ele>
        <time>2013-06-16T12:29:39Z</time>
        <sat>6</sat>
      </trkpt>
      <trkpt lat="46.412657" lon="7.103822">
        <ele>1421.6</ele>
        <time>2013-06-16T12:29:40Z</time>
        <sat>6</sat>
      </trkpt>
      <trkpt lat="46.412772" lon="7.103798">
        <ele>1421.2</ele>
        <time>2013-06-16T12:29:41Z</time>
        <sat>6</sat>
      </trkpt>
      <trkpt lat="46.412887" lon="7.103782">
        <ele>1420.8</ele>
        <time>2013-06-16T12:29:42Z</time>
        <sat>6</sat>
      </trkpt>
      <trkpt lat="46.413003" lon="7.103772">
        <ele>1420.6</ele>
        <time>2013-06-16T12:29:43Z</time>
        <sat>6</sat>
      </trkpt>
      <trkpt lat="46.413118" lon="7.103772">
        <ele>1419.6</ele>
        <time>2013-06-16T12:29:44Z</time>
        <sat>6</sat>
      </trkpt>
      <trkpt lat="46.413233" lon="7.103787">
        <ele>1418.8</ele>
        <time>2013-06-16T12:29:45Z</time>
        <sat>6</sat>
      </trkpt>
      <trkpt lat="46.413342" lon="7.103820">
        <ele>1418.9</ele>
        <time>2013-06-16T12:29:46Z</time>
        <sat>6</sat>
      </trkpt>
      <trkpt lat="46.413447" lon="7.103862">
        <ele>1419.0</ele>
        <time>2013-06-16T12:29:47Z</time>
        <sat>5</sat>
      </trkpt>
      <trkpt lat="46.413543" lon="7.103915">
        <ele>1417.9</ele>
        <time>2013-06-16T12:29:48Z</time>
        <sat>6</sat>
      </trkpt>
      <trkpt lat="46.413642" lon="7.103973">
        <ele>1417.1</ele>
        <time>2013-06-16T12:29:49Z</time>
        <sat>6</sat>
      </trkpt>
      <trkpt lat="46.413738" lon="7.104038">
        <ele>1416.5</ele>
        <time>2013-06-16T12:29:50Z</time>
        <sat>6</sat>
      </trkpt>
      <trkpt lat="46.413832" lon="7.104107">
        <ele>1416.3</ele>
        <time>2013-06-16T12:29:51Z</time>
        <sat>6</sat>
      </trkpt>
      <trkpt lat="46.413922" lon="7.104178">
        <ele>1416.1</ele>
        <time>2013-06-16T12:29:52Z</time>
        <sat>6</sat>
      </trkpt>
      <trkpt lat="46.414010" lon="7.104253">
        <ele>1415.8</ele>
        <time>2013-06-16T12:29:53Z</time>
        <sat>6</sat>
      </trkpt>
      <trkpt lat="46.414100" lon="7.104325">
        <ele>1415.5</ele>
        <time>2013-06-16T12:29:54Z</time>
        <sat>6</sat>
      </trkpt>
      <trkpt lat="46.414190" lon="7.104397">
        <ele>1415.3</ele>
        <time>2013-06-16T12:29:55Z</time>
        <sat>6</sat>
      </trkpt>
      <trkpt lat="46.414278" lon="7.104470">
        <ele>1415.4</ele>
        <time>2013-06-16T12:29:56Z</time>
        <sat>6</sat>
      </trkpt>
      <trkpt lat="46.414367" lon="7.104540">
        <ele>1415.5</ele>
        <time>2013-06-16T12:29:57Z</time>
        <sat>6</sat>
      </trkpt>
      <trkpt lat="46.414453" lon="7.104610">
        <ele>1415.2</ele>
        <time>2013-06-16T12:29:58Z</time>
        <sat>6</sat>
      </trkpt>
      <trkpt lat="46.414542" lon="7.104678">
        <ele>1415.1</ele>
        <time>2013-06-16T12:29:59Z</time>
        <sat>6</sat>
      </trkpt>
      <trkpt lat="46.414630" lon="7.104747">
        <ele>1415.8</ele>
        <time>2013-06-16T12:30:00Z</time>
        <sat>6</sat>
      </trkpt>
      <trkpt lat="46.414718" lon="7.104812">
        <ele>1416.3</ele>
        <time>2013-06-16T12:30:01Z</time>
        <sat>6</sat>
      </trkpt>
      <trkpt lat="46.414807" lon="7.104873">
        <ele>1416.6</ele>
        <time>2013-06-16T12:30:02Z</time>
        <sat>6</sat>
      </trkpt>
      <trkpt lat="46.414897" lon="7.104928">
        <ele>1416.4</ele>
        <time>2013-06-16T12:30:03Z</time>
        <sat>6</sat>
      </trkpt>
      <trkpt lat="46.414990" lon="7.104978">
        <ele>1416.2</ele>
        <time>2013-06-16T12:30:04Z</time>
        <sat>6</sat>
      </trkpt>
      <trkpt lat="46.415085" lon="7.105023">
        <ele>1415.8</ele>
        <time>2013-06-16T12:30:05Z</time>
        <sat>6</sat>
      </trkpt>
      <trkpt lat="46.415178" lon="7.105065">
        <ele>1415.5</ele>
        <time>2013-06-16T12:30:06Z</time>
        <sat>6</sat>
      </trkpt>
      <trkpt lat="46.415272" lon="7.105103">
        <ele>1415.4</ele>
        <time>2013-06-16T12:30:07Z</time>
        <sat>6</sat>
      </trkpt>
      <trkpt lat="46.415363" lon="7.105140">
        <ele>1415.3</ele>
        <time>2013-06-16T12:30:08Z</time>
        <sat>6</sat>
      </trkpt>
      <trkpt lat="46.415457" lon="7.105173">
        <ele>1415.3</ele>
        <time>2013-06-16T12:30:09Z</time>
        <sat>6</sat>
      </trkpt>
      <trkpt lat="46.415548" lon="7.105205">
        <ele>1415.2</ele>
        <time>2013-06-16T12:30:10Z</time>
        <sat>6</sat>
      </trkpt>
      <trkpt lat="46.415638" lon="7.105237">
        <ele>1415.2</ele>
        <time>2013-06-16T12:30:11Z</time>
        <sat>6</sat>
      </trkpt>
      <trkpt lat="46.415728" lon="7.105268">
        <ele>1414.9</ele>
        <time>2013-06-16T12:30:12Z</time>
        <sat>6</sat>
      </trkpt>
      <trkpt lat="46.415818" lon="7.105300">
        <ele>1414.6</ele>
        <time>2013-06-16T12:30:13Z</time>
        <sat>6</sat>
      </trkpt>
      <trkpt lat="46.415910" lon="7.105332">
        <ele>1414.4</ele>
        <time>2013-06-16T12:30:14Z</time>
        <sat>7</sat>
      </trkpt>
      <trkpt lat="46.416002" lon="7.105365">
        <ele>1414.7</ele>
        <time>2013-06-16T12:30:15Z</time>
        <sat>7</sat>
      </trkpt>
      <trkpt lat="46.416093" lon="7.105398">
        <ele>1414.8</ele>
        <time>2013-06-16T12:30:16Z</time>
        <sat>7</sat>
      </trkpt>
      <trkpt lat="46.416185" lon="7.105428">
        <ele>1414.9</ele>
        <time>2013-06-16T12:30:17Z</time>
        <sat>7</sat>
      </trkpt>
      <trkpt lat="46.416277" lon="7.105460">
        <ele>1414.9</ele>
        <time>2013-06-16T12:30:18Z</time>
        <sat>7</sat>
      </trkpt>
      <trkpt lat="46.416370" lon="7.105490">
        <ele>1415.1</ele>
        <time>2013-06-16T12:30:19Z</time>
        <sat>7</sat>
      </trkpt>
      <trkpt lat="46.416463" lon="7.105523">
        <ele>1415.2</ele>
        <time>2013-06-16T12:30:20Z</time>
        <sat>7</sat>
      </trkpt>
      <trkpt lat="46.416555" lon="7.105555">
        <ele>1415.3</ele>
        <time>2013-06-16T12:30:21Z</time>
        <sat>7</sat>
      </trkpt>
      <trkpt lat="46.416647" lon="7.105587">
        <ele>1415.2</ele>
        <time>2013-06-16T12:30:22Z</time>
        <sat>7</sat>
      </trkpt>
      <trkpt lat="46.416738" lon="7.105617">
        <ele>1415.1</ele>
        <time>2013-06-16T12:30:23Z</time>
        <sat>7</sat>
      </trkpt>
      <trkpt lat="46.416828" lon="7.105648">
        <ele>1414.6</ele>
        <time>2013-06-16T12:30:24Z</time>
        <sat>7</sat>
      </trkpt>
      <trkpt lat="46.416920" lon="7.105680">
        <ele>1414.3</ele>
        <time>2013-06-16T12:30:25Z</time>
        <sat>7</sat>
      </trkpt>
      <trkpt lat="46.417010" lon="7.105712">
        <ele>1414.1</ele>
        <time>2013-06-16T12:30:26Z</time>
        <sat>7</sat>
      </trkpt>
      <trkpt lat="46.417098" lon="7.105745">
        <ele>1414.0</ele>
        <time>2013-06-16T12:30:27Z</time>
        <sat>7</sat>
      </trkpt>
      <trkpt lat="46.417187" lon="7.105775">
        <ele>1413.9</ele>
        <time>2013-06-16T12:30:28Z</time>
        <sat>7</sat>
      </trkpt>
      <trkpt lat="46.417277" lon="7.105808">
        <ele>1413.7</ele>
        <time>2013-06-16T12:30:29Z</time>
        <sat>7</sat>
      </trkpt>
      <trkpt lat="46.417365" lon="7.105840">
        <ele>1413.6</ele>
        <time>2013-06-16T12:30:30Z</time>
        <sat>7</sat>
      </trkpt>
      <trkpt lat="46.417453" lon="7.105870">
        <ele>1413.3</ele>
        <time>2013-06-16T12:30:31Z</time>
        <sat>7</sat>
      </trkpt>
      <trkpt lat="46.417540" lon="7.105902">
        <ele>1413.0</ele>
        <time>2013-06-16T12:30:32Z</time>
        <sat>7</sat>
      </trkpt>
      <trkpt lat="46.417627" lon="7.105930">
        <ele>1412.9</ele>
        <time>2013-06-16T12:30:33Z</time>
        <sat>7</sat>
      </trkpt>
      <trkpt lat="46.417712" lon="7.105962">
        <ele>1412.8</ele>
        <time>2013-06-16T12:30:34Z</time>
        <sat>7</sat>
      </trkpt>
      <trkpt lat="46.417797" lon="7.105992">
        <ele>1412.8</ele>
        <time>2013-06-16T12:30:35Z</time>
        <sat>7</sat>
      </trkpt>
      <trkpt lat="46.417880" lon="7.106023">
        <ele>1413.3</ele>
        <time>2013-06-16T12:30:36Z</time>
        <sat>7</sat>
      </trkpt>
      <trkpt lat="46.417962" lon="7.106052">
        <ele>1413.7</ele>
        <time>2013-06-16T12:30:37Z</time>
        <sat>7</sat>
      </trkpt>
      <trkpt lat="46.418043" lon="7.106082">
        <ele>1414.0</ele>
        <time>2013-06-16T12:30:38Z</time>
        <sat>7</sat>
      </trkpt>
      <trkpt lat="46.418123" lon="7.106112">
        <ele>1414.2</ele>
        <time>2013-06-16T12:30:39Z</time>
        <sat>7</sat>
      </trkpt>
      <trkpt lat="46.418202" lon="7.106140">
        <ele>1414.3</ele>
        <time>2013-06-16T12:30:40Z</time>
        <sat>7</sat>
      </trkpt>
      <trkpt lat="46.418278" lon="7.106172">
        <ele>1414.2</ele>
        <time>2013-06-16T12:30:41Z</time>
        <sat>7</sat>
      </trkpt>
      <trkpt lat="46.418355" lon="7.106202">
        <ele>1414.2</ele>
        <time>2013-06-16T12:30:42Z</time>
        <sat>7</sat>
      </trkpt>
      <trkpt lat="46.418430" lon="7.106230">
        <ele>1414.2</ele>
        <time>2013-06-16T12:30:43Z</time>
        <sat>7</sat>
      </trkpt>
      <trkpt lat="46.418505" lon="7.106257">
        <ele>1414.3</ele>
        <time>2013-06-16T12:30:44Z</time>
        <sat>7</sat>
      </trkpt>
      <trkpt lat="46.418580" lon="7.106285">
        <ele>1414.5</ele>
        <time>2013-06-16T12:30:45Z</time>
        <sat>7</sat>
      </trkpt>
      <trkpt lat="46.418655" lon="7.106310">
        <ele>1414.6</ele>
        <time>2013-06-16T12:30:46Z</time>
        <sat>7</sat>
      </trkpt>
      <trkpt lat="46.418728" lon="7.106338">
        <ele>1414.7</ele>
        <time>2013-06-16T12:30:47Z</time>
        <sat>7</sat>
      </trkpt>
      <trkpt lat="46.418800" lon="7.106367">
        <ele>1414.6</ele>
        <time>2013-06-16T12:30:48Z</time>
        <sat>7</sat>
      </trkpt>
      <trkpt lat="46.418872" lon="7.106393">
        <ele>1414.5</ele>
        <time>2013-06-16T12:30:49Z</time>
        <sat>7</sat>
      </trkpt>
      <trkpt lat="46.418942" lon="7.106422">
        <ele>1414.5</ele>
        <time>2013-06-16T12:30:50Z</time>
        <sat>7</sat>
      </trkpt>
      <trkpt lat="46.419010" lon="7.106448">
        <ele>1414.5</ele>
        <time>2013-06-16T12:30:51Z</time>
        <sat>7</sat>
      </trkpt>
      <trkpt lat="46.419078" lon="7.106477">
        <ele>1414.5</ele>
        <time>2013-06-16T12:30:52Z</time>
        <sat>7</sat>
      </trkpt>
      <trkpt lat="46.419147" lon="7.106500">
        <ele>1414.8</ele>
        <time>2013-06-16T12:30:53Z</time>
        <sat>7</sat>
      </trkpt>
      <trkpt lat="46.419212" lon="7.106525">
        <ele>1415.0</ele>
        <time>2013-06-16T12:30:54Z</time>
        <sat>7</sat>
      </trkpt>
      <trkpt lat="46.419265" lon="7.106568">
        <ele>1415.2</ele>
        <time>2013-06-16T12:30:55Z</time>
        <sat>7</sat>
      </trkpt>
      <trkpt lat="46.419298" lon="7.106630">
        <ele>1415.3</ele>
        <time>2013-06-16T12:30:56Z</time>
        <sat>7</sat>
      </trkpt>
      <trkpt lat="46.419320" lon="7.106755">
        <ele>1415.5</ele>
        <time>2013-06-16T12:30:58Z</time>
        <sat>7</sat>
      </trkpt>
      <trkpt lat="46.419350" lon="7.106870">
        <ele>1416.5</ele>
        <time>2013-06-16T12:31:01Z</time>
        <sat>7</sat>
      </trkpt>
      <trkpt lat="46.419373" lon="7.106897">
        <ele>1416.6</ele>
        <time>2013-06-16T12:31:18Z</time>
        <sat>7</sat>
      </trkpt>
      <trkpt lat="46.419373" lon="7.106895">
        <ele>1416.5</ele>
        <time>2013-06-16T12:31:20Z</time>
        <sat>7</sat>
      </trkpt>
    </trkseg>
  </trk>
</gpx>
